<?xml version="1.0" encoding="UTF-8" standalone="no" ?>
<gpx xmlns="http://www.topografix.com/GPX/1/1" xmlns:xsi="http://www.w3.org/2001/XMLSchema-instance" xsi:schemaLocation="http://www.topografix.com/GPX/1/1 http://www.topografix.com/GPX/1/1/gpx.xsd" version="1.1" creator="VisuGPX - https://www.visugpx.com">
  <metadata>
    <name>Malauzat  - Pas Peyrol GTMC</name>
  </metadata>
  <trk>
    <name><![CDATA[Clermont - Pas Peyrol GTMC]]></name>
    <extensions>
      <line xmlns="http://www.topografix.com/GPX/gpx_style/0/2">
        <color>0000FF</color>
        <width>4</width>
      </line>
    </extensions>
    <trkseg>
      <trkpt lat="45.84803" lon="3.05206">
        <ele>505.449126</ele>
        <time>2022-04-22T16:04:51.507Z</time>
      </trkpt>
      <trkpt lat="45.84802" lon="3.05201">
        <ele>505.449126</ele>
        <time>2022-04-22T16:04:51.958Z</time>
      </trkpt>
      <trkpt lat="45.84779" lon="3.05201">
        <ele>505.449126</ele>
        <time>2022-04-22T16:04:55.786Z</time>
      </trkpt>
      <trkpt lat="45.84734" lon="3.05128">
        <ele>505.254889</ele>
        <time>2022-04-22T16:05:03.260Z</time>
      </trkpt>
      <trkpt lat="45.84727" lon="3.0509">
        <ele>504.122981</ele>
        <time>2022-04-22T16:05:06.219Z</time>
      </trkpt>
      <trkpt lat="45.84744" lon="3.05038">
        <ele>502.456865</ele>
        <time>2022-04-22T16:05:10.611Z</time>
      </trkpt>
      <trkpt lat="45.84792" lon="3.0496">
        <ele>499.438786</ele>
        <time>2022-04-22T16:05:18.518Z</time>
      </trkpt>
      <trkpt lat="45.84832" lon="3.04913">
        <ele>497.671228</ele>
        <time>2022-04-22T16:05:24.190Z</time>
      </trkpt>
      <trkpt lat="45.84844" lon="3.04899">
        <ele>497.386681</ele>
        <time>2022-04-22T16:05:25.982Z</time>
      </trkpt>
      <trkpt lat="45.84882" lon="3.04851">
        <ele>496.492071</ele>
        <time>2022-04-22T16:05:31.999Z</time>
      </trkpt>
      <trkpt lat="45.8494" lon="3.04755">
        <ele>494.906492</ele>
        <time>2022-04-22T16:05:43.873Z</time>
      </trkpt>
      <trkpt lat="45.84989" lon="3.04685">
        <ele>495.646598</ele>
        <time>2022-04-22T16:05:57.022Z</time>
      </trkpt>
      <trkpt lat="45.85011" lon="3.04645">
        <ele>496.182248</ele>
        <time>2022-04-22T16:06:04.262Z</time>
      </trkpt>
      <trkpt lat="45.85018" lon="3.04643">
        <ele>496.274834</ele>
        <time>2022-04-22T16:06:05.185Z</time>
      </trkpt>
      <trkpt lat="45.85016" lon="3.0463">
        <ele>496.415324</ele>
        <time>2022-04-22T16:06:09.347Z</time>
      </trkpt>
      <trkpt lat="45.85006" lon="3.04622">
        <ele>496.572513</ele>
        <time>2022-04-22T16:06:12.365Z</time>
      </trkpt>
      <trkpt lat="45.84972" lon="3.04619">
        <ele>497.083032</ele>
        <time>2022-04-22T16:06:23.544Z</time>
      </trkpt>
      <trkpt lat="45.84931" lon="3.04623">
        <ele>498.33374</ele>
        <time>2022-04-22T16:06:37.368Z</time>
      </trkpt>
      <trkpt lat="45.84869" lon="3.04651">
        <ele>501.458489</ele>
        <time>2022-04-22T16:07:07.332Z</time>
      </trkpt>
      <trkpt lat="45.84849" lon="3.04648">
        <ele>502.44473</ele>
        <time>2022-04-22T16:07:17.321Z</time>
      </trkpt>
      <trkpt lat="45.84843" lon="3.04629">
        <ele>503.151472</ele>
        <time>2022-04-22T16:07:24.061Z</time>
      </trkpt>
      <trkpt lat="45.84845" lon="3.04589">
        <ele>504.501161</ele>
        <time>2022-04-22T16:07:36.907Z</time>
      </trkpt>
      <trkpt lat="45.84851" lon="3.04562">
        <ele>505.470135</ele>
        <time>2022-04-22T16:07:45.292Z</time>
      </trkpt>
      <trkpt lat="45.84857" lon="3.04554">
        <ele>505.866994</ele>
        <time>2022-04-22T16:07:49.931Z</time>
      </trkpt>
      <trkpt lat="45.84942" lon="3.04476">
        <ele>515.063869</ele>
        <time>2022-04-22T16:08:41.276Z</time>
      </trkpt>
      <trkpt lat="45.8502" lon="3.04382">
        <ele>524.956027</ele>
        <time>2022-04-22T16:10:01.062Z</time>
      </trkpt>
      <trkpt lat="45.85031" lon="3.04362">
        <ele>526.973646</ele>
        <time>2022-04-22T16:10:12.590Z</time>
      </trkpt>
      <trkpt lat="45.85029" lon="3.04328">
        <ele>529.740792</ele>
        <time>2022-04-22T16:10:32.833Z</time>
      </trkpt>
      <trkpt lat="45.85025" lon="3.04299">
        <ele>532.083603</ele>
        <time>2022-04-22T16:10:46.216Z</time>
      </trkpt>
      <trkpt lat="45.85019" lon="3.04286">
        <ele>533.385575</ele>
        <time>2022-04-22T16:10:56.961Z</time>
      </trkpt>
      <trkpt lat="45.85004" lon="3.0428">
        <ele>535.104881</ele>
        <time>2022-04-22T16:11:06.295Z</time>
      </trkpt>
      <trkpt lat="45.84848" lon="3.04265">
        <ele>548.607023</ele>
        <time>2022-04-22T16:12:49.928Z</time>
      </trkpt>
      <trkpt lat="45.84826" lon="3.04266">
        <ele>549.931585</ele>
        <time>2022-04-22T16:12:58.503Z</time>
      </trkpt>
      <trkpt lat="45.84787" lon="3.0428">
        <ele>552.349243</ele>
        <time>2022-04-22T16:13:13.341Z</time>
      </trkpt>
      <trkpt lat="45.84712" lon="3.04315">
        <ele>556.210486</ele>
        <time>2022-04-22T16:13:39.664Z</time>
      </trkpt>
      <trkpt lat="45.84654" lon="3.04319">
        <ele>558.467662</ele>
        <time>2022-04-22T16:13:58.498Z</time>
      </trkpt>
      <trkpt lat="45.84615" lon="3.04312">
        <ele>560.04102</ele>
        <time>2022-04-22T16:14:17.164Z</time>
      </trkpt>
      <trkpt lat="45.84599" lon="3.04268">
        <ele>561.375654</ele>
        <time>2022-04-22T16:14:35.285Z</time>
      </trkpt>
      <trkpt lat="45.84577" lon="3.04254">
        <ele>563.280839</ele>
        <time>2022-04-22T16:14:47.216Z</time>
      </trkpt>
      <trkpt lat="45.84547" lon="3.04238">
        <ele>566.319355</ele>
        <time>2022-04-22T16:15:05.754Z</time>
      </trkpt>
      <trkpt lat="45.84521" lon="3.04195">
        <ele>569.938568</ele>
        <time>2022-04-22T16:15:31.157Z</time>
      </trkpt>
      <trkpt lat="45.84513" lon="3.04168">
        <ele>571.801561</ele>
        <time>2022-04-22T16:15:46.987Z</time>
      </trkpt>
      <trkpt lat="45.84502" lon="3.04108">
        <ele>575.816529</ele>
        <time>2022-04-22T16:16:13.870Z</time>
      </trkpt>
      <trkpt lat="45.84481" lon="3.04088">
        <ele>578.100106</ele>
        <time>2022-04-22T16:16:31.822Z</time>
      </trkpt>
      <trkpt lat="45.84473" lon="3.0407">
        <ele>579.377429</ele>
        <time>2022-04-22T16:16:39.639Z</time>
      </trkpt>
      <trkpt lat="45.84459" lon="3.04061">
        <ele>580.688973</ele>
        <time>2022-04-22T16:16:51.830Z</time>
      </trkpt>
      <trkpt lat="45.8445" lon="3.04019">
        <ele>583.265749</ele>
        <time>2022-04-22T16:17:11.531Z</time>
      </trkpt>
      <trkpt lat="45.84524" lon="3.04018">
        <ele>589.498564</ele>
        <time>2022-04-22T16:17:47.158Z</time>
      </trkpt>
      <trkpt lat="45.84537" lon="3.04001">
        <ele>590.982493</ele>
        <time>2022-04-22T16:17:54.971Z</time>
      </trkpt>
      <trkpt lat="45.8454" lon="3.03922">
        <ele>595.003362</ele>
        <time>2022-04-22T16:18:19.655Z</time>
      </trkpt>
      <trkpt lat="45.8454" lon="3.03914">
        <ele>595.319598</ele>
        <time>2022-04-22T16:18:21.807Z</time>
      </trkpt>
      <trkpt lat="45.84542" lon="3.03842">
        <ele>598.355198</ele>
        <time>2022-04-22T16:18:41.915Z</time>
      </trkpt>
      <trkpt lat="45.84556" lon="3.03789">
        <ele>600.768553</ele>
        <time>2022-04-22T16:18:58.415Z</time>
      </trkpt>
      <trkpt lat="45.84559" lon="3.0378">
        <ele>601.199175</ele>
        <time>2022-04-22T16:19:01.311Z</time>
      </trkpt>
      <trkpt lat="45.84563" lon="3.03772">
        <ele>601.604007</ele>
        <time>2022-04-22T16:19:03.991Z</time>
      </trkpt>
      <trkpt lat="45.84568" lon="3.0376">
        <ele>602.171611</ele>
        <time>2022-04-22T16:19:07.711Z</time>
      </trkpt>
      <trkpt lat="45.8457" lon="3.03755">
        <ele>602.434709</ele>
        <time>2022-04-22T16:19:09.412Z</time>
      </trkpt>
      <trkpt lat="45.84594" lon="3.03681">
        <ele>605.425489</ele>
        <time>2022-04-22T16:19:30.242Z</time>
      </trkpt>
      <trkpt lat="45.84619" lon="3.03618">
        <ele>607.669036</ele>
        <time>2022-04-22T16:19:46.783Z</time>
      </trkpt>
      <trkpt lat="45.84641" lon="3.03586">
        <ele>609.044363</ele>
        <time>2022-04-22T16:19:57.014Z</time>
      </trkpt>
      <trkpt lat="45.84655" lon="3.03565">
        <ele>609.933929</ele>
        <time>2022-04-22T16:20:03.704Z</time>
      </trkpt>
      <trkpt lat="45.84643" lon="3.03541">
        <ele>610.862879</ele>
        <time>2022-04-22T16:20:09.358Z</time>
      </trkpt>
      <trkpt lat="45.84657" lon="3.03516">
        <ele>611.842323</ele>
        <time>2022-04-22T16:20:17.453Z</time>
      </trkpt>
      <trkpt lat="45.84646" lon="3.03492">
        <ele>612.802231</ele>
        <time>2022-04-22T16:20:23.429Z</time>
      </trkpt>
      <trkpt lat="45.84646" lon="3.03476">
        <ele>613.373306</ele>
        <time>2022-04-22T16:20:28.144Z</time>
      </trkpt>
      <trkpt lat="45.84647" lon="3.03463">
        <ele>613.817452</ele>
        <time>2022-04-22T16:20:31.103Z</time>
      </trkpt>
      <trkpt lat="45.8464" lon="3.03436">
        <ele>614.834494</ele>
        <time>2022-04-22T16:20:38.335Z</time>
      </trkpt>
      <trkpt lat="45.84666" lon="3.03444">
        <ele>616.162334</ele>
        <time>2022-04-22T16:20:48.026Z</time>
      </trkpt>
      <trkpt lat="45.84671" lon="3.03454">
        <ele>616.596586</ele>
        <time>2022-04-22T16:20:51.471Z</time>
      </trkpt>
      <trkpt lat="45.84685" lon="3.03426">
        <ele>617.792236</ele>
        <time>2022-04-22T16:20:59.979Z</time>
      </trkpt>
      <trkpt lat="45.84689" lon="3.03419">
        <ele>618.102637</ele>
        <time>2022-04-22T16:21:02.065Z</time>
      </trkpt>
      <trkpt lat="45.84756" lon="3.03302">
        <ele>623.408758</ele>
        <time>2022-04-22T16:21:42.313Z</time>
      </trkpt>
      <trkpt lat="45.84806" lon="3.03347">
        <ele>626.366761</ele>
        <time>2022-04-22T16:22:04.311Z</time>
      </trkpt>
      <trkpt lat="45.84831" lon="3.03363">
        <ele>627.758528</ele>
        <time>2022-04-22T16:22:14.697Z</time>
      </trkpt>
      <trkpt lat="45.84859" lon="3.03387">
        <ele>629.393208</ele>
        <time>2022-04-22T16:22:26.302Z</time>
      </trkpt>
      <trkpt lat="45.84891" lon="3.0341">
        <ele>631.145888</ele>
        <time>2022-04-22T16:22:37.827Z</time>
      </trkpt>
      <trkpt lat="45.84928" lon="3.03428">
        <ele>633.052197</ele>
        <time>2022-04-22T16:22:49.676Z</time>
      </trkpt>
      <trkpt lat="45.84944" lon="3.03428">
        <ele>633.793015</ele>
        <time>2022-04-22T16:22:54.484Z</time>
      </trkpt>
      <trkpt lat="45.84977" lon="3.0341">
        <ele>635.472891</ele>
        <time>2022-04-22T16:23:08.687Z</time>
      </trkpt>
      <trkpt lat="45.85078" lon="3.03301">
        <ele>642.789623</ele>
        <time>2022-04-22T16:24:11.726Z</time>
      </trkpt>
      <trkpt lat="45.85107" lon="3.03254">
        <ele>645.877829</ele>
        <time>2022-04-22T16:24:35.972Z</time>
      </trkpt>
      <trkpt lat="45.85144" lon="3.03129">
        <ele>652.701189</ele>
        <time>2022-04-22T16:25:28.184Z</time>
      </trkpt>
      <trkpt lat="45.85198" lon="3.03104">
        <ele>657.477947</ele>
        <time>2022-04-22T16:26:00.126Z</time>
      </trkpt>
      <trkpt lat="45.85229" lon="3.03129">
        <ele>660.466721</ele>
        <time>2022-04-22T16:26:20.122Z</time>
      </trkpt>
      <trkpt lat="45.85243" lon="3.03129">
        <ele>661.607243</ele>
        <time>2022-04-22T16:26:28.094Z</time>
      </trkpt>
      <trkpt lat="45.85271" lon="3.03118">
        <ele>664.05707</ele>
        <time>2022-04-22T16:26:46.356Z</time>
      </trkpt>
      <trkpt lat="45.85286" lon="3.03098">
        <ele>665.806676</ele>
        <time>2022-04-22T16:26:59.702Z</time>
      </trkpt>
      <trkpt lat="45.85289" lon="3.03001">
        <ele>672.737543</ele>
        <time>2022-04-22T16:27:44.308Z</time>
      </trkpt>
      <trkpt lat="45.85304" lon="3.02971">
        <ele>675.436653</ele>
        <time>2022-04-22T16:28:01.531Z</time>
      </trkpt>
      <trkpt lat="45.85316" lon="3.02961">
        <ele>676.978906</ele>
        <time>2022-04-22T16:28:12.284Z</time>
      </trkpt>
      <trkpt lat="45.8537" lon="3.02837">
        <ele>687.310078</ele>
        <time>2022-04-22T16:29:24.164Z</time>
      </trkpt>
      <trkpt lat="45.85457" lon="3.02682">
        <ele>699.114724</ele>
        <time>2022-04-22T16:30:47.564Z</time>
      </trkpt>
      <trkpt lat="45.85479" lon="3.02631">
        <ele>702.196828</ele>
        <time>2022-04-22T16:31:07.415Z</time>
      </trkpt>
      <trkpt lat="45.8552" lon="3.02602">
        <ele>704.937553</ele>
        <time>2022-04-22T16:31:27.868Z</time>
      </trkpt>
      <trkpt lat="45.85556" lon="3.0253">
        <ele>708.618399</ele>
        <time>2022-04-22T16:31:57.477Z</time>
      </trkpt>
      <trkpt lat="45.85613" lon="3.02446">
        <ele>713.893761</ele>
        <time>2022-04-22T16:32:38.888Z</time>
      </trkpt>
      <trkpt lat="45.85627" lon="3.02396">
        <ele>716.669443</ele>
        <time>2022-04-22T16:32:59.963Z</time>
      </trkpt>
      <trkpt lat="45.85639" lon="3.02383">
        <ele>717.804075</ele>
        <time>2022-04-22T16:33:09.592Z</time>
      </trkpt>
      <trkpt lat="45.85672" lon="3.02359">
        <ele>720.575754</ele>
        <time>2022-04-22T16:33:26.584Z</time>
      </trkpt>
      <trkpt lat="45.85685" lon="3.0234">
        <ele>721.983648</ele>
        <time>2022-04-22T16:33:34.779Z</time>
      </trkpt>
      <trkpt lat="45.85711" lon="3.02226">
        <ele>728.002371</ele>
        <time>2022-04-22T16:34:14.554Z</time>
      </trkpt>
      <trkpt lat="45.8572" lon="3.02192">
        <ele>729.77181</ele>
        <time>2022-04-22T16:34:26.536Z</time>
      </trkpt>
      <trkpt lat="45.85732" lon="3.02178">
        <ele>730.822809</ele>
        <time>2022-04-22T16:34:32.862Z</time>
      </trkpt>
      <trkpt lat="45.85747" lon="3.02161">
        <ele>732.140811</ele>
        <time>2022-04-22T16:34:41.691Z</time>
      </trkpt>
      <trkpt lat="45.85773" lon="3.02113">
        <ele>735.144226</ele>
        <time>2022-04-22T16:35:00.338Z</time>
      </trkpt>
      <trkpt lat="45.85856" lon="3.01921">
        <ele>742.38965</ele>
        <time>2022-04-22T16:36:03.083Z</time>
      </trkpt>
      <trkpt lat="45.85839" lon="3.01856">
        <ele>744.258496</ele>
        <time>2022-04-22T16:36:15.121Z</time>
      </trkpt>
      <trkpt lat="45.85862" lon="3.01822">
        <ele>743.735694</ele>
        <time>2022-04-22T16:36:20.436Z</time>
      </trkpt>
      <trkpt lat="45.85975" lon="3.01586">
        <ele>733.781815</ele>
        <time>2022-04-22T16:36:42.354Z</time>
      </trkpt>
      <trkpt lat="45.85994" lon="3.01536">
        <ele>731.337464</ele>
        <time>2022-04-22T16:36:46.597Z</time>
      </trkpt>
      <trkpt lat="45.86001" lon="3.01481">
        <ele>728.968956</ele>
        <time>2022-04-22T16:36:50.806Z</time>
      </trkpt>
      <trkpt lat="45.86031" lon="3.01503">
        <ele>726.894915</ele>
        <time>2022-04-22T16:36:54.403Z</time>
      </trkpt>
      <trkpt lat="45.86165" lon="3.01574">
        <ele>719.264369</ele>
        <time>2022-04-22T16:37:09.572Z</time>
      </trkpt>
      <trkpt lat="45.86183" lon="3.01572">
        <ele>718.349278</ele>
        <time>2022-04-22T16:37:11.535Z</time>
      </trkpt>
      <trkpt lat="45.86219" lon="3.01558">
        <ele>716.447332</ele>
        <time>2022-04-22T16:37:15.534Z</time>
      </trkpt>
      <trkpt lat="45.86267" lon="3.01516">
        <ele>712.857063</ele>
        <time>2022-04-22T16:37:21.768Z</time>
      </trkpt>
      <trkpt lat="45.86303" lon="3.01451">
        <ele>709.048061</ele>
        <time>2022-04-22T16:37:27.890Z</time>
      </trkpt>
      <trkpt lat="45.86379" lon="3.01361">
        <ele>702.745938</ele>
        <time>2022-04-22T16:37:38.551Z</time>
      </trkpt>
      <trkpt lat="45.86418" lon="3.01331">
        <ele>700.337556</ele>
        <time>2022-04-22T16:37:43.330Z</time>
      </trkpt>
      <trkpt lat="45.8651" lon="3.01298">
        <ele>695.049545</ele>
        <time>2022-04-22T16:37:54.032Z</time>
      </trkpt>
      <trkpt lat="45.8654" lon="3.01262">
        <ele>693.255609</ele>
        <time>2022-04-22T16:37:58.568Z</time>
      </trkpt>
      <trkpt lat="45.86582" lon="3.01168">
        <ele>690.151538</ele>
        <time>2022-04-22T16:38:07.853Z</time>
      </trkpt>
      <trkpt lat="45.86633" lon="3.01133">
        <ele>687.894462</ele>
        <time>2022-04-22T16:38:14.605Z</time>
      </trkpt>
      <trkpt lat="45.86705" lon="3.01105">
        <ele>684.687011</ele>
        <time>2022-04-22T16:38:23.401Z</time>
      </trkpt>
      <trkpt lat="45.86858" lon="3.01068">
        <ele>677.856558</ele>
        <time>2022-04-22T16:38:41.240Z</time>
      </trkpt>
      <trkpt lat="45.86881" lon="3.0108">
        <ele>676.782253</ele>
        <time>2022-04-22T16:38:44.058Z</time>
      </trkpt>
      <trkpt lat="45.86905" lon="3.01092">
        <ele>675.634534</ele>
        <time>2022-04-22T16:38:47.063Z</time>
      </trkpt>
      <trkpt lat="45.86956" lon="3.01147">
        <ele>672.828356</ele>
        <time>2022-04-22T16:38:54.465Z</time>
      </trkpt>
      <trkpt lat="45.86971" lon="3.01196">
        <ele>671.209851</ele>
        <time>2022-04-22T16:38:58.768Z</time>
      </trkpt>
      <trkpt lat="45.86959" lon="3.01273">
        <ele>669.145013</ele>
        <time>2022-04-22T16:39:04.902Z</time>
      </trkpt>
      <trkpt lat="45.8688" lon="3.01427">
        <ele>664.263291</ele>
        <time>2022-04-22T16:39:19.970Z</time>
      </trkpt>
      <trkpt lat="45.86814" lon="3.01579">
        <ele>660.108045</ele>
        <time>2022-04-22T16:39:34.250Z</time>
      </trkpt>
      <trkpt lat="45.86796" lon="3.0165">
        <ele>658.348091</ele>
        <time>2022-04-22T16:39:40.324Z</time>
      </trkpt>
      <trkpt lat="45.86816" lon="3.01679">
        <ele>657.363769</ele>
        <time>2022-04-22T16:39:46.049Z</time>
      </trkpt>
      <trkpt lat="45.86841" lon="3.01734">
        <ele>655.772873</ele>
        <time>2022-04-22T16:39:55.406Z</time>
      </trkpt>
      <trkpt lat="45.86878" lon="3.01759">
        <ele>654.344039</ele>
        <time>2022-04-22T16:40:03.687Z</time>
      </trkpt>
      <trkpt lat="45.8691" lon="3.01761">
        <ele>653.215304</ele>
        <time>2022-04-22T16:40:10.234Z</time>
      </trkpt>
      <trkpt lat="45.86939" lon="3.0175">
        <ele>652.167126</ele>
        <time>2022-04-22T16:40:16.278Z</time>
      </trkpt>
      <trkpt lat="45.87022" lon="3.01693">
        <ele>648.085929</ele>
        <time>2022-04-22T16:40:35.117Z</time>
      </trkpt>
      <trkpt lat="45.87052" lon="3.01688">
        <ele>646.727196</ele>
        <time>2022-04-22T16:40:41.125Z</time>
      </trkpt>
      <trkpt lat="45.87088" lon="3.01693">
        <ele>645.155097</ele>
        <time>2022-04-22T16:40:47.882Z</time>
      </trkpt>
      <trkpt lat="45.87143" lon="3.01716">
        <ele>642.047513</ele>
        <time>2022-04-22T16:40:58.522Z</time>
      </trkpt>
      <trkpt lat="45.8717" lon="3.01762">
        <ele>639.57482</ele>
        <time>2022-04-22T16:41:06.230Z</time>
      </trkpt>
      <trkpt lat="45.87183" lon="3.01809">
        <ele>637.459364</ele>
        <time>2022-04-22T16:41:12.823Z</time>
      </trkpt>
      <trkpt lat="45.87205" lon="3.01858">
        <ele>635.053058</ele>
        <time>2022-04-22T16:41:20.312Z</time>
      </trkpt>
      <trkpt lat="45.87229" lon="3.01888">
        <ele>633.305952</ele>
        <time>2022-04-22T16:41:26.411Z</time>
      </trkpt>
      <trkpt lat="45.87335" lon="3.01955">
        <ele>629.391481</ele>
        <time>2022-04-22T16:41:49.528Z</time>
      </trkpt>
      <trkpt lat="45.87418" lon="3.01979">
        <ele>626.743456</ele>
        <time>2022-04-22T16:42:08.698Z</time>
      </trkpt>
      <trkpt lat="45.87457" lon="3.01985">
        <ele>625.724368</ele>
        <time>2022-04-22T16:42:17.507Z</time>
      </trkpt>
      <trkpt lat="45.87484" lon="3.01973">
        <ele>624.990899</ele>
        <time>2022-04-22T16:42:23.776Z</time>
      </trkpt>
      <trkpt lat="45.87525" lon="3.0195">
        <ele>623.843287</ele>
        <time>2022-04-22T16:42:33.294Z</time>
      </trkpt>
      <trkpt lat="45.87577" lon="3.01895">
        <ele>621.689528</ele>
        <time>2022-04-22T16:42:46.028Z</time>
      </trkpt>
      <trkpt lat="45.87611" lon="3.01873">
        <ele>619.953317</ele>
        <time>2022-04-22T16:42:53.197Z</time>
      </trkpt>
      <trkpt lat="45.87643" lon="3.0188">
        <ele>618.430583</ele>
        <time>2022-04-22T16:42:59.414Z</time>
      </trkpt>
      <trkpt lat="45.87692" lon="3.01919">
        <ele>615.838789</ele>
        <time>2022-04-22T16:43:10.049Z</time>
      </trkpt>
      <trkpt lat="45.8776" lon="3.02014">
        <ele>612.623035</ele>
        <time>2022-04-22T16:43:29.032Z</time>
      </trkpt>
      <trkpt lat="45.87778" lon="3.02056">
        <ele>611.672866</ele>
        <time>2022-04-22T16:43:36.153Z</time>
      </trkpt>
      <trkpt lat="45.8778" lon="3.02112">
        <ele>610.594464</ele>
        <time>2022-04-22T16:43:44.973Z</time>
      </trkpt>
      <trkpt lat="45.87774" lon="3.02148">
        <ele>609.885093</ele>
        <time>2022-04-22T16:43:50.933Z</time>
      </trkpt>
      <trkpt lat="45.87733" lon="3.02205">
        <ele>608.55588</ele>
        <time>2022-04-22T16:44:03.930Z</time>
      </trkpt>
      <trkpt lat="45.87672" lon="3.02243">
        <ele>607.126968</ele>
        <time>2022-04-22T16:44:18.610Z</time>
      </trkpt>
      <trkpt lat="45.87656" lon="3.02249">
        <ele>606.787877</ele>
        <time>2022-04-22T16:44:20.616Z</time>
      </trkpt>
      <trkpt lat="45.87636" lon="3.02277">
        <ele>606.190591</ele>
        <time>2022-04-22T16:44:24.180Z</time>
      </trkpt>
      <trkpt lat="45.87627" lon="3.023">
        <ele>605.791645</ele>
        <time>2022-04-22T16:44:26.495Z</time>
      </trkpt>
      <trkpt lat="45.87622" lon="3.02343">
        <ele>604.991022</ele>
        <time>2022-04-22T16:44:30.308Z</time>
      </trkpt>
      <trkpt lat="45.87614" lon="3.02505">
        <ele>601.773278</ele>
        <time>2022-04-22T16:44:43.975Z</time>
      </trkpt>
      <trkpt lat="45.87604" lon="3.02535">
        <ele>601.111488</ele>
        <time>2022-04-22T16:44:46.834Z</time>
      </trkpt>
      <trkpt lat="45.87593" lon="3.02577">
        <ele>600.601967</ele>
        <time>2022-04-22T16:44:53.419Z</time>
      </trkpt>
      <trkpt lat="45.8757" lon="3.02641">
        <ele>601.681287</ele>
        <time>2022-04-22T16:45:05.839Z</time>
      </trkpt>
      <trkpt lat="45.87536" lon="3.02696">
        <ele>602.790174</ele>
        <time>2022-04-22T16:45:21.705Z</time>
      </trkpt>
      <trkpt lat="45.87499" lon="3.02711">
        <ele>603.621867</ele>
        <time>2022-04-22T16:45:36.758Z</time>
      </trkpt>
      <trkpt lat="45.87524" lon="3.02731">
        <ele>604.235727</ele>
        <time>2022-04-22T16:45:50.327Z</time>
      </trkpt>
      <trkpt lat="45.87594" lon="3.02751">
        <ele>612.200384</ele>
        <time>2022-04-22T16:46:31.626Z</time>
      </trkpt>
      <trkpt lat="45.87725" lon="3.02754">
        <ele>628.334437</ele>
        <time>2022-04-22T16:48:21.013Z</time>
      </trkpt>
      <trkpt lat="45.87845" lon="3.02772">
        <ele>646.95725</ele>
        <time>2022-04-22T16:50:10.923Z</time>
      </trkpt>
      <trkpt lat="45.87934" lon="3.02776">
        <ele>658.380491</ele>
        <time>2022-04-22T16:51:24.715Z</time>
      </trkpt>
      <trkpt lat="45.87977" lon="3.02787">
        <ele>663.18673</ele>
        <time>2022-04-22T16:51:55.958Z</time>
      </trkpt>
      <trkpt lat="45.8802" lon="3.02821">
        <ele>668.514694</ele>
        <time>2022-04-22T16:52:25.921Z</time>
      </trkpt>
      <trkpt lat="45.88062" lon="3.02872">
        <ele>674.151605</ele>
        <time>2022-04-22T16:52:57.545Z</time>
      </trkpt>
      <trkpt lat="45.88118" lon="3.02807">
        <ele>680.542116</ele>
        <time>2022-04-22T16:53:37.906Z</time>
      </trkpt>
      <trkpt lat="45.88128" lon="3.02792">
        <ele>681.813551</ele>
        <time>2022-04-22T16:53:47.240Z</time>
      </trkpt>
      <trkpt lat="45.88142" lon="3.02782">
        <ele>683.262521</ele>
        <time>2022-04-22T16:53:55.767Z</time>
      </trkpt>
      <trkpt lat="45.88227" lon="3.02761">
        <ele>691.722781</ele>
        <time>2022-04-22T16:54:52.484Z</time>
      </trkpt>
      <trkpt lat="45.88253" lon="3.02764">
        <ele>694.84458</ele>
        <time>2022-04-22T16:55:11.010Z</time>
      </trkpt>
      <trkpt lat="45.88299" lon="3.02748">
        <ele>700.450668</ele>
        <time>2022-04-22T16:55:50.570Z</time>
      </trkpt>
      <trkpt lat="45.88306" lon="3.02724">
        <ele>702.618283</ele>
        <time>2022-04-22T16:56:02.355Z</time>
      </trkpt>
      <trkpt lat="45.88296" lon="3.02699">
        <ele>704.95449</ele>
        <time>2022-04-22T16:56:19.114Z</time>
      </trkpt>
      <trkpt lat="45.8825" lon="3.02625">
        <ele>712.413389</ele>
        <time>2022-04-22T16:57:09.207Z</time>
      </trkpt>
      <trkpt lat="45.88232" lon="3.02581">
        <ele>715.397567</ele>
        <time>2022-04-22T16:57:33.576Z</time>
      </trkpt>
      <trkpt lat="45.88231" lon="3.02562">
        <ele>716.497924</ele>
        <time>2022-04-22T16:57:41.183Z</time>
      </trkpt>
      <trkpt lat="45.88277" lon="3.02467">
        <ele>723.230643</ele>
        <time>2022-04-22T16:58:27.108Z</time>
      </trkpt>
      <trkpt lat="45.88297" lon="3.02441">
        <ele>725.428852</ele>
        <time>2022-04-22T16:58:39.264Z</time>
      </trkpt>
      <trkpt lat="45.88402" lon="3.02392">
        <ele>729.881033</ele>
        <time>2022-04-22T16:59:22.648Z</time>
      </trkpt>
      <trkpt lat="45.8841" lon="3.02379">
        <ele>730.394696</ele>
        <time>2022-04-22T16:59:28.134Z</time>
      </trkpt>
      <trkpt lat="45.88423" lon="3.02372">
        <ele>730.945992</ele>
        <time>2022-04-22T16:59:33.336Z</time>
      </trkpt>
      <trkpt lat="45.88571" lon="3.0236">
        <ele>735.606102</ele>
        <time>2022-04-22T17:00:34.671Z</time>
      </trkpt>
      <trkpt lat="45.88633" lon="3.0222">
        <ele>737.592767</ele>
        <time>2022-04-22T17:01:00.300Z</time>
      </trkpt>
      <trkpt lat="45.88641" lon="3.02175">
        <ele>737.512401</ele>
        <time>2022-04-22T17:01:05.950Z</time>
      </trkpt>
      <trkpt lat="45.8868" lon="3.02035">
        <ele>737.253045</ele>
        <time>2022-04-22T17:01:22.185Z</time>
      </trkpt>
      <trkpt lat="45.88792" lon="3.01933">
        <ele>735.159799</ele>
        <time>2022-04-22T17:01:41.129Z</time>
      </trkpt>
      <trkpt lat="45.88799" lon="3.01902">
        <ele>734.803872</ele>
        <time>2022-04-22T17:01:44.498Z</time>
      </trkpt>
      <trkpt lat="45.88851" lon="3.01814">
        <ele>733.776958</ele>
        <time>2022-04-22T17:01:56.031Z</time>
      </trkpt>
      <trkpt lat="45.88853" lon="3.01805">
        <ele>733.705598</ele>
        <time>2022-04-22T17:01:56.885Z</time>
      </trkpt>
      <trkpt lat="45.88851" lon="3.01797">
        <ele>733.635467</ele>
        <time>2022-04-22T17:01:57.744Z</time>
      </trkpt>
      <trkpt lat="45.88819" lon="3.01755">
        <ele>733.156705</ele>
        <time>2022-04-22T17:02:04.234Z</time>
      </trkpt>
      <trkpt lat="45.88792" lon="3.01701">
        <ele>732.629735</ele>
        <time>2022-04-22T17:02:11.691Z</time>
      </trkpt>
      <trkpt lat="45.88774" lon="3.0168">
        <ele>732.376135</ele>
        <time>2022-04-22T17:02:15.095Z</time>
      </trkpt>
      <trkpt lat="45.88767" lon="3.01649">
        <ele>732.565457</ele>
        <time>2022-04-22T17:02:20.791Z</time>
      </trkpt>
      <trkpt lat="45.88772" lon="3.01634">
        <ele>732.668586</ele>
        <time>2022-04-22T17:02:23.612Z</time>
      </trkpt>
      <trkpt lat="45.88808" lon="3.01639">
        <ele>732.984122</ele>
        <time>2022-04-22T17:02:29.842Z</time>
      </trkpt>
      <trkpt lat="45.88881" lon="3.01614">
        <ele>733.639074</ele>
        <time>2022-04-22T17:02:45.381Z</time>
      </trkpt>
      <trkpt lat="45.88939" lon="3.01604">
        <ele>734.58676</ele>
        <time>2022-04-22T17:03:00.165Z</time>
      </trkpt>
      <trkpt lat="45.88976" lon="3.01587">
        <ele>735.633133</ele>
        <time>2022-04-22T17:03:09.497Z</time>
      </trkpt>
      <trkpt lat="45.88986" lon="3.0157">
        <ele>736.042516</ele>
        <time>2022-04-22T17:03:13.384Z</time>
      </trkpt>
      <trkpt lat="45.89004" lon="3.01507">
        <ele>737.340471</ele>
        <time>2022-04-22T17:03:25.821Z</time>
      </trkpt>
      <trkpt lat="45.89016" lon="3.01421">
        <ele>739.064191</ele>
        <time>2022-04-22T17:03:44.672Z</time>
      </trkpt>
      <trkpt lat="45.89029" lon="3.01409">
        <ele>739.652081</ele>
        <time>2022-04-22T17:03:49.538Z</time>
      </trkpt>
      <trkpt lat="45.89068" lon="3.01386">
        <ele>741.348189</ele>
        <time>2022-04-22T17:04:03.154Z</time>
      </trkpt>
      <trkpt lat="45.89078" lon="3.01373">
        <ele>741.873736</ele>
        <time>2022-04-22T17:04:06.966Z</time>
      </trkpt>
      <trkpt lat="45.89086" lon="3.01348">
        <ele>742.634718</ele>
        <time>2022-04-22T17:04:13.310Z</time>
      </trkpt>
      <trkpt lat="45.891" lon="3.01368">
        <ele>743.392204</ele>
        <time>2022-04-22T17:04:21.118Z</time>
      </trkpt>
      <trkpt lat="45.8911" lon="3.01392">
        <ele>744.179321</ele>
        <time>2022-04-22T17:04:29.684Z</time>
      </trkpt>
      <trkpt lat="45.89127" lon="3.01371">
        <ele>745.057653</ele>
        <time>2022-04-22T17:04:38.945Z</time>
      </trkpt>
      <trkpt lat="45.89183" lon="3.01312">
        <ele>747.627742</ele>
        <time>2022-04-22T17:05:08.530Z</time>
      </trkpt>
      <trkpt lat="45.89204" lon="3.01282">
        <ele>748.664164</ele>
        <time>2022-04-22T17:05:20.890Z</time>
      </trkpt>
      <trkpt lat="45.89232" lon="3.01214">
        <ele>750.618629</ele>
        <time>2022-04-22T17:05:42.036Z</time>
      </trkpt>
      <trkpt lat="45.89285" lon="3.01131">
        <ele>753.205171</ele>
        <time>2022-04-22T17:06:10.817Z</time>
      </trkpt>
      <trkpt lat="45.89407" lon="3.00864">
        <ele>759.764558</ele>
        <time>2022-04-22T17:07:32.868Z</time>
      </trkpt>
      <trkpt lat="45.89479" lon="3.00758">
        <ele>762.970265</ele>
        <time>2022-04-22T17:08:12.369Z</time>
      </trkpt>
      <trkpt lat="45.89504" lon="3.00728">
        <ele>763.977239</ele>
        <time>2022-04-22T17:08:25.220Z</time>
      </trkpt>
      <trkpt lat="45.89568" lon="3.0068">
        <ele>766.224155</ele>
        <time>2022-04-22T17:08:54.080Z</time>
      </trkpt>
      <trkpt lat="45.89596" lon="3.00649">
        <ele>767.298682</ele>
        <time>2022-04-22T17:09:07.379Z</time>
      </trkpt>
      <trkpt lat="45.89642" lon="3.00529">
        <ele>769.189968</ele>
        <time>2022-04-22T17:09:40.792Z</time>
      </trkpt>
      <trkpt lat="45.89686" lon="3.00409">
        <ele>770.153429</ele>
        <time>2022-04-22T17:10:09.319Z</time>
      </trkpt>
      <trkpt lat="45.89766" lon="3.00222">
        <ele>767.526149</ele>
        <time>2022-04-22T17:10:44.422Z</time>
      </trkpt>
      <trkpt lat="45.89795" lon="3.00184">
        <ele>766.529904</ele>
        <time>2022-04-22T17:10:52.351Z</time>
      </trkpt>
      <trkpt lat="45.89801" lon="3.00199">
        <ele>766.229634</ele>
        <time>2022-04-22T17:10:53.737Z</time>
      </trkpt>
      <trkpt lat="45.89977" lon="3.00088">
        <ele>754.106771</ele>
        <time>2022-04-22T17:11:29.056Z</time>
      </trkpt>
      <trkpt lat="45.90003" lon="3.00091">
        <ele>752.598504</ele>
        <time>2022-04-22T17:11:33.700Z</time>
      </trkpt>
      <trkpt lat="45.90047" lon="3.0012">
        <ele>749.710258</ele>
        <time>2022-04-22T17:11:42.665Z</time>
      </trkpt>
      <trkpt lat="45.90072" lon="3.00122">
        <ele>748.254278</ele>
        <time>2022-04-22T17:11:47.259Z</time>
      </trkpt>
      <trkpt lat="45.90104" lon="3.00121">
        <ele>746.346154</ele>
        <time>2022-04-22T17:11:53.320Z</time>
      </trkpt>
      <trkpt lat="45.90289" lon="3.00082">
        <ele>737.906625</ele>
        <time>2022-04-22T17:12:30.136Z</time>
      </trkpt>
      <trkpt lat="45.90338" lon="3.00009">
        <ele>735.363787</ele>
        <time>2022-04-22T17:12:44.419Z</time>
      </trkpt>
      <trkpt lat="45.90436" lon="2.9984">
        <ele>730.83859</ele>
        <time>2022-04-22T17:13:17.065Z</time>
      </trkpt>
      <trkpt lat="45.90469" lon="2.99729">
        <ele>728.722365</ele>
        <time>2022-04-22T17:13:34.167Z</time>
      </trkpt>
      <trkpt lat="45.90513" lon="2.99631">
        <ele>726.692886</ele>
        <time>2022-04-22T17:13:51.558Z</time>
      </trkpt>
      <trkpt lat="45.90536" lon="2.99627">
        <ele>726.572073</ele>
        <time>2022-04-22T17:13:54.852Z</time>
      </trkpt>
      <trkpt lat="45.90545" lon="2.99628">
        <ele>726.650682</ele>
        <time>2022-04-22T17:13:56.272Z</time>
      </trkpt>
      <trkpt lat="45.90556" lon="2.99632">
        <ele>726.747899</ele>
        <time>2022-04-22T17:13:57.997Z</time>
      </trkpt>
      <trkpt lat="45.90557" lon="2.99636">
        <ele>726.77573</ele>
        <time>2022-04-22T17:13:58.442Z</time>
      </trkpt>
      <trkpt lat="45.9056" lon="2.99612">
        <ele>726.924614</ele>
        <time>2022-04-22T17:14:02.674Z</time>
      </trkpt>
      <trkpt lat="45.90551" lon="2.99517">
        <ele>727.506082</ele>
        <time>2022-04-22T17:14:20.075Z</time>
      </trkpt>
      <trkpt lat="45.90548" lon="2.9951">
        <ele>727.552802</ele>
        <time>2022-04-22T17:14:21.701Z</time>
      </trkpt>
      <trkpt lat="45.90506" lon="2.99443">
        <ele>728.555516</ele>
        <time>2022-04-22T17:14:44.692Z</time>
      </trkpt>
      <trkpt lat="45.90497" lon="2.99419">
        <ele>729.653058</ele>
        <time>2022-04-22T17:14:53.258Z</time>
      </trkpt>
      <trkpt lat="45.90464" lon="2.99381">
        <ele>732.055647</ele>
        <time>2022-04-22T17:15:13.173Z</time>
      </trkpt>
      <trkpt lat="45.90432" lon="2.99328">
        <ele>734.873527</ele>
        <time>2022-04-22T17:15:38.493Z</time>
      </trkpt>
      <trkpt lat="45.9035" lon="2.99081">
        <ele>746.99336</ele>
        <time>2022-04-22T17:17:19.041Z</time>
      </trkpt>
      <trkpt lat="45.90316" lon="2.99015">
        <ele>750.781842</ele>
        <time>2022-04-22T17:17:48.671Z</time>
      </trkpt>
      <trkpt lat="45.90293" lon="2.98953">
        <ele>753.480855</ele>
        <time>2022-04-22T17:18:13.185Z</time>
      </trkpt>
      <trkpt lat="45.90285" lon="2.98926">
        <ele>754.605622</ele>
        <time>2022-04-22T17:18:23.013Z</time>
      </trkpt>
      <trkpt lat="45.90265" lon="2.98788">
        <ele>760.035429</ele>
        <time>2022-04-22T17:19:09.386Z</time>
      </trkpt>
      <trkpt lat="45.90234" lon="2.98703">
        <ele>762.121559</ele>
        <time>2022-04-22T17:19:36.280Z</time>
      </trkpt>
      <trkpt lat="45.90236" lon="2.9869">
        <ele>762.385902</ele>
        <time>2022-04-22T17:19:38.644Z</time>
      </trkpt>
      <trkpt lat="45.90239" lon="2.98662">
        <ele>762.979925</ele>
        <time>2022-04-22T17:19:43.941Z</time>
      </trkpt>
      <trkpt lat="45.9027" lon="2.98583">
        <ele>764.844181</ele>
        <time>2022-04-22T17:20:00.103Z</time>
      </trkpt>
      <trkpt lat="45.90296" lon="2.98554">
        <ele>765.813477</ele>
        <time>2022-04-22T17:20:07.741Z</time>
      </trkpt>
      <trkpt lat="45.90323" lon="2.98545">
        <ele>766.60931</ele>
        <time>2022-04-22T17:20:13.912Z</time>
      </trkpt>
      <trkpt lat="45.90331" lon="2.98521">
        <ele>767.126117</ele>
        <time>2022-04-22T17:20:18.233Z</time>
      </trkpt>
      <trkpt lat="45.90332" lon="2.98488">
        <ele>767.802114</ele>
        <time>2022-04-22T17:20:27.077Z</time>
      </trkpt>
      <trkpt lat="45.90351" lon="2.98437">
        <ele>768.942519</ele>
        <time>2022-04-22T17:20:41.447Z</time>
      </trkpt>
      <trkpt lat="45.90365" lon="2.98361">
        <ele>770.513378</ele>
        <time>2022-04-22T17:21:02.198Z</time>
      </trkpt>
      <trkpt lat="45.90367" lon="2.98344">
        <ele>770.898119</ele>
        <time>2022-04-22T17:21:07.467Z</time>
      </trkpt>
      <trkpt lat="45.9038" lon="2.9829">
        <ele>772.636342</ele>
        <time>2022-04-22T17:21:25.298Z</time>
      </trkpt>
      <trkpt lat="45.9039" lon="2.98202">
        <ele>775.385219</ele>
        <time>2022-04-22T17:21:53.101Z</time>
      </trkpt>
      <trkpt lat="45.90409" lon="2.9811">
        <ele>778.315086</ele>
        <time>2022-04-22T17:22:22.852Z</time>
      </trkpt>
      <trkpt lat="45.90366" lon="2.98072">
        <ele>779.695148</ele>
        <time>2022-04-22T17:22:42.114Z</time>
      </trkpt>
      <trkpt lat="45.90323" lon="2.98016">
        <ele>781.119344</ele>
        <time>2022-04-22T17:23:03.544Z</time>
      </trkpt>
      <trkpt lat="45.90257" lon="2.97905">
        <ele>783.158701</ele>
        <time>2022-04-22T17:23:35.671Z</time>
      </trkpt>
      <trkpt lat="45.9017" lon="2.97789">
        <ele>783.617151</ele>
        <time>2022-04-22T17:24:06.730Z</time>
      </trkpt>
      <trkpt lat="45.90154" lon="2.97762">
        <ele>783.712026</ele>
        <time>2022-04-22T17:24:12.879Z</time>
      </trkpt>
      <trkpt lat="45.90138" lon="2.97714">
        <ele>783.981465</ele>
        <time>2022-04-22T17:24:22.293Z</time>
      </trkpt>
      <trkpt lat="45.90105" lon="2.97601">
        <ele>784.791504</ele>
        <time>2022-04-22T17:24:44.406Z</time>
      </trkpt>
      <trkpt lat="45.9007" lon="2.97461">
        <ele>786.651947</ele>
        <time>2022-04-22T17:25:18.863Z</time>
      </trkpt>
      <trkpt lat="45.90071" lon="2.97425">
        <ele>787.613341</ele>
        <time>2022-04-22T17:25:28.874Z</time>
      </trkpt>
      <trkpt lat="45.9005" lon="2.97359">
        <ele>789.507825</ele>
        <time>2022-04-22T17:25:45.186Z</time>
      </trkpt>
      <trkpt lat="45.89978" lon="2.97207">
        <ele>794.707636</ele>
        <time>2022-04-22T17:26:32.125Z</time>
      </trkpt>
      <trkpt lat="45.89926" lon="2.97085">
        <ele>799.032588</ele>
        <time>2022-04-22T17:27:07.355Z</time>
      </trkpt>
      <trkpt lat="45.89896" lon="2.96995">
        <ele>801.269196</ele>
        <time>2022-04-22T17:27:28.211Z</time>
      </trkpt>
      <trkpt lat="45.89859" lon="2.96859">
        <ele>803.871634</ele>
        <time>2022-04-22T17:27:55.307Z</time>
      </trkpt>
      <trkpt lat="45.89822" lon="2.96705">
        <ele>806.120344</ele>
        <time>2022-04-22T17:28:22.590Z</time>
      </trkpt>
      <trkpt lat="45.89804" lon="2.96612">
        <ele>807.280622</ele>
        <time>2022-04-22T17:28:38.402Z</time>
      </trkpt>
      <trkpt lat="45.89793" lon="2.96412">
        <ele>809.663387</ele>
        <time>2022-04-22T17:29:12.676Z</time>
      </trkpt>
      <trkpt lat="45.89788" lon="2.96398">
        <ele>809.849252</ele>
        <time>2022-04-22T17:29:15.327Z</time>
      </trkpt>
      <trkpt lat="45.89775" lon="2.96327">
        <ele>810.726619</ele>
        <time>2022-04-22T17:29:27.172Z</time>
      </trkpt>
      <trkpt lat="45.89759" lon="2.9627">
        <ele>811.363487</ele>
        <time>2022-04-22T17:29:36.788Z</time>
      </trkpt>
      <trkpt lat="45.89723" lon="2.96141">
        <ele>812.708752</ele>
        <time>2022-04-22T17:29:58.547Z</time>
      </trkpt>
      <trkpt lat="45.89721" lon="2.96081">
        <ele>813.293208</ele>
        <time>2022-04-22T17:30:07.871Z</time>
      </trkpt>
      <trkpt lat="45.89739" lon="2.96004">
        <ele>814.3893</ele>
        <time>2022-04-22T17:30:20.912Z</time>
      </trkpt>
      <trkpt lat="45.89742" lon="2.95923">
        <ele>815.559106</ele>
        <time>2022-04-22T17:30:34.829Z</time>
      </trkpt>
      <trkpt lat="45.89739" lon="2.95854">
        <ele>816.555833</ele>
        <time>2022-04-22T17:30:47.276Z</time>
      </trkpt>
      <trkpt lat="45.89736" lon="2.95814">
        <ele>817.129683</ele>
        <time>2022-04-22T17:30:54.537Z</time>
      </trkpt>
      <trkpt lat="45.89706" lon="2.9573">
        <ele>820.542442</ele>
        <time>2022-04-22T17:31:14.931Z</time>
      </trkpt>
      <trkpt lat="45.89705" lon="2.9567">
        <ele>822.723763</ele>
        <time>2022-04-22T17:31:30.581Z</time>
      </trkpt>
      <trkpt lat="45.89685" lon="2.95581">
        <ele>826.13942</ele>
        <time>2022-04-22T17:31:56.534Z</time>
      </trkpt>
      <trkpt lat="45.89684" lon="2.95563">
        <ele>826.933451</ele>
        <time>2022-04-22T17:32:04.179Z</time>
      </trkpt>
      <trkpt lat="45.89605" lon="2.95455">
        <ele>836.317174</ele>
        <time>2022-04-22T17:33:14.685Z</time>
      </trkpt>
      <trkpt lat="45.89577" lon="2.95462">
        <ele>838.718385</ele>
        <time>2022-04-22T17:33:30.607Z</time>
      </trkpt>
      <trkpt lat="45.89564" lon="2.95457">
        <ele>839.944135</ele>
        <time>2022-04-22T17:33:41.450Z</time>
      </trkpt>
      <trkpt lat="45.89569" lon="2.95421">
        <ele>842.074558</ele>
        <time>2022-04-22T17:33:54.968Z</time>
      </trkpt>
      <trkpt lat="45.89596" lon="2.95341">
        <ele>843.394508</ele>
        <time>2022-04-22T17:34:25.297Z</time>
      </trkpt>
      <trkpt lat="45.89588" lon="2.95278">
        <ele>844.344023</ele>
        <time>2022-04-22T17:34:43.397Z</time>
      </trkpt>
      <trkpt lat="45.89577" lon="2.95232">
        <ele>845.060041</ele>
        <time>2022-04-22T17:34:51.588Z</time>
      </trkpt>
      <trkpt lat="45.89563" lon="2.95231">
        <ele>845.345193</ele>
        <time>2022-04-22T17:34:54.225Z</time>
      </trkpt>
      <trkpt lat="45.89547" lon="2.95191">
        <ele>845.615353</ele>
        <time>2022-04-22T17:35:00.642Z</time>
      </trkpt>
      <trkpt lat="45.89487" lon="2.95142">
        <ele>842.898107</ele>
        <time>2022-04-22T17:35:14.137Z</time>
      </trkpt>
      <trkpt lat="45.89495" lon="2.95106">
        <ele>841.845449</ele>
        <time>2022-04-22T17:35:19.181Z</time>
      </trkpt>
      <trkpt lat="45.89496" lon="2.95066">
        <ele>840.732098</ele>
        <time>2022-04-22T17:35:24.652Z</time>
      </trkpt>
      <trkpt lat="45.89471" lon="2.95057">
        <ele>839.678823</ele>
        <time>2022-04-22T17:35:30.086Z</time>
      </trkpt>
      <trkpt lat="45.89313" lon="2.95045">
        <ele>834.313331</ele>
        <time>2022-04-22T17:36:02.451Z</time>
      </trkpt>
      <trkpt lat="45.89318" lon="2.94884">
        <ele>830.879627</ele>
        <time>2022-04-22T17:36:25.852Z</time>
      </trkpt>
      <trkpt lat="45.89271" lon="2.9489">
        <ele>829.513073</ele>
        <time>2022-04-22T17:36:35.394Z</time>
      </trkpt>
      <trkpt lat="45.8926" lon="2.94859">
        <ele>828.797214</ele>
        <time>2022-04-22T17:36:40.321Z</time>
      </trkpt>
      <trkpt lat="45.89263" lon="2.94791">
        <ele>827.472968</ele>
        <time>2022-04-22T17:36:50.505Z</time>
      </trkpt>
      <trkpt lat="45.89252" lon="2.94764">
        <ele>827.134156</ele>
        <time>2022-04-22T17:36:55.209Z</time>
      </trkpt>
      <trkpt lat="45.89236" lon="2.94753">
        <ele>826.855205</ele>
        <time>2022-04-22T17:36:57.729Z</time>
      </trkpt>
      <trkpt lat="45.89209" lon="2.94706">
        <ele>826.203062</ele>
        <time>2022-04-22T17:37:03.426Z</time>
      </trkpt>
      <trkpt lat="45.89192" lon="2.94691">
        <ele>825.879455</ele>
        <time>2022-04-22T17:37:06.218Z</time>
      </trkpt>
      <trkpt lat="45.89155" lon="2.94672">
        <ele>825.266721</ele>
        <time>2022-04-22T17:37:11.645Z</time>
      </trkpt>
      <trkpt lat="45.89114" lon="2.94677">
        <ele>824.729426</ele>
        <time>2022-04-22T17:37:17.300Z</time>
      </trkpt>
      <trkpt lat="45.89102" lon="2.94668">
        <ele>824.708687</ele>
        <time>2022-04-22T17:37:19.286Z</time>
      </trkpt>
      <trkpt lat="45.89116" lon="2.94642">
        <ele>824.673113</ele>
        <time>2022-04-22T17:37:22.635Z</time>
      </trkpt>
      <trkpt lat="45.89124" lon="2.94587">
        <ele>824.612413</ele>
        <time>2022-04-22T17:37:28.422Z</time>
      </trkpt>
      <trkpt lat="45.89102" lon="2.94558">
        <ele>824.566753</ele>
        <time>2022-04-22T17:37:33.126Z</time>
      </trkpt>
      <trkpt lat="45.89086" lon="2.94519">
        <ele>824.51812</ele>
        <time>2022-04-22T17:37:38.265Z</time>
      </trkpt>
      <trkpt lat="45.89053" lon="2.94388">
        <ele>825.498565</ele>
        <time>2022-04-22T17:37:56.256Z</time>
      </trkpt>
      <trkpt lat="45.89035" lon="2.94336">
        <ele>826.191619</ele>
        <time>2022-04-22T17:38:05.710Z</time>
      </trkpt>
      <trkpt lat="45.89009" lon="2.94218">
        <ele>827.757347</ele>
        <time>2022-04-22T17:38:28.048Z</time>
      </trkpt>
      <trkpt lat="45.88959" lon="2.94131">
        <ele>830.062127</ele>
        <time>2022-04-22T17:38:50.366Z</time>
      </trkpt>
      <trkpt lat="45.88913" lon="2.9408">
        <ele>831.767993</ele>
        <time>2022-04-22T17:39:07.383Z</time>
      </trkpt>
      <trkpt lat="45.88876" lon="2.94058">
        <ele>832.877138</ele>
        <time>2022-04-22T17:39:19.527Z</time>
      </trkpt>
      <trkpt lat="45.88724" lon="2.9406">
        <ele>835.060624</ele>
        <time>2022-04-22T17:39:54.938Z</time>
      </trkpt>
      <trkpt lat="45.88696" lon="2.94064">
        <ele>835.317633</ele>
        <time>2022-04-22T17:39:58.928Z</time>
      </trkpt>
      <trkpt lat="45.88642" lon="2.94071">
        <ele>834.44661</ele>
        <time>2022-04-22T17:40:06.734Z</time>
      </trkpt>
      <trkpt lat="45.88637" lon="2.94091">
        <ele>834.210447</ele>
        <time>2022-04-22T17:40:08.558Z</time>
      </trkpt>
      <trkpt lat="45.8862" lon="2.94106">
        <ele>833.890959</ele>
        <time>2022-04-22T17:40:11.659Z</time>
      </trkpt>
      <trkpt lat="45.88617" lon="2.94125">
        <ele>833.667203</ele>
        <time>2022-04-22T17:40:13.289Z</time>
      </trkpt>
      <trkpt lat="45.88625" lon="2.94153">
        <ele>833.318074</ele>
        <time>2022-04-22T17:40:16.356Z</time>
      </trkpt>
      <trkpt lat="45.88623" lon="2.94172">
        <ele>833.109419</ele>
        <time>2022-04-22T17:40:17.851Z</time>
      </trkpt>
      <trkpt lat="45.88618" lon="2.94201">
        <ele>832.76992</ele>
        <time>2022-04-22T17:40:22.559Z</time>
      </trkpt>
      <trkpt lat="45.88596" lon="2.94205">
        <ele>832.37832</ele>
        <time>2022-04-22T17:40:27.001Z</time>
      </trkpt>
      <trkpt lat="45.88588" lon="2.94194">
        <ele>832.097683</ele>
        <time>2022-04-22T17:40:29.624Z</time>
      </trkpt>
      <trkpt lat="45.88547" lon="2.94231">
        <ele>830.897031</ele>
        <time>2022-04-22T17:40:39.916Z</time>
      </trkpt>
      <trkpt lat="45.88543" lon="2.94251">
        <ele>830.549869</ele>
        <time>2022-04-22T17:40:41.700Z</time>
      </trkpt>
      <trkpt lat="45.88521" lon="2.94287">
        <ele>829.704694</ele>
        <time>2022-04-22T17:40:46.423Z</time>
      </trkpt>
      <trkpt lat="45.88433" lon="2.94365">
        <ele>827.285943</ele>
        <time>2022-04-22T17:41:00.454Z</time>
      </trkpt>
      <trkpt lat="45.88412" lon="2.94412">
        <ele>826.479614</ele>
        <time>2022-04-22T17:41:05.625Z</time>
      </trkpt>
      <trkpt lat="45.88389" lon="2.94455">
        <ele>825.696644</ele>
        <time>2022-04-22T17:41:10.814Z</time>
      </trkpt>
      <trkpt lat="45.88366" lon="2.94486">
        <ele>825.033212</ele>
        <time>2022-04-22T17:41:15.334Z</time>
      </trkpt>
      <trkpt lat="45.88315" lon="2.9453">
        <ele>824.453232</ele>
        <time>2022-04-22T17:41:23.956Z</time>
      </trkpt>
      <trkpt lat="45.88285" lon="2.94503">
        <ele>824.746489</ele>
        <time>2022-04-22T17:41:29.440Z</time>
      </trkpt>
      <trkpt lat="45.88177" lon="2.94503">
        <ele>825.6318</ele>
        <time>2022-04-22T17:41:53.304Z</time>
      </trkpt>
      <trkpt lat="45.88124" lon="2.94484">
        <ele>827.302185</ele>
        <time>2022-04-22T17:42:11.258Z</time>
      </trkpt>
      <trkpt lat="45.88071" lon="2.94476">
        <ele>829.304193</ele>
        <time>2022-04-22T17:42:28.755Z</time>
      </trkpt>
      <trkpt lat="45.88036" lon="2.94478">
        <ele>830.638717</ele>
        <time>2022-04-22T17:42:43.290Z</time>
      </trkpt>
      <trkpt lat="45.88021" lon="2.94489">
        <ele>831.266498</ele>
        <time>2022-04-22T17:42:49.848Z</time>
      </trkpt>
      <trkpt lat="45.88014" lon="2.94506">
        <ele>831.770094</ele>
        <time>2022-04-22T17:42:56.013Z</time>
      </trkpt>
      <trkpt lat="45.87954" lon="2.94556">
        <ele>834.854844</ele>
        <time>2022-04-22T17:43:25.461Z</time>
      </trkpt>
      <trkpt lat="45.87929" lon="2.94591">
        <ele>836.502704</ele>
        <time>2022-04-22T17:43:40.048Z</time>
      </trkpt>
      <trkpt lat="45.87907" lon="2.94608">
        <ele>837.674085</ele>
        <time>2022-04-22T17:43:49.757Z</time>
      </trkpt>
      <trkpt lat="45.87808" lon="2.94641">
        <ele>842.896167</ele>
        <time>2022-04-22T17:44:38.201Z</time>
      </trkpt>
      <trkpt lat="45.87749" lon="2.9468">
        <ele>846.887583</ele>
        <time>2022-04-22T17:45:12.434Z</time>
      </trkpt>
      <trkpt lat="45.87698" lon="2.94736">
        <ele>850.873574</ele>
        <time>2022-04-22T17:45:45.741Z</time>
      </trkpt>
      <trkpt lat="45.87669" lon="2.94733">
        <ele>852.334846</ele>
        <time>2022-04-22T17:45:59.618Z</time>
      </trkpt>
      <trkpt lat="45.87655" lon="2.94721">
        <ele>852.770132</ele>
        <time>2022-04-22T17:46:06.737Z</time>
      </trkpt>
      <trkpt lat="45.87615" lon="2.94642">
        <ele>854.622725</ele>
        <time>2022-04-22T17:46:37.957Z</time>
      </trkpt>
      <trkpt lat="45.87571" lon="2.94445">
        <ele>856.315482</ele>
        <time>2022-04-22T17:47:14.527Z</time>
      </trkpt>
      <trkpt lat="45.87534" lon="2.94389">
        <ele>855.690579</ele>
        <time>2022-04-22T17:47:26.433Z</time>
      </trkpt>
      <trkpt lat="45.87521" lon="2.94354">
        <ele>855.362699</ele>
        <time>2022-04-22T17:47:32.725Z</time>
      </trkpt>
      <trkpt lat="45.87513" lon="2.94346">
        <ele>855.244891</ele>
        <time>2022-04-22T17:47:34.822Z</time>
      </trkpt>
      <trkpt lat="45.87551" lon="2.94191">
        <ele>854.131306</ele>
        <time>2022-04-22T17:48:00.517Z</time>
      </trkpt>
      <trkpt lat="45.87532" lon="2.94161">
        <ele>853.878672</ele>
        <time>2022-04-22T17:48:07.049Z</time>
      </trkpt>
      <trkpt lat="45.875" lon="2.94131">
        <ele>853.531468</ele>
        <time>2022-04-22T17:48:16.657Z</time>
      </trkpt>
      <trkpt lat="45.87451" lon="2.94099">
        <ele>853.680379</ele>
        <time>2022-04-22T17:48:31.028Z</time>
      </trkpt>
      <trkpt lat="45.87412" lon="2.94083">
        <ele>854.347024</ele>
        <time>2022-04-22T17:48:43.084Z</time>
      </trkpt>
      <trkpt lat="45.87316" lon="2.94066">
        <ele>855.927779</ele>
        <time>2022-04-22T17:49:15.074Z</time>
      </trkpt>
      <trkpt lat="45.87178" lon="2.94053">
        <ele>860.975613</ele>
        <time>2022-04-22T17:50:07.748Z</time>
      </trkpt>
      <trkpt lat="45.87085" lon="2.93999">
        <ele>865.337907</ele>
        <time>2022-04-22T17:50:56.266Z</time>
      </trkpt>
      <trkpt lat="45.87035" lon="2.93948">
        <ele>868.364649</ele>
        <time>2022-04-22T17:51:26.238Z</time>
      </trkpt>
      <trkpt lat="45.87006" lon="2.93989">
        <ele>870.38686</ele>
        <time>2022-04-22T17:51:40.917Z</time>
      </trkpt>
      <trkpt lat="45.86992" lon="2.94038">
        <ele>872.208216</ele>
        <time>2022-04-22T17:51:52.421Z</time>
      </trkpt>
      <trkpt lat="45.86976" lon="2.94096">
        <ele>872.997574</ele>
        <time>2022-04-22T17:52:04.726Z</time>
      </trkpt>
      <trkpt lat="45.86906" lon="2.94241">
        <ele>875.158817</ele>
        <time>2022-04-22T17:52:30.425Z</time>
      </trkpt>
      <trkpt lat="45.86853" lon="2.9442">
        <ele>876.092975</ele>
        <time>2022-04-22T17:53:08.408Z</time>
      </trkpt>
      <trkpt lat="45.868" lon="2.94556">
        <ele>875.829483</ele>
        <time>2022-04-22T17:53:37.916Z</time>
      </trkpt>
      <trkpt lat="45.86728" lon="2.94494">
        <ele>874.840387</ele>
        <time>2022-04-22T17:53:56.809Z</time>
      </trkpt>
      <trkpt lat="45.86658" lon="2.94444">
        <ele>873.836647</ele>
        <time>2022-04-22T17:54:13.609Z</time>
      </trkpt>
      <trkpt lat="45.86602" lon="2.94378">
        <ele>872.8054</ele>
        <time>2022-04-22T17:54:29.560Z</time>
      </trkpt>
      <trkpt lat="45.86556" lon="2.94309">
        <ele>871.861782</ele>
        <time>2022-04-22T17:54:45.351Z</time>
      </trkpt>
      <trkpt lat="45.86469" lon="2.94179">
        <ele>870.767753</ele>
        <time>2022-04-22T17:55:16.373Z</time>
      </trkpt>
      <trkpt lat="45.86383" lon="2.94076">
        <ele>869.460452</ele>
        <time>2022-04-22T17:55:41.762Z</time>
      </trkpt>
      <trkpt lat="45.86349" lon="2.94023">
        <ele>868.667337</ele>
        <time>2022-04-22T17:55:52.566Z</time>
      </trkpt>
      <trkpt lat="45.86322" lon="2.9399">
        <ele>868.095935</ele>
        <time>2022-04-22T17:56:00.418Z</time>
      </trkpt>
      <trkpt lat="45.86293" lon="2.93936">
        <ele>867.381258</ele>
        <time>2022-04-22T17:56:10.981Z</time>
      </trkpt>
      <trkpt lat="45.86292" lon="2.93903">
        <ele>867.360237</ele>
        <time>2022-04-22T17:56:16.430Z</time>
      </trkpt>
      <trkpt lat="45.86373" lon="2.93497">
        <ele>868.308441</ele>
        <time>2022-04-22T17:57:34.380Z</time>
      </trkpt>
      <trkpt lat="45.86289" lon="2.93209">
        <ele>872.675858</ele>
        <time>2022-04-22T17:58:48.726Z</time>
      </trkpt>
      <trkpt lat="45.86257" lon="2.93187">
        <ele>873.652786</ele>
        <time>2022-04-22T17:59:02.468Z</time>
      </trkpt>
      <trkpt lat="45.86192" lon="2.9319">
        <ele>875.472749</ele>
        <time>2022-04-22T17:59:27.825Z</time>
      </trkpt>
      <trkpt lat="45.86173" lon="2.93205">
        <ele>876.083509</ele>
        <time>2022-04-22T17:59:36.033Z</time>
      </trkpt>
      <trkpt lat="45.86093" lon="2.93239">
        <ele>878.050157</ele>
        <time>2022-04-22T18:00:05.592Z</time>
      </trkpt>
      <trkpt lat="45.86023" lon="2.9322">
        <ele>878.979489</ele>
        <time>2022-04-22T18:00:27.128Z</time>
      </trkpt>
      <trkpt lat="45.86004" lon="2.93155">
        <ele>879.619533</ele>
        <time>2022-04-22T18:00:41.364Z</time>
      </trkpt>
      <trkpt lat="45.86026" lon="2.93014">
        <ele>880.602492</ele>
        <time>2022-04-22T18:01:09.955Z</time>
      </trkpt>
      <trkpt lat="45.86044" lon="2.92859">
        <ele>881.480923</ele>
        <time>2022-04-22T18:01:41.695Z</time>
      </trkpt>
      <trkpt lat="45.86012" lon="2.92592">
        <ele>882.857187</ele>
        <time>2022-04-22T18:02:35.010Z</time>
      </trkpt>
      <trkpt lat="45.86012" lon="2.92542">
        <ele>882.959523</ele>
        <time>2022-04-22T18:02:44.794Z</time>
      </trkpt>
      <trkpt lat="45.86018" lon="2.92505">
        <ele>883.038252</ele>
        <time>2022-04-22T18:02:52.053Z</time>
      </trkpt>
      <trkpt lat="45.86017" lon="2.92459">
        <ele>883.13403</ele>
        <time>2022-04-22T18:03:00.651Z</time>
      </trkpt>
      <trkpt lat="45.86006" lon="2.92418">
        <ele>883.226182</ele>
        <time>2022-04-22T18:03:08.428Z</time>
      </trkpt>
      <trkpt lat="45.85982" lon="2.92388">
        <ele>883.318879</ele>
        <time>2022-04-22T18:03:16.235Z</time>
      </trkpt>
      <trkpt lat="45.85963" lon="2.9227">
        <ele>884.129245</ele>
        <time>2022-04-22T18:03:38.751Z</time>
      </trkpt>
      <trkpt lat="45.85964" lon="2.92214">
        <ele>884.584242</ele>
        <time>2022-04-22T18:03:50.771Z</time>
      </trkpt>
      <trkpt lat="45.85952" lon="2.92136">
        <ele>885.24155</ele>
        <time>2022-04-22T18:04:08.332Z</time>
      </trkpt>
      <trkpt lat="45.85944" lon="2.92114">
        <ele>885.440087</ele>
        <time>2022-04-22T18:04:14.216Z</time>
      </trkpt>
      <trkpt lat="45.85938" lon="2.92109">
        <ele>885.562928</ele>
        <time>2022-04-22T18:04:16.516Z</time>
      </trkpt>
      <trkpt lat="45.85888" lon="2.92128">
        <ele>886.939932</ele>
        <time>2022-04-22T18:04:34.670Z</time>
      </trkpt>
      <trkpt lat="45.85848" lon="2.9214">
        <ele>887.998982</ele>
        <time>2022-04-22T18:04:50.072Z</time>
      </trkpt>
      <trkpt lat="45.85822" lon="2.92169">
        <ele>888.864473</ele>
        <time>2022-04-22T18:05:02.778Z</time>
      </trkpt>
      <trkpt lat="45.85774" lon="2.92206">
        <ele>890.277899</ele>
        <time>2022-04-22T18:05:23.338Z</time>
      </trkpt>
      <trkpt lat="45.85679" lon="2.92249">
        <ele>891.059405</ele>
        <time>2022-04-22T18:05:54.268Z</time>
      </trkpt>
      <trkpt lat="45.85535" lon="2.91975">
        <ele>890.605209</ele>
        <time>2022-04-22T18:06:52.190Z</time>
      </trkpt>
      <trkpt lat="45.85507" lon="2.91948">
        <ele>890.302634</ele>
        <time>2022-04-22T18:07:00.002Z</time>
      </trkpt>
      <trkpt lat="45.85428" lon="2.91798">
        <ele>888.729297</ele>
        <time>2022-04-22T18:07:30.211Z</time>
      </trkpt>
      <trkpt lat="45.8541" lon="2.91765">
        <ele>888.381346</ele>
        <time>2022-04-22T18:07:36.834Z</time>
      </trkpt>
      <trkpt lat="45.85403" lon="2.91764">
        <ele>888.288397</ele>
        <time>2022-04-22T18:07:38.427Z</time>
      </trkpt>
      <trkpt lat="45.85391" lon="2.91707">
        <ele>887.604827</ele>
        <time>2022-04-22T18:07:44.185Z</time>
      </trkpt>
      <trkpt lat="45.85379" lon="2.91593">
        <ele>886.281086</ele>
        <time>2022-04-22T18:07:55.081Z</time>
      </trkpt>
      <trkpt lat="45.85361" lon="2.91584">
        <ele>885.961422</ele>
        <time>2022-04-22T18:07:57.491Z</time>
      </trkpt>
      <trkpt lat="45.85332" lon="2.91542">
        <ele>885.287676</ele>
        <time>2022-04-22T18:08:02.627Z</time>
      </trkpt>
      <trkpt lat="45.85309" lon="2.91488">
        <ele>884.482269</ele>
        <time>2022-04-22T18:08:08.014Z</time>
      </trkpt>
      <trkpt lat="45.85269" lon="2.91427">
        <ele>883.402604</ele>
        <time>2022-04-22T18:08:15.297Z</time>
      </trkpt>
      <trkpt lat="45.85261" lon="2.91406">
        <ele>883.104215</ele>
        <time>2022-04-22T18:08:17.328Z</time>
      </trkpt>
      <trkpt lat="45.85257" lon="2.91374">
        <ele>882.687128</ele>
        <time>2022-04-22T18:08:20.204Z</time>
      </trkpt>
      <trkpt lat="45.85244" lon="2.91345">
        <ele>882.246802</ele>
        <time>2022-04-22T18:08:23.381Z</time>
      </trkpt>
      <trkpt lat="45.85239" lon="2.91324">
        <ele>882.014699</ele>
        <time>2022-04-22T18:08:25.305Z</time>
      </trkpt>
      <trkpt lat="45.85237" lon="2.91317">
        <ele>881.969486</ele>
        <time>2022-04-22T18:08:25.947Z</time>
      </trkpt>
      <trkpt lat="45.85218" lon="2.91332">
        <ele>881.768508</ele>
        <time>2022-04-22T18:08:29.120Z</time>
      </trkpt>
      <trkpt lat="45.85142" lon="2.91434">
        <ele>880.826043</ele>
        <time>2022-04-22T18:08:44.089Z</time>
      </trkpt>
      <trkpt lat="45.85094" lon="2.91471">
        <ele>880.442493</ele>
        <time>2022-04-22T18:08:52.364Z</time>
      </trkpt>
      <trkpt lat="45.85043" lon="2.91521">
        <ele>880.430906</ele>
        <time>2022-04-22T18:09:02.350Z</time>
      </trkpt>
      <trkpt lat="45.85" lon="2.91674">
        <ele>880.458383</ele>
        <time>2022-04-22T18:09:21.081Z</time>
      </trkpt>
      <trkpt lat="45.84987" lon="2.91693">
        <ele>880.564293</ele>
        <time>2022-04-22T18:09:24.158Z</time>
      </trkpt>
      <trkpt lat="45.84934" lon="2.91745">
        <ele>880.933075</ele>
        <time>2022-04-22T18:09:35.326Z</time>
      </trkpt>
      <trkpt lat="45.84908" lon="2.91788">
        <ele>881.15921</ele>
        <time>2022-04-22T18:09:42.825Z</time>
      </trkpt>
      <trkpt lat="45.84897" lon="2.91823">
        <ele>881.312762</ele>
        <time>2022-04-22T18:09:48.083Z</time>
      </trkpt>
      <trkpt lat="45.84875" lon="2.91953">
        <ele>882.444126</ele>
        <time>2022-04-22T18:10:08.105Z</time>
      </trkpt>
      <trkpt lat="45.84816" lon="2.9204">
        <ele>883.640716</ele>
        <time>2022-04-22T18:10:27.496Z</time>
      </trkpt>
      <trkpt lat="45.84758" lon="2.92081">
        <ele>883.959406</ele>
        <time>2022-04-22T18:10:41.744Z</time>
      </trkpt>
      <trkpt lat="45.84724" lon="2.92124">
        <ele>883.929099</ele>
        <time>2022-04-22T18:10:50.179Z</time>
      </trkpt>
      <trkpt lat="45.84665" lon="2.92198">
        <ele>883.877459</ele>
        <time>2022-04-22T18:11:01.767Z</time>
      </trkpt>
      <trkpt lat="45.84574" lon="2.92372">
        <ele>881.16274</ele>
        <time>2022-04-22T18:11:21.649Z</time>
      </trkpt>
      <trkpt lat="45.84484" lon="2.92502">
        <ele>879.005374</ele>
        <time>2022-04-22T18:11:38.098Z</time>
      </trkpt>
      <trkpt lat="45.8443" lon="2.92547">
        <ele>878.05025</ele>
        <time>2022-04-22T18:11:46.621Z</time>
      </trkpt>
      <trkpt lat="45.84415" lon="2.92552">
        <ele>877.820308</ele>
        <time>2022-04-22T18:11:48.747Z</time>
      </trkpt>
      <trkpt lat="45.84385" lon="2.92552">
        <ele>877.698063</ele>
        <time>2022-04-22T18:11:53.322Z</time>
      </trkpt>
      <trkpt lat="45.84301" lon="2.92516">
        <ele>878.972717</ele>
        <time>2022-04-22T18:12:10.087Z</time>
      </trkpt>
      <trkpt lat="45.84289" lon="2.92547">
        <ele>879.338663</ele>
        <time>2022-04-22T18:12:15.844Z</time>
      </trkpt>
      <trkpt lat="45.84168" lon="2.92744">
        <ele>885.338078</ele>
        <time>2022-04-22T18:13:10.306Z</time>
      </trkpt>
      <trkpt lat="45.84157" lon="2.92755">
        <ele>885.900229</ele>
        <time>2022-04-22T18:13:15.267Z</time>
      </trkpt>
      <trkpt lat="45.84113" lon="2.92772">
        <ele>887.836576</ele>
        <time>2022-04-22T18:13:32.991Z</time>
      </trkpt>
      <trkpt lat="45.84105" lon="2.92823">
        <ele>889.983815</ele>
        <time>2022-04-22T18:13:47.341Z</time>
      </trkpt>
      <trkpt lat="45.84107" lon="2.92882">
        <ele>892.397453</ele>
        <time>2022-04-22T18:14:03.710Z</time>
      </trkpt>
      <trkpt lat="45.84132" lon="2.92974">
        <ele>896.469239</ele>
        <time>2022-04-22T18:14:31.792Z</time>
      </trkpt>
      <trkpt lat="45.84089" lon="2.92981">
        <ele>898.805982</ele>
        <time>2022-04-22T18:14:50.131Z</time>
      </trkpt>
      <trkpt lat="45.84065" lon="2.92994">
        <ele>899.931563</ele>
        <time>2022-04-22T18:15:00.365Z</time>
      </trkpt>
      <trkpt lat="45.83891" lon="2.93056">
        <ele>907.370714</ele>
        <time>2022-04-22T18:15:56.882Z</time>
      </trkpt>
      <trkpt lat="45.83847" lon="2.93077">
        <ele>908.863113</ele>
        <time>2022-04-22T18:16:09.443Z</time>
      </trkpt>
      <trkpt lat="45.83814" lon="2.93103">
        <ele>910.076681</ele>
        <time>2022-04-22T18:16:19.865Z</time>
      </trkpt>
      <trkpt lat="45.83788" lon="2.93171">
        <ele>911.809115</ele>
        <time>2022-04-22T18:16:34.987Z</time>
      </trkpt>
      <trkpt lat="45.83771" lon="2.9327">
        <ele>914.9704</ele>
        <time>2022-04-22T18:16:56.660Z</time>
      </trkpt>
      <trkpt lat="45.83758" lon="2.93308">
        <ele>916.284839</ele>
        <time>2022-04-22T18:17:07.000Z</time>
      </trkpt>
      <trkpt lat="45.83714" lon="2.9337">
        <ele>918.995839</ele>
        <time>2022-04-22T18:17:29.142Z</time>
      </trkpt>
      <trkpt lat="45.83705" lon="2.93403">
        <ele>920.174767</ele>
        <time>2022-04-22T18:17:38.799Z</time>
      </trkpt>
      <trkpt lat="45.83691" lon="2.93427">
        <ele>921.363574</ele>
        <time>2022-04-22T18:17:47.419Z</time>
      </trkpt>
      <trkpt lat="45.83644" lon="2.93471">
        <ele>924.436465</ele>
        <time>2022-04-22T18:18:09.903Z</time>
      </trkpt>
      <trkpt lat="45.83612" lon="2.93514">
        <ele>926.839719</ele>
        <time>2022-04-22T18:18:26.692Z</time>
      </trkpt>
      <trkpt lat="45.83571" lon="2.93614">
        <ele>931.052399</ele>
        <time>2022-04-22T18:18:56.153Z</time>
      </trkpt>
      <trkpt lat="45.83511" lon="2.93772">
        <ele>936.996279</ele>
        <time>2022-04-22T18:19:40.790Z</time>
      </trkpt>
      <trkpt lat="45.83479" lon="2.93836">
        <ele>939.477679</ele>
        <time>2022-04-22T18:19:58.522Z</time>
      </trkpt>
      <trkpt lat="45.83462" lon="2.9387">
        <ele>940.754381</ele>
        <time>2022-04-22T18:20:08.255Z</time>
      </trkpt>
      <trkpt lat="45.83416" lon="2.93916">
        <ele>943.213353</ele>
        <time>2022-04-22T18:20:26.919Z</time>
      </trkpt>
      <trkpt lat="45.83345" lon="2.93919">
        <ele>946.319844</ele>
        <time>2022-04-22T18:20:51.260Z</time>
      </trkpt>
      <trkpt lat="45.83322" lon="2.93932">
        <ele>947.504968</ele>
        <time>2022-04-22T18:20:59.838Z</time>
      </trkpt>
      <trkpt lat="45.83237" lon="2.9402">
        <ele>952.438997</ele>
        <time>2022-04-22T18:21:34.737Z</time>
      </trkpt>
      <trkpt lat="45.83039" lon="2.94272">
        <ele>967.102297</ele>
        <time>2022-04-22T18:23:16.685Z</time>
      </trkpt>
      <trkpt lat="45.82906" lon="2.94365">
        <ele>976.367842</ele>
        <time>2022-04-22T18:24:20.473Z</time>
      </trkpt>
      <trkpt lat="45.82864" lon="2.94384">
        <ele>978.436006</ele>
        <time>2022-04-22T18:24:38.259Z</time>
      </trkpt>
      <trkpt lat="45.82821" lon="2.94381">
        <ele>980.444686</ele>
        <time>2022-04-22T18:24:54.638Z</time>
      </trkpt>
      <trkpt lat="45.82808" lon="2.94394">
        <ele>981.218308</ele>
        <time>2022-04-22T18:25:01.125Z</time>
      </trkpt>
      <trkpt lat="45.82725" lon="2.94435">
        <ele>984.507773</ele>
        <time>2022-04-22T18:25:25.575Z</time>
      </trkpt>
      <trkpt lat="45.8272" lon="2.94458">
        <ele>984.546539</ele>
        <time>2022-04-22T18:25:30.833Z</time>
      </trkpt>
      <trkpt lat="45.82856" lon="2.94508">
        <ele>984.863393</ele>
        <time>2022-04-22T18:25:53.550Z</time>
      </trkpt>
      <trkpt lat="45.83023" lon="2.94528">
        <ele>978.623493</ele>
        <time>2022-04-22T18:26:13.265Z</time>
      </trkpt>
      <trkpt lat="45.83256" lon="2.946">
        <ele>969.912509</ele>
        <time>2022-04-22T18:26:40.411Z</time>
      </trkpt>
      <trkpt lat="45.8333" lon="2.94581">
        <ele>970.354932</ele>
        <time>2022-04-22T18:26:52.400Z</time>
      </trkpt>
      <trkpt lat="45.83324" lon="2.94638">
        <ele>970.589574</ele>
        <time>2022-04-22T18:27:08.679Z</time>
      </trkpt>
      <trkpt lat="45.83324" lon="2.94751">
        <ele>975.418023</ele>
        <time>2022-04-22T18:27:48.930Z</time>
      </trkpt>
      <trkpt lat="45.83315" lon="2.94837">
        <ele>980.508536</ele>
        <time>2022-04-22T18:28:25.530Z</time>
      </trkpt>
      <trkpt lat="45.83286" lon="2.95015">
        <ele>993.10099</ele>
        <time>2022-04-22T18:29:52.035Z</time>
      </trkpt>
      <trkpt lat="45.83274" lon="2.95128">
        <ele>1002.069476</ele>
        <time>2022-04-22T18:30:47.824Z</time>
      </trkpt>
      <trkpt lat="45.83213" lon="2.95332">
        <ele>1019.462566</ele>
        <time>2022-04-22T18:32:45.080Z</time>
      </trkpt>
      <trkpt lat="45.83172" lon="2.95431">
        <ele>1026.910114</ele>
        <time>2022-04-22T18:33:38.089Z</time>
      </trkpt>
      <trkpt lat="45.83133" lon="2.9549">
        <ele>1028.44797</ele>
        <time>2022-04-22T18:34:03.881Z</time>
      </trkpt>
      <trkpt lat="45.83113" lon="2.95523">
        <ele>1029.292675</ele>
        <time>2022-04-22T18:34:14.978Z</time>
      </trkpt>
      <trkpt lat="45.83118" lon="2.95587">
        <ele>1030.507883</ele>
        <time>2022-04-22T18:34:26.009Z</time>
      </trkpt>
      <trkpt lat="45.83116" lon="2.95665">
        <ele>1029.676843</ele>
        <time>2022-04-22T18:34:37.844Z</time>
      </trkpt>
      <trkpt lat="45.83106" lon="2.95738">
        <ele>1026.23495</ele>
        <time>2022-04-22T18:34:47.680Z</time>
      </trkpt>
      <trkpt lat="45.8308" lon="2.95793">
        <ele>1023.167562</ele>
        <time>2022-04-22T18:34:55.735Z</time>
      </trkpt>
      <trkpt lat="45.8306" lon="2.9582">
        <ele>1021.40597</ele>
        <time>2022-04-22T18:35:00.446Z</time>
      </trkpt>
      <trkpt lat="45.8302" lon="2.95852">
        <ele>1017.905596</ele>
        <time>2022-04-22T18:35:08.806Z</time>
      </trkpt>
      <trkpt lat="45.83002" lon="2.95906">
        <ele>1014.01203</ele>
        <time>2022-04-22T18:35:16.048Z</time>
      </trkpt>
      <trkpt lat="45.82997" lon="2.95921">
        <ele>1012.925913</ele>
        <time>2022-04-22T18:35:17.978Z</time>
      </trkpt>
      <trkpt lat="45.82951" lon="2.95976">
        <ele>1007.325228</ele>
        <time>2022-04-22T18:35:28.378Z</time>
      </trkpt>
      <trkpt lat="45.82925" lon="2.96026">
        <ele>1003.336115</ele>
        <time>2022-04-22T18:35:35.659Z</time>
      </trkpt>
      <trkpt lat="45.82902" lon="2.9605">
        <ele>1000.99346</ele>
        <time>2022-04-22T18:35:40.717Z</time>
      </trkpt>
      <trkpt lat="45.8272" lon="2.96172">
        <ele>987.43242</ele>
        <time>2022-04-22T18:36:17.219Z</time>
      </trkpt>
      <trkpt lat="45.82637" lon="2.96174">
        <ele>984.291243</ele>
        <time>2022-04-22T18:36:33.915Z</time>
      </trkpt>
      <trkpt lat="45.8261" lon="2.96185">
        <ele>983.201023</ele>
        <time>2022-04-22T18:36:40.030Z</time>
      </trkpt>
      <trkpt lat="45.82515" lon="2.96255">
        <ele>981.179938</ele>
        <time>2022-04-22T18:37:05.322Z</time>
      </trkpt>
      <trkpt lat="45.82473" lon="2.96296">
        <ele>980.540464</ele>
        <time>2022-04-22T18:37:17.145Z</time>
      </trkpt>
      <trkpt lat="45.82457" lon="2.96317">
        <ele>980.265087</ele>
        <time>2022-04-22T18:37:22.447Z</time>
      </trkpt>
      <trkpt lat="45.82296" lon="2.9632">
        <ele>976.211025</ele>
        <time>2022-04-22T18:37:57.355Z</time>
      </trkpt>
      <trkpt lat="45.82275" lon="2.96305">
        <ele>975.560046</ele>
        <time>2022-04-22T18:38:01.893Z</time>
      </trkpt>
      <trkpt lat="45.8224" lon="2.96291">
        <ele>974.407974</ele>
        <time>2022-04-22T18:38:08.956Z</time>
      </trkpt>
      <trkpt lat="45.82094" lon="2.96263">
        <ele>968.793301</ele>
        <time>2022-04-22T18:38:38.492Z</time>
      </trkpt>
      <trkpt lat="45.82" lon="2.96227">
        <ele>966.023911</ele>
        <time>2022-04-22T18:38:58.724Z</time>
      </trkpt>
      <trkpt lat="45.81923" lon="2.96161">
        <ele>963.66716</ele>
        <time>2022-04-22T18:39:18.115Z</time>
      </trkpt>
      <trkpt lat="45.81764" lon="2.96031">
        <ele>960.790949</ele>
        <time>2022-04-22T18:39:58.550Z</time>
      </trkpt>
      <trkpt lat="45.81474" lon="2.95848">
        <ele>962.085498</ele>
        <time>2022-04-22T18:41:29.526Z</time>
      </trkpt>
      <trkpt lat="45.81429" lon="2.95819">
        <ele>962.255301</ele>
        <time>2022-04-22T18:41:37.197Z</time>
      </trkpt>
      <trkpt lat="45.81414" lon="2.95682">
        <ele>960.760476</ele>
        <time>2022-04-22T18:41:59.251Z</time>
      </trkpt>
      <trkpt lat="45.81409" lon="2.95541">
        <ele>959.441969</ele>
        <time>2022-04-22T18:42:19.930Z</time>
      </trkpt>
      <trkpt lat="45.81461" lon="2.95355">
        <ele>959.72894</ele>
        <time>2022-04-22T18:42:56.627Z</time>
      </trkpt>
      <trkpt lat="45.81465" lon="2.95347">
        <ele>959.743388</ele>
        <time>2022-04-22T18:42:59.147Z</time>
      </trkpt>
      <trkpt lat="45.81453" lon="2.95328">
        <ele>959.779838</ele>
        <time>2022-04-22T18:43:05.226Z</time>
      </trkpt>
      <trkpt lat="45.81439" lon="2.9532">
        <ele>959.985416</ele>
        <time>2022-04-22T18:43:10.496Z</time>
      </trkpt>
      <trkpt lat="45.81401" lon="2.9531">
        <ele>960.609743</ele>
        <time>2022-04-22T18:43:24.465Z</time>
      </trkpt>
      <trkpt lat="45.81401" lon="2.9529">
        <ele>960.834975</ele>
        <time>2022-04-22T18:43:28.002Z</time>
      </trkpt>
      <trkpt lat="45.81395" lon="2.9527">
        <ele>961.075894</ele>
        <time>2022-04-22T18:43:31.457Z</time>
      </trkpt>
      <trkpt lat="45.81388" lon="2.9526">
        <ele>961.227541</ele>
        <time>2022-04-22T18:43:33.852Z</time>
      </trkpt>
      <trkpt lat="45.81362" lon="2.95247">
        <ele>961.67192</ele>
        <time>2022-04-22T18:43:40.192Z</time>
      </trkpt>
      <trkpt lat="45.81349" lon="2.95253">
        <ele>961.88996</ele>
        <time>2022-04-22T18:43:43.524Z</time>
      </trkpt>
      <trkpt lat="45.81333" lon="2.95242">
        <ele>962.175903</ele>
        <time>2022-04-22T18:43:47.330Z</time>
      </trkpt>
      <trkpt lat="45.81321" lon="2.95221">
        <ele>962.482019</ele>
        <time>2022-04-22T18:43:50.744Z</time>
      </trkpt>
      <trkpt lat="45.81315" lon="2.95201">
        <ele>962.679514</ele>
        <time>2022-04-22T18:43:52.915Z</time>
      </trkpt>
      <trkpt lat="45.81313" lon="2.95194">
        <ele>962.703104</ele>
        <time>2022-04-22T18:43:53.694Z</time>
      </trkpt>
      <trkpt lat="45.81306" lon="2.95164">
        <ele>962.797032</ele>
        <time>2022-04-22T18:43:56.968Z</time>
      </trkpt>
      <trkpt lat="45.81274" lon="2.95052">
        <ele>963.166669</ele>
        <time>2022-04-22T18:44:11.012Z</time>
      </trkpt>
      <trkpt lat="45.81274" lon="2.95003">
        <ele>963.314425</ele>
        <time>2022-04-22T18:44:16.303Z</time>
      </trkpt>
      <trkpt lat="45.81264" lon="2.94995">
        <ele>963.366533</ele>
        <time>2022-04-22T18:44:18.139Z</time>
      </trkpt>
      <trkpt lat="45.81251" lon="2.95004">
        <ele>963.428726</ele>
        <time>2022-04-22T18:44:20.374Z</time>
      </trkpt>
      <trkpt lat="45.81248" lon="2.95022">
        <ele>963.5779</ele>
        <time>2022-04-22T18:44:23.002Z</time>
      </trkpt>
      <trkpt lat="45.81276" lon="2.95128">
        <ele>964.777841</ele>
        <time>2022-04-22T18:44:39.802Z</time>
      </trkpt>
      <trkpt lat="45.8129" lon="2.95179">
        <ele>965.35796</ele>
        <time>2022-04-22T18:44:49.614Z</time>
      </trkpt>
      <trkpt lat="45.81206" lon="2.95093">
        <ele>966.367099</ele>
        <time>2022-04-22T18:45:22.342Z</time>
      </trkpt>
      <trkpt lat="45.81166" lon="2.95078">
        <ele>966.522253</ele>
        <time>2022-04-22T18:45:32.947Z</time>
      </trkpt>
      <trkpt lat="45.81091" lon="2.95078">
        <ele>966.806842</ele>
        <time>2022-04-22T18:45:51.789Z</time>
      </trkpt>
      <trkpt lat="45.81013" lon="2.95097">
        <ele>966.227746</ele>
        <time>2022-04-22T18:46:11.176Z</time>
      </trkpt>
      <trkpt lat="45.80956" lon="2.95107">
        <ele>965.672361</ele>
        <time>2022-04-22T18:46:24.508Z</time>
      </trkpt>
      <trkpt lat="45.8092" lon="2.95104">
        <ele>965.313065</ele>
        <time>2022-04-22T18:46:32.940Z</time>
      </trkpt>
      <trkpt lat="45.80678" lon="2.9504">
        <ele>962.218658</ele>
        <time>2022-04-22T18:47:27.117Z</time>
      </trkpt>
      <trkpt lat="45.80623" lon="2.95017">
        <ele>962.701472</ele>
        <time>2022-04-22T18:47:41.240Z</time>
      </trkpt>
      <trkpt lat="45.8057" lon="2.9501">
        <ele>963.156985</ele>
        <time>2022-04-22T18:48:00.342Z</time>
      </trkpt>
      <trkpt lat="45.80524" lon="2.94995">
        <ele>964.521066</ele>
        <time>2022-04-22T18:48:19.777Z</time>
      </trkpt>
      <trkpt lat="45.80512" lon="2.94996">
        <ele>965.157388</ele>
        <time>2022-04-22T18:48:24.874Z</time>
      </trkpt>
      <trkpt lat="45.80476" lon="2.95023">
        <ele>967.257006</ele>
        <time>2022-04-22T18:48:42.761Z</time>
      </trkpt>
      <trkpt lat="45.80432" lon="2.95038">
        <ele>969.602827</ele>
        <time>2022-04-22T18:49:03.884Z</time>
      </trkpt>
      <trkpt lat="45.80361" lon="2.95072">
        <ele>973.970391</ele>
        <time>2022-04-22T18:49:40.980Z</time>
      </trkpt>
      <trkpt lat="45.80353" lon="2.95083">
        <ele>974.88037</ele>
        <time>2022-04-22T18:49:46.984Z</time>
      </trkpt>
      <trkpt lat="45.80342" lon="2.95113">
        <ele>976.831805</ele>
        <time>2022-04-22T18:50:01.022Z</time>
      </trkpt>
      <trkpt lat="45.80278" lon="2.95163">
        <ele>982.760365</ele>
        <time>2022-04-22T18:50:44.023Z</time>
      </trkpt>
      <trkpt lat="45.80252" lon="2.95168">
        <ele>984.86396</ele>
        <time>2022-04-22T18:51:00.354Z</time>
      </trkpt>
      <trkpt lat="45.80095" lon="2.95129">
        <ele>998.216386</ele>
        <time>2022-04-22T18:52:38.697Z</time>
      </trkpt>
      <trkpt lat="45.80071" lon="2.95088">
        <ele>1001.329798</ele>
        <time>2022-04-22T18:52:59.891Z</time>
      </trkpt>
      <trkpt lat="45.79976" lon="2.95079">
        <ele>1006.049219</ele>
        <time>2022-04-22T18:53:47.665Z</time>
      </trkpt>
      <trkpt lat="45.79924" lon="2.95032">
        <ele>1008.677905</ele>
        <time>2022-04-22T18:54:09.163Z</time>
      </trkpt>
      <trkpt lat="45.79902" lon="2.9499">
        <ele>1010.284004</ele>
        <time>2022-04-22T18:54:22.298Z</time>
      </trkpt>
      <trkpt lat="45.79846" lon="2.9499">
        <ele>1011.799459</ele>
        <time>2022-04-22T18:54:42.274Z</time>
      </trkpt>
      <trkpt lat="45.79819" lon="2.95023">
        <ele>1012.731741</ele>
        <time>2022-04-22T18:54:54.234Z</time>
      </trkpt>
      <trkpt lat="45.79807" lon="2.95021">
        <ele>1013.070852</ele>
        <time>2022-04-22T18:54:57.971Z</time>
      </trkpt>
      <trkpt lat="45.79733" lon="2.95027">
        <ele>1015.038152</ele>
        <time>2022-04-22T18:55:23.708Z</time>
      </trkpt>
      <trkpt lat="45.79628" lon="2.95049">
        <ele>1020.41054</ele>
        <time>2022-04-22T18:56:13.118Z</time>
      </trkpt>
      <trkpt lat="45.79608" lon="2.9506">
        <ele>1021.512645</ele>
        <time>2022-04-22T18:56:21.864Z</time>
      </trkpt>
      <trkpt lat="45.79597" lon="2.95075">
        <ele>1022.28115</ele>
        <time>2022-04-22T18:56:31.073Z</time>
      </trkpt>
      <trkpt lat="45.79563" lon="2.95037">
        <ele>1024.495315</ele>
        <time>2022-04-22T18:56:51.866Z</time>
      </trkpt>
      <trkpt lat="45.7955" lon="2.95009">
        <ele>1025.409189</ele>
        <time>2022-04-22T18:57:03.092Z</time>
      </trkpt>
      <trkpt lat="45.7952" lon="2.94968">
        <ele>1027.017044</ele>
        <time>2022-04-22T18:57:23.707Z</time>
      </trkpt>
      <trkpt lat="45.79511" lon="2.94942">
        <ele>1027.797337</ele>
        <time>2022-04-22T18:57:31.702Z</time>
      </trkpt>
      <trkpt lat="45.79511" lon="2.94927">
        <ele>1028.208479</ele>
        <time>2022-04-22T18:57:37.944Z</time>
      </trkpt>
      <trkpt lat="45.7932" lon="2.94674">
        <ele>1034.507992</ele>
        <time>2022-04-22T18:59:01.702Z</time>
      </trkpt>
      <trkpt lat="45.79285" lon="2.94605">
        <ele>1035.917279</ele>
        <time>2022-04-22T18:59:20.947Z</time>
      </trkpt>
      <trkpt lat="45.79266" lon="2.94573">
        <ele>1036.631837</ele>
        <time>2022-04-22T18:59:31.182Z</time>
      </trkpt>
      <trkpt lat="45.79259" lon="2.94549">
        <ele>1037.066591</ele>
        <time>2022-04-22T18:59:37.427Z</time>
      </trkpt>
      <trkpt lat="45.79214" lon="2.94504">
        <ele>1038.381004</ele>
        <time>2022-04-22T18:59:57.063Z</time>
      </trkpt>
      <trkpt lat="45.7916" lon="2.94453">
        <ele>1040.137718</ele>
        <time>2022-04-22T19:00:22.623Z</time>
      </trkpt>
      <trkpt lat="45.79125" lon="2.94436">
        <ele>1041.206054</ele>
        <time>2022-04-22T19:00:37.764Z</time>
      </trkpt>
      <trkpt lat="45.79018" lon="2.94411">
        <ele>1044.024835</ele>
        <time>2022-04-22T19:01:17.533Z</time>
      </trkpt>
      <trkpt lat="45.78903" lon="2.94404">
        <ele>1044.203378</ele>
        <time>2022-04-22T19:01:49.035Z</time>
      </trkpt>
      <trkpt lat="45.78881" lon="2.94403">
        <ele>1044.236805</ele>
        <time>2022-04-22T19:01:53.853Z</time>
      </trkpt>
      <trkpt lat="45.78782" lon="2.94451">
        <ele>1043.950057</ele>
        <time>2022-04-22T19:02:17.136Z</time>
      </trkpt>
      <trkpt lat="45.78713" lon="2.94442">
        <ele>1043.626359</ele>
        <time>2022-04-22T19:02:34.413Z</time>
      </trkpt>
      <trkpt lat="45.78632" lon="2.94542">
        <ele>1045.486899</ele>
        <time>2022-04-22T19:03:06.567Z</time>
      </trkpt>
      <trkpt lat="45.78615" lon="2.94609">
        <ele>1046.918311</ele>
        <time>2022-04-22T19:03:25.400Z</time>
      </trkpt>
      <trkpt lat="45.78604" lon="2.94653">
        <ele>1047.87964</ele>
        <time>2022-04-22T19:03:39.609Z</time>
      </trkpt>
      <trkpt lat="45.78624" lon="2.94818">
        <ele>1053.25002</ele>
        <time>2022-04-22T19:04:32.787Z</time>
      </trkpt>
      <trkpt lat="45.78656" lon="2.94951">
        <ele>1058.175122</ele>
        <time>2022-04-22T19:05:19.170Z</time>
      </trkpt>
      <trkpt lat="45.78639" lon="2.95016">
        <ele>1059.990611</ele>
        <time>2022-04-22T19:05:41.124Z</time>
      </trkpt>
      <trkpt lat="45.78634" lon="2.95138">
        <ele>1063.210099</ele>
        <time>2022-04-22T19:06:16.722Z</time>
      </trkpt>
      <trkpt lat="45.78613" lon="2.95319">
        <ele>1065.9014</ele>
        <time>2022-04-22T19:06:56.959Z</time>
      </trkpt>
      <trkpt lat="45.78601" lon="2.95509">
        <ele>1068.174356</ele>
        <time>2022-04-22T19:07:36.037Z</time>
      </trkpt>
      <trkpt lat="45.78583" lon="2.95629">
        <ele>1070.272864</ele>
        <time>2022-04-22T19:08:03.698Z</time>
      </trkpt>
      <trkpt lat="45.78582" lon="2.95782">
        <ele>1075.078628</ele>
        <time>2022-04-22T19:08:50.044Z</time>
      </trkpt>
      <trkpt lat="45.78587" lon="2.95852">
        <ele>1078.229897</ele>
        <time>2022-04-22T19:09:16.714Z</time>
      </trkpt>
      <trkpt lat="45.78599" lon="2.95923">
        <ele>1081.52008</ele>
        <time>2022-04-22T19:09:44.489Z</time>
      </trkpt>
      <trkpt lat="45.78622" lon="2.95988">
        <ele>1084.483824</ele>
        <time>2022-04-22T19:10:13.477Z</time>
      </trkpt>
      <trkpt lat="45.78608" lon="2.96035">
        <ele>1086.337672</ele>
        <time>2022-04-22T19:10:34.598Z</time>
      </trkpt>
      <trkpt lat="45.7854" lon="2.96116">
        <ele>1090.961015</ele>
        <time>2022-04-22T19:11:14.813Z</time>
      </trkpt>
      <trkpt lat="45.7851" lon="2.96158">
        <ele>1092.400018</ele>
        <time>2022-04-22T19:11:29.861Z</time>
      </trkpt>
      <trkpt lat="45.78486" lon="2.96122">
        <ele>1091.90454</ele>
        <time>2022-04-22T19:11:38.783Z</time>
      </trkpt>
      <trkpt lat="45.78466" lon="2.9611">
        <ele>1091.607309</ele>
        <time>2022-04-22T19:11:43.633Z</time>
      </trkpt>
      <trkpt lat="45.78457" lon="2.96105">
        <ele>1091.472683</ele>
        <time>2022-04-22T19:11:45.750Z</time>
      </trkpt>
      <trkpt lat="45.78353" lon="2.96124">
        <ele>1089.940963</ele>
        <time>2022-04-22T19:12:07.928Z</time>
      </trkpt>
      <trkpt lat="45.78326" lon="2.96112">
        <ele>1088.769207</ele>
        <time>2022-04-22T19:12:13.549Z</time>
      </trkpt>
      <trkpt lat="45.78285" lon="2.96052">
        <ele>1086.39844</ele>
        <time>2022-04-22T19:12:24.980Z</time>
      </trkpt>
      <trkpt lat="45.78209" lon="2.95811">
        <ele>1080.41001</ele>
        <time>2022-04-22T19:13:01.770Z</time>
      </trkpt>
      <trkpt lat="45.78159" lon="2.95727">
        <ele>1078.510341</ele>
        <time>2022-04-22T19:13:19.495Z</time>
      </trkpt>
      <trkpt lat="45.78134" lon="2.95638">
        <ele>1078.600614</ele>
        <time>2022-04-22T19:13:37.839Z</time>
      </trkpt>
      <trkpt lat="45.78119" lon="2.95616">
        <ele>1078.708658</ele>
        <time>2022-04-22T19:13:44.402Z</time>
      </trkpt>
      <trkpt lat="45.78104" lon="2.95566">
        <ele>1078.90632</ele>
        <time>2022-04-22T19:13:55.918Z</time>
      </trkpt>
      <trkpt lat="45.78076" lon="2.95526">
        <ele>1079.111043</ele>
        <time>2022-04-22T19:14:07.180Z</time>
      </trkpt>
      <trkpt lat="45.78034" lon="2.95395">
        <ele>1078.981288</ele>
        <time>2022-04-22T19:14:32.874Z</time>
      </trkpt>
      <trkpt lat="45.78013" lon="2.95366">
        <ele>1078.888726</ele>
        <time>2022-04-22T19:14:39.852Z</time>
      </trkpt>
      <trkpt lat="45.7794" lon="2.95333">
        <ele>1078.636096</ele>
        <time>2022-04-22T19:14:57.938Z</time>
      </trkpt>
      <trkpt lat="45.77856" lon="2.95274">
        <ele>1078.066666</ele>
        <time>2022-04-22T19:15:20.602Z</time>
      </trkpt>
      <trkpt lat="45.77798" lon="2.95254">
        <ele>1077.704958</ele>
        <time>2022-04-22T19:15:35.015Z</time>
      </trkpt>
      <trkpt lat="45.7777" lon="2.95254">
        <ele>1077.5365</ele>
        <time>2022-04-22T19:15:41.828Z</time>
      </trkpt>
      <trkpt lat="45.7774" lon="2.9524">
        <ele>1077.357843</ele>
        <time>2022-04-22T19:15:49.450Z</time>
      </trkpt>
      <trkpt lat="45.77705" lon="2.95235">
        <ele>1077.15987</ele>
        <time>2022-04-22T19:15:57.984Z</time>
      </trkpt>
      <trkpt lat="45.77634" lon="2.95263">
        <ele>1076.743898</ele>
        <time>2022-04-22T19:16:15.117Z</time>
      </trkpt>
      <trkpt lat="45.77609" lon="2.95281">
        <ele>1076.582447</ele>
        <time>2022-04-22T19:16:21.909Z</time>
      </trkpt>
      <trkpt lat="45.77575" lon="2.95288">
        <ele>1076.936541</ele>
        <time>2022-04-22T19:16:30.628Z</time>
      </trkpt>
      <trkpt lat="45.77518" lon="2.95216">
        <ele>1078.051702</ele>
        <time>2022-04-22T19:16:52.267Z</time>
      </trkpt>
      <trkpt lat="45.7745" lon="2.95197">
        <ele>1079.071777</ele>
        <time>2022-04-22T19:17:16.963Z</time>
      </trkpt>
      <trkpt lat="45.77381" lon="2.95188">
        <ele>1081.54599</ele>
        <time>2022-04-22T19:17:45.280Z</time>
      </trkpt>
      <trkpt lat="45.77241" lon="2.95203">
        <ele>1086.673422</ele>
        <time>2022-04-22T19:18:44.081Z</time>
      </trkpt>
      <trkpt lat="45.77187" lon="2.95226">
        <ele>1088.177462</ele>
        <time>2022-04-22T19:19:06.247Z</time>
      </trkpt>
      <trkpt lat="45.77148" lon="2.95229">
        <ele>1089.197522</ele>
        <time>2022-04-22T19:19:20.448Z</time>
      </trkpt>
      <trkpt lat="45.77004" lon="2.95319">
        <ele>1091.357929</ele>
        <time>2022-04-22T19:20:08.480Z</time>
      </trkpt>
      <trkpt lat="45.76976" lon="2.95324">
        <ele>1091.503284</ele>
        <time>2022-04-22T19:20:16.020Z</time>
      </trkpt>
      <trkpt lat="45.76784" lon="2.95417">
        <ele>1090.611649</ele>
        <time>2022-04-22T19:21:04.775Z</time>
      </trkpt>
      <trkpt lat="45.76727" lon="2.95409">
        <ele>1089.785879</ele>
        <time>2022-04-22T19:21:17.854Z</time>
      </trkpt>
      <trkpt lat="45.76671" lon="2.9542">
        <ele>1088.472577</ele>
        <time>2022-04-22T19:21:30.426Z</time>
      </trkpt>
      <trkpt lat="45.7663" lon="2.95441">
        <ele>1087.458268</ele>
        <time>2022-04-22T19:21:39.804Z</time>
      </trkpt>
      <trkpt lat="45.76574" lon="2.95488">
        <ele>1085.671106</ele>
        <time>2022-04-22T19:21:53.528Z</time>
      </trkpt>
      <trkpt lat="45.76439" lon="2.95537">
        <ele>1078.444475</ele>
        <time>2022-04-22T19:22:20.146Z</time>
      </trkpt>
      <trkpt lat="45.76437" lon="2.95538">
        <ele>1078.324162</ele>
        <time>2022-04-22T19:22:23.055Z</time>
      </trkpt>
      <trkpt lat="45.76421" lon="2.95544">
        <ele>1077.455449</ele>
        <time>2022-04-22T19:22:43.718Z</time>
      </trkpt>
      <trkpt lat="45.76393" lon="2.95553">
        <ele>1075.695569</ele>
        <time>2022-04-22T19:22:47.685Z</time>
      </trkpt>
      <trkpt lat="45.76385" lon="2.95607">
        <ele>1073.009013</ele>
        <time>2022-04-22T19:22:51.562Z</time>
      </trkpt>
      <trkpt lat="45.76366" lon="2.95632">
        <ele>1071.264444</ele>
        <time>2022-04-22T19:22:54.076Z</time>
      </trkpt>
      <trkpt lat="45.76344" lon="2.95648">
        <ele>1069.530987</ele>
        <time>2022-04-22T19:22:56.638Z</time>
      </trkpt>
      <trkpt lat="45.76336" lon="2.95666">
        <ele>1068.495045</ele>
        <time>2022-04-22T19:22:58.180Z</time>
      </trkpt>
      <trkpt lat="45.7632" lon="2.95665">
        <ele>1067.40233</ele>
        <time>2022-04-22T19:23:01.157Z</time>
      </trkpt>
      <trkpt lat="45.76318" lon="2.95665">
        <ele>1067.220787</ele>
        <time>2022-04-22T19:23:01.629Z</time>
      </trkpt>
      <trkpt lat="45.76289" lon="2.95706">
        <ele>1064.382451</ele>
        <time>2022-04-22T19:23:08.966Z</time>
      </trkpt>
      <trkpt lat="45.76259" lon="2.95723">
        <ele>1061.026723</ele>
        <time>2022-04-22T19:23:14.655Z</time>
      </trkpt>
      <trkpt lat="45.76225" lon="2.95743">
        <ele>1057.05525</ele>
        <time>2022-04-22T19:23:21.195Z</time>
      </trkpt>
      <trkpt lat="45.76196" lon="2.95738">
        <ele>1053.903394</ele>
        <time>2022-04-22T19:23:26.251Z</time>
      </trkpt>
      <trkpt lat="45.76084" lon="2.95843">
        <ele>1037.099952</ele>
        <time>2022-04-22T19:23:48.190Z</time>
      </trkpt>
      <trkpt lat="45.76077" lon="2.95862">
        <ele>1034.740506</ele>
        <time>2022-04-22T19:23:50.549Z</time>
      </trkpt>
      <trkpt lat="45.76071" lon="2.95917">
        <ele>1028.558953</ele>
        <time>2022-04-22T19:23:56.763Z</time>
      </trkpt>
      <trkpt lat="45.76079" lon="2.95986">
        <ele>1020.843814</ele>
        <time>2022-04-22T19:24:04.573Z</time>
      </trkpt>
      <trkpt lat="45.76098" lon="2.96041">
        <ele>1014.497427</ele>
        <time>2022-04-22T19:24:11.353Z</time>
      </trkpt>
      <trkpt lat="45.76096" lon="2.96062">
        <ele>1012.483764</ele>
        <time>2022-04-22T19:24:13.689Z</time>
      </trkpt>
      <trkpt lat="45.76077" lon="2.96126">
        <ele>1005.882016</ele>
        <time>2022-04-22T19:24:21.602Z</time>
      </trkpt>
      <trkpt lat="45.7606" lon="2.96243">
        <ele>994.521251</ele>
        <time>2022-04-22T19:24:35.422Z</time>
      </trkpt>
      <trkpt lat="45.76023" lon="2.9635">
        <ele>986.467277</ele>
        <time>2022-04-22T19:24:49.612Z</time>
      </trkpt>
      <trkpt lat="45.76008" lon="2.96395">
        <ele>983.551619</ele>
        <time>2022-04-22T19:24:55.672Z</time>
      </trkpt>
      <trkpt lat="45.7597" lon="2.96471">
        <ele>978.028199</ele>
        <time>2022-04-22T19:25:07.492Z</time>
      </trkpt>
      <trkpt lat="45.75895" lon="2.96504">
        <ele>975.035789</ele>
        <time>2022-04-22T19:25:22.988Z</time>
      </trkpt>
      <trkpt lat="45.75845" lon="2.96516">
        <ele>973.675443</ele>
        <time>2022-04-22T19:25:34.068Z</time>
      </trkpt>
      <trkpt lat="45.75768" lon="2.96532">
        <ele>971.729104</ele>
        <time>2022-04-22T19:25:52.445Z</time>
      </trkpt>
      <trkpt lat="45.75683" lon="2.96566">
        <ele>970.418728</ele>
        <time>2022-04-22T19:26:13.241Z</time>
      </trkpt>
      <trkpt lat="45.7551" lon="2.96651">
        <ele>966.663569</ele>
        <time>2022-04-22T19:26:53.088Z</time>
      </trkpt>
      <trkpt lat="45.75449" lon="2.96687">
        <ele>965.018159</ele>
        <time>2022-04-22T19:27:06.718Z</time>
      </trkpt>
      <trkpt lat="45.7534" lon="2.96728">
        <ele>961.623045</ele>
        <time>2022-04-22T19:27:30.234Z</time>
      </trkpt>
      <trkpt lat="45.75316" lon="2.96735">
        <ele>960.876284</ele>
        <time>2022-04-22T19:27:35.168Z</time>
      </trkpt>
      <trkpt lat="45.75286" lon="2.96759">
        <ele>959.811587</ele>
        <time>2022-04-22T19:27:42.278Z</time>
      </trkpt>
      <trkpt lat="45.75281" lon="2.96794">
        <ele>959.057031</ele>
        <time>2022-04-22T19:27:47.505Z</time>
      </trkpt>
      <trkpt lat="45.75254" lon="2.96788">
        <ele>958.258507</ele>
        <time>2022-04-22T19:27:50.910Z</time>
      </trkpt>
      <trkpt lat="45.75178" lon="2.96797">
        <ele>956.1053</ele>
        <time>2022-04-22T19:28:00.275Z</time>
      </trkpt>
      <trkpt lat="45.74864" lon="2.96883">
        <ele>949.10937</ele>
        <time>2022-04-22T19:29:08.312Z</time>
      </trkpt>
      <trkpt lat="45.74791" lon="2.96915">
        <ele>948.66741</ele>
        <time>2022-04-22T19:29:27.417Z</time>
      </trkpt>
      <trkpt lat="45.74619" lon="2.97005">
        <ele>951.969171</ele>
        <time>2022-04-22T19:30:30.047Z</time>
      </trkpt>
      <trkpt lat="45.74605" lon="2.97024">
        <ele>952.427395</ele>
        <time>2022-04-22T19:30:37.777Z</time>
      </trkpt>
      <trkpt lat="45.74514" lon="2.9699">
        <ele>954.845804</ele>
        <time>2022-04-22T19:31:03.951Z</time>
      </trkpt>
      <trkpt lat="45.74497" lon="2.96983">
        <ele>955.303941</ele>
        <time>2022-04-22T19:31:08.778Z</time>
      </trkpt>
      <trkpt lat="45.74352" lon="2.96919">
        <ele>959.094708</ele>
        <time>2022-04-22T19:31:44.834Z</time>
      </trkpt>
      <trkpt lat="45.74336" lon="2.96914">
        <ele>959.503883</ele>
        <time>2022-04-22T19:31:48.426Z</time>
      </trkpt>
      <trkpt lat="45.7433" lon="2.96912">
        <ele>959.641821</ele>
        <time>2022-04-22T19:31:49.682Z</time>
      </trkpt>
      <trkpt lat="45.74305" lon="2.96899">
        <ele>960.288157</ele>
        <time>2022-04-22T19:31:55.923Z</time>
      </trkpt>
      <trkpt lat="45.7422" lon="2.96825">
        <ele>963.964797</ele>
        <time>2022-04-22T19:32:22.632Z</time>
      </trkpt>
      <trkpt lat="45.74191" lon="2.968">
        <ele>965.857953</ele>
        <time>2022-04-22T19:32:34.866Z</time>
      </trkpt>
      <trkpt lat="45.74139" lon="2.96772">
        <ele>968.92769</ele>
        <time>2022-04-22T19:32:57.205Z</time>
      </trkpt>
      <trkpt lat="45.74131" lon="2.96754">
        <ele>969.780197</ele>
        <time>2022-04-22T19:33:03.929Z</time>
      </trkpt>
      <trkpt lat="45.74127" lon="2.96744">
        <ele>970.228551</ele>
        <time>2022-04-22T19:33:07.343Z</time>
      </trkpt>
      <trkpt lat="45.74124" lon="2.96736">
        <ele>970.580507</ele>
        <time>2022-04-22T19:33:10.060Z</time>
      </trkpt>
      <trkpt lat="45.74122" lon="2.96732">
        <ele>970.757143</ele>
        <time>2022-04-22T19:33:11.541Z</time>
      </trkpt>
      <trkpt lat="45.74114" lon="2.96712">
        <ele>971.648363</ele>
        <time>2022-04-22T19:33:18.945Z</time>
      </trkpt>
      <trkpt lat="45.74098" lon="2.96678">
        <ele>973.675365</ele>
        <time>2022-04-22T19:33:32.316Z</time>
      </trkpt>
      <trkpt lat="45.7409" lon="2.96664">
        <ele>974.59081</ele>
        <time>2022-04-22T19:33:38.562Z</time>
      </trkpt>
      <trkpt lat="45.74073" lon="2.96629">
        <ele>976.700026</ele>
        <time>2022-04-22T19:33:52.600Z</time>
      </trkpt>
      <trkpt lat="45.74071" lon="2.96622">
        <ele>977.057348</ele>
        <time>2022-04-22T19:33:54.907Z</time>
      </trkpt>
      <trkpt lat="45.74027" lon="2.96625">
        <ele>980.143659</ele>
        <time>2022-04-22T19:34:16.941Z</time>
      </trkpt>
      <trkpt lat="45.73975" lon="2.96611">
        <ele>983.951101</ele>
        <time>2022-04-22T19:34:45.245Z</time>
      </trkpt>
      <trkpt lat="45.73964" lon="2.96604">
        <ele>984.636202</ele>
        <time>2022-04-22T19:34:50.878Z</time>
      </trkpt>
      <trkpt lat="45.73949" lon="2.96587">
        <ele>985.393296</ele>
        <time>2022-04-22T19:34:59.606Z</time>
      </trkpt>
      <trkpt lat="45.73942" lon="2.96585">
        <ele>985.719007</ele>
        <time>2022-04-22T19:35:03.126Z</time>
      </trkpt>
      <trkpt lat="45.73892" lon="2.96596">
        <ele>987.766698</ele>
        <time>2022-04-22T19:35:24.573Z</time>
      </trkpt>
      <trkpt lat="45.73848" lon="2.96582">
        <ele>989.574977</ele>
        <time>2022-04-22T19:35:42.647Z</time>
      </trkpt>
      <trkpt lat="45.73798" lon="2.96557">
        <ele>991.715441</ele>
        <time>2022-04-22T19:36:02.427Z</time>
      </trkpt>
      <trkpt lat="45.73756" lon="2.96519">
        <ele>992.91052</ele>
        <time>2022-04-22T19:36:19.674Z</time>
      </trkpt>
      <trkpt lat="45.73722" lon="2.96498">
        <ele>993.782353</ele>
        <time>2022-04-22T19:36:32.396Z</time>
      </trkpt>
      <trkpt lat="45.73677" lon="2.96461">
        <ele>995.016361</ele>
        <time>2022-04-22T19:36:50.371Z</time>
      </trkpt>
      <trkpt lat="45.73554" lon="2.96387">
        <ele>997.804144</ele>
        <time>2022-04-22T19:37:35.684Z</time>
      </trkpt>
      <trkpt lat="45.7342" lon="2.96321">
        <ele>1001.514692</ele>
        <time>2022-04-22T19:38:21.715Z</time>
      </trkpt>
      <trkpt lat="45.73386" lon="2.96315">
        <ele>1002.760891</ele>
        <time>2022-04-22T19:38:34.534Z</time>
      </trkpt>
      <trkpt lat="45.73368" lon="2.96298">
        <ele>1003.547523</ele>
        <time>2022-04-22T19:38:43.207Z</time>
      </trkpt>
      <trkpt lat="45.73311" lon="2.96282">
        <ele>1005.66719</ele>
        <time>2022-04-22T19:39:07.807Z</time>
      </trkpt>
      <trkpt lat="45.73134" lon="2.96164">
        <ele>1019.297009</ele>
        <time>2022-04-22T19:40:53.970Z</time>
      </trkpt>
      <trkpt lat="45.7307" lon="2.96143">
        <ele>1025.162254</ele>
        <time>2022-04-22T19:41:35.494Z</time>
      </trkpt>
      <trkpt lat="45.73046" lon="2.96123">
        <ele>1027.582559</ele>
        <time>2022-04-22T19:41:52.415Z</time>
      </trkpt>
      <trkpt lat="45.72998" lon="2.96057">
        <ele>1033.482227</ele>
        <time>2022-04-22T19:42:33.621Z</time>
      </trkpt>
      <trkpt lat="45.72986" lon="2.96022">
        <ele>1035.765221</ele>
        <time>2022-04-22T19:42:50.501Z</time>
      </trkpt>
      <trkpt lat="45.72968" lon="2.95992">
        <ele>1037.871026</ele>
        <time>2022-04-22T19:43:08.006Z</time>
      </trkpt>
      <trkpt lat="45.72903" lon="2.9593">
        <ele>1043.792875</ele>
        <time>2022-04-22T19:43:50.526Z</time>
      </trkpt>
      <trkpt lat="45.72854" lon="2.95869">
        <ele>1048.702437</ele>
        <time>2022-04-22T19:44:23.573Z</time>
      </trkpt>
      <trkpt lat="45.72817" lon="2.95796">
        <ele>1052.897049</ele>
        <time>2022-04-22T19:44:59.415Z</time>
      </trkpt>
      <trkpt lat="45.7272" lon="2.95656">
        <ele>1061.852303</ele>
        <time>2022-04-22T19:46:08.624Z</time>
      </trkpt>
      <trkpt lat="45.72702" lon="2.95647">
        <ele>1062.93302</ele>
        <time>2022-04-22T19:46:18.684Z</time>
      </trkpt>
      <trkpt lat="45.72614" lon="2.95642">
        <ele>1068.019111</ele>
        <time>2022-04-22T19:47:02.286Z</time>
      </trkpt>
      <trkpt lat="45.72596" lon="2.95642">
        <ele>1069.088848</ele>
        <time>2022-04-22T19:47:10.609Z</time>
      </trkpt>
      <trkpt lat="45.72449" lon="2.95509">
        <ele>1078.716689</ele>
        <time>2022-04-22T19:48:29.105Z</time>
      </trkpt>
      <trkpt lat="45.72342" lon="2.9536">
        <ele>1087.7547</ele>
        <time>2022-04-22T19:49:48.803Z</time>
      </trkpt>
      <trkpt lat="45.72317" lon="2.95338">
        <ele>1089.576018</ele>
        <time>2022-04-22T19:50:04.534Z</time>
      </trkpt>
      <trkpt lat="45.72249" lon="2.95258">
        <ele>1092.614469</ele>
        <time>2022-04-22T19:50:43.541Z</time>
      </trkpt>
      <trkpt lat="45.72228" lon="2.9524">
        <ele>1092.885245</ele>
        <time>2022-04-22T19:50:52.219Z</time>
      </trkpt>
      <trkpt lat="45.72218" lon="2.95217">
        <ele>1093.097123</ele>
        <time>2022-04-22T19:50:57.015Z</time>
      </trkpt>
      <trkpt lat="45.72218" lon="2.95211">
        <ele>1093.146778</ele>
        <time>2022-04-22T19:50:58.160Z</time>
      </trkpt>
      <trkpt lat="45.72191" lon="2.95215">
        <ele>1093.444334</ele>
        <time>2022-04-22T19:51:04.711Z</time>
      </trkpt>
      <trkpt lat="45.72134" lon="2.95172">
        <ele>1093.898622</ele>
        <time>2022-04-22T19:51:19.386Z</time>
      </trkpt>
      <trkpt lat="45.72115" lon="2.95165">
        <ele>1093.387347</ele>
        <time>2022-04-22T19:51:23.486Z</time>
      </trkpt>
      <trkpt lat="45.72067" lon="2.95148">
        <ele>1092.074779</ele>
        <time>2022-04-22T19:51:33.821Z</time>
      </trkpt>
      <trkpt lat="45.72023" lon="2.95117">
        <ele>1090.760853</ele>
        <time>2022-04-22T19:51:43.957Z</time>
      </trkpt>
      <trkpt lat="45.71916" lon="2.95057">
        <ele>1087.208015</ele>
        <time>2022-04-22T19:52:08.363Z</time>
      </trkpt>
      <trkpt lat="45.71781" lon="2.94942">
        <ele>1080.783665</ele>
        <time>2022-04-22T19:52:39.962Z</time>
      </trkpt>
      <trkpt lat="45.71618" lon="2.94857">
        <ele>1070.438854</ele>
        <time>2022-04-22T19:53:11.855Z</time>
      </trkpt>
      <trkpt lat="45.71553" lon="2.94842">
        <ele>1066.498248</ele>
        <time>2022-04-22T19:53:24.037Z</time>
      </trkpt>
      <trkpt lat="45.71444" lon="2.94803">
        <ele>1060.352578</ele>
        <time>2022-04-22T19:53:45.397Z</time>
      </trkpt>
      <trkpt lat="45.7142" lon="2.94785">
        <ele>1059.233066</ele>
        <time>2022-04-22T19:53:50.699Z</time>
      </trkpt>
      <trkpt lat="45.71367" lon="2.94727">
        <ele>1056.463245</ele>
        <time>2022-04-22T19:54:03.864Z</time>
      </trkpt>
      <trkpt lat="45.71351" lon="2.9472">
        <ele>1055.795126</ele>
        <time>2022-04-22T19:54:07.140Z</time>
      </trkpt>
      <trkpt lat="45.71248" lon="2.94663">
        <ele>1052.386696</ele>
        <time>2022-04-22T19:54:30.264Z</time>
      </trkpt>
      <trkpt lat="45.71192" lon="2.94597">
        <ele>1050.598169</ele>
        <time>2022-04-22T19:54:46.144Z</time>
      </trkpt>
      <trkpt lat="45.71102" lon="2.94447">
        <ele>1048.250592</ele>
        <time>2022-04-22T19:55:16.291Z</time>
      </trkpt>
      <trkpt lat="45.71046" lon="2.94295">
        <ele>1047.542048</ele>
        <time>2022-04-22T19:55:44.651Z</time>
      </trkpt>
      <trkpt lat="45.71025" lon="2.94261">
        <ele>1047.884961</ele>
        <time>2022-04-22T19:55:50.705Z</time>
      </trkpt>
      <trkpt lat="45.70948" lon="2.94176">
        <ele>1048.931384</ele>
        <time>2022-04-22T19:56:13.716Z</time>
      </trkpt>
      <trkpt lat="45.70904" lon="2.94098">
        <ele>1050.141425</ele>
        <time>2022-04-22T19:56:31.724Z</time>
      </trkpt>
      <trkpt lat="45.70843" lon="2.94044">
        <ele>1051.471497</ele>
        <time>2022-04-22T19:56:49.381Z</time>
      </trkpt>
      <trkpt lat="45.70707" lon="2.93853">
        <ele>1053.348753</ele>
        <time>2022-04-22T19:57:28.431Z</time>
      </trkpt>
      <trkpt lat="45.70603" lon="2.9344">
        <ele>1051.139345</ele>
        <time>2022-04-22T19:58:15.136Z</time>
      </trkpt>
      <trkpt lat="45.7057" lon="2.93349">
        <ele>1049.729887</ele>
        <time>2022-04-22T19:58:23.844Z</time>
      </trkpt>
      <trkpt lat="45.70542" lon="2.93232">
        <ele>1046.957092</ele>
        <time>2022-04-22T19:58:34.039Z</time>
      </trkpt>
      <trkpt lat="45.70529" lon="2.93063">
        <ele>1042.748325</ele>
        <time>2022-04-22T19:58:48.353Z</time>
      </trkpt>
      <trkpt lat="45.70532" lon="2.92931">
        <ele>1039.874267</ele>
        <time>2022-04-22T19:58:59.853Z</time>
      </trkpt>
      <trkpt lat="45.7051" lon="2.92825">
        <ele>1037.479442</ele>
        <time>2022-04-22T19:59:09.349Z</time>
      </trkpt>
      <trkpt lat="45.70495" lon="2.92731">
        <ele>1034.760903</ele>
        <time>2022-04-22T19:59:17.614Z</time>
      </trkpt>
      <trkpt lat="45.70489" lon="2.92641">
        <ele>1032.170838</ele>
        <time>2022-04-22T19:59:25.078Z</time>
      </trkpt>
      <trkpt lat="45.70487" lon="2.92519">
        <ele>1027.798949</ele>
        <time>2022-04-22T19:59:34.705Z</time>
      </trkpt>
      <trkpt lat="45.70502" lon="2.92477">
        <ele>1025.591993</ele>
        <time>2022-04-22T19:59:38.276Z</time>
      </trkpt>
      <trkpt lat="45.70506" lon="2.92452">
        <ele>1024.373563</ele>
        <time>2022-04-22T19:59:40.186Z</time>
      </trkpt>
      <trkpt lat="45.70499" lon="2.92396">
        <ele>1021.68559</ele>
        <time>2022-04-22T19:59:44.456Z</time>
      </trkpt>
      <trkpt lat="45.70492" lon="2.92334">
        <ele>1018.745241</ele>
        <time>2022-04-22T19:59:49.114Z</time>
      </trkpt>
      <trkpt lat="45.70491" lon="2.92198">
        <ele>1010.629962</ele>
        <time>2022-04-22T19:59:59.056Z</time>
      </trkpt>
      <trkpt lat="45.70495" lon="2.92108">
        <ele>1005.035133</ele>
        <time>2022-04-22T20:00:05.583Z</time>
      </trkpt>
      <trkpt lat="45.70493" lon="2.92049">
        <ele>1001.217777</ele>
        <time>2022-04-22T20:00:09.816Z</time>
      </trkpt>
      <trkpt lat="45.70402" lon="2.91737">
        <ele>974.772746</ele>
        <time>2022-04-22T20:00:33.296Z</time>
      </trkpt>
      <trkpt lat="45.70373" lon="2.91797">
        <ele>969.457884</ele>
        <time>2022-04-22T20:00:38.325Z</time>
      </trkpt>
      <trkpt lat="45.70367" lon="2.91796">
        <ele>968.741085</ele>
        <time>2022-04-22T20:00:39.029Z</time>
      </trkpt>
      <trkpt lat="45.70363" lon="2.91767">
        <ele>966.564559</ele>
        <time>2022-04-22T20:00:41.156Z</time>
      </trkpt>
      <trkpt lat="45.70359" lon="2.91761">
        <ele>965.903982</ele>
        <time>2022-04-22T20:00:42.157Z</time>
      </trkpt>
      <trkpt lat="45.70356" lon="2.91721">
        <ele>962.911368</ele>
        <time>2022-04-22T20:00:47.245Z</time>
      </trkpt>
      <trkpt lat="45.70366" lon="2.91628">
        <ele>957.685417</ele>
        <time>2022-04-22T20:00:58.911Z</time>
      </trkpt>
      <trkpt lat="45.7035" lon="2.91589">
        <ele>955.193493</ele>
        <time>2022-04-22T20:01:02.281Z</time>
      </trkpt>
      <trkpt lat="45.70332" lon="2.91521">
        <ele>951.269677</ele>
        <time>2022-04-22T20:01:07.626Z</time>
      </trkpt>
      <trkpt lat="45.70332" lon="2.91498">
        <ele>950.000196</ele>
        <time>2022-04-22T20:01:09.360Z</time>
      </trkpt>
      <trkpt lat="45.70341" lon="2.91446">
        <ele>947.431686</ele>
        <time>2022-04-22T20:01:13.348Z</time>
      </trkpt>
      <trkpt lat="45.70322" lon="2.91406">
        <ele>945.461555</ele>
        <time>2022-04-22T20:01:19.613Z</time>
      </trkpt>
      <trkpt lat="45.70326" lon="2.91393">
        <ele>944.89994</ele>
        <time>2022-04-22T20:01:21.439Z</time>
      </trkpt>
      <trkpt lat="45.70334" lon="2.9139">
        <ele>944.442348</ele>
        <time>2022-04-22T20:01:22.979Z</time>
      </trkpt>
      <trkpt lat="45.70334" lon="2.9138">
        <ele>944.031129</ele>
        <time>2022-04-22T20:01:24.235Z</time>
      </trkpt>
      <trkpt lat="45.70328" lon="2.91359">
        <ele>943.134558</ele>
        <time>2022-04-22T20:01:25.959Z</time>
      </trkpt>
      <trkpt lat="45.70322" lon="2.91339">
        <ele>942.242248</ele>
        <time>2022-04-22T20:01:28.878Z</time>
      </trkpt>
      <trkpt lat="45.70419" lon="2.91281">
        <ele>937.359493</ele>
        <time>2022-04-22T20:01:40.807Z</time>
      </trkpt>
      <trkpt lat="45.70435" lon="2.91278">
        <ele>937.040253</ele>
        <time>2022-04-22T20:01:42.693Z</time>
      </trkpt>
      <trkpt lat="45.70478" lon="2.91247">
        <ele>936.094894</ele>
        <time>2022-04-22T20:01:49.186Z</time>
      </trkpt>
      <trkpt lat="45.70481" lon="2.91226">
        <ele>935.799469</ele>
        <time>2022-04-22T20:01:51.122Z</time>
      </trkpt>
      <trkpt lat="45.70471" lon="2.91205">
        <ele>935.455577</ele>
        <time>2022-04-22T20:01:53.926Z</time>
      </trkpt>
      <trkpt lat="45.70495" lon="2.91163">
        <ele>934.714634</ele>
        <time>2022-04-22T20:01:59.701Z</time>
      </trkpt>
      <trkpt lat="45.70515" lon="2.91108">
        <ele>934.73037</ele>
        <time>2022-04-22T20:02:07.103Z</time>
      </trkpt>
      <trkpt lat="45.7054" lon="2.91057">
        <ele>935.168518</ele>
        <time>2022-04-22T20:02:16.438Z</time>
      </trkpt>
      <trkpt lat="45.70603" lon="2.91">
        <ele>935.911518</ele>
        <time>2022-04-22T20:02:32.948Z</time>
      </trkpt>
      <trkpt lat="45.7063" lon="2.90958">
        <ele>936.254791</ele>
        <time>2022-04-22T20:02:41.246Z</time>
      </trkpt>
      <trkpt lat="45.70656" lon="2.90863">
        <ele>936.366973</ele>
        <time>2022-04-22T20:02:55.146Z</time>
      </trkpt>
      <trkpt lat="45.70662" lon="2.90819">
        <ele>936.416202</ele>
        <time>2022-04-22T20:03:00.775Z</time>
      </trkpt>
      <trkpt lat="45.70655" lon="2.90795">
        <ele>936.444005</ele>
        <time>2022-04-22T20:03:03.752Z</time>
      </trkpt>
      <trkpt lat="45.70646" lon="2.90789">
        <ele>936.459273</ele>
        <time>2022-04-22T20:03:05.248Z</time>
      </trkpt>
      <trkpt lat="45.70614" lon="2.90791">
        <ele>936.510053</ele>
        <time>2022-04-22T20:03:10.165Z</time>
      </trkpt>
      <trkpt lat="45.706" lon="2.90784">
        <ele>936.346532</ele>
        <time>2022-04-22T20:03:12.252Z</time>
      </trkpt>
      <trkpt lat="45.70577" lon="2.90759">
        <ele>935.190706</ele>
        <time>2022-04-22T20:03:16.068Z</time>
      </trkpt>
      <trkpt lat="45.70551" lon="2.90717">
        <ele>933.566826</ele>
        <time>2022-04-22T20:03:21.014Z</time>
      </trkpt>
      <trkpt lat="45.70515" lon="2.90606">
        <ele>930.044624</ele>
        <time>2022-04-22T20:03:30.703Z</time>
      </trkpt>
      <trkpt lat="45.70435" lon="2.90421">
        <ele>921.89531</ele>
        <time>2022-04-22T20:03:47.199Z</time>
      </trkpt>
      <trkpt lat="45.7043" lon="2.90381">
        <ele>920.315208</ele>
        <time>2022-04-22T20:03:50.393Z</time>
      </trkpt>
      <trkpt lat="45.70433" lon="2.90365">
        <ele>919.675723</ele>
        <time>2022-04-22T20:03:51.704Z</time>
      </trkpt>
      <trkpt lat="45.70469" lon="2.90317">
        <ele>918.87109</ele>
        <time>2022-04-22T20:03:57.749Z</time>
      </trkpt>
      <trkpt lat="45.70492" lon="2.90297">
        <ele>918.705514</ele>
        <time>2022-04-22T20:04:01.272Z</time>
      </trkpt>
      <trkpt lat="45.70509" lon="2.90268">
        <ele>918.537615</ele>
        <time>2022-04-22T20:04:05.306Z</time>
      </trkpt>
      <trkpt lat="45.70521" lon="2.90091">
        <ele>918.254694</ele>
        <time>2022-04-22T20:04:32.651Z</time>
      </trkpt>
      <trkpt lat="45.70506" lon="2.90083">
        <ele>918.36584</ele>
        <time>2022-04-22T20:04:36.624Z</time>
      </trkpt>
      <trkpt lat="45.70491" lon="2.9007">
        <ele>918.490004</ele>
        <time>2022-04-22T20:04:40.351Z</time>
      </trkpt>
      <trkpt lat="45.70481" lon="2.90043">
        <ele>918.639738</ele>
        <time>2022-04-22T20:04:45.269Z</time>
      </trkpt>
      <trkpt lat="45.70416" lon="2.89979">
        <ele>919.18528</ele>
        <time>2022-04-22T20:04:59.137Z</time>
      </trkpt>
      <trkpt lat="45.70376" lon="2.89896">
        <ele>917.200202</ele>
        <time>2022-04-22T20:05:09.056Z</time>
      </trkpt>
      <trkpt lat="45.70339" lon="2.89879">
        <ele>915.901485</ele>
        <time>2022-04-22T20:05:13.969Z</time>
      </trkpt>
      <trkpt lat="45.70287" lon="2.89828">
        <ele>913.807287</ele>
        <time>2022-04-22T20:05:21.017Z</time>
      </trkpt>
      <trkpt lat="45.70249" lon="2.89805">
        <ele>911.576799</ele>
        <time>2022-04-22T20:05:25.579Z</time>
      </trkpt>
      <trkpt lat="45.70217" lon="2.89768">
        <ele>908.83228</ele>
        <time>2022-04-22T20:05:30.009Z</time>
      </trkpt>
      <trkpt lat="45.70193" lon="2.89729">
        <ele>906.39462</ele>
        <time>2022-04-22T20:05:33.911Z</time>
      </trkpt>
      <trkpt lat="45.70188" lon="2.89707">
        <ele>905.330181</ele>
        <time>2022-04-22T20:05:35.548Z</time>
      </trkpt>
      <trkpt lat="45.70158" lon="2.89662">
        <ele>902.399178</ele>
        <time>2022-04-22T20:05:40.286Z</time>
      </trkpt>
      <trkpt lat="45.70109" lon="2.89653">
        <ele>899.400603</ele>
        <time>2022-04-22T20:05:45.724Z</time>
      </trkpt>
      <trkpt lat="45.70087" lon="2.89637">
        <ele>898.057056</ele>
        <time>2022-04-22T20:05:48.272Z</time>
      </trkpt>
      <trkpt lat="45.70048" lon="2.89602">
        <ele>895.484092</ele>
        <time>2022-04-22T20:05:53.248Z</time>
      </trkpt>
      <trkpt lat="45.70004" lon="2.89549">
        <ele>892.227232</ele>
        <time>2022-04-22T20:05:59.911Z</time>
      </trkpt>
      <trkpt lat="45.69977" lon="2.89531">
        <ele>890.970155</ele>
        <time>2022-04-22T20:06:03.423Z</time>
      </trkpt>
      <trkpt lat="45.69938" lon="2.89472">
        <ele>890.356836</ele>
        <time>2022-04-22T20:06:10.209Z</time>
      </trkpt>
      <trkpt lat="45.69937" lon="2.89461">
        <ele>890.275165</ele>
        <time>2022-04-22T20:06:11.232Z</time>
      </trkpt>
      <trkpt lat="45.69907" lon="2.89349">
        <ele>889.360327</ele>
        <time>2022-04-22T20:06:24.701Z</time>
      </trkpt>
      <trkpt lat="45.69876" lon="2.89313">
        <ele>889.798941</ele>
        <time>2022-04-22T20:06:33.596Z</time>
      </trkpt>
      <trkpt lat="45.69874" lon="2.89297">
        <ele>890.236241</ele>
        <time>2022-04-22T20:06:36.310Z</time>
      </trkpt>
      <trkpt lat="45.69896" lon="2.89291">
        <ele>891.134005</ele>
        <time>2022-04-22T20:06:43.377Z</time>
      </trkpt>
      <trkpt lat="45.69965" lon="2.89229">
        <ele>894.327329</ele>
        <time>2022-04-22T20:07:09.818Z</time>
      </trkpt>
      <trkpt lat="45.70022" lon="2.89144">
        <ele>898.51107</ele>
        <time>2022-04-22T20:07:42.699Z</time>
      </trkpt>
      <trkpt lat="45.70046" lon="2.89127">
        <ele>900.231756</ele>
        <time>2022-04-22T20:07:53.129Z</time>
      </trkpt>
      <trkpt lat="45.70074" lon="2.89122">
        <ele>902.061799</ele>
        <time>2022-04-22T20:08:04.450Z</time>
      </trkpt>
      <trkpt lat="45.70119" lon="2.89131">
        <ele>905.025503</ele>
        <time>2022-04-22T20:08:23.080Z</time>
      </trkpt>
      <trkpt lat="45.70213" lon="2.89131">
        <ele>911.562343</ele>
        <time>2022-04-22T20:09:09.020Z</time>
      </trkpt>
      <trkpt lat="45.70227" lon="2.89126">
        <ele>912.61838</ele>
        <time>2022-04-22T20:09:16.489Z</time>
      </trkpt>
      <trkpt lat="45.70247" lon="2.89107">
        <ele>914.329175</ele>
        <time>2022-04-22T20:09:28.298Z</time>
      </trkpt>
      <trkpt lat="45.70288" lon="2.89031">
        <ele>919.187925</ele>
        <time>2022-04-22T20:09:58.923Z</time>
      </trkpt>
      <trkpt lat="45.70315" lon="2.88955">
        <ele>922.087511</ele>
        <time>2022-04-22T20:10:21.568Z</time>
      </trkpt>
      <trkpt lat="45.7016" lon="2.88926">
        <ele>926.939633</ele>
        <time>2022-04-22T20:11:03.359Z</time>
      </trkpt>
      <trkpt lat="45.7" lon="2.88895">
        <ele>928.395148</ele>
        <time>2022-04-22T20:11:33.657Z</time>
      </trkpt>
      <trkpt lat="45.69696" lon="2.88925">
        <ele>929.880239</ele>
        <time>2022-04-22T20:12:26.499Z</time>
      </trkpt>
      <trkpt lat="45.69587" lon="2.88917">
        <ele>931.239608</ele>
        <time>2022-04-22T20:12:50.268Z</time>
      </trkpt>
      <trkpt lat="45.6947" lon="2.88861">
        <ele>933.648342</ele>
        <time>2022-04-22T20:13:20.874Z</time>
      </trkpt>
      <trkpt lat="45.69399" lon="2.88834">
        <ele>935.136028</ele>
        <time>2022-04-22T20:13:39.393Z</time>
      </trkpt>
      <trkpt lat="45.69337" lon="2.88848">
        <ele>936.426629</ele>
        <time>2022-04-22T20:13:54.485Z</time>
      </trkpt>
      <trkpt lat="45.69221" lon="2.88852">
        <ele>938.837159</ele>
        <time>2022-04-22T20:14:22.071Z</time>
      </trkpt>
      <trkpt lat="45.69198" lon="2.88842">
        <ele>939.347124</ele>
        <time>2022-04-22T20:14:27.528Z</time>
      </trkpt>
      <trkpt lat="45.69178" lon="2.88812">
        <ele>939.966479</ele>
        <time>2022-04-22T20:14:34.251Z</time>
      </trkpt>
      <trkpt lat="45.69158" lon="2.88792">
        <ele>940.479703</ele>
        <time>2022-04-22T20:14:40.386Z</time>
      </trkpt>
      <trkpt lat="45.69119" lon="2.88766">
        <ele>941.461855</ele>
        <time>2022-04-22T20:14:51.766Z</time>
      </trkpt>
      <trkpt lat="45.69051" lon="2.88768">
        <ele>944.04125</ele>
        <time>2022-04-22T20:15:11.804Z</time>
      </trkpt>
      <trkpt lat="45.69029" lon="2.8876">
        <ele>944.906493</ele>
        <time>2022-04-22T20:15:18.796Z</time>
      </trkpt>
      <trkpt lat="45.68923" lon="2.88685">
        <ele>949.547842</ele>
        <time>2022-04-22T20:15:58.652Z</time>
      </trkpt>
      <trkpt lat="45.68878" lon="2.88646">
        <ele>951.817511</ele>
        <time>2022-04-22T20:16:18.152Z</time>
      </trkpt>
      <trkpt lat="45.68897" lon="2.88597">
        <ele>953.474714</ele>
        <time>2022-04-22T20:16:31.463Z</time>
      </trkpt>
      <trkpt lat="45.68898" lon="2.8858">
        <ele>953.984266</ele>
        <time>2022-04-22T20:16:35.777Z</time>
      </trkpt>
      <trkpt lat="45.68895" lon="2.8851">
        <ele>955.928394</ele>
        <time>2022-04-22T20:16:50.391Z</time>
      </trkpt>
      <trkpt lat="45.68896" lon="2.88487">
        <ele>956.051167</ele>
        <time>2022-04-22T20:16:54.960Z</time>
      </trkpt>
      <trkpt lat="45.68914" lon="2.88393">
        <ele>956.553502</ele>
        <time>2022-04-22T20:17:12.207Z</time>
      </trkpt>
      <trkpt lat="45.68937" lon="2.88127">
        <ele>953.765308</ele>
        <time>2022-04-22T20:17:38.419Z</time>
      </trkpt>
      <trkpt lat="45.68945" lon="2.88106">
        <ele>953.180295</ele>
        <time>2022-04-22T20:17:40.359Z</time>
      </trkpt>
      <trkpt lat="45.6892" lon="2.88013">
        <ele>950.512449</ele>
        <time>2022-04-22T20:17:53.400Z</time>
      </trkpt>
      <trkpt lat="45.68913" lon="2.87956">
        <ele>946.781326</ele>
        <time>2022-04-22T20:18:00.526Z</time>
      </trkpt>
      <trkpt lat="45.68922" lon="2.87865">
        <ele>940.769127</ele>
        <time>2022-04-22T20:18:11.752Z</time>
      </trkpt>
      <trkpt lat="45.6892" lon="2.87829">
        <ele>938.382844</ele>
        <time>2022-04-22T20:18:16.119Z</time>
      </trkpt>
      <trkpt lat="45.6891" lon="2.87696">
        <ele>926.757942</ele>
        <time>2022-04-22T20:18:32.020Z</time>
      </trkpt>
      <trkpt lat="45.68904" lon="2.87504">
        <ele>905.780855</ele>
        <time>2022-04-22T20:18:53.353Z</time>
      </trkpt>
      <trkpt lat="45.68932" lon="2.87425">
        <ele>894.120748</ele>
        <time>2022-04-22T20:19:03.048Z</time>
      </trkpt>
      <trkpt lat="45.68971" lon="2.87271">
        <ele>872.697946</ele>
        <time>2022-04-22T20:19:20.889Z</time>
      </trkpt>
      <trkpt lat="45.68972" lon="2.87245">
        <ele>870.27245</ele>
        <time>2022-04-22T20:19:23.849Z</time>
      </trkpt>
      <trkpt lat="45.68957" lon="2.87133">
        <ele>861.071924</ele>
        <time>2022-04-22T20:19:36.950Z</time>
      </trkpt>
      <trkpt lat="45.68932" lon="2.87088">
        <ele>856.39526</ele>
        <time>2022-04-22T20:19:43.963Z</time>
      </trkpt>
      <trkpt lat="45.68939" lon="2.87038">
        <ele>852.284203</ele>
        <time>2022-04-22T20:19:50.481Z</time>
      </trkpt>
      <trkpt lat="45.68931" lon="2.86998">
        <ele>850.34351</ele>
        <time>2022-04-22T20:19:55.844Z</time>
      </trkpt>
      <trkpt lat="45.68944" lon="2.86932">
        <ele>848.227307</ele>
        <time>2022-04-22T20:20:04.862Z</time>
      </trkpt>
      <trkpt lat="45.6895" lon="2.86906">
        <ele>847.39815</ele>
        <time>2022-04-22T20:20:08.477Z</time>
      </trkpt>
      <trkpt lat="45.68976" lon="2.86867">
        <ele>845.746343</ele>
        <time>2022-04-22T20:20:16.092Z</time>
      </trkpt>
      <trkpt lat="45.68988" lon="2.86862">
        <ele>845.217531</ele>
        <time>2022-04-22T20:20:18.640Z</time>
      </trkpt>
      <trkpt lat="45.69028" lon="2.86864">
        <ele>843.43198</ele>
        <time>2022-04-22T20:20:27.674Z</time>
      </trkpt>
      <trkpt lat="45.6914" lon="2.86847">
        <ele>841.749701</ele>
        <time>2022-04-22T20:20:52.912Z</time>
      </trkpt>
      <trkpt lat="45.69214" lon="2.86801">
        <ele>840.70038</ele>
        <time>2022-04-22T20:21:04.268Z</time>
      </trkpt>
      <trkpt lat="45.69218" lon="2.86784">
        <ele>840.659541</ele>
        <time>2022-04-22T20:21:06.383Z</time>
      </trkpt>
      <trkpt lat="45.69206" lon="2.86753">
        <ele>840.581894</ele>
        <time>2022-04-22T20:21:09.707Z</time>
      </trkpt>
      <trkpt lat="45.69205" lon="2.86736">
        <ele>840.544651</ele>
        <time>2022-04-22T20:21:11.891Z</time>
      </trkpt>
      <trkpt lat="45.69228" lon="2.86703">
        <ele>840.442427</ele>
        <time>2022-04-22T20:21:16.578Z</time>
      </trkpt>
      <trkpt lat="45.69229" lon="2.86689">
        <ele>840.411442</ele>
        <time>2022-04-22T20:21:18.486Z</time>
      </trkpt>
      <trkpt lat="45.69241" lon="2.86717">
        <ele>840.338713</ele>
        <time>2022-04-22T20:21:21.706Z</time>
      </trkpt>
      <trkpt lat="45.69248" lon="2.86764">
        <ele>840.230689</ele>
        <time>2022-04-22T20:21:27.363Z</time>
      </trkpt>
      <trkpt lat="45.69254" lon="2.86778">
        <ele>840.194777</ele>
        <time>2022-04-22T20:21:30.089Z</time>
      </trkpt>
      <trkpt lat="45.69271" lon="2.86796">
        <ele>840.360122</ele>
        <time>2022-04-22T20:21:33.486Z</time>
      </trkpt>
      <trkpt lat="45.69349" lon="2.86813">
        <ele>841.792392</ele>
        <time>2022-04-22T20:21:49.985Z</time>
      </trkpt>
      <trkpt lat="45.69429" lon="2.86806">
        <ele>843.236175</ele>
        <time>2022-04-22T20:22:10.461Z</time>
      </trkpt>
      <trkpt lat="45.69465" lon="2.86865">
        <ele>844.353191</ele>
        <time>2022-04-22T20:22:27.278Z</time>
      </trkpt>
      <trkpt lat="45.6948" lon="2.86863">
        <ele>844.656777</ele>
        <time>2022-04-22T20:22:31.845Z</time>
      </trkpt>
      <trkpt lat="45.69507" lon="2.86823">
        <ele>845.481962</ele>
        <time>2022-04-22T20:22:43.345Z</time>
      </trkpt>
      <trkpt lat="45.6953" lon="2.86804">
        <ele>846.020762</ele>
        <time>2022-04-22T20:22:49.763Z</time>
      </trkpt>
      <trkpt lat="45.69582" lon="2.86812">
        <ele>847.121271</ele>
        <time>2022-04-22T20:23:01.795Z</time>
      </trkpt>
      <trkpt lat="45.69843" lon="2.8674">
        <ele>840.994387</ele>
        <time>2022-04-22T20:23:36.083Z</time>
      </trkpt>
      <trkpt lat="45.70141" lon="2.86671">
        <ele>829.319521</ele>
        <time>2022-04-22T20:24:11.079Z</time>
      </trkpt>
      <trkpt lat="45.7028" lon="2.86624">
        <ele>825.101371</ele>
        <time>2022-04-22T20:24:28.888Z</time>
      </trkpt>
      <trkpt lat="45.70672" lon="2.86472">
        <ele>818.343967</ele>
        <time>2022-04-22T20:25:26.058Z</time>
      </trkpt>
      <trkpt lat="45.70652" lon="2.86342">
        <ele>814.34411</ele>
        <time>2022-04-22T20:25:36.482Z</time>
      </trkpt>
      <trkpt lat="45.70656" lon="2.86257">
        <ele>812.102059</ele>
        <time>2022-04-22T20:25:43.076Z</time>
      </trkpt>
      <trkpt lat="45.7063" lon="2.86158">
        <ele>811.795825</ele>
        <time>2022-04-22T20:25:52.019Z</time>
      </trkpt>
      <trkpt lat="45.70628" lon="2.86142">
        <ele>811.748301</ele>
        <time>2022-04-22T20:25:53.983Z</time>
      </trkpt>
      <trkpt lat="45.70624" lon="2.86132">
        <ele>811.718325</ele>
        <time>2022-04-22T20:25:55.438Z</time>
      </trkpt>
      <trkpt lat="45.70622" lon="2.86081">
        <ele>811.569945</ele>
        <time>2022-04-22T20:26:03.810Z</time>
      </trkpt>
      <trkpt lat="45.70606" lon="2.86007">
        <ele>812.352531</ele>
        <time>2022-04-22T20:26:18.808Z</time>
      </trkpt>
      <trkpt lat="45.7059" lon="2.85965">
        <ele>815.228066</ele>
        <time>2022-04-22T20:26:32.037Z</time>
      </trkpt>
      <trkpt lat="45.7059" lon="2.85956">
        <ele>815.787583</ele>
        <time>2022-04-22T20:26:35.069Z</time>
      </trkpt>
      <trkpt lat="45.70591" lon="2.85927">
        <ele>817.514298</ele>
        <time>2022-04-22T20:26:45.368Z</time>
      </trkpt>
      <trkpt lat="45.70618" lon="2.85908">
        <ele>820.051114</ele>
        <time>2022-04-22T20:27:01.165Z</time>
      </trkpt>
      <trkpt lat="45.70668" lon="2.85899">
        <ele>824.391198</ele>
        <time>2022-04-22T20:27:30.029Z</time>
      </trkpt>
      <trkpt lat="45.70673" lon="2.85891">
        <ele>825.060554</ele>
        <time>2022-04-22T20:27:34.871Z</time>
      </trkpt>
      <trkpt lat="45.70724" lon="2.85834">
        <ele>832.371389</ele>
        <time>2022-04-22T20:28:15.440Z</time>
      </trkpt>
      <trkpt lat="45.70781" lon="2.85767">
        <ele>841.752137</ele>
        <time>2022-04-22T20:29:04.353Z</time>
      </trkpt>
      <trkpt lat="45.70853" lon="2.8563">
        <ele>855.636944</ele>
        <time>2022-04-22T20:31:16.107Z</time>
      </trkpt>
      <trkpt lat="45.70836" lon="2.85557">
        <ele>861.32425</ele>
        <time>2022-04-22T20:31:49.074Z</time>
      </trkpt>
      <trkpt lat="45.70736" lon="2.85632">
        <ele>870.774801</ele>
        <time>2022-04-22T20:32:42.087Z</time>
      </trkpt>
      <trkpt lat="45.70669" lon="2.85649">
        <ele>874.077828</ele>
        <time>2022-04-22T20:33:03.254Z</time>
      </trkpt>
      <trkpt lat="45.70597" lon="2.85641">
        <ele>877.735789</ele>
        <time>2022-04-22T20:33:24.903Z</time>
      </trkpt>
      <trkpt lat="45.70554" lon="2.85611">
        <ele>881.001777</ele>
        <time>2022-04-22T20:33:40.823Z</time>
      </trkpt>
      <trkpt lat="45.70516" lon="2.85566">
        <ele>884.345398</ele>
        <time>2022-04-22T20:34:01.540Z</time>
      </trkpt>
      <trkpt lat="45.7048" lon="2.85489">
        <ele>888.779055</ele>
        <time>2022-04-22T20:34:34.779Z</time>
      </trkpt>
      <trkpt lat="45.70436" lon="2.85432">
        <ele>894.099211</ele>
        <time>2022-04-22T20:35:07.631Z</time>
      </trkpt>
      <trkpt lat="45.70375" lon="2.85366">
        <ele>901.496503</ele>
        <time>2022-04-22T20:35:50.956Z</time>
      </trkpt>
      <trkpt lat="45.70365" lon="2.85363">
        <ele>902.449265</ele>
        <time>2022-04-22T20:35:56.708Z</time>
      </trkpt>
      <trkpt lat="45.70327" lon="2.85351">
        <ele>906.154048</ele>
        <time>2022-04-22T20:36:18.856Z</time>
      </trkpt>
      <trkpt lat="45.70223" lon="2.85298">
        <ele>913.95881</ele>
        <time>2022-04-22T20:37:11.310Z</time>
      </trkpt>
      <trkpt lat="45.69691" lon="2.85094">
        <ele>942.345097</ele>
        <time>2022-04-22T20:40:30.166Z</time>
      </trkpt>
      <trkpt lat="45.69594" lon="2.85041">
        <ele>946.940318</ele>
        <time>2022-04-22T20:41:02.790Z</time>
      </trkpt>
      <trkpt lat="45.69545" lon="2.84994">
        <ele>949.417765</ele>
        <time>2022-04-22T20:41:22.801Z</time>
      </trkpt>
      <trkpt lat="45.69394" lon="2.84934">
        <ele>953.820256</ele>
        <time>2022-04-22T20:42:14.726Z</time>
      </trkpt>
      <trkpt lat="45.69305" lon="2.84876">
        <ele>955.080905</ele>
        <time>2022-04-22T20:42:30.862Z</time>
      </trkpt>
      <trkpt lat="45.69196" lon="2.84794">
        <ele>951.666454</ele>
        <time>2022-04-22T20:42:45.920Z</time>
      </trkpt>
      <trkpt lat="45.69157" lon="2.84739">
        <ele>949.979954</ele>
        <time>2022-04-22T20:42:52.343Z</time>
      </trkpt>
      <trkpt lat="45.69134" lon="2.84715">
        <ele>949.048793</ele>
        <time>2022-04-22T20:42:55.785Z</time>
      </trkpt>
      <trkpt lat="45.69071" lon="2.84688">
        <ele>946.851705</ele>
        <time>2022-04-22T20:43:03.980Z</time>
      </trkpt>
      <trkpt lat="45.69023" lon="2.84637">
        <ele>944.879447</ele>
        <time>2022-04-22T20:43:11.496Z</time>
      </trkpt>
      <trkpt lat="45.68924" lon="2.84528">
        <ele>938.081726</ele>
        <time>2022-04-22T20:43:26.128Z</time>
      </trkpt>
      <trkpt lat="45.68878" lon="2.84489">
        <ele>934.705843</ele>
        <time>2022-04-22T20:43:31.808Z</time>
      </trkpt>
      <trkpt lat="45.68805" lon="2.84473">
        <ele>928.75097</ele>
        <time>2022-04-22T20:43:39.385Z</time>
      </trkpt>
      <trkpt lat="45.6874" lon="2.84461">
        <ele>922.281903</ele>
        <time>2022-04-22T20:43:45.928Z</time>
      </trkpt>
      <trkpt lat="45.68666" lon="2.84438">
        <ele>914.638447</ele>
        <time>2022-04-22T20:43:53.714Z</time>
      </trkpt>
      <trkpt lat="45.68615" lon="2.84441">
        <ele>910.98424</ele>
        <time>2022-04-22T20:43:58.762Z</time>
      </trkpt>
      <trkpt lat="45.68503" lon="2.84408">
        <ele>902.890416</ele>
        <time>2022-04-22T20:44:11.171Z</time>
      </trkpt>
      <trkpt lat="45.68496" lon="2.84394">
        <ele>902.026721</ele>
        <time>2022-04-22T20:44:12.488Z</time>
      </trkpt>
      <trkpt lat="45.68463" lon="2.84395">
        <ele>901.416948</ele>
        <time>2022-04-22T20:44:16.463Z</time>
      </trkpt>
      <trkpt lat="45.68446" lon="2.84397">
        <ele>901.295985</ele>
        <time>2022-04-22T20:44:18.776Z</time>
      </trkpt>
      <trkpt lat="45.68418" lon="2.84391">
        <ele>901.08408</ele>
        <time>2022-04-22T20:44:22.443Z</time>
      </trkpt>
      <trkpt lat="45.68241" lon="2.84332">
        <ele>901.104476</ele>
        <time>2022-04-22T20:44:56.023Z</time>
      </trkpt>
      <trkpt lat="45.68203" lon="2.84317">
        <ele>901.545698</ele>
        <time>2022-04-22T20:45:04.407Z</time>
      </trkpt>
      <trkpt lat="45.68176" lon="2.84307">
        <ele>901.850816</ele>
        <time>2022-04-22T20:45:10.591Z</time>
      </trkpt>
      <trkpt lat="45.68131" lon="2.84285">
        <ele>902.474323</ele>
        <time>2022-04-22T20:45:19.604Z</time>
      </trkpt>
      <trkpt lat="45.6812" lon="2.84277">
        <ele>902.769662</ele>
        <time>2022-04-22T20:45:21.488Z</time>
      </trkpt>
      <trkpt lat="45.68115" lon="2.84283">
        <ele>902.923327</ele>
        <time>2022-04-22T20:45:24.360Z</time>
      </trkpt>
      <trkpt lat="45.68103" lon="2.84282">
        <ele>903.180073</ele>
        <time>2022-04-22T20:45:26.267Z</time>
      </trkpt>
      <trkpt lat="45.68048" lon="2.84264">
        <ele>904.468904</ele>
        <time>2022-04-22T20:45:37.836Z</time>
      </trkpt>
      <trkpt lat="45.67945" lon="2.84205">
        <ele>907.870353</ele>
        <time>2022-04-22T20:46:11.049Z</time>
      </trkpt>
      <trkpt lat="45.67862" lon="2.84196">
        <ele>912.398502</ele>
        <time>2022-04-22T20:46:39.264Z</time>
      </trkpt>
      <trkpt lat="45.6785" lon="2.84205">
        <ele>913.136097</ele>
        <time>2022-04-22T20:46:46.389Z</time>
      </trkpt>
      <trkpt lat="45.67786" lon="2.84206">
        <ele>917.010576</ele>
        <time>2022-04-22T20:47:14.024Z</time>
      </trkpt>
      <trkpt lat="45.67719" lon="2.84215">
        <ele>923.413625</ele>
        <time>2022-04-22T20:47:47.803Z</time>
      </trkpt>
      <trkpt lat="45.67693" lon="2.84226">
        <ele>926.089899</ele>
        <time>2022-04-22T20:48:04.177Z</time>
      </trkpt>
      <trkpt lat="45.67655" lon="2.84267">
        <ele>930.711146</ele>
        <time>2022-04-22T20:48:29.109Z</time>
      </trkpt>
      <trkpt lat="45.67597" lon="2.84348">
        <ele>941.897206</ele>
        <time>2022-04-22T20:49:21.844Z</time>
      </trkpt>
      <trkpt lat="45.67553" lon="2.84432">
        <ele>953.84765</ele>
        <time>2022-04-22T20:50:25.396Z</time>
      </trkpt>
      <trkpt lat="45.6752" lon="2.84514">
        <ele>964.446038</ele>
        <time>2022-04-22T20:51:28.302Z</time>
      </trkpt>
      <trkpt lat="45.67465" lon="2.84625">
        <ele>979.004998</ele>
        <time>2022-04-22T20:52:51.187Z</time>
      </trkpt>
      <trkpt lat="45.67442" lon="2.8465">
        <ele>983.393347</ele>
        <time>2022-04-22T20:53:09.844Z</time>
      </trkpt>
      <trkpt lat="45.67397" lon="2.84657">
        <ele>990.305146</ele>
        <time>2022-04-22T20:53:40.428Z</time>
      </trkpt>
      <trkpt lat="45.67375" lon="2.84653">
        <ele>991.877942</ele>
        <time>2022-04-22T20:53:51.980Z</time>
      </trkpt>
      <trkpt lat="45.6736" lon="2.8464">
        <ele>993.186918</ele>
        <time>2022-04-22T20:54:03.105Z</time>
      </trkpt>
      <trkpt lat="45.67332" lon="2.84599">
        <ele>996.141788</ele>
        <time>2022-04-22T20:54:21.306Z</time>
      </trkpt>
      <trkpt lat="45.6732" lon="2.84594">
        <ele>997.057844</ele>
        <time>2022-04-22T20:54:26.735Z</time>
      </trkpt>
      <trkpt lat="45.67306" lon="2.84607">
        <ele>998.254566</ele>
        <time>2022-04-22T20:54:36.134Z</time>
      </trkpt>
      <trkpt lat="45.67314" lon="2.84678">
        <ele>1001.924965</ele>
        <time>2022-04-22T20:55:00.312Z</time>
      </trkpt>
      <trkpt lat="45.67299" lon="2.84748">
        <ele>1006.326091</ele>
        <time>2022-04-22T20:55:26.949Z</time>
      </trkpt>
      <trkpt lat="45.67275" lon="2.84827">
        <ele>1011.988511</ele>
        <time>2022-04-22T20:56:08.207Z</time>
      </trkpt>
      <trkpt lat="45.6723" lon="2.84959">
        <ele>1021.16008</ele>
        <time>2022-04-22T20:57:17.411Z</time>
      </trkpt>
      <trkpt lat="45.67204" lon="2.8499">
        <ele>1023.247458</ele>
        <time>2022-04-22T20:57:38.195Z</time>
      </trkpt>
      <trkpt lat="45.67118" lon="2.84994">
        <ele>1028.594058</ele>
        <time>2022-04-22T20:58:18.895Z</time>
      </trkpt>
      <trkpt lat="45.67152" lon="2.85037">
        <ele>1031.395198</ele>
        <time>2022-04-22T20:58:32.152Z</time>
      </trkpt>
      <trkpt lat="45.67191" lon="2.85102">
        <ele>1033.680753</ele>
        <time>2022-04-22T20:58:50.226Z</time>
      </trkpt>
      <trkpt lat="45.67195" lon="2.85119">
        <ele>1034.183831</ele>
        <time>2022-04-22T20:58:53.605Z</time>
      </trkpt>
      <trkpt lat="45.67181" lon="2.8512">
        <ele>1034.741792</ele>
        <time>2022-04-22T20:58:58.195Z</time>
      </trkpt>
      <trkpt lat="45.66981" lon="2.85052">
        <ele>1043.620326</ele>
        <time>2022-04-22T21:00:03.626Z</time>
      </trkpt>
      <trkpt lat="45.66969" lon="2.85047">
        <ele>1044.2031</ele>
        <time>2022-04-22T21:00:08.127Z</time>
      </trkpt>
      <trkpt lat="45.66676" lon="2.84929">
        <ele>1063.270169</ele>
        <time>2022-04-22T21:02:14.201Z</time>
      </trkpt>
      <trkpt lat="45.66558" lon="2.84881">
        <ele>1072.199644</ele>
        <time>2022-04-22T21:03:14.918Z</time>
      </trkpt>
      <trkpt lat="45.66388" lon="2.84775">
        <ele>1084.634636</ele>
        <time>2022-04-22T21:04:33.623Z</time>
      </trkpt>
      <trkpt lat="45.66334" lon="2.84737">
        <ele>1088.345753</ele>
        <time>2022-04-22T21:04:57.355Z</time>
      </trkpt>
      <trkpt lat="45.66311" lon="2.84714">
        <ele>1090.049703</ele>
        <time>2022-04-22T21:05:08.549Z</time>
      </trkpt>
      <trkpt lat="45.66267" lon="2.84757">
        <ele>1093.350539</ele>
        <time>2022-04-22T21:05:34.904Z</time>
      </trkpt>
      <trkpt lat="45.66206" lon="2.84777">
        <ele>1097.619622</ele>
        <time>2022-04-22T21:06:06.753Z</time>
      </trkpt>
      <trkpt lat="45.66201" lon="2.8479">
        <ele>1098.400422</ele>
        <time>2022-04-22T21:06:13.441Z</time>
      </trkpt>
      <trkpt lat="45.66197" lon="2.8488">
        <ele>1102.86512</ele>
        <time>2022-04-22T21:06:45.316Z</time>
      </trkpt>
      <trkpt lat="45.66189" lon="2.8489">
        <ele>1103.617326</ele>
        <time>2022-04-22T21:06:51.872Z</time>
      </trkpt>
      <trkpt lat="45.66175" lon="2.84896">
        <ele>1104.703679</ele>
        <time>2022-04-22T21:06:59.606Z</time>
      </trkpt>
      <trkpt lat="45.66161" lon="2.84911">
        <ele>1105.953232</ele>
        <time>2022-04-22T21:07:10.427Z</time>
      </trkpt>
      <trkpt lat="45.66061" lon="2.84956">
        <ele>1114.579509</ele>
        <time>2022-04-22T21:08:11.398Z</time>
      </trkpt>
      <trkpt lat="45.66027" lon="2.84965">
        <ele>1117.555021</ele>
        <time>2022-04-22T21:08:32.236Z</time>
      </trkpt>
      <trkpt lat="45.6599" lon="2.84982">
        <ele>1120.914039</ele>
        <time>2022-04-22T21:08:55.335Z</time>
      </trkpt>
      <trkpt lat="45.65883" lon="2.85013">
        <ele>1130.402209</ele>
        <time>2022-04-22T21:10:05.105Z</time>
      </trkpt>
      <trkpt lat="45.65801" lon="2.8505">
        <ele>1137.877112</ele>
        <time>2022-04-22T21:10:54.226Z</time>
      </trkpt>
      <trkpt lat="45.65713" lon="2.85121">
        <ele>1145.870278</ele>
        <time>2022-04-22T21:11:53.330Z</time>
      </trkpt>
      <trkpt lat="45.65668" lon="2.85174">
        <ele>1150.360247</ele>
        <time>2022-04-22T21:12:25.815Z</time>
      </trkpt>
      <trkpt lat="45.65656" lon="2.85207">
        <ele>1152.413424</ele>
        <time>2022-04-22T21:12:40.103Z</time>
      </trkpt>
      <trkpt lat="45.65533" lon="2.85364">
        <ele>1164.441924</ele>
        <time>2022-04-22T21:14:08.978Z</time>
      </trkpt>
      <trkpt lat="45.65488" lon="2.85396">
        <ele>1168.15143</ele>
        <time>2022-04-22T21:14:37.113Z</time>
      </trkpt>
      <trkpt lat="45.65462" lon="2.85402">
        <ele>1170.1401</ele>
        <time>2022-04-22T21:14:53.193Z</time>
      </trkpt>
      <trkpt lat="45.6537" lon="2.85392">
        <ele>1176.989717</ele>
        <time>2022-04-22T21:15:44.634Z</time>
      </trkpt>
      <trkpt lat="45.65313" lon="2.85387">
        <ele>1180.559913</ele>
        <time>2022-04-22T21:16:09.313Z</time>
      </trkpt>
      <trkpt lat="45.65291" lon="2.85324">
        <ele>1183.025804</ele>
        <time>2022-04-22T21:16:27.862Z</time>
      </trkpt>
      <trkpt lat="45.65263" lon="2.85278">
        <ele>1185.183332</ele>
        <time>2022-04-22T21:16:43.048Z</time>
      </trkpt>
      <trkpt lat="45.65234" lon="2.85254">
        <ele>1186.847926</ele>
        <time>2022-04-22T21:16:53.942Z</time>
      </trkpt>
      <trkpt lat="45.65197" lon="2.8524">
        <ele>1188.537356</ele>
        <time>2022-04-22T21:17:04.590Z</time>
      </trkpt>
      <trkpt lat="45.65086" lon="2.8522">
        <ele>1191.939021</ele>
        <time>2022-04-22T21:17:33.016Z</time>
      </trkpt>
      <trkpt lat="45.64976" lon="2.85207">
        <ele>1196.163483</ele>
        <time>2022-04-22T21:18:05.378Z</time>
      </trkpt>
      <trkpt lat="45.64891" lon="2.85257">
        <ele>1200.356374</ele>
        <time>2022-04-22T21:18:46.077Z</time>
      </trkpt>
      <trkpt lat="45.64806" lon="2.85316">
        <ele>1204.396177</ele>
        <time>2022-04-22T21:19:32.655Z</time>
      </trkpt>
      <trkpt lat="45.64772" lon="2.85355">
        <ele>1206.185781</ele>
        <time>2022-04-22T21:19:51.485Z</time>
      </trkpt>
      <trkpt lat="45.64769" lon="2.85359">
        <ele>1206.353703</ele>
        <time>2022-04-22T21:19:52.705Z</time>
      </trkpt>
      <trkpt lat="45.64753" lon="2.85395">
        <ele>1207.54786</ele>
        <time>2022-04-22T21:20:01.556Z</time>
      </trkpt>
      <trkpt lat="45.64745" lon="2.8544">
        <ele>1208.90301</ele>
        <time>2022-04-22T21:20:10.415Z</time>
      </trkpt>
      <trkpt lat="45.64745" lon="2.85476">
        <ele>1209.256241</ele>
        <time>2022-04-22T21:20:16.527Z</time>
      </trkpt>
      <trkpt lat="45.64744" lon="2.85513">
        <ele>1209.265394</ele>
        <time>2022-04-22T21:20:21.845Z</time>
      </trkpt>
      <trkpt lat="45.64749" lon="2.85578">
        <ele>1209.281517</ele>
        <time>2022-04-22T21:20:29.872Z</time>
      </trkpt>
      <trkpt lat="45.6477" lon="2.85674">
        <ele>1209.306102</ele>
        <time>2022-04-22T21:20:39.532Z</time>
      </trkpt>
      <trkpt lat="45.64779" lon="2.85711">
        <ele>1209.316764</ele>
        <time>2022-04-22T21:20:43.205Z</time>
      </trkpt>
      <trkpt lat="45.64795" lon="2.85844">
        <ele>1209.368106</ele>
        <time>2022-04-22T21:20:58.323Z</time>
      </trkpt>
      <trkpt lat="45.64772" lon="2.86025">
        <ele>1208.740282</ele>
        <time>2022-04-22T21:21:23.245Z</time>
      </trkpt>
      <trkpt lat="45.64743" lon="2.86191">
        <ele>1207.084901</ele>
        <time>2022-04-22T21:21:39.495Z</time>
      </trkpt>
      <trkpt lat="45.64735" lon="2.86267">
        <ele>1204.320208</ele>
        <time>2022-04-22T21:21:45.754Z</time>
      </trkpt>
      <trkpt lat="45.6473" lon="2.86381">
        <ele>1199.328823</ele>
        <time>2022-04-22T21:21:54.578Z</time>
      </trkpt>
      <trkpt lat="45.64724" lon="2.86544">
        <ele>1190.976045</ele>
        <time>2022-04-22T21:22:06.384Z</time>
      </trkpt>
      <trkpt lat="45.64727" lon="2.86624">
        <ele>1186.165557</ele>
        <time>2022-04-22T21:22:12.238Z</time>
      </trkpt>
      <trkpt lat="45.64728" lon="2.8663">
        <ele>1185.779946</ele>
        <time>2022-04-22T21:22:12.711Z</time>
      </trkpt>
      <trkpt lat="45.64791" lon="2.86738">
        <ele>1177.745101</ele>
        <time>2022-04-22T21:22:22.870Z</time>
      </trkpt>
      <trkpt lat="45.64933" lon="2.8685">
        <ele>1165.960623</ele>
        <time>2022-04-22T21:22:40.065Z</time>
      </trkpt>
      <trkpt lat="45.65062" lon="2.86957">
        <ele>1159.718316</ele>
        <time>2022-04-22T21:22:57.353Z</time>
      </trkpt>
      <trkpt lat="45.65012" lon="2.87103">
        <ele>1160.848969</ele>
        <time>2022-04-22T21:23:29.728Z</time>
      </trkpt>
      <trkpt lat="45.65008" lon="2.87117">
        <ele>1161.024197</ele>
        <time>2022-04-22T21:23:33.748Z</time>
      </trkpt>
      <trkpt lat="45.64953" lon="2.87154">
        <ele>1162.028584</ele>
        <time>2022-04-22T21:23:58.768Z</time>
      </trkpt>
      <trkpt lat="45.64897" lon="2.87238">
        <ele>1163.541142</ele>
        <time>2022-04-22T21:24:31.950Z</time>
      </trkpt>
      <trkpt lat="45.64856" lon="2.87286">
        <ele>1164.539303</ele>
        <time>2022-04-22T21:24:50.870Z</time>
      </trkpt>
      <trkpt lat="45.64781" lon="2.87375">
        <ele>1163.565148</ele>
        <time>2022-04-22T21:25:14.213Z</time>
      </trkpt>
      <trkpt lat="45.6469" lon="2.87501">
        <ele>1157.746816</ele>
        <time>2022-04-22T21:25:38.171Z</time>
      </trkpt>
      <trkpt lat="45.64629" lon="2.87557">
        <ele>1152.204902</ele>
        <time>2022-04-22T21:25:51.171Z</time>
      </trkpt>
      <trkpt lat="45.64536" lon="2.87598">
        <ele>1144.370686</ele>
        <time>2022-04-22T21:26:08.169Z</time>
      </trkpt>
      <trkpt lat="45.6452" lon="2.87615">
        <ele>1142.774824</ele>
        <time>2022-04-22T21:26:11.807Z</time>
      </trkpt>
      <trkpt lat="45.64516" lon="2.87626">
        <ele>1142.230192</ele>
        <time>2022-04-22T21:26:13.222Z</time>
      </trkpt>
      <trkpt lat="45.6452" lon="2.8768">
        <ele>1139.785937</ele>
        <time>2022-04-22T21:26:20.169Z</time>
      </trkpt>
      <trkpt lat="45.64546" lon="2.87811">
        <ele>1133.599287</ele>
        <time>2022-04-22T21:26:38.005Z</time>
      </trkpt>
      <trkpt lat="45.64579" lon="2.87846">
        <ele>1131.016728</ele>
        <time>2022-04-22T21:26:45.670Z</time>
      </trkpt>
      <trkpt lat="45.64625" lon="2.87879">
        <ele>1128.866927</ele>
        <time>2022-04-22T21:26:55.629Z</time>
      </trkpt>
      <trkpt lat="45.64665" lon="2.87917">
        <ele>1126.831141</ele>
        <time>2022-04-22T21:27:04.991Z</time>
      </trkpt>
      <trkpt lat="45.64728" lon="2.87991">
        <ele>1123.666832</ele>
        <time>2022-04-22T21:27:21.586Z</time>
      </trkpt>
      <trkpt lat="45.64739" lon="2.88014">
        <ele>1123.722702</ele>
        <time>2022-04-22T21:27:26.188Z</time>
      </trkpt>
      <trkpt lat="45.64783" lon="2.8807">
        <ele>1123.889017</ele>
        <time>2022-04-22T21:27:39.645Z</time>
      </trkpt>
      <trkpt lat="45.64773" lon="2.88079">
        <ele>1123.922104</ele>
        <time>2022-04-22T21:27:43.886Z</time>
      </trkpt>
      <trkpt lat="45.6474" lon="2.88081">
        <ele>1124.014904</ele>
        <time>2022-04-22T21:27:52.984Z</time>
      </trkpt>
      <trkpt lat="45.64723" lon="2.88089">
        <ele>1124.066454</ele>
        <time>2022-04-22T21:27:58.330Z</time>
      </trkpt>
      <trkpt lat="45.64659" lon="2.88086">
        <ele>1125.170177</ele>
        <time>2022-04-22T21:28:23.043Z</time>
      </trkpt>
      <trkpt lat="45.64616" lon="2.88063">
        <ele>1126.701811</ele>
        <time>2022-04-22T21:28:43.535Z</time>
      </trkpt>
      <trkpt lat="45.64561" lon="2.88078">
        <ele>1128.541615</ele>
        <time>2022-04-22T21:29:04.374Z</time>
      </trkpt>
      <trkpt lat="45.64548" lon="2.88088">
        <ele>1129.034536</ele>
        <time>2022-04-22T21:29:11.019Z</time>
      </trkpt>
      <trkpt lat="45.64494" lon="2.88117">
        <ele>1130.866162</ele>
        <time>2022-04-22T21:29:31.384Z</time>
      </trkpt>
      <trkpt lat="45.64469" lon="2.88117">
        <ele>1131.595261</ele>
        <time>2022-04-22T21:29:40.854Z</time>
      </trkpt>
      <trkpt lat="45.64413" lon="2.88176">
        <ele>1133.637636</ele>
        <time>2022-04-22T21:30:05.068Z</time>
      </trkpt>
      <trkpt lat="45.64368" lon="2.88193">
        <ele>1135.026387</ele>
        <time>2022-04-22T21:30:21.474Z</time>
      </trkpt>
      <trkpt lat="45.64335" lon="2.88195">
        <ele>1136.721862</ele>
        <time>2022-04-22T21:30:34.907Z</time>
      </trkpt>
      <trkpt lat="45.64264" lon="2.88176">
        <ele>1141.511139</ele>
        <time>2022-04-22T21:31:03.718Z</time>
      </trkpt>
      <trkpt lat="45.64124" lon="2.88208">
        <ele>1151.445005</ele>
        <time>2022-04-22T21:32:14.472Z</time>
      </trkpt>
      <trkpt lat="45.64061" lon="2.88233">
        <ele>1156.356716</ele>
        <time>2022-04-22T21:32:48.336Z</time>
      </trkpt>
      <trkpt lat="45.64028" lon="2.88278">
        <ele>1159.871071</ele>
        <time>2022-04-22T21:33:09.386Z</time>
      </trkpt>
      <trkpt lat="45.63944" lon="2.88515">
        <ele>1166.811369</ele>
        <time>2022-04-22T21:34:05.809Z</time>
      </trkpt>
      <trkpt lat="45.6389" lon="2.88647">
        <ele>1166.982715</ele>
        <time>2022-04-22T21:34:24.491Z</time>
      </trkpt>
      <trkpt lat="45.63863" lon="2.88693">
        <ele>1166.916564</ele>
        <time>2022-04-22T21:34:30.525Z</time>
      </trkpt>
      <trkpt lat="45.63824" lon="2.88776">
        <ele>1166.685675</ele>
        <time>2022-04-22T21:34:39.803Z</time>
      </trkpt>
      <trkpt lat="45.63764" lon="2.88837">
        <ele>1166.276677</ele>
        <time>2022-04-22T21:34:49.796Z</time>
      </trkpt>
      <trkpt lat="45.63752" lon="2.88881">
        <ele>1166.090103</ele>
        <time>2022-04-22T21:34:55.399Z</time>
      </trkpt>
      <trkpt lat="45.63749" lon="2.88912">
        <ele>1165.970372</ele>
        <time>2022-04-22T21:34:59.515Z</time>
      </trkpt>
      <trkpt lat="45.63721" lon="2.88952">
        <ele>1165.861129</ele>
        <time>2022-04-22T21:35:07.850Z</time>
      </trkpt>
      <trkpt lat="45.63707" lon="2.88963">
        <ele>1165.8759</ele>
        <time>2022-04-22T21:35:11.245Z</time>
      </trkpt>
      <trkpt lat="45.63671" lon="2.88973">
        <ele>1165.911114</ele>
        <time>2022-04-22T21:35:19.167Z</time>
      </trkpt>
      <trkpt lat="45.63669" lon="2.88973">
        <ele>1165.913504</ele>
        <time>2022-04-22T21:35:19.718Z</time>
      </trkpt>
      <trkpt lat="45.63643" lon="2.88968">
        <ele>1165.937899</ele>
        <time>2022-04-22T21:35:24.493Z</time>
      </trkpt>
      <trkpt lat="45.63631" lon="2.88966">
        <ele>1165.949486</ele>
        <time>2022-04-22T21:35:26.742Z</time>
      </trkpt>
      <trkpt lat="45.63629" lon="2.88965">
        <ele>1165.951415</ele>
        <time>2022-04-22T21:35:27.167Z</time>
      </trkpt>
      <trkpt lat="45.63621" lon="2.88965">
        <ele>1165.959435</ele>
        <time>2022-04-22T21:35:28.598Z</time>
      </trkpt>
      <trkpt lat="45.63554" lon="2.88976">
        <ele>1165.588043</ele>
        <time>2022-04-22T21:35:38.461Z</time>
      </trkpt>
      <trkpt lat="45.63519" lon="2.88981">
        <ele>1163.740841</ele>
        <time>2022-04-22T21:35:42.634Z</time>
      </trkpt>
      <trkpt lat="45.63494" lon="2.88994">
        <ele>1162.312552</ele>
        <time>2022-04-22T21:35:45.710Z</time>
      </trkpt>
      <trkpt lat="45.63464" lon="2.89014">
        <ele>1160.558623</ele>
        <time>2022-04-22T21:35:49.364Z</time>
      </trkpt>
      <trkpt lat="45.63442" lon="2.89129">
        <ele>1156.101983</ele>
        <time>2022-04-22T21:35:58.193Z</time>
      </trkpt>
      <trkpt lat="45.63443" lon="2.89141">
        <ele>1155.526506</ele>
        <time>2022-04-22T21:35:59.124Z</time>
      </trkpt>
      <trkpt lat="45.63449" lon="2.89157">
        <ele>1154.680161</ele>
        <time>2022-04-22T21:36:00.518Z</time>
      </trkpt>
      <trkpt lat="45.63618" lon="2.89392">
        <ele>1138.186562</ele>
        <time>2022-04-22T21:36:26.282Z</time>
      </trkpt>
      <trkpt lat="45.63469" lon="2.89512">
        <ele>1121.999368</ele>
        <time>2022-04-22T21:36:43.739Z</time>
      </trkpt>
      <trkpt lat="45.63394" lon="2.8954">
        <ele>1113.092213</ele>
        <time>2022-04-22T21:36:56.650Z</time>
      </trkpt>
      <trkpt lat="45.63348" lon="2.89619">
        <ele>1104.526735</ele>
        <time>2022-04-22T21:37:08.545Z</time>
      </trkpt>
      <trkpt lat="45.63301" lon="2.89701">
        <ele>1095.380871</ele>
        <time>2022-04-22T21:37:20.970Z</time>
      </trkpt>
      <trkpt lat="45.63255" lon="2.89738">
        <ele>1088.988469</ele>
        <time>2022-04-22T21:37:29.580Z</time>
      </trkpt>
      <trkpt lat="45.6323" lon="2.89771">
        <ele>1085.469257</ele>
        <time>2022-04-22T21:37:35.397Z</time>
      </trkpt>
      <trkpt lat="45.63197" lon="2.89843">
        <ele>1079.81151</ele>
        <time>2022-04-22T21:37:45.772Z</time>
      </trkpt>
      <trkpt lat="45.63183" lon="2.89883">
        <ele>1076.8966</ele>
        <time>2022-04-22T21:37:51.182Z</time>
      </trkpt>
      <trkpt lat="45.63142" lon="2.89956">
        <ele>1070.847948</ele>
        <time>2022-04-22T21:38:02.851Z</time>
      </trkpt>
      <trkpt lat="45.63134" lon="2.9002">
        <ele>1069.276104</ele>
        <time>2022-04-22T21:38:11.086Z</time>
      </trkpt>
      <trkpt lat="45.63141" lon="2.90059">
        <ele>1068.285265</ele>
        <time>2022-04-22T21:38:16.389Z</time>
      </trkpt>
      <trkpt lat="45.63133" lon="2.90098">
        <ele>1067.287043</ele>
        <time>2022-04-22T21:38:22.951Z</time>
      </trkpt>
      <trkpt lat="45.63044" lon="2.90201">
        <ele>1064.836891</ele>
        <time>2022-04-22T21:38:49.755Z</time>
      </trkpt>
      <trkpt lat="45.63026" lon="2.90224">
        <ele>1064.957332</ele>
        <time>2022-04-22T21:38:55.089Z</time>
      </trkpt>
      <trkpt lat="45.63017" lon="2.90249">
        <ele>1065.056004</ele>
        <time>2022-04-22T21:38:58.674Z</time>
      </trkpt>
      <trkpt lat="45.63018" lon="2.90273">
        <ele>1065.138092</ele>
        <time>2022-04-22T21:39:02.826Z</time>
      </trkpt>
      <trkpt lat="45.6304" lon="2.90355">
        <ele>1065.442111</ele>
        <time>2022-04-22T21:39:16.206Z</time>
      </trkpt>
      <trkpt lat="45.63058" lon="2.90467">
        <ele>1063.816668</ele>
        <time>2022-04-22T21:39:29.116Z</time>
      </trkpt>
      <trkpt lat="45.63085" lon="2.90577">
        <ele>1061.524717</ele>
        <time>2022-04-22T21:39:39.037Z</time>
      </trkpt>
      <trkpt lat="45.6311" lon="2.90639">
        <ele>1059.559137</ele>
        <time>2022-04-22T21:39:44.640Z</time>
      </trkpt>
      <trkpt lat="45.63202" lon="2.90728">
        <ele>1051.670043</ele>
        <time>2022-04-22T21:39:56.445Z</time>
      </trkpt>
      <trkpt lat="45.63256" lon="2.90806">
        <ele>1046.695064</ele>
        <time>2022-04-22T21:40:04.512Z</time>
      </trkpt>
      <trkpt lat="45.63267" lon="2.90888">
        <ele>1043.78166</ele>
        <time>2022-04-22T21:40:10.912Z</time>
      </trkpt>
      <trkpt lat="45.63291" lon="2.90936">
        <ele>1041.701166</ele>
        <time>2022-04-22T21:40:15.666Z</time>
      </trkpt>
      <trkpt lat="45.63325" lon="2.90975">
        <ele>1039.530401</ele>
        <time>2022-04-22T21:40:20.910Z</time>
      </trkpt>
      <trkpt lat="45.63337" lon="2.91078">
        <ele>1037.320817</ele>
        <time>2022-04-22T21:40:30.232Z</time>
      </trkpt>
      <trkpt lat="45.63337" lon="2.91147">
        <ele>1036.110083</ele>
        <time>2022-04-22T21:40:36.495Z</time>
      </trkpt>
      <trkpt lat="45.63382" lon="2.91352">
        <ele>1032.213196</ele>
        <time>2022-04-22T21:40:55.815Z</time>
      </trkpt>
      <trkpt lat="45.63391" lon="2.91444">
        <ele>1030.475801</ele>
        <time>2022-04-22T21:41:03.664Z</time>
      </trkpt>
      <trkpt lat="45.63456" lon="2.91647">
        <ele>1026.861389</ele>
        <time>2022-04-22T21:41:23.481Z</time>
      </trkpt>
      <trkpt lat="45.63492" lon="2.91661">
        <ele>1026.047592</ele>
        <time>2022-04-22T21:41:28.226Z</time>
      </trkpt>
      <trkpt lat="45.63516" lon="2.91825">
        <ele>1027.029781</ele>
        <time>2022-04-22T21:41:46.082Z</time>
      </trkpt>
      <trkpt lat="45.63551" lon="2.9185">
        <ele>1027.680846</ele>
        <time>2022-04-22T21:41:55.773Z</time>
      </trkpt>
      <trkpt lat="45.63541" lon="2.91855">
        <ele>1027.864029</ele>
        <time>2022-04-22T21:42:01.040Z</time>
      </trkpt>
      <trkpt lat="45.63529" lon="2.91874">
        <ele>1028.161343</ele>
        <time>2022-04-22T21:42:07.598Z</time>
      </trkpt>
      <trkpt lat="45.63512" lon="2.91971">
        <ele>1032.753646</ele>
        <time>2022-04-22T21:42:41.411Z</time>
      </trkpt>
      <trkpt lat="45.63446" lon="2.92156">
        <ele>1045.469375</ele>
        <time>2022-04-22T21:44:16.234Z</time>
      </trkpt>
      <trkpt lat="45.63381" lon="2.92335">
        <ele>1059.435214</ele>
        <time>2022-04-22T21:45:55.222Z</time>
      </trkpt>
      <trkpt lat="45.63232" lon="2.92474">
        <ele>1068.807357</ele>
        <time>2022-04-22T21:47:22.828Z</time>
      </trkpt>
      <trkpt lat="45.62718" lon="2.92609">
        <ele>1058.034017</ele>
        <time>2022-04-22T21:49:14.326Z</time>
      </trkpt>
      <trkpt lat="45.62712" lon="2.92617">
        <ele>1057.809969</ele>
        <time>2022-04-22T21:49:15.885Z</time>
      </trkpt>
      <trkpt lat="45.62634" lon="2.9265">
        <ele>1055.518684</ele>
        <time>2022-04-22T21:49:32.411Z</time>
      </trkpt>
      <trkpt lat="45.62604" lon="2.92666">
        <ele>1054.574998</ele>
        <time>2022-04-22T21:49:39.191Z</time>
      </trkpt>
      <trkpt lat="45.62563" lon="2.9272">
        <ele>1052.964294</ele>
        <time>2022-04-22T21:49:50.892Z</time>
      </trkpt>
      <trkpt lat="45.6248" lon="2.92767">
        <ele>1050.306964</ele>
        <time>2022-04-22T21:50:10.295Z</time>
      </trkpt>
      <trkpt lat="45.62461" lon="2.9279">
        <ele>1049.553663</ele>
        <time>2022-04-22T21:50:15.554Z</time>
      </trkpt>
      <trkpt lat="45.62411" lon="2.92829">
        <ele>1047.786093</ele>
        <time>2022-04-22T21:50:27.617Z</time>
      </trkpt>
      <trkpt lat="45.6236" lon="2.92887">
        <ele>1045.366965</ele>
        <time>2022-04-22T21:50:40.782Z</time>
      </trkpt>
      <trkpt lat="45.62356" lon="2.9294">
        <ele>1042.801339</ele>
        <time>2022-04-22T21:50:44.971Z</time>
      </trkpt>
      <trkpt lat="45.62346" lon="2.92973">
        <ele>1041.125569</ele>
        <time>2022-04-22T21:50:47.602Z</time>
      </trkpt>
      <trkpt lat="45.6234" lon="2.92998">
        <ele>1039.872819</ele>
        <time>2022-04-22T21:50:49.530Z</time>
      </trkpt>
      <trkpt lat="45.62332" lon="2.93028">
        <ele>1038.319983</ele>
        <time>2022-04-22T21:50:51.916Z</time>
      </trkpt>
      <trkpt lat="45.62314" lon="2.93036">
        <ele>1037.044572</ele>
        <time>2022-04-22T21:50:53.867Z</time>
      </trkpt>
      <trkpt lat="45.62272" lon="2.93019">
        <ele>1034.06313</ele>
        <time>2022-04-22T21:50:58.461Z</time>
      </trkpt>
      <trkpt lat="45.62261" lon="2.93008">
        <ele>1033.424836</ele>
        <time>2022-04-22T21:50:59.876Z</time>
      </trkpt>
      <trkpt lat="45.62238" lon="2.92993">
        <ele>1032.329461</ele>
        <time>2022-04-22T21:51:02.622Z</time>
      </trkpt>
      <trkpt lat="45.62218" lon="2.9297">
        <ele>1031.255915</ele>
        <time>2022-04-22T21:51:05.362Z</time>
      </trkpt>
      <trkpt lat="45.62186" lon="2.92932">
        <ele>1029.470153</ele>
        <time>2022-04-22T21:51:13.254Z</time>
      </trkpt>
      <trkpt lat="45.62171" lon="2.92861">
        <ele>1027.261585</ele>
        <time>2022-04-22T21:51:23.662Z</time>
      </trkpt>
      <trkpt lat="45.62061" lon="2.92878">
        <ele>1030.921448</ele>
        <time>2022-04-22T21:52:00.331Z</time>
      </trkpt>
      <trkpt lat="45.62062" lon="2.92836">
        <ele>1032.563574</ele>
        <time>2022-04-22T21:52:18.176Z</time>
      </trkpt>
      <trkpt lat="45.62052" lon="2.92799">
        <ele>1034.118329</ele>
        <time>2022-04-22T21:52:35.373Z</time>
      </trkpt>
      <trkpt lat="45.61991" lon="2.92756">
        <ele>1040.416389</ele>
        <time>2022-04-22T21:53:18.132Z</time>
      </trkpt>
      <trkpt lat="45.6199" lon="2.9275">
        <ele>1041.062414</ele>
        <time>2022-04-22T21:53:23.645Z</time>
      </trkpt>
      <trkpt lat="45.61973" lon="2.92753">
        <ele>1043.319245</ele>
        <time>2022-04-22T21:53:40.404Z</time>
      </trkpt>
      <trkpt lat="45.61941" lon="2.92773">
        <ele>1048.155446</ele>
        <time>2022-04-22T21:54:17.514Z</time>
      </trkpt>
      <trkpt lat="45.61867" lon="2.92773">
        <ele>1058.309028</ele>
        <time>2022-04-22T21:55:43.193Z</time>
      </trkpt>
      <trkpt lat="45.61819" lon="2.92794">
        <ele>1066.820401</ele>
        <time>2022-04-22T21:56:48.455Z</time>
      </trkpt>
      <trkpt lat="45.61734" lon="2.92768">
        <ele>1082.871963</ele>
        <time>2022-04-22T21:58:40.481Z</time>
      </trkpt>
      <trkpt lat="45.61623" lon="2.92707">
        <ele>1103.534228</ele>
        <time>2022-04-22T22:01:22.918Z</time>
      </trkpt>
      <trkpt lat="45.61559" lon="2.92642">
        <ele>1116.129164</ele>
        <time>2022-04-22T22:03:00.933Z</time>
      </trkpt>
      <trkpt lat="45.61543" lon="2.92431">
        <ele>1129.592456</ele>
        <time>2022-04-22T22:04:23.770Z</time>
      </trkpt>
      <trkpt lat="45.61513" lon="2.92289">
        <ele>1132.707113</ele>
        <time>2022-04-22T22:04:45.056Z</time>
      </trkpt>
      <trkpt lat="45.615" lon="2.92263">
        <ele>1131.561967</ele>
        <time>2022-04-22T22:04:47.820Z</time>
      </trkpt>
      <trkpt lat="45.61492" lon="2.92252">
        <ele>1130.981496</ele>
        <time>2022-04-22T22:04:49.057Z</time>
      </trkpt>
      <trkpt lat="45.61473" lon="2.92294">
        <ele>1129.21801</ele>
        <time>2022-04-22T22:04:52.877Z</time>
      </trkpt>
      <trkpt lat="45.61461" lon="2.92335">
        <ele>1127.637718</ele>
        <time>2022-04-22T22:04:56.250Z</time>
      </trkpt>
      <trkpt lat="45.61448" lon="2.9236">
        <ele>1126.526896</ele>
        <time>2022-04-22T22:04:58.642Z</time>
      </trkpt>
      <trkpt lat="45.61441" lon="2.92389">
        <ele>1125.476555</ele>
        <time>2022-04-22T22:05:00.775Z</time>
      </trkpt>
      <trkpt lat="45.61415" lon="2.9245">
        <ele>1121.119896</ele>
        <time>2022-04-22T22:05:06.049Z</time>
      </trkpt>
      <trkpt lat="45.61383" lon="2.92492">
        <ele>1117.089448</ele>
        <time>2022-04-22T22:05:10.362Z</time>
      </trkpt>
      <trkpt lat="45.61345" lon="2.9251">
        <ele>1113.340775</ele>
        <time>2022-04-22T22:05:14.380Z</time>
      </trkpt>
      <trkpt lat="45.61336" lon="2.92533">
        <ele>1111.595098</ele>
        <time>2022-04-22T22:05:16.259Z</time>
      </trkpt>
      <trkpt lat="45.61324" lon="2.92564">
        <ele>1109.285819</ele>
        <time>2022-04-22T22:05:18.877Z</time>
      </trkpt>
      <trkpt lat="45.61299" lon="2.92605">
        <ele>1105.807284</ele>
        <time>2022-04-22T22:05:22.910Z</time>
      </trkpt>
      <trkpt lat="45.6117" lon="2.927">
        <ele>1092.732953</ele>
        <time>2022-04-22T22:05:37.864Z</time>
      </trkpt>
      <trkpt lat="45.61023" lon="2.92883">
        <ele>1074.520486</ele>
        <time>2022-04-22T22:05:57.798Z</time>
      </trkpt>
      <trkpt lat="45.61015" lon="2.92912">
        <ele>1073.111292</ele>
        <time>2022-04-22T22:06:00.051Z</time>
      </trkpt>
      <trkpt lat="45.61007" lon="2.9293">
        <ele>1072.106405</ele>
        <time>2022-04-22T22:06:01.610Z</time>
      </trkpt>
      <trkpt lat="45.60968" lon="2.92953">
        <ele>1069.316306</ele>
        <time>2022-04-22T22:06:06.112Z</time>
      </trkpt>
      <trkpt lat="45.60952" lon="2.92985">
        <ele>1067.51862</ele>
        <time>2022-04-22T22:06:09.029Z</time>
      </trkpt>
      <trkpt lat="45.60938" lon="2.93009">
        <ele>1066.079089</ele>
        <time>2022-04-22T22:06:11.483Z</time>
      </trkpt>
      <trkpt lat="45.60754" lon="2.93094">
        <ele>1058.55176</ele>
        <time>2022-04-22T22:06:34.791Z</time>
      </trkpt>
      <trkpt lat="45.60741" lon="2.93083">
        <ele>1058.099797</ele>
        <time>2022-04-22T22:06:36.778Z</time>
      </trkpt>
      <trkpt lat="45.60706" lon="2.9311">
        <ele>1057.122945</ele>
        <time>2022-04-22T22:06:42.293Z</time>
      </trkpt>
      <trkpt lat="45.60685" lon="2.93167">
        <ele>1056.1999</ele>
        <time>2022-04-22T22:06:48.709Z</time>
      </trkpt>
      <trkpt lat="45.6065" lon="2.93216">
        <ele>1055.198585</ele>
        <time>2022-04-22T22:06:55.347Z</time>
      </trkpt>
      <trkpt lat="45.60612" lon="2.93254">
        <ele>1054.252857</ele>
        <time>2022-04-22T22:07:01.285Z</time>
      </trkpt>
      <trkpt lat="45.60555" lon="2.93291">
        <ele>1051.797126</ele>
        <time>2022-04-22T22:07:08.951Z</time>
      </trkpt>
      <trkpt lat="45.6054" lon="2.93296">
        <ele>1051.106039</ele>
        <time>2022-04-22T22:07:10.622Z</time>
      </trkpt>
      <trkpt lat="45.60496" lon="2.9329">
        <ele>1049.083945</ele>
        <time>2022-04-22T22:07:15.690Z</time>
      </trkpt>
      <trkpt lat="45.60318" lon="2.93186">
        <ele>1040.084827</ele>
        <time>2022-04-22T22:07:37.229Z</time>
      </trkpt>
      <trkpt lat="45.60204" lon="2.93092">
        <ele>1035.439535</ele>
        <time>2022-04-22T22:07:53.000Z</time>
      </trkpt>
      <trkpt lat="45.60087" lon="2.92964">
        <ele>1032.478765</ele>
        <time>2022-04-22T22:08:12.876Z</time>
      </trkpt>
      <trkpt lat="45.60026" lon="2.9293">
        <ele>1032.036152</ele>
        <time>2022-04-22T22:08:22.306Z</time>
      </trkpt>
      <trkpt lat="45.60003" lon="2.92922">
        <ele>1031.876918</ele>
        <time>2022-04-22T22:08:25.900Z</time>
      </trkpt>
      <trkpt lat="45.59942" lon="2.9293">
        <ele>1031.562309</ele>
        <time>2022-04-22T22:08:35.981Z</time>
      </trkpt>
      <trkpt lat="45.59801" lon="2.92901">
        <ele>1032.537353</ele>
        <time>2022-04-22T22:09:01.830Z</time>
      </trkpt>
      <trkpt lat="45.59768" lon="2.92901">
        <ele>1032.803345</ele>
        <time>2022-04-22T22:09:08.955Z</time>
      </trkpt>
      <trkpt lat="45.59712" lon="2.92857">
        <ele>1034.254564</ele>
        <time>2022-04-22T22:09:24.547Z</time>
      </trkpt>
      <trkpt lat="45.59692" lon="2.92855">
        <ele>1034.702621</ele>
        <time>2022-04-22T22:09:29.545Z</time>
      </trkpt>
      <trkpt lat="45.59666" lon="2.92827">
        <ele>1035.448763</ele>
        <time>2022-04-22T22:09:37.968Z</time>
      </trkpt>
      <trkpt lat="45.59637" lon="2.92875">
        <ele>1036.460547</ele>
        <time>2022-04-22T22:09:49.571Z</time>
      </trkpt>
      <trkpt lat="45.59619" lon="2.92853">
        <ele>1037.011377</ele>
        <time>2022-04-22T22:09:56.083Z</time>
      </trkpt>
      <trkpt lat="45.59572" lon="2.92766">
        <ele>1038.816573</ele>
        <time>2022-04-22T22:10:16.893Z</time>
      </trkpt>
      <trkpt lat="45.59529" lon="2.92699">
        <ele>1040.326855</ele>
        <time>2022-04-22T22:10:31.908Z</time>
      </trkpt>
      <trkpt lat="45.59504" lon="2.92638">
        <ele>1041.486148</ele>
        <time>2022-04-22T22:10:42.496Z</time>
      </trkpt>
      <trkpt lat="45.59488" lon="2.92611">
        <ele>1042.061951</ele>
        <time>2022-04-22T22:10:48.181Z</time>
      </trkpt>
      <trkpt lat="45.59461" lon="2.92588">
        <ele>1042.78955</ele>
        <time>2022-04-22T22:10:55.599Z</time>
      </trkpt>
      <trkpt lat="45.5945" lon="2.92566">
        <ele>1043.225895</ele>
        <time>2022-04-22T22:11:00.127Z</time>
      </trkpt>
      <trkpt lat="45.5942" lon="2.92472">
        <ele>1044.917404</ele>
        <time>2022-04-22T22:11:18.567Z</time>
      </trkpt>
      <trkpt lat="45.59367" lon="2.92395">
        <ele>1046.51427</ele>
        <time>2022-04-22T22:11:40.392Z</time>
      </trkpt>
      <trkpt lat="45.59313" lon="2.92228">
        <ele>1048.714033</ele>
        <time>2022-04-22T22:12:10.215Z</time>
      </trkpt>
      <trkpt lat="45.59297" lon="2.92202">
        <ele>1048.175068</ele>
        <time>2022-04-22T22:12:13.547Z</time>
      </trkpt>
      <trkpt lat="45.59278" lon="2.92189">
        <ele>1047.701741</ele>
        <time>2022-04-22T22:12:16.164Z</time>
      </trkpt>
      <trkpt lat="45.59248" lon="2.92184">
        <ele>1047.003679</ele>
        <time>2022-04-22T22:12:19.955Z</time>
      </trkpt>
      <trkpt lat="45.5921" lon="2.92172">
        <ele>1046.139518</ele>
        <time>2022-04-22T22:12:24.413Z</time>
      </trkpt>
      <trkpt lat="45.59196" lon="2.9216">
        <ele>1045.786036</ele>
        <time>2022-04-22T22:12:26.221Z</time>
      </trkpt>
      <trkpt lat="45.59185" lon="2.92146">
        <ele>1045.445202</ele>
        <time>2022-04-22T22:12:27.903Z</time>
      </trkpt>
      <trkpt lat="45.59174" lon="2.92119">
        <ele>1044.962533</ele>
        <time>2022-04-22T22:12:30.261Z</time>
      </trkpt>
      <trkpt lat="45.59165" lon="2.92098">
        <ele>1044.417109</ele>
        <time>2022-04-22T22:12:32.117Z</time>
      </trkpt>
      <trkpt lat="45.59151" lon="2.92043">
        <ele>1043.044893</ele>
        <time>2022-04-22T22:12:36.529Z</time>
      </trkpt>
      <trkpt lat="45.59113" lon="2.91946">
        <ele>1040.495471</ele>
        <time>2022-04-22T22:12:45.234Z</time>
      </trkpt>
      <trkpt lat="45.59079" lon="2.91897">
        <ele>1038.999711</ele>
        <time>2022-04-22T22:12:51.296Z</time>
      </trkpt>
      <trkpt lat="45.59055" lon="2.91869">
        <ele>1039.340891</ele>
        <time>2022-04-22T22:12:55.492Z</time>
      </trkpt>
      <trkpt lat="45.59051" lon="2.91856">
        <ele>1039.449219</ele>
        <time>2022-04-22T22:12:56.952Z</time>
      </trkpt>
      <trkpt lat="45.59044" lon="2.91783">
        <ele>1040.022186</ele>
        <time>2022-04-22T22:13:07.001Z</time>
      </trkpt>
      <trkpt lat="45.59029" lon="2.91781">
        <ele>1040.189872</ele>
        <time>2022-04-22T22:13:10.137Z</time>
      </trkpt>
      <trkpt lat="45.58998" lon="2.91783">
        <ele>1040.528003</ele>
        <time>2022-04-22T22:13:18.136Z</time>
      </trkpt>
      <trkpt lat="45.5896" lon="2.91782">
        <ele>1040.95601</ele>
        <time>2022-04-22T22:13:28.336Z</time>
      </trkpt>
      <trkpt lat="45.58952" lon="2.91781">
        <ele>1041.166037</ele>
        <time>2022-04-22T22:13:30.314Z</time>
      </trkpt>
      <trkpt lat="45.58944" lon="2.91781">
        <ele>1041.416235</ele>
        <time>2022-04-22T22:13:32.664Z</time>
      </trkpt>
      <trkpt lat="45.58929" lon="2.9177">
        <ele>1041.929804</ele>
        <time>2022-04-22T22:13:37.488Z</time>
      </trkpt>
      <trkpt lat="45.58902" lon="2.91812">
        <ele>1043.162548</ele>
        <time>2022-04-22T22:13:50.429Z</time>
      </trkpt>
      <trkpt lat="45.5887" lon="2.91793">
        <ele>1044.250856</ele>
        <time>2022-04-22T22:14:03.913Z</time>
      </trkpt>
      <trkpt lat="45.58818" lon="2.91775">
        <ele>1045.900471</ele>
        <time>2022-04-22T22:14:24.972Z</time>
      </trkpt>
      <trkpt lat="45.58771" lon="2.91773">
        <ele>1047.023295</ele>
        <time>2022-04-22T22:14:43.009Z</time>
      </trkpt>
      <trkpt lat="45.58597" lon="2.91866">
        <ele>1049.516933</ele>
        <time>2022-04-22T22:15:42.246Z</time>
      </trkpt>
      <trkpt lat="45.58541" lon="2.91887">
        <ele>1048.886563</ele>
        <time>2022-04-22T22:15:56.349Z</time>
      </trkpt>
      <trkpt lat="45.58527" lon="2.91887">
        <ele>1048.736742</ele>
        <time>2022-04-22T22:15:59.518Z</time>
      </trkpt>
      <trkpt lat="45.58346" lon="2.91804">
        <ele>1042.116724</ele>
        <time>2022-04-22T22:16:39.249Z</time>
      </trkpt>
      <trkpt lat="45.58294" lon="2.9176">
        <ele>1039.109373</ele>
        <time>2022-04-22T22:16:50.467Z</time>
      </trkpt>
      <trkpt lat="45.58282" lon="2.91763">
        <ele>1037.887119</ele>
        <time>2022-04-22T22:16:52.457Z</time>
      </trkpt>
      <trkpt lat="45.58167" lon="2.9183">
        <ele>1021.443025</ele>
        <time>2022-04-22T22:17:12.995Z</time>
      </trkpt>
      <trkpt lat="45.58138" lon="2.91843">
        <ele>1017.434054</ele>
        <time>2022-04-22T22:17:17.855Z</time>
      </trkpt>
      <trkpt lat="45.5807" lon="2.91856">
        <ele>1005.884877</ele>
        <time>2022-04-22T22:17:28.942Z</time>
      </trkpt>
      <trkpt lat="45.58054" lon="2.91848">
        <ele>1002.91182</ele>
        <time>2022-04-22T22:17:31.590Z</time>
      </trkpt>
      <trkpt lat="45.58048" lon="2.91817">
        <ele>998.873283</ele>
        <time>2022-04-22T22:17:35.089Z</time>
      </trkpt>
      <trkpt lat="45.58029" lon="2.918">
        <ele>994.981619</ele>
        <time>2022-04-22T22:17:38.471Z</time>
      </trkpt>
      <trkpt lat="45.58024" lon="2.91777">
        <ele>992.018557</ele>
        <time>2022-04-22T22:17:41.083Z</time>
      </trkpt>
      <trkpt lat="45.58018" lon="2.91769">
        <ele>990.483848</ele>
        <time>2022-04-22T22:17:42.531Z</time>
      </trkpt>
      <trkpt lat="45.58012" lon="2.91765">
        <ele>989.317166</ele>
        <time>2022-04-22T22:17:43.556Z</time>
      </trkpt>
      <trkpt lat="45.5798" lon="2.91775">
        <ele>983.459646</ele>
        <time>2022-04-22T22:17:48.918Z</time>
      </trkpt>
      <trkpt lat="45.57937" lon="2.9174">
        <ele>974.887364</ele>
        <time>2022-04-22T22:17:56.818Z</time>
      </trkpt>
      <trkpt lat="45.57917" lon="2.91715">
        <ele>970.39335</ele>
        <time>2022-04-22T22:18:00.963Z</time>
      </trkpt>
      <trkpt lat="45.57917" lon="2.91678">
        <ele>966.015653</ele>
        <time>2022-04-22T22:18:05.068Z</time>
      </trkpt>
      <trkpt lat="45.57912" lon="2.91659">
        <ele>963.621443</ele>
        <time>2022-04-22T22:18:07.265Z</time>
      </trkpt>
      <trkpt lat="45.57899" lon="2.91641">
        <ele>960.467406</ele>
        <time>2022-04-22T22:18:10.235Z</time>
      </trkpt>
      <trkpt lat="45.57887" lon="2.91645">
        <ele>958.367101</ele>
        <time>2022-04-22T22:18:12.211Z</time>
      </trkpt>
      <trkpt lat="45.57873" lon="2.91639">
        <ele>955.832719</ele>
        <time>2022-04-22T22:18:14.575Z</time>
      </trkpt>
      <trkpt lat="45.57873" lon="2.91602">
        <ele>951.315364</ele>
        <time>2022-04-22T22:18:18.703Z</time>
      </trkpt>
      <trkpt lat="45.57861" lon="2.91529">
        <ele>942.637073</ele>
        <time>2022-04-22T22:18:26.995Z</time>
      </trkpt>
      <trkpt lat="45.57846" lon="2.91514">
        <ele>939.565877</ele>
        <time>2022-04-22T22:18:29.873Z</time>
      </trkpt>
      <trkpt lat="45.5782" lon="2.91455">
        <ele>931.310619</ele>
        <time>2022-04-22T22:18:37.741Z</time>
      </trkpt>
      <trkpt lat="45.57802" lon="2.91444">
        <ele>927.978326</ele>
        <time>2022-04-22T22:18:40.820Z</time>
      </trkpt>
      <trkpt lat="45.57767" lon="2.9144">
        <ele>922.172265</ele>
        <time>2022-04-22T22:18:46.417Z</time>
      </trkpt>
      <trkpt lat="45.57755" lon="2.91451">
        <ele>920.538311</ele>
        <time>2022-04-22T22:18:48.759Z</time>
      </trkpt>
      <trkpt lat="45.57738" lon="2.91397">
        <ele>915.953887</ele>
        <time>2022-04-22T22:18:53.970Z</time>
      </trkpt>
      <trkpt lat="45.57733" lon="2.91359">
        <ele>912.964585</ele>
        <time>2022-04-22T22:18:57.341Z</time>
      </trkpt>
      <trkpt lat="45.57724" lon="2.9136">
        <ele>911.903746</ele>
        <time>2022-04-22T22:18:58.567Z</time>
      </trkpt>
      <trkpt lat="45.57719" lon="2.91378">
        <ele>910.411028</ele>
        <time>2022-04-22T22:19:00.215Z</time>
      </trkpt>
      <trkpt lat="45.57716" lon="2.91353">
        <ele>908.365825</ele>
        <time>2022-04-22T22:19:02.071Z</time>
      </trkpt>
      <trkpt lat="45.57728" lon="2.91327">
        <ele>906.002022</ele>
        <time>2022-04-22T22:19:04.278Z</time>
      </trkpt>
      <trkpt lat="45.57731" lon="2.91298">
        <ele>903.731962</ele>
        <time>2022-04-22T22:19:06.477Z</time>
      </trkpt>
      <trkpt lat="45.57745" lon="2.9128">
        <ele>901.830521</ele>
        <time>2022-04-22T22:19:08.642Z</time>
      </trkpt>
      <trkpt lat="45.57747" lon="2.91278">
        <ele>901.76496</ele>
        <time>2022-04-22T22:19:08.900Z</time>
      </trkpt>
      <trkpt lat="45.57742" lon="2.91226">
        <ele>900.582062</ele>
        <time>2022-04-22T22:19:13.215Z</time>
      </trkpt>
      <trkpt lat="45.57721" lon="2.91142">
        <ele>898.549702</ele>
        <time>2022-04-22T22:19:21.106Z</time>
      </trkpt>
      <trkpt lat="45.57715" lon="2.91073">
        <ele>896.952506</ele>
        <time>2022-04-22T22:19:27.866Z</time>
      </trkpt>
      <trkpt lat="45.57568" lon="2.90864">
        <ele>890.384243</ele>
        <time>2022-04-22T22:19:53.345Z</time>
      </trkpt>
      <trkpt lat="45.57493" lon="2.90764">
        <ele>886.553376</ele>
        <time>2022-04-22T22:20:05.409Z</time>
      </trkpt>
      <trkpt lat="45.57486" lon="2.90768">
        <ele>886.278618</ele>
        <time>2022-04-22T22:20:06.275Z</time>
      </trkpt>
      <trkpt lat="45.57438" lon="2.90838">
        <ele>883.739671</ele>
        <time>2022-04-22T22:20:14.399Z</time>
      </trkpt>
      <trkpt lat="45.57412" lon="2.90884">
        <ele>882.993223</ele>
        <time>2022-04-22T22:20:19.469Z</time>
      </trkpt>
      <trkpt lat="45.57408" lon="2.90874">
        <ele>882.852435</ele>
        <time>2022-04-22T22:20:20.471Z</time>
      </trkpt>
      <trkpt lat="45.57363" lon="2.90756">
        <ele>881.202418</ele>
        <time>2022-04-22T22:20:32.342Z</time>
      </trkpt>
      <trkpt lat="45.57313" lon="2.90677">
        <ele>880.75212</ele>
        <time>2022-04-22T22:20:43.478Z</time>
      </trkpt>
      <trkpt lat="45.57237" lon="2.9059">
        <ele>881.293282</ele>
        <time>2022-04-22T22:21:01.540Z</time>
      </trkpt>
      <trkpt lat="45.57093" lon="2.90357">
        <ele>883.24914</ele>
        <time>2022-04-22T22:21:43.570Z</time>
      </trkpt>
      <trkpt lat="45.57089" lon="2.90344">
        <ele>883.345644</ele>
        <time>2022-04-22T22:21:45.726Z</time>
      </trkpt>
      <trkpt lat="45.57058" lon="2.90187">
        <ele>884.187085</ele>
        <time>2022-04-22T22:22:07.831Z</time>
      </trkpt>
      <trkpt lat="45.57054" lon="2.9011">
        <ele>884.588666</ele>
        <time>2022-04-22T22:22:17.065Z</time>
      </trkpt>
      <trkpt lat="45.57068" lon="2.9004">
        <ele>884.99166</ele>
        <time>2022-04-22T22:22:24.837Z</time>
      </trkpt>
      <trkpt lat="45.57063" lon="2.9003">
        <ele>885.060501</ele>
        <time>2022-04-22T22:22:26.176Z</time>
      </trkpt>
      <trkpt lat="45.57042" lon="2.9004">
        <ele>885.234501</ele>
        <time>2022-04-22T22:22:29.530Z</time>
      </trkpt>
      <trkpt lat="45.57021" lon="2.9005">
        <ele>885.412914</ele>
        <time>2022-04-22T22:22:33.831Z</time>
      </trkpt>
      <trkpt lat="45.57011" lon="2.90065">
        <ele>885.533193</ele>
        <time>2022-04-22T22:22:36.869Z</time>
      </trkpt>
      <trkpt lat="45.56996" lon="2.90105">
        <ele>885.787005</ele>
        <time>2022-04-22T22:22:43.640Z</time>
      </trkpt>
      <trkpt lat="45.56982" lon="2.90208">
        <ele>886.921773</ele>
        <time>2022-04-22T22:23:00.085Z</time>
      </trkpt>
      <trkpt lat="45.5698" lon="2.90283">
        <ele>888.177495</ele>
        <time>2022-04-22T22:23:14.111Z</time>
      </trkpt>
      <trkpt lat="45.56969" lon="2.90661">
        <ele>894.104155</ele>
        <time>2022-04-22T22:24:25.259Z</time>
      </trkpt>
      <trkpt lat="45.56958" lon="2.90731">
        <ele>893.71872</ele>
        <time>2022-04-22T22:24:32.780Z</time>
      </trkpt>
      <trkpt lat="45.56953" lon="2.90815">
        <ele>892.933412</ele>
        <time>2022-04-22T22:24:40.789Z</time>
      </trkpt>
      <trkpt lat="45.56945" lon="2.90845">
        <ele>892.631285</ele>
        <time>2022-04-22T22:24:43.969Z</time>
      </trkpt>
      <trkpt lat="45.56939" lon="2.90917">
        <ele>891.955274</ele>
        <time>2022-04-22T22:24:50.407Z</time>
      </trkpt>
      <trkpt lat="45.56915" lon="2.90973">
        <ele>891.088908</ele>
        <time>2022-04-22T22:24:56.032Z</time>
      </trkpt>
      <trkpt lat="45.56893" lon="2.91005">
        <ele>890.47471</ele>
        <time>2022-04-22T22:24:59.895Z</time>
      </trkpt>
      <trkpt lat="45.56842" lon="2.91045">
        <ele>889.340283</ele>
        <time>2022-04-22T22:25:07.139Z</time>
      </trkpt>
      <trkpt lat="45.56833" lon="2.91064">
        <ele>889.021897</ele>
        <time>2022-04-22T22:25:09.579Z</time>
      </trkpt>
      <trkpt lat="45.56836" lon="2.91071">
        <ele>888.918029</ele>
        <time>2022-04-22T22:25:10.738Z</time>
      </trkpt>
      <trkpt lat="45.56839" lon="2.91078">
        <ele>888.790742</ele>
        <time>2022-04-22T22:25:12.161Z</time>
      </trkpt>
      <trkpt lat="45.56825" lon="2.91101">
        <ele>888.38292</ele>
        <time>2022-04-22T22:25:18.361Z</time>
      </trkpt>
      <trkpt lat="45.56789" lon="2.91244">
        <ele>891.54531</ele>
        <time>2022-04-22T22:25:52.769Z</time>
      </trkpt>
      <trkpt lat="45.56793" lon="2.91316">
        <ele>893.050247</ele>
        <time>2022-04-22T22:26:14.991Z</time>
      </trkpt>
      <trkpt lat="45.56783" lon="2.9153">
        <ele>900.628909</ele>
        <time>2022-04-22T22:27:32.173Z</time>
      </trkpt>
      <trkpt lat="45.56768" lon="2.91557">
        <ele>901.948971</ele>
        <time>2022-04-22T22:27:43.905Z</time>
      </trkpt>
      <trkpt lat="45.56761" lon="2.91604">
        <ele>903.569021</ele>
        <time>2022-04-22T22:27:57.069Z</time>
      </trkpt>
      <trkpt lat="45.56764" lon="2.91675">
        <ele>904.608062</ele>
        <time>2022-04-22T22:28:13.646Z</time>
      </trkpt>
      <trkpt lat="45.56776" lon="2.91849">
        <ele>907.175977</ele>
        <time>2022-04-22T22:28:50.846Z</time>
      </trkpt>
      <trkpt lat="45.56763" lon="2.91903">
        <ele>908.82262</ele>
        <time>2022-04-22T22:29:05.186Z</time>
      </trkpt>
      <trkpt lat="45.56763" lon="2.91957">
        <ele>910.420197</ele>
        <time>2022-04-22T22:29:20.366Z</time>
      </trkpt>
      <trkpt lat="45.56757" lon="2.91979">
        <ele>911.131206</ele>
        <time>2022-04-22T22:29:29.924Z</time>
      </trkpt>
      <trkpt lat="45.56743" lon="2.92003">
        <ele>912.051775</ele>
        <time>2022-04-22T22:29:38.118Z</time>
      </trkpt>
      <trkpt lat="45.5673" lon="2.92114">
        <ele>915.284775</ele>
        <time>2022-04-22T22:30:16.009Z</time>
      </trkpt>
      <trkpt lat="45.56704" lon="2.922">
        <ele>917.55865</ele>
        <time>2022-04-22T22:30:46.290Z</time>
      </trkpt>
      <trkpt lat="45.56702" lon="2.92244">
        <ele>918.628415</ele>
        <time>2022-04-22T22:30:57.774Z</time>
      </trkpt>
      <trkpt lat="45.56705" lon="2.92264">
        <ele>919.128306</ele>
        <time>2022-04-22T22:31:02.704Z</time>
      </trkpt>
      <trkpt lat="45.56744" lon="2.92343">
        <ele>920.90381</ele>
        <time>2022-04-22T22:31:25.126Z</time>
      </trkpt>
      <trkpt lat="45.56762" lon="2.92425">
        <ele>920.122176</ele>
        <time>2022-04-22T22:31:41.182Z</time>
      </trkpt>
      <trkpt lat="45.56757" lon="2.92542">
        <ele>919.058712</ele>
        <time>2022-04-22T22:31:59.404Z</time>
      </trkpt>
      <trkpt lat="45.5676" lon="2.92649">
        <ele>915.704133</ele>
        <time>2022-04-22T22:32:14.139Z</time>
      </trkpt>
      <trkpt lat="45.56771" lon="2.92827">
        <ele>908.028311</ele>
        <time>2022-04-22T22:32:36.653Z</time>
      </trkpt>
      <trkpt lat="45.56787" lon="2.92869">
        <ele>906.794452</ele>
        <time>2022-04-22T22:32:42.923Z</time>
      </trkpt>
      <trkpt lat="45.56781" lon="2.92961">
        <ele>904.71258</ele>
        <time>2022-04-22T22:32:55.688Z</time>
      </trkpt>
      <trkpt lat="45.56788" lon="2.93015">
        <ele>903.460272</ele>
        <time>2022-04-22T22:33:03.856Z</time>
      </trkpt>
      <trkpt lat="45.56774" lon="2.93065">
        <ele>902.237708</ele>
        <time>2022-04-22T22:33:12.480Z</time>
      </trkpt>
      <trkpt lat="45.56772" lon="2.93103">
        <ele>901.907755</ele>
        <time>2022-04-22T22:33:20.539Z</time>
      </trkpt>
      <trkpt lat="45.56787" lon="2.93144">
        <ele>901.934405</ele>
        <time>2022-04-22T22:33:31.074Z</time>
      </trkpt>
      <trkpt lat="45.5681" lon="2.93258">
        <ele>902.004328</ele>
        <time>2022-04-22T22:33:57.324Z</time>
      </trkpt>
      <trkpt lat="45.56813" lon="2.93341">
        <ele>901.475805</ele>
        <time>2022-04-22T22:34:10.736Z</time>
      </trkpt>
      <trkpt lat="45.56807" lon="2.93403">
        <ele>898.832323</ele>
        <time>2022-04-22T22:34:19.619Z</time>
      </trkpt>
      <trkpt lat="45.56824" lon="2.93518">
        <ele>893.851917</ele>
        <time>2022-04-22T22:34:28.599Z</time>
      </trkpt>
      <trkpt lat="45.56836" lon="2.93713">
        <ele>884.08562</ele>
        <time>2022-04-22T22:34:41.750Z</time>
      </trkpt>
      <trkpt lat="45.56873" lon="2.93855">
        <ele>877.689281</ele>
        <time>2022-04-22T22:34:52.495Z</time>
      </trkpt>
      <trkpt lat="45.56809" lon="2.93777">
        <ele>878.810675</ele>
        <time>2022-04-22T22:35:05.588Z</time>
      </trkpt>
      <trkpt lat="45.56766" lon="2.93684">
        <ele>879.854869</ele>
        <time>2022-04-22T22:35:37.895Z</time>
      </trkpt>
      <trkpt lat="45.56756" lon="2.93655">
        <ele>880.613645</ele>
        <time>2022-04-22T22:35:48.275Z</time>
      </trkpt>
      <trkpt lat="45.56715" lon="2.93484">
        <ele>884.788147</ele>
        <time>2022-04-22T22:36:29.631Z</time>
      </trkpt>
      <trkpt lat="45.56667" lon="2.93528">
        <ele>884.148262</ele>
        <time>2022-04-22T22:36:38.021Z</time>
      </trkpt>
      <trkpt lat="45.5663" lon="2.93573">
        <ele>881.201472</ele>
        <time>2022-04-22T22:36:43.688Z</time>
      </trkpt>
      <trkpt lat="45.56571" lon="2.9363">
        <ele>876.908819</ele>
        <time>2022-04-22T22:36:50.982Z</time>
      </trkpt>
      <trkpt lat="45.56532" lon="2.93684">
        <ele>873.419894</ele>
        <time>2022-04-22T22:36:56.600Z</time>
      </trkpt>
      <trkpt lat="45.56509" lon="2.93704">
        <ele>871.570905</ele>
        <time>2022-04-22T22:36:59.387Z</time>
      </trkpt>
      <trkpt lat="45.56478" lon="2.93722">
        <ele>869.256206</ele>
        <time>2022-04-22T22:37:02.929Z</time>
      </trkpt>
      <trkpt lat="45.56347" lon="2.93745">
        <ele>861.386206</ele>
        <time>2022-04-22T22:37:17.685Z</time>
      </trkpt>
      <trkpt lat="45.56276" lon="2.93727">
        <ele>859.0252</ele>
        <time>2022-04-22T22:37:25.874Z</time>
      </trkpt>
      <trkpt lat="45.56259" lon="2.93714">
        <ele>858.408003</ele>
        <time>2022-04-22T22:37:28.201Z</time>
      </trkpt>
      <trkpt lat="45.56251" lon="2.93727">
        <ele>858.004973</ele>
        <time>2022-04-22T22:37:29.717Z</time>
      </trkpt>
      <trkpt lat="45.56244" lon="2.93733">
        <ele>857.741659</ele>
        <time>2022-04-22T22:37:30.758Z</time>
      </trkpt>
      <trkpt lat="45.56234" lon="2.93727">
        <ele>857.393183</ele>
        <time>2022-04-22T22:37:32.210Z</time>
      </trkpt>
      <trkpt lat="45.56216" lon="2.9371">
        <ele>856.682304</ele>
        <time>2022-04-22T22:37:35.031Z</time>
      </trkpt>
      <trkpt lat="45.56196" lon="2.93697">
        <ele>856.554444</ele>
        <time>2022-04-22T22:37:38.172Z</time>
      </trkpt>
      <trkpt lat="45.56183" lon="2.93693">
        <ele>856.522635</ele>
        <time>2022-04-22T22:37:39.862Z</time>
      </trkpt>
      <trkpt lat="45.5618" lon="2.93664">
        <ele>856.471354</ele>
        <time>2022-04-22T22:37:42.821Z</time>
      </trkpt>
      <trkpt lat="45.56173" lon="2.93641">
        <ele>856.426666</ele>
        <time>2022-04-22T22:37:45.230Z</time>
      </trkpt>
      <trkpt lat="45.56108" lon="2.93551">
        <ele>856.197956</ele>
        <time>2022-04-22T22:37:59.605Z</time>
      </trkpt>
      <trkpt lat="45.56071" lon="2.93457">
        <ele>858.116069</ele>
        <time>2022-04-22T22:38:18.579Z</time>
      </trkpt>
      <trkpt lat="45.56034" lon="2.93383">
        <ele>860.28689</ele>
        <time>2022-04-22T22:38:37.589Z</time>
      </trkpt>
      <trkpt lat="45.56021" lon="2.93337">
        <ele>861.495145</ele>
        <time>2022-04-22T22:38:49.735Z</time>
      </trkpt>
      <trkpt lat="45.5602" lon="2.93333">
        <ele>861.581199</ele>
        <time>2022-04-22T22:38:50.848Z</time>
      </trkpt>
      <trkpt lat="45.56013" lon="2.9328">
        <ele>863.606584</ele>
        <time>2022-04-22T22:39:05.332Z</time>
      </trkpt>
      <trkpt lat="45.55986" lon="2.93202">
        <ele>868.472188</ele>
        <time>2022-04-22T22:39:28.279Z</time>
      </trkpt>
      <trkpt lat="45.55989" lon="2.93192">
        <ele>869.105658</ele>
        <time>2022-04-22T22:39:31.404Z</time>
      </trkpt>
      <trkpt lat="45.55982" lon="2.93148">
        <ele>871.614935</ele>
        <time>2022-04-22T22:39:46.312Z</time>
      </trkpt>
      <trkpt lat="45.55965" lon="2.93091">
        <ele>875.098384</ele>
        <time>2022-04-22T22:40:13.139Z</time>
      </trkpt>
      <trkpt lat="45.55956" lon="2.93135">
        <ele>878.067502</ele>
        <time>2022-04-22T22:40:34.105Z</time>
      </trkpt>
      <trkpt lat="45.55945" lon="2.93143">
        <ele>879.393745</ele>
        <time>2022-04-22T22:40:40.802Z</time>
      </trkpt>
      <trkpt lat="45.55934" lon="2.9317">
        <ele>881.822649</ele>
        <time>2022-04-22T22:40:55.482Z</time>
      </trkpt>
      <trkpt lat="45.55886" lon="2.93171">
        <ele>887.217482</ele>
        <time>2022-04-22T22:41:24.080Z</time>
      </trkpt>
      <trkpt lat="45.55878" lon="2.93201">
        <ele>889.729808</ele>
        <time>2022-04-22T22:41:39.118Z</time>
      </trkpt>
      <trkpt lat="45.55862" lon="2.93235">
        <ele>892.89396</ele>
        <time>2022-04-22T22:41:55.492Z</time>
      </trkpt>
      <trkpt lat="45.55859" lon="2.93254">
        <ele>894.407684</ele>
        <time>2022-04-22T22:42:03.292Z</time>
      </trkpt>
      <trkpt lat="45.55863" lon="2.93288">
        <ele>897.001378</ele>
        <time>2022-04-22T22:42:17.919Z</time>
      </trkpt>
      <trkpt lat="45.55883" lon="2.93342">
        <ele>900.76602</ele>
        <time>2022-04-22T22:42:44.224Z</time>
      </trkpt>
      <trkpt lat="45.55884" lon="2.93379">
        <ele>903.020281</ele>
        <time>2022-04-22T22:42:57.395Z</time>
      </trkpt>
      <trkpt lat="45.55879" lon="2.93411">
        <ele>904.992442</ele>
        <time>2022-04-22T22:43:06.790Z</time>
      </trkpt>
      <trkpt lat="45.55857" lon="2.93484">
        <ele>909.831817</ele>
        <time>2022-04-22T22:43:28.381Z</time>
      </trkpt>
      <trkpt lat="45.55839" lon="2.93519">
        <ele>912.510507</ele>
        <time>2022-04-22T22:43:44.859Z</time>
      </trkpt>
      <trkpt lat="45.55819" lon="2.93549">
        <ele>915.589753</ele>
        <time>2022-04-22T22:44:02.574Z</time>
      </trkpt>
      <trkpt lat="45.55773" lon="2.93568">
        <ele>920.85561</ele>
        <time>2022-04-22T22:44:32.601Z</time>
      </trkpt>
      <trkpt lat="45.55766" lon="2.93562">
        <ele>921.711668</ele>
        <time>2022-04-22T22:44:38.412Z</time>
      </trkpt>
      <trkpt lat="45.5566" lon="2.93533">
        <ele>933.005477</ele>
        <time>2022-04-22T22:45:53.421Z</time>
      </trkpt>
      <trkpt lat="45.55651" lon="2.93542">
        <ele>933.916371</ele>
        <time>2022-04-22T22:46:00.344Z</time>
      </trkpt>
      <trkpt lat="45.55645" lon="2.93559">
        <ele>935.062164</ele>
        <time>2022-04-22T22:46:09.295Z</time>
      </trkpt>
      <trkpt lat="45.55644" lon="2.93577">
        <ele>936.136682</ele>
        <time>2022-04-22T22:46:19.420Z</time>
      </trkpt>
      <trkpt lat="45.55657" lon="2.93618">
        <ele>938.763955</ele>
        <time>2022-04-22T22:46:40.684Z</time>
      </trkpt>
      <trkpt lat="45.55659" lon="2.9365">
        <ele>940.623342</ele>
        <time>2022-04-22T22:46:53.612Z</time>
      </trkpt>
      <trkpt lat="45.55654" lon="2.93681">
        <ele>942.494151</ele>
        <time>2022-04-22T22:47:07.178Z</time>
      </trkpt>
      <trkpt lat="45.55643" lon="2.93701">
        <ele>943.936581</ele>
        <time>2022-04-22T22:47:15.273Z</time>
      </trkpt>
      <trkpt lat="45.55642" lon="2.93743">
        <ele>946.444587</ele>
        <time>2022-04-22T22:47:28.514Z</time>
      </trkpt>
      <trkpt lat="45.55651" lon="2.93797">
        <ele>947.962585</ele>
        <time>2022-04-22T22:47:43.973Z</time>
      </trkpt>
      <trkpt lat="45.55655" lon="2.93863">
        <ele>949.538332</ele>
        <time>2022-04-22T22:48:03.891Z</time>
      </trkpt>
      <trkpt lat="45.55661" lon="2.93893">
        <ele>950.276681</ele>
        <time>2022-04-22T22:48:12.981Z</time>
      </trkpt>
      <trkpt lat="45.55706" lon="2.94021">
        <ele>952.879764</ele>
        <time>2022-04-22T22:48:47.795Z</time>
      </trkpt>
      <trkpt lat="45.55782" lon="2.94106">
        <ele>952.873594</ele>
        <time>2022-04-22T22:49:13.818Z</time>
      </trkpt>
      <trkpt lat="45.55795" lon="2.94128">
        <ele>952.872339</ele>
        <time>2022-04-22T22:49:18.458Z</time>
      </trkpt>
      <trkpt lat="45.55811" lon="2.94173">
        <ele>952.87007</ele>
        <time>2022-04-22T22:49:26.364Z</time>
      </trkpt>
      <trkpt lat="45.55815" lon="2.94256">
        <ele>951.285713</ele>
        <time>2022-04-22T22:49:38.796Z</time>
      </trkpt>
      <trkpt lat="45.55829" lon="2.94276">
        <ele>950.686333</ele>
        <time>2022-04-22T22:49:43.003Z</time>
      </trkpt>
      <trkpt lat="45.55843" lon="2.94321">
        <ele>949.671686</ele>
        <time>2022-04-22T22:49:49.964Z</time>
      </trkpt>
      <trkpt lat="45.55849" lon="2.94353">
        <ele>948.968589</ele>
        <time>2022-04-22T22:49:54.677Z</time>
      </trkpt>
      <trkpt lat="45.55864" lon="2.94421">
        <ele>947.486913</ele>
        <time>2022-04-22T22:50:04.756Z</time>
      </trkpt>
      <trkpt lat="45.55904" lon="2.94581">
        <ele>945.484946</ele>
        <time>2022-04-22T22:50:29.276Z</time>
      </trkpt>
      <trkpt lat="45.55898" lon="2.94682">
        <ele>944.925882</ele>
        <time>2022-04-22T22:50:49.340Z</time>
      </trkpt>
      <trkpt lat="45.55883" lon="2.94705">
        <ele>945.900357</ele>
        <time>2022-04-22T22:50:56.262Z</time>
      </trkpt>
      <trkpt lat="45.55863" lon="2.94724">
        <ele>946.948193</ele>
        <time>2022-04-22T22:51:03.341Z</time>
      </trkpt>
      <trkpt lat="45.55832" lon="2.9478">
        <ele>949.158122</ele>
        <time>2022-04-22T22:51:18.233Z</time>
      </trkpt>
      <trkpt lat="45.55811" lon="2.94701">
        <ele>951.744296</ele>
        <time>2022-04-22T22:51:45.632Z</time>
      </trkpt>
      <trkpt lat="45.55803" lon="2.94703">
        <ele>952.066912</ele>
        <time>2022-04-22T22:51:50.862Z</time>
      </trkpt>
      <trkpt lat="45.55787" lon="2.94739">
        <ele>954.335927</ele>
        <time>2022-04-22T22:52:09.201Z</time>
      </trkpt>
      <trkpt lat="45.5577" lon="2.94747">
        <ele>955.831696</ele>
        <time>2022-04-22T22:52:21.051Z</time>
      </trkpt>
      <trkpt lat="45.55691" lon="2.94689">
        <ele>963.316633</ele>
        <time>2022-04-22T22:53:13.171Z</time>
      </trkpt>
      <trkpt lat="45.55684" lon="2.9467">
        <ele>964.590052</ele>
        <time>2022-04-22T22:53:23.682Z</time>
      </trkpt>
      <trkpt lat="45.55673" lon="2.94643">
        <ele>966.405623</ele>
        <time>2022-04-22T22:53:34.111Z</time>
      </trkpt>
      <trkpt lat="45.55669" lon="2.94621">
        <ele>967.757264</ele>
        <time>2022-04-22T22:53:45.583Z</time>
      </trkpt>
      <trkpt lat="45.55641" lon="2.94606">
        <ele>970.225645</ele>
        <time>2022-04-22T22:54:03.839Z</time>
      </trkpt>
      <trkpt lat="45.55635" lon="2.94595">
        <ele>970.984913</ele>
        <time>2022-04-22T22:54:09.903Z</time>
      </trkpt>
      <trkpt lat="45.55548" lon="2.94403">
        <ele>983.866643</ele>
        <time>2022-04-22T22:55:42.296Z</time>
      </trkpt>
      <trkpt lat="45.55495" lon="2.94324">
        <ele>989.32647</ele>
        <time>2022-04-22T22:56:23.488Z</time>
      </trkpt>
      <trkpt lat="45.55472" lon="2.94301">
        <ele>991.315981</ele>
        <time>2022-04-22T22:56:38.153Z</time>
      </trkpt>
      <trkpt lat="45.55457" lon="2.94264">
        <ele>993.399431</ele>
        <time>2022-04-22T22:56:53.594Z</time>
      </trkpt>
      <trkpt lat="45.5542" lon="2.94199">
        <ele>997.772178</ele>
        <time>2022-04-22T22:57:23.784Z</time>
      </trkpt>
      <trkpt lat="45.55384" lon="2.94107">
        <ele>1003.351072</ele>
        <time>2022-04-22T22:58:04.419Z</time>
      </trkpt>
      <trkpt lat="45.55283" lon="2.94026">
        <ele>1012.459039</ele>
        <time>2022-04-22T22:59:13.197Z</time>
      </trkpt>
      <trkpt lat="45.55266" lon="2.94011">
        <ele>1014.125574</ele>
        <time>2022-04-22T22:59:24.288Z</time>
      </trkpt>
      <trkpt lat="45.55258" lon="2.93993">
        <ele>1015.345041</ele>
        <time>2022-04-22T22:59:34.015Z</time>
      </trkpt>
      <trkpt lat="45.55219" lon="2.93983">
        <ele>1018.563126</ele>
        <time>2022-04-22T22:59:53.055Z</time>
      </trkpt>
      <trkpt lat="45.55208" lon="2.9397">
        <ele>1019.743537</ele>
        <time>2022-04-22T22:59:59.549Z</time>
      </trkpt>
      <trkpt lat="45.55194" lon="2.93966">
        <ele>1020.965238</ele>
        <time>2022-04-22T23:00:08.028Z</time>
      </trkpt>
      <trkpt lat="45.55181" lon="2.93975">
        <ele>1022.103498</ele>
        <time>2022-04-22T23:00:13.818Z</time>
      </trkpt>
      <trkpt lat="45.55155" lon="2.93936">
        <ele>1024.931552</ele>
        <time>2022-04-22T23:00:32.885Z</time>
      </trkpt>
      <trkpt lat="45.55152" lon="2.93914">
        <ele>1025.997527</ele>
        <time>2022-04-22T23:00:41.704Z</time>
      </trkpt>
      <trkpt lat="45.55106" lon="2.93808">
        <ele>1031.919834</ele>
        <time>2022-04-22T23:01:15.497Z</time>
      </trkpt>
      <trkpt lat="45.55041" lon="2.93751">
        <ele>1036.587752</ele>
        <time>2022-04-22T23:01:49.110Z</time>
      </trkpt>
      <trkpt lat="45.54992" lon="2.93738">
        <ele>1038.786242</ele>
        <time>2022-04-22T23:02:07.538Z</time>
      </trkpt>
      <trkpt lat="45.54973" lon="2.93751">
        <ele>1039.743122</ele>
        <time>2022-04-22T23:02:15.646Z</time>
      </trkpt>
      <trkpt lat="45.54956" lon="2.93762">
        <ele>1040.571625</ele>
        <time>2022-04-22T23:02:22.080Z</time>
      </trkpt>
      <trkpt lat="45.5489" lon="2.9378">
        <ele>1043.556605</ele>
        <time>2022-04-22T23:02:41.691Z</time>
      </trkpt>
      <trkpt lat="45.54796" lon="2.93786">
        <ele>1042.23308</ele>
        <time>2022-04-22T23:02:59.929Z</time>
      </trkpt>
      <trkpt lat="45.54586" lon="2.93862">
        <ele>1033.795757</ele>
        <time>2022-04-22T23:03:25.015Z</time>
      </trkpt>
      <trkpt lat="45.54554" lon="2.93867">
        <ele>1032.0184</ele>
        <time>2022-04-22T23:03:28.369Z</time>
      </trkpt>
      <trkpt lat="45.54442" lon="2.93864">
        <ele>1024.890174</ele>
        <time>2022-04-22T23:03:40.297Z</time>
      </trkpt>
      <trkpt lat="45.54436" lon="2.93874">
        <ele>1024.32638</ele>
        <time>2022-04-22T23:03:41.195Z</time>
      </trkpt>
      <trkpt lat="45.54424" lon="2.93876">
        <ele>1023.549417</ele>
        <time>2022-04-22T23:03:42.490Z</time>
      </trkpt>
      <trkpt lat="45.54409" lon="2.93852">
        <ele>1022.075088</ele>
        <time>2022-04-22T23:03:45.160Z</time>
      </trkpt>
      <trkpt lat="45.54353" lon="2.93797">
        <ele>1019.315004</ele>
        <time>2022-04-22T23:03:53.392Z</time>
      </trkpt>
      <trkpt lat="45.54307" lon="2.9372">
        <ele>1019.12465</ele>
        <time>2022-04-22T23:04:03.289Z</time>
      </trkpt>
      <trkpt lat="45.54276" lon="2.93678">
        <ele>1019.009622</ele>
        <time>2022-04-22T23:04:14.569Z</time>
      </trkpt>
      <trkpt lat="45.54259" lon="2.93633">
        <ele>1018.914141</ele>
        <time>2022-04-22T23:04:26.042Z</time>
      </trkpt>
      <trkpt lat="45.5424" lon="2.936">
        <ele>1020.290206</ele>
        <time>2022-04-22T23:04:35.898Z</time>
      </trkpt>
      <trkpt lat="45.54187" lon="2.93456">
        <ele>1026.307548</ele>
        <time>2022-04-22T23:05:20.194Z</time>
      </trkpt>
      <trkpt lat="45.54169" lon="2.93389">
        <ele>1028.986313</ele>
        <time>2022-04-22T23:05:41.774Z</time>
      </trkpt>
      <trkpt lat="45.54151" lon="2.93377">
        <ele>1030.060505</ele>
        <time>2022-04-22T23:05:50.348Z</time>
      </trkpt>
      <trkpt lat="45.54132" lon="2.93389">
        <ele>1031.213751</ele>
        <time>2022-04-22T23:05:58.969Z</time>
      </trkpt>
      <trkpt lat="45.54121" lon="2.93403">
        <ele>1031.994655</ele>
        <time>2022-04-22T23:06:04.988Z</time>
      </trkpt>
      <trkpt lat="45.54107" lon="2.93459">
        <ele>1034.278312</ele>
        <time>2022-04-22T23:06:21.291Z</time>
      </trkpt>
      <trkpt lat="45.54083" lon="2.9375">
        <ele>1044.605308</ele>
        <time>2022-04-22T23:07:35.082Z</time>
      </trkpt>
      <trkpt lat="45.54079" lon="2.93757">
        <ele>1044.914768</ele>
        <time>2022-04-22T23:07:37.347Z</time>
      </trkpt>
      <trkpt lat="45.54074" lon="2.93753">
        <ele>1045.171055</ele>
        <time>2022-04-22T23:07:39.496Z</time>
      </trkpt>
      <trkpt lat="45.54055" lon="2.9361">
        <ele>1050.633651</ele>
        <time>2022-04-22T23:08:17.593Z</time>
      </trkpt>
      <trkpt lat="45.54044" lon="2.93569">
        <ele>1052.334207</ele>
        <time>2022-04-22T23:08:29.109Z</time>
      </trkpt>
      <trkpt lat="45.54038" lon="2.93564">
        <ele>1052.740586</ele>
        <time>2022-04-22T23:08:31.954Z</time>
      </trkpt>
      <trkpt lat="45.53937" lon="2.93592">
        <ele>1058.927455</ele>
        <time>2022-04-22T23:09:14.576Z</time>
      </trkpt>
      <trkpt lat="45.53862" lon="2.93628">
        <ele>1064.653622</ele>
        <time>2022-04-22T23:09:53.183Z</time>
      </trkpt>
      <trkpt lat="45.53835" lon="2.93647">
        <ele>1066.843175</ele>
        <time>2022-04-22T23:10:07.158Z</time>
      </trkpt>
      <trkpt lat="45.53809" lon="2.93653">
        <ele>1068.723809</ele>
        <time>2022-04-22T23:10:19.387Z</time>
      </trkpt>
      <trkpt lat="45.53774" lon="2.93654">
        <ele>1071.158469</ele>
        <time>2022-04-22T23:10:34.986Z</time>
      </trkpt>
      <trkpt lat="45.53699" lon="2.93678">
        <ele>1076.434166</ele>
        <time>2022-04-22T23:11:09.928Z</time>
      </trkpt>
      <trkpt lat="45.53584" lon="2.93714">
        <ele>1083.554766</ele>
        <time>2022-04-22T23:12:01.744Z</time>
      </trkpt>
      <trkpt lat="45.53497" lon="2.93733">
        <ele>1087.164271</ele>
        <time>2022-04-22T23:12:34.188Z</time>
      </trkpt>
      <trkpt lat="45.53426" lon="2.93736">
        <ele>1089.443584</ele>
        <time>2022-04-22T23:12:52.510Z</time>
      </trkpt>
      <trkpt lat="45.53279" lon="2.93717">
        <ele>1088.412597</ele>
        <time>2022-04-22T23:13:14.860Z</time>
      </trkpt>
      <trkpt lat="45.53229" lon="2.93707">
        <ele>1087.706732</ele>
        <time>2022-04-22T23:13:21.669Z</time>
      </trkpt>
      <trkpt lat="45.53153" lon="2.93667">
        <ele>1086.204213</ele>
        <time>2022-04-22T23:13:33.333Z</time>
      </trkpt>
      <trkpt lat="45.53112" lon="2.93652">
        <ele>1085.429172</ele>
        <time>2022-04-22T23:13:39.521Z</time>
      </trkpt>
      <trkpt lat="45.5299" lon="2.93649">
        <ele>1082.346953</ele>
        <time>2022-04-22T23:13:56.164Z</time>
      </trkpt>
      <trkpt lat="45.52882" lon="2.9363">
        <ele>1079.80924</ele>
        <time>2022-04-22T23:14:10.354Z</time>
      </trkpt>
      <trkpt lat="45.52828" lon="2.93629">
        <ele>1079.201195</ele>
        <time>2022-04-22T23:14:17.691Z</time>
      </trkpt>
      <trkpt lat="45.52766" lon="2.93583">
        <ele>1078.420528</ele>
        <time>2022-04-22T23:14:28.516Z</time>
      </trkpt>
      <trkpt lat="45.5272" lon="2.93594">
        <ele>1078.494706</ele>
        <time>2022-04-22T23:14:38.857Z</time>
      </trkpt>
      <trkpt lat="45.52628" lon="2.93638">
        <ele>1081.065162</ele>
        <time>2022-04-22T23:15:07.732Z</time>
      </trkpt>
      <trkpt lat="45.52619" lon="2.93635">
        <ele>1081.304048</ele>
        <time>2022-04-22T23:15:10.760Z</time>
      </trkpt>
      <trkpt lat="45.52584" lon="2.93631">
        <ele>1082.232377</ele>
        <time>2022-04-22T23:15:22.027Z</time>
      </trkpt>
      <trkpt lat="45.52542" lon="2.93635">
        <ele>1082.680451</ele>
        <time>2022-04-22T23:15:34.282Z</time>
      </trkpt>
      <trkpt lat="45.52503" lon="2.93625">
        <ele>1082.386238</ele>
        <time>2022-04-22T23:15:42.441Z</time>
      </trkpt>
      <trkpt lat="45.52469" lon="2.93624">
        <ele>1082.137693</ele>
        <time>2022-04-22T23:15:47.440Z</time>
      </trkpt>
      <trkpt lat="45.52435" lon="2.93628">
        <ele>1081.89034</ele>
        <time>2022-04-22T23:15:51.711Z</time>
      </trkpt>
      <trkpt lat="45.52413" lon="2.9362">
        <ele>1081.723322</ele>
        <time>2022-04-22T23:15:54.372Z</time>
      </trkpt>
      <trkpt lat="45.52384" lon="2.93616">
        <ele>1081.510415</ele>
        <time>2022-04-22T23:15:57.578Z</time>
      </trkpt>
      <trkpt lat="45.52278" lon="2.93568">
        <ele>1077.153626</ele>
        <time>2022-04-22T23:16:09.692Z</time>
      </trkpt>
      <trkpt lat="45.52262" lon="2.9355">
        <ele>1076.355421</ele>
        <time>2022-04-22T23:16:11.933Z</time>
      </trkpt>
      <trkpt lat="45.52241" lon="2.93481">
        <ele>1074.267562</ele>
        <time>2022-04-22T23:16:18.164Z</time>
      </trkpt>
      <trkpt lat="45.5218" lon="2.93397">
        <ele>1070.79479</ele>
        <time>2022-04-22T23:16:27.594Z</time>
      </trkpt>
      <trkpt lat="45.52167" lon="2.93387">
        <ele>1070.211184</ele>
        <time>2022-04-22T23:16:29.102Z</time>
      </trkpt>
      <trkpt lat="45.52133" lon="2.93382">
        <ele>1068.799653</ele>
        <time>2022-04-22T23:16:32.994Z</time>
      </trkpt>
      <trkpt lat="45.52111" lon="2.93404">
        <ele>1067.698027</ele>
        <time>2022-04-22T23:16:36.071Z</time>
      </trkpt>
      <trkpt lat="45.52094" lon="2.93425">
        <ele>1066.655552</ele>
        <time>2022-04-22T23:16:38.498Z</time>
      </trkpt>
      <trkpt lat="45.52093" lon="2.93462">
        <ele>1065.087838</ele>
        <time>2022-04-22T23:16:43.289Z</time>
      </trkpt>
      <trkpt lat="45.52087" lon="2.93468">
        <ele>1064.6763</ele>
        <time>2022-04-22T23:16:44.661Z</time>
      </trkpt>
      <trkpt lat="45.51994" lon="2.93456">
        <ele>1058.960348</ele>
        <time>2022-04-22T23:17:01.675Z</time>
      </trkpt>
      <trkpt lat="45.51976" lon="2.93476">
        <ele>1057.580741</ele>
        <time>2022-04-22T23:17:05.808Z</time>
      </trkpt>
      <trkpt lat="45.51938" lon="2.93417">
        <ele>1054.349961</ele>
        <time>2022-04-22T23:17:16.524Z</time>
      </trkpt>
      <trkpt lat="45.51923" lon="2.93408">
        <ele>1053.404034</ele>
        <time>2022-04-22T23:17:19.926Z</time>
      </trkpt>
      <trkpt lat="45.51785" lon="2.93429">
        <ele>1045.485264</ele>
        <time>2022-04-22T23:17:46.202Z</time>
      </trkpt>
      <trkpt lat="45.51757" lon="2.93426">
        <ele>1043.180735</ele>
        <time>2022-04-22T23:17:51.343Z</time>
      </trkpt>
      <trkpt lat="45.51646" lon="2.93319">
        <ele>1032.195213</ele>
        <time>2022-04-22T23:18:05.245Z</time>
      </trkpt>
      <trkpt lat="45.51636" lon="2.9332">
        <ele>1031.358479</ele>
        <time>2022-04-22T23:18:06.222Z</time>
      </trkpt>
      <trkpt lat="45.51602" lon="2.93314">
        <ele>1028.940358</ele>
        <time>2022-04-22T23:18:09.500Z</time>
      </trkpt>
      <trkpt lat="45.51585" lon="2.93303">
        <ele>1027.590897</ele>
        <time>2022-04-22T23:18:11.355Z</time>
      </trkpt>
      <trkpt lat="45.51571" lon="2.93276">
        <ele>1025.957422</ele>
        <time>2022-04-22T23:18:13.617Z</time>
      </trkpt>
      <trkpt lat="45.51565" lon="2.93242">
        <ele>1024.202375</ele>
        <time>2022-04-22T23:18:16.070Z</time>
      </trkpt>
      <trkpt lat="45.51557" lon="2.93199">
        <ele>1021.975977</ele>
        <time>2022-04-22T23:18:19.244Z</time>
      </trkpt>
      <trkpt lat="45.51518" lon="2.93192">
        <ele>1019.242377</ele>
        <time>2022-04-22T23:18:26.382Z</time>
      </trkpt>
      <trkpt lat="45.51501" lon="2.93148">
        <ele>1018.565695</ele>
        <time>2022-04-22T23:18:33.552Z</time>
      </trkpt>
      <trkpt lat="45.51492" lon="2.93088">
        <ele>1018.604048</ele>
        <time>2022-04-22T23:18:43.190Z</time>
      </trkpt>
      <trkpt lat="45.51465" lon="2.93139">
        <ele>1018.644646</ele>
        <time>2022-04-22T23:18:55.352Z</time>
      </trkpt>
      <trkpt lat="45.51464" lon="2.93185">
        <ele>1018.67316</ele>
        <time>2022-04-22T23:19:06.126Z</time>
      </trkpt>
      <trkpt lat="45.51458" lon="2.93188">
        <ele>1018.678817</ele>
        <time>2022-04-22T23:19:07.662Z</time>
      </trkpt>
      <trkpt lat="45.51448" lon="2.93182">
        <ele>1018.688863</ele>
        <time>2022-04-22T23:19:12.620Z</time>
      </trkpt>
      <trkpt lat="45.51427" lon="2.93166">
        <ele>1019.169598</ele>
        <time>2022-04-22T23:19:20.295Z</time>
      </trkpt>
      <trkpt lat="45.51415" lon="2.93144">
        <ele>1020.438138</ele>
        <time>2022-04-22T23:19:28.036Z</time>
      </trkpt>
      <trkpt lat="45.51395" lon="2.93139">
        <ele>1021.773773</ele>
        <time>2022-04-22T23:19:37.002Z</time>
      </trkpt>
      <trkpt lat="45.51377" lon="2.93151">
        <ele>1023.109119</ele>
        <time>2022-04-22T23:19:47.642Z</time>
      </trkpt>
      <trkpt lat="45.51374" lon="2.93128">
        <ele>1024.194922</ele>
        <time>2022-04-22T23:19:55.671Z</time>
      </trkpt>
      <trkpt lat="45.51364" lon="2.93103">
        <ele>1025.474011</ele>
        <time>2022-04-22T23:20:06.958Z</time>
      </trkpt>
      <trkpt lat="45.51357" lon="2.93101">
        <ele>1025.952112</ele>
        <time>2022-04-22T23:20:11.280Z</time>
      </trkpt>
      <trkpt lat="45.51347" lon="2.93117">
        <ele>1026.906016</ele>
        <time>2022-04-22T23:20:17.652Z</time>
      </trkpt>
      <trkpt lat="45.51341" lon="2.9313">
        <ele>1027.650988</ele>
        <time>2022-04-22T23:20:23.606Z</time>
      </trkpt>
      <trkpt lat="45.51317" lon="2.93151">
        <ele>1029.505261</ele>
        <time>2022-04-22T23:20:37.719Z</time>
      </trkpt>
      <trkpt lat="45.5131" lon="2.93177">
        <ele>1030.800172</ele>
        <time>2022-04-22T23:20:47.469Z</time>
      </trkpt>
      <trkpt lat="45.5129" lon="2.93255">
        <ele>1034.477849</ele>
        <time>2022-04-22T23:21:13.466Z</time>
      </trkpt>
      <trkpt lat="45.51271" lon="2.93236">
        <ele>1035.978193</ele>
        <time>2022-04-22T23:21:23.880Z</time>
      </trkpt>
      <trkpt lat="45.51232" lon="2.93223">
        <ele>1038.49949</ele>
        <time>2022-04-22T23:21:40.469Z</time>
      </trkpt>
      <trkpt lat="45.51209" lon="2.93214">
        <ele>1040.026992</ele>
        <time>2022-04-22T23:21:49.863Z</time>
      </trkpt>
      <trkpt lat="45.51157" lon="2.93188">
        <ele>1042.817081</ele>
        <time>2022-04-22T23:22:09.172Z</time>
      </trkpt>
      <trkpt lat="45.51116" lon="2.93114">
        <ele>1045.156615</ele>
        <time>2022-04-22T23:22:28.625Z</time>
      </trkpt>
      <trkpt lat="45.5111" lon="2.93109">
        <ele>1045.408246</ele>
        <time>2022-04-22T23:22:30.730Z</time>
      </trkpt>
      <trkpt lat="45.51078" lon="2.93125">
        <ele>1046.617237</ele>
        <time>2022-04-22T23:22:40.392Z</time>
      </trkpt>
      <trkpt lat="45.51061" lon="2.93119">
        <ele>1047.220571</ele>
        <time>2022-04-22T23:22:45.307Z</time>
      </trkpt>
      <trkpt lat="45.51059" lon="2.93125">
        <ele>1047.399851</ele>
        <time>2022-04-22T23:22:46.589Z</time>
      </trkpt>
      <trkpt lat="45.51053" lon="2.93135">
        <ele>1047.713611</ele>
        <time>2022-04-22T23:22:49.034Z</time>
      </trkpt>
      <trkpt lat="45.51032" lon="2.93163">
        <ele>1048.7627</ele>
        <time>2022-04-22T23:22:56.864Z</time>
      </trkpt>
      <trkpt lat="45.51023" lon="2.93175">
        <ele>1049.25899</ele>
        <time>2022-04-22T23:23:00.431Z</time>
      </trkpt>
      <trkpt lat="45.51004" lon="2.93163">
        <ele>1050.02804</ele>
        <time>2022-04-22T23:23:07.909Z</time>
      </trkpt>
      <trkpt lat="45.50941" lon="2.93099">
        <ele>1053.01459</ele>
        <time>2022-04-22T23:23:37.592Z</time>
      </trkpt>
      <trkpt lat="45.50856" lon="2.93068">
        <ele>1057.678771</ele>
        <time>2022-04-22T23:24:16.529Z</time>
      </trkpt>
      <trkpt lat="45.5079" lon="2.93013">
        <ele>1064.010421</ele>
        <time>2022-04-22T23:25:00.568Z</time>
      </trkpt>
      <trkpt lat="45.50714" lon="2.92997">
        <ele>1070.419603</ele>
        <time>2022-04-22T23:25:49.452Z</time>
      </trkpt>
      <trkpt lat="45.50649" lon="2.92965">
        <ele>1078.750993</ele>
        <time>2022-04-22T23:26:41.005Z</time>
      </trkpt>
      <trkpt lat="45.50596" lon="2.9294">
        <ele>1085.506861</ele>
        <time>2022-04-22T23:27:22.241Z</time>
      </trkpt>
      <trkpt lat="45.50568" lon="2.92916">
        <ele>1089.403733</ele>
        <time>2022-04-22T23:27:48.697Z</time>
      </trkpt>
      <trkpt lat="45.50525" lon="2.92872">
        <ele>1095.216345</ele>
        <time>2022-04-22T23:28:30.751Z</time>
      </trkpt>
      <trkpt lat="45.50501" lon="2.92856">
        <ele>1097.952667</ele>
        <time>2022-04-22T23:28:47.205Z</time>
      </trkpt>
      <trkpt lat="45.50469" lon="2.92848">
        <ele>1101.342754</ele>
        <time>2022-04-22T23:29:08.290Z</time>
      </trkpt>
      <trkpt lat="45.50454" lon="2.92851">
        <ele>1102.918669</ele>
        <time>2022-04-22T23:29:20.399Z</time>
      </trkpt>
      <trkpt lat="45.50363" lon="2.92836">
        <ele>1112.130661</ele>
        <time>2022-04-22T23:30:06.708Z</time>
      </trkpt>
      <trkpt lat="45.5031" lon="2.92818">
        <ele>1116.890039</ele>
        <time>2022-04-22T23:30:33.852Z</time>
      </trkpt>
      <trkpt lat="45.50287" lon="2.92809">
        <ele>1118.995521</ele>
        <time>2022-04-22T23:30:46.260Z</time>
      </trkpt>
      <trkpt lat="45.50262" lon="2.92772">
        <ele>1122.157921</ele>
        <time>2022-04-22T23:31:07.364Z</time>
      </trkpt>
      <trkpt lat="45.50227" lon="2.92741">
        <ele>1125.79335</ele>
        <time>2022-04-22T23:31:31.095Z</time>
      </trkpt>
      <trkpt lat="45.50219" lon="2.92689">
        <ele>1129.990949</ele>
        <time>2022-04-22T23:31:55.054Z</time>
      </trkpt>
      <trkpt lat="45.50204" lon="2.92659">
        <ele>1132.907379</ele>
        <time>2022-04-22T23:32:14.479Z</time>
      </trkpt>
      <trkpt lat="45.50152" lon="2.92552">
        <ele>1143.403937</ele>
        <time>2022-04-22T23:33:23.588Z</time>
      </trkpt>
      <trkpt lat="45.50061" lon="2.92388">
        <ele>1159.212748</ele>
        <time>2022-04-22T23:35:09.353Z</time>
      </trkpt>
      <trkpt lat="45.50002" lon="2.92292">
        <ele>1167.675359</ele>
        <time>2022-04-22T23:36:05.660Z</time>
      </trkpt>
      <trkpt lat="45.49976" lon="2.92205">
        <ele>1171.9561</ele>
        <time>2022-04-22T23:36:39.131Z</time>
      </trkpt>
      <trkpt lat="45.49959" lon="2.9217">
        <ele>1173.841723</ele>
        <time>2022-04-22T23:36:52.298Z</time>
      </trkpt>
      <trkpt lat="45.4994" lon="2.92142">
        <ele>1175.643066</ele>
        <time>2022-04-22T23:37:04.863Z</time>
      </trkpt>
      <trkpt lat="45.49908" lon="2.9211">
        <ele>1178.072163</ele>
        <time>2022-04-22T23:37:23.467Z</time>
      </trkpt>
      <trkpt lat="45.49892" lon="2.92081">
        <ele>1179.542974</ele>
        <time>2022-04-22T23:37:35.776Z</time>
      </trkpt>
      <trkpt lat="45.49888" lon="2.92048">
        <ele>1180.908966</ele>
        <time>2022-04-22T23:37:47.915Z</time>
      </trkpt>
      <trkpt lat="45.49891" lon="2.92017">
        <ele>1182.162617</ele>
        <time>2022-04-22T23:37:58.087Z</time>
      </trkpt>
      <trkpt lat="45.49908" lon="2.91927">
        <ele>1185.908883</ele>
        <time>2022-04-22T23:38:30.079Z</time>
      </trkpt>
      <trkpt lat="45.50001" lon="2.9165">
        <ele>1197.901292</ele>
        <time>2022-04-22T23:40:14.592Z</time>
      </trkpt>
      <trkpt lat="45.50017" lon="2.91578">
        <ele>1200.00081</ele>
        <time>2022-04-22T23:40:36.591Z</time>
      </trkpt>
      <trkpt lat="45.49977" lon="2.91286">
        <ele>1207.991126</ele>
        <time>2022-04-22T23:41:59.709Z</time>
      </trkpt>
      <trkpt lat="45.49932" lon="2.91023">
        <ele>1214.419051</ele>
        <time>2022-04-22T23:43:15.188Z</time>
      </trkpt>
      <trkpt lat="45.49925" lon="2.90974">
        <ele>1215.522854</ele>
        <time>2022-04-22T23:43:28.342Z</time>
      </trkpt>
      <trkpt lat="45.49944" lon="2.90933">
        <ele>1216.614066</ele>
        <time>2022-04-22T23:43:40.955Z</time>
      </trkpt>
      <trkpt lat="45.49968" lon="2.90879">
        <ele>1218.17446</ele>
        <time>2022-04-22T23:43:56.745Z</time>
      </trkpt>
      <trkpt lat="45.4992" lon="2.90838">
        <ele>1220.187908</ele>
        <time>2022-04-22T23:44:11.095Z</time>
      </trkpt>
      <trkpt lat="45.49898" lon="2.90807">
        <ele>1221.299525</ele>
        <time>2022-04-22T23:44:18.902Z</time>
      </trkpt>
      <trkpt lat="45.49863" lon="2.90715">
        <ele>1224.304323</ele>
        <time>2022-04-22T23:44:46.092Z</time>
      </trkpt>
      <trkpt lat="45.49828" lon="2.90676">
        <ele>1227.58592</ele>
        <time>2022-04-22T23:45:05.229Z</time>
      </trkpt>
      <trkpt lat="45.49649" lon="2.90558">
        <ele>1242.871972</ele>
        <time>2022-04-22T23:46:40.907Z</time>
      </trkpt>
      <trkpt lat="45.49623" lon="2.9053">
        <ele>1245.577205</ele>
        <time>2022-04-22T23:46:57.869Z</time>
      </trkpt>
      <trkpt lat="45.49539" lon="2.904">
        <ele>1254.691888</ele>
        <time>2022-04-22T23:48:00.365Z</time>
      </trkpt>
      <trkpt lat="45.49464" lon="2.90298">
        <ele>1260.569024</ele>
        <time>2022-04-22T23:48:39.515Z</time>
      </trkpt>
      <trkpt lat="45.49451" lon="2.90289">
        <ele>1261.385556</ele>
        <time>2022-04-22T23:48:45.565Z</time>
      </trkpt>
      <trkpt lat="45.49378" lon="2.90275">
        <ele>1262.223223</ele>
        <time>2022-04-22T23:49:01.860Z</time>
      </trkpt>
      <trkpt lat="45.4933" lon="2.90267">
        <ele>1262.240325</ele>
        <time>2022-04-22T23:49:09.369Z</time>
      </trkpt>
      <trkpt lat="45.49281" lon="2.90246">
        <ele>1262.258229</ele>
        <time>2022-04-22T23:49:16.431Z</time>
      </trkpt>
      <trkpt lat="45.49035" lon="2.9025">
        <ele>1255.999724</ele>
        <time>2022-04-22T23:49:47.595Z</time>
      </trkpt>
      <trkpt lat="45.4891" lon="2.9017">
        <ele>1250.806267</ele>
        <time>2022-04-22T23:50:03.757Z</time>
      </trkpt>
      <trkpt lat="45.48699" lon="2.90075">
        <ele>1241.902023</ele>
        <time>2022-04-22T23:50:28.664Z</time>
      </trkpt>
      <trkpt lat="45.48669" lon="2.90068">
        <ele>1241.893254</ele>
        <time>2022-04-22T23:50:32.701Z</time>
      </trkpt>
      <trkpt lat="45.48681" lon="2.90037">
        <ele>1241.88603</ele>
        <time>2022-04-22T23:50:36.410Z</time>
      </trkpt>
      <trkpt lat="45.48952" lon="2.89514">
        <ele>1256.4628</ele>
        <time>2022-04-22T23:53:00.677Z</time>
      </trkpt>
      <trkpt lat="45.48885" lon="2.89352">
        <ele>1262.248459</ele>
        <time>2022-04-22T23:53:45.342Z</time>
      </trkpt>
      <trkpt lat="45.48864" lon="2.89308">
        <ele>1263.897796</ele>
        <time>2022-04-22T23:53:58.588Z</time>
      </trkpt>
      <trkpt lat="45.4885" lon="2.89292">
        <ele>1264.667973</ele>
        <time>2022-04-22T23:54:03.795Z</time>
      </trkpt>
      <trkpt lat="45.48833" lon="2.89285">
        <ele>1265.461215</ele>
        <time>2022-04-22T23:54:10.993Z</time>
      </trkpt>
      <trkpt lat="45.48726" lon="2.89294">
        <ele>1270.141757</ele>
        <time>2022-04-22T23:54:49.816Z</time>
      </trkpt>
      <trkpt lat="45.48706" lon="2.89288">
        <ele>1271.032505</ele>
        <time>2022-04-22T23:54:55.129Z</time>
      </trkpt>
      <trkpt lat="45.48648" lon="2.89208">
        <ele>1273.154611</ele>
        <time>2022-04-22T23:55:16.865Z</time>
      </trkpt>
      <trkpt lat="45.48591" lon="2.89135">
        <ele>1274.926126</ele>
        <time>2022-04-22T23:55:33.397Z</time>
      </trkpt>
      <trkpt lat="45.48511" lon="2.88955">
        <ele>1279.346279</ele>
        <time>2022-04-22T23:56:13.561Z</time>
      </trkpt>
      <trkpt lat="45.48496" lon="2.88941">
        <ele>1279.911694</ele>
        <time>2022-04-22T23:56:20.707Z</time>
      </trkpt>
      <trkpt lat="45.48433" lon="2.88903">
        <ele>1281.654579</ele>
        <time>2022-04-22T23:56:42.907Z</time>
      </trkpt>
      <trkpt lat="45.4842" lon="2.88887">
        <ele>1281.874362</ele>
        <time>2022-04-22T23:56:47.617Z</time>
      </trkpt>
      <trkpt lat="45.48374" lon="2.88791">
        <ele>1282.890317</ele>
        <time>2022-04-22T23:57:07.565Z</time>
      </trkpt>
      <trkpt lat="45.4834" lon="2.8878">
        <ele>1283.323432</ele>
        <time>2022-04-22T23:57:12.553Z</time>
      </trkpt>
      <trkpt lat="45.48312" lon="2.88779">
        <ele>1283.552184</ele>
        <time>2022-04-22T23:57:16.426Z</time>
      </trkpt>
      <trkpt lat="45.48245" lon="2.88778">
        <ele>1281.504424</ele>
        <time>2022-04-22T23:57:25.085Z</time>
      </trkpt>
      <trkpt lat="45.48224" lon="2.88778">
        <ele>1280.877871</ele>
        <time>2022-04-22T23:57:27.493Z</time>
      </trkpt>
      <trkpt lat="45.48208" lon="2.88786">
        <ele>1280.345973</ele>
        <time>2022-04-22T23:57:29.603Z</time>
      </trkpt>
      <trkpt lat="45.48181" lon="2.88822">
        <ele>1279.20887</ele>
        <time>2022-04-22T23:57:33.979Z</time>
      </trkpt>
      <trkpt lat="45.48138" lon="2.88824">
        <ele>1277.827766</ele>
        <time>2022-04-22T23:57:38.992Z</time>
      </trkpt>
      <trkpt lat="45.4804" lon="2.88846">
        <ele>1273.918231</ele>
        <time>2022-04-22T23:57:50.965Z</time>
      </trkpt>
      <trkpt lat="45.48028" lon="2.88853">
        <ele>1273.433866</ele>
        <time>2022-04-22T23:57:52.469Z</time>
      </trkpt>
      <trkpt lat="45.48013" lon="2.88879">
        <ele>1272.480791</ele>
        <time>2022-04-22T23:57:55.306Z</time>
      </trkpt>
      <trkpt lat="45.48008" lon="2.88893">
        <ele>1272.063357</ele>
        <time>2022-04-22T23:57:56.565Z</time>
      </trkpt>
      <trkpt lat="45.47996" lon="2.8896">
        <ele>1269.949369</ele>
        <time>2022-04-22T23:58:02.121Z</time>
      </trkpt>
      <trkpt lat="45.47978" lon="2.88993">
        <ele>1268.51648</ele>
        <time>2022-04-22T23:58:05.493Z</time>
      </trkpt>
      <trkpt lat="45.47904" lon="2.89082">
        <ele>1263.810279</ele>
        <time>2022-04-22T23:58:16.515Z</time>
      </trkpt>
      <trkpt lat="45.4788" lon="2.891">
        <ele>1262.478647</ele>
        <time>2022-04-22T23:58:19.560Z</time>
      </trkpt>
      <trkpt lat="45.47861" lon="2.8915">
        <ele>1260.503055</ele>
        <time>2022-04-22T23:58:24.078Z</time>
      </trkpt>
      <trkpt lat="45.47855" lon="2.8919">
        <ele>1259.096209</ele>
        <time>2022-04-22T23:58:27.346Z</time>
      </trkpt>
      <trkpt lat="45.47826" lon="2.89256">
        <ele>1256.441071</ele>
        <time>2022-04-22T23:58:33.616Z</time>
      </trkpt>
      <trkpt lat="45.47808" lon="2.89277">
        <ele>1255.315844</ele>
        <time>2022-04-22T23:58:38.038Z</time>
      </trkpt>
      <trkpt lat="45.47784" lon="2.89361">
        <ele>1251.899555</ele>
        <time>2022-04-22T23:58:50.518Z</time>
      </trkpt>
      <trkpt lat="45.47761" lon="2.894">
        <ele>1249.743834</ele>
        <time>2022-04-22T23:58:57.318Z</time>
      </trkpt>
      <trkpt lat="45.47754" lon="2.89441">
        <ele>1247.99141</ele>
        <time>2022-04-22T23:59:02.781Z</time>
      </trkpt>
      <trkpt lat="45.47749" lon="2.8945">
        <ele>1247.507871</ele>
        <time>2022-04-22T23:59:04.250Z</time>
      </trkpt>
      <trkpt lat="45.47716" lon="2.89474">
        <ele>1245.32064</ele>
        <time>2022-04-22T23:59:11.091Z</time>
      </trkpt>
      <trkpt lat="45.47692" lon="2.89514">
        <ele>1243.087901</ele>
        <time>2022-04-22T23:59:18.111Z</time>
      </trkpt>
      <trkpt lat="45.47655" lon="2.89545">
        <ele>1240.796757</ele>
        <time>2022-04-22T23:59:25.792Z</time>
      </trkpt>
      <trkpt lat="45.4764" lon="2.89596">
        <ele>1238.745494</ele>
        <time>2022-04-22T23:59:32.891Z</time>
      </trkpt>
      <trkpt lat="45.47623" lon="2.89625">
        <ele>1237.324517</ele>
        <time>2022-04-22T23:59:38.114Z</time>
      </trkpt>
      <trkpt lat="45.47611" lon="2.89674">
        <ele>1235.382135</ele>
        <time>2022-04-22T23:59:45.201Z</time>
      </trkpt>
      <trkpt lat="45.4761" lon="2.89695">
        <ele>1234.617261</ele>
        <time>2022-04-22T23:59:47.845Z</time>
      </trkpt>
      <trkpt lat="45.47567" lon="2.89634">
        <ele>1232.810528</ele>
        <time>2022-04-22T23:59:55.525Z</time>
      </trkpt>
      <trkpt lat="45.47555" lon="2.89625">
        <ele>1232.633625</ele>
        <time>2022-04-22T23:59:57.152Z</time>
      </trkpt>
      <trkpt lat="45.47553" lon="2.89629">
        <ele>1232.592338</ele>
        <time>2022-04-22T23:59:57.929Z</time>
      </trkpt>
      <trkpt lat="45.47545" lon="2.89622">
        <ele>1232.478811</ele>
        <time>2022-04-23T00:00:00.488Z</time>
      </trkpt>
      <trkpt lat="45.47516" lon="2.8962">
        <ele>1232.108572</ele>
        <time>2022-04-23T00:00:06.925Z</time>
      </trkpt>
      <trkpt lat="45.47506" lon="2.89608">
        <ele>1231.939795</ele>
        <time>2022-04-23T00:00:10.914Z</time>
      </trkpt>
      <trkpt lat="45.47473" lon="2.89622">
        <ele>1231.489645</ele>
        <time>2022-04-23T00:00:19.350Z</time>
      </trkpt>
      <trkpt lat="45.47339" lon="2.89598">
        <ele>1229.904746</ele>
        <time>2022-04-23T00:00:53.417Z</time>
      </trkpt>
      <trkpt lat="45.47317" lon="2.89602">
        <ele>1229.649148</ele>
        <time>2022-04-23T00:00:58.579Z</time>
      </trkpt>
      <trkpt lat="45.47264" lon="2.89586">
        <ele>1229.039629</ele>
        <time>2022-04-23T00:01:10.685Z</time>
      </trkpt>
      <trkpt lat="45.47213" lon="2.89588">
        <ele>1226.91732</ele>
        <time>2022-04-23T00:01:21.169Z</time>
      </trkpt>
      <trkpt lat="45.47128" lon="2.89636">
        <ele>1222.356812</ele>
        <time>2022-04-23T00:01:38.671Z</time>
      </trkpt>
      <trkpt lat="45.47093" lon="2.89686">
        <ele>1219.822702</ele>
        <time>2022-04-23T00:01:47.919Z</time>
      </trkpt>
      <trkpt lat="45.4708" lon="2.89694">
        <ele>1218.735484</ele>
        <time>2022-04-23T00:01:50.408Z</time>
      </trkpt>
      <trkpt lat="45.47069" lon="2.89691">
        <ele>1217.867859</ele>
        <time>2022-04-23T00:01:52.364Z</time>
      </trkpt>
      <trkpt lat="45.47065" lon="2.89697">
        <ele>1217.405387</ele>
        <time>2022-04-23T00:01:53.421Z</time>
      </trkpt>
      <trkpt lat="45.46739" lon="2.898">
        <ele>1191.127308</ele>
        <time>2022-04-23T00:02:52.500Z</time>
      </trkpt>
      <trkpt lat="45.46681" lon="2.89854">
        <ele>1189.242553</ele>
        <time>2022-04-23T00:03:06.180Z</time>
      </trkpt>
      <trkpt lat="45.46658" lon="2.89882">
        <ele>1188.42061</ele>
        <time>2022-04-23T00:03:12.622Z</time>
      </trkpt>
      <trkpt lat="45.46584" lon="2.89869">
        <ele>1186.412463</ele>
        <time>2022-04-23T00:03:30.558Z</time>
      </trkpt>
      <trkpt lat="45.46511" lon="2.89888">
        <ele>1187.370318</ele>
        <time>2022-04-23T00:03:54.956Z</time>
      </trkpt>
      <trkpt lat="45.46462" lon="2.89923">
        <ele>1188.09758</ele>
        <time>2022-04-23T00:04:13.873Z</time>
      </trkpt>
      <trkpt lat="45.46423" lon="2.89958">
        <ele>1188.713374</ele>
        <time>2022-04-23T00:04:27.867Z</time>
      </trkpt>
      <trkpt lat="45.46388" lon="2.90002">
        <ele>1189.081153</ele>
        <time>2022-04-23T00:04:40.642Z</time>
      </trkpt>
      <trkpt lat="45.46353" lon="2.90075">
        <ele>1189.530474</ele>
        <time>2022-04-23T00:04:55.559Z</time>
      </trkpt>
      <trkpt lat="45.46313" lon="2.90206">
        <ele>1191.592533</ele>
        <time>2022-04-23T00:05:24.578Z</time>
      </trkpt>
      <trkpt lat="45.46288" lon="2.90258">
        <ele>1194.339075</ele>
        <time>2022-04-23T00:05:44.752Z</time>
      </trkpt>
      <trkpt lat="45.46261" lon="2.90297">
        <ele>1196.683508</ele>
        <time>2022-04-23T00:06:07.340Z</time>
      </trkpt>
      <trkpt lat="45.46206" lon="2.90313">
        <ele>1200.223552</ele>
        <time>2022-04-23T00:06:43.269Z</time>
      </trkpt>
      <trkpt lat="45.46147" lon="2.90286">
        <ele>1201.618615</ele>
        <time>2022-04-23T00:07:15.563Z</time>
      </trkpt>
      <trkpt lat="45.46143" lon="2.90291">
        <ele>1201.661384</ele>
        <time>2022-04-23T00:07:19.863Z</time>
      </trkpt>
      <trkpt lat="45.46139" lon="2.90317">
        <ele>1201.809261</ele>
        <time>2022-04-23T00:07:27.278Z</time>
      </trkpt>
      <trkpt lat="45.4615" lon="2.90384">
        <ele>1202.183825</ele>
        <time>2022-04-23T00:07:46.715Z</time>
      </trkpt>
      <trkpt lat="45.46151" lon="2.90719">
        <ele>1190.229335</ele>
        <time>2022-04-23T00:08:28.704Z</time>
      </trkpt>
      <trkpt lat="45.46162" lon="2.90751">
        <ele>1189.410769</ele>
        <time>2022-04-23T00:08:33.154Z</time>
      </trkpt>
      <trkpt lat="45.46052" lon="2.90941">
        <ele>1186.829011</ele>
        <time>2022-04-23T00:09:14.280Z</time>
      </trkpt>
      <trkpt lat="45.45943" lon="2.91001">
        <ele>1188.174621</ele>
        <time>2022-04-23T00:09:57.432Z</time>
      </trkpt>
      <trkpt lat="45.45913" lon="2.91009">
        <ele>1188.528462</ele>
        <time>2022-04-23T00:10:05.197Z</time>
      </trkpt>
      <trkpt lat="45.45857" lon="2.9101">
        <ele>1187.988176</ele>
        <time>2022-04-23T00:10:18.381Z</time>
      </trkpt>
      <trkpt lat="45.4583" lon="2.91045">
        <ele>1187.125254</ele>
        <time>2022-04-23T00:10:26.439Z</time>
      </trkpt>
      <trkpt lat="45.45799" lon="2.91056">
        <ele>1186.376371</ele>
        <time>2022-04-23T00:10:33.242Z</time>
      </trkpt>
      <trkpt lat="45.45774" lon="2.91053">
        <ele>1185.769815</ele>
        <time>2022-04-23T00:10:38.603Z</time>
      </trkpt>
      <trkpt lat="45.45756" lon="2.91063">
        <ele>1185.33235</ele>
        <time>2022-04-23T00:10:42.436Z</time>
      </trkpt>
      <trkpt lat="45.45721" lon="2.91103">
        <ele>1184.268988</ele>
        <time>2022-04-23T00:10:51.110Z</time>
      </trkpt>
      <trkpt lat="45.45701" lon="2.91135">
        <ele>1183.51061</ele>
        <time>2022-04-23T00:10:57.153Z</time>
      </trkpt>
      <trkpt lat="45.45656" lon="2.91218">
        <ele>1181.659399</ele>
        <time>2022-04-23T00:11:13.665Z</time>
      </trkpt>
      <trkpt lat="45.45646" lon="2.91246">
        <ele>1181.121296</ele>
        <time>2022-04-23T00:11:18.290Z</time>
      </trkpt>
      <trkpt lat="45.45617" lon="2.91285">
        <ele>1180.114224</ele>
        <time>2022-04-23T00:11:27.263Z</time>
      </trkpt>
      <trkpt lat="45.45571" lon="2.91391">
        <ele>1178.147035</ele>
        <time>2022-04-23T00:11:46.137Z</time>
      </trkpt>
      <trkpt lat="45.45527" lon="2.91469">
        <ele>1176.575357</ele>
        <time>2022-04-23T00:12:01.095Z</time>
      </trkpt>
      <trkpt lat="45.45508" lon="2.91477">
        <ele>1176.125937</ele>
        <time>2022-04-23T00:12:05.305Z</time>
      </trkpt>
      <trkpt lat="45.45465" lon="2.91473">
        <ele>1175.782406</ele>
        <time>2022-04-23T00:12:14.870Z</time>
      </trkpt>
      <trkpt lat="45.45453" lon="2.91489">
        <ele>1175.682654</ele>
        <time>2022-04-23T00:12:18.748Z</time>
      </trkpt>
      <trkpt lat="45.45443" lon="2.91492">
        <ele>1175.621004</ele>
        <time>2022-04-23T00:12:20.956Z</time>
      </trkpt>
      <trkpt lat="45.45435" lon="2.91485">
        <ele>1175.561834</ele>
        <time>2022-04-23T00:12:23.250Z</time>
      </trkpt>
      <trkpt lat="45.45362" lon="2.9148">
        <ele>1175.125029</ele>
        <time>2022-04-23T00:12:41.207Z</time>
      </trkpt>
      <trkpt lat="45.45333" lon="2.91443">
        <ele>1174.92943</ele>
        <time>2022-04-23T00:12:52.863Z</time>
      </trkpt>
      <trkpt lat="45.45321" lon="2.91436">
        <ele>1174.93394</ele>
        <time>2022-04-23T00:12:57.045Z</time>
      </trkpt>
      <trkpt lat="45.4527" lon="2.9144">
        <ele>1174.951234</ele>
        <time>2022-04-23T00:13:12.673Z</time>
      </trkpt>
      <trkpt lat="45.45239" lon="2.91432">
        <ele>1174.961995</ele>
        <time>2022-04-23T00:13:22.180Z</time>
      </trkpt>
      <trkpt lat="45.45199" lon="2.91394">
        <ele>1174.978349</ele>
        <time>2022-04-23T00:13:35.016Z</time>
      </trkpt>
      <trkpt lat="45.4518" lon="2.91365">
        <ele>1174.987907</ele>
        <time>2022-04-23T00:13:41.351Z</time>
      </trkpt>
      <trkpt lat="45.45166" lon="2.91358">
        <ele>1174.065417</ele>
        <time>2022-04-23T00:13:44.600Z</time>
      </trkpt>
      <trkpt lat="45.45115" lon="2.91362">
        <ele>1170.425034</ele>
        <time>2022-04-23T00:13:54.411Z</time>
      </trkpt>
      <trkpt lat="45.45088" lon="2.91383">
        <ele>1168.215265</ele>
        <time>2022-04-23T00:13:59.945Z</time>
      </trkpt>
      <trkpt lat="45.45041" lon="2.91441">
        <ele>1163.725065</ele>
        <time>2022-04-23T00:14:10.753Z</time>
      </trkpt>
      <trkpt lat="45.4501" lon="2.91463">
        <ele>1160.781117</ele>
        <time>2022-04-23T00:14:16.633Z</time>
      </trkpt>
      <trkpt lat="45.44975" lon="2.91502">
        <ele>1155.788194</ele>
        <time>2022-04-23T00:14:24.228Z</time>
      </trkpt>
      <trkpt lat="45.44945" lon="2.91517">
        <ele>1152.226348</ele>
        <time>2022-04-23T00:14:29.492Z</time>
      </trkpt>
      <trkpt lat="45.44924" lon="2.91546">
        <ele>1149.022973</ele>
        <time>2022-04-23T00:14:34.286Z</time>
      </trkpt>
      <trkpt lat="45.44904" lon="2.91561">
        <ele>1146.391674</ele>
        <time>2022-04-23T00:14:38.237Z</time>
      </trkpt>
      <trkpt lat="45.44859" lon="2.91622">
        <ele>1139.99977</ele>
        <time>2022-04-23T00:14:48.590Z</time>
      </trkpt>
      <trkpt lat="45.44846" lon="2.91631">
        <ele>1138.696151</ele>
        <time>2022-04-23T00:14:51.283Z</time>
      </trkpt>
      <trkpt lat="45.4483" lon="2.91627">
        <ele>1137.292903</ele>
        <time>2022-04-23T00:14:53.923Z</time>
      </trkpt>
      <trkpt lat="45.44762" lon="2.91567">
        <ele>1130.143643</ele>
        <time>2022-04-23T00:15:02.336Z</time>
      </trkpt>
      <trkpt lat="45.44718" lon="2.91556">
        <ele>1126.201371</ele>
        <time>2022-04-23T00:15:06.988Z</time>
      </trkpt>
      <trkpt lat="45.44626" lon="2.9144">
        <ele>1117.746217</ele>
        <time>2022-04-23T00:15:19.939Z</time>
      </trkpt>
      <trkpt lat="45.44603" lon="2.9143">
        <ele>1116.096499</ele>
        <time>2022-04-23T00:15:22.685Z</time>
      </trkpt>
      <trkpt lat="45.44577" lon="2.91442">
        <ele>1114.267913</ele>
        <time>2022-04-23T00:15:25.870Z</time>
      </trkpt>
      <trkpt lat="45.44566" lon="2.91457">
        <ele>1113.46748</ele>
        <time>2022-04-23T00:15:27.585Z</time>
      </trkpt>
      <trkpt lat="45.4456" lon="2.91469">
        <ele>1113.166832</ele>
        <time>2022-04-23T00:15:28.773Z</time>
      </trkpt>
      <trkpt lat="45.44549" lon="2.91477">
        <ele>1112.777325</ele>
        <time>2022-04-23T00:15:30.416Z</time>
      </trkpt>
      <trkpt lat="45.44526" lon="2.91463">
        <ele>1112.021646</ele>
        <time>2022-04-23T00:15:33.299Z</time>
      </trkpt>
      <trkpt lat="45.44513" lon="2.91463">
        <ele>1111.63208</ele>
        <time>2022-04-23T00:15:34.909Z</time>
      </trkpt>
      <trkpt lat="45.44442" lon="2.91474">
        <ele>1109.452951</ele>
        <time>2022-04-23T00:15:44.117Z</time>
      </trkpt>
      <trkpt lat="45.44434" lon="2.91481">
        <ele>1109.178995</ele>
        <time>2022-04-23T00:15:45.169Z</time>
      </trkpt>
      <trkpt lat="45.44429" lon="2.91533">
        <ele>1108.007988</ele>
        <time>2022-04-23T00:15:49.828Z</time>
      </trkpt>
      <trkpt lat="45.44416" lon="2.91558">
        <ele>1107.041626</ele>
        <time>2022-04-23T00:15:52.928Z</time>
      </trkpt>
      <trkpt lat="45.44404" lon="2.91574">
        <ele>1106.338167</ele>
        <time>2022-04-23T00:15:55.119Z</time>
      </trkpt>
      <trkpt lat="45.44391" lon="2.91589">
        <ele>1105.636734</ele>
        <time>2022-04-23T00:15:57.315Z</time>
      </trkpt>
      <trkpt lat="45.44357" lon="2.91589">
        <ele>1104.136341</ele>
        <time>2022-04-23T00:16:01.649Z</time>
      </trkpt>
      <trkpt lat="45.44343" lon="2.91611">
        <ele>1103.261374</ele>
        <time>2022-04-23T00:16:04.004Z</time>
      </trkpt>
      <trkpt lat="45.44318" lon="2.91637">
        <ele>1101.909968</ele>
        <time>2022-04-23T00:16:07.489Z</time>
      </trkpt>
      <trkpt lat="45.44262" lon="2.91646">
        <ele>1098.053536</ele>
        <time>2022-04-23T00:16:13.491Z</time>
      </trkpt>
      <trkpt lat="45.44241" lon="2.91658">
        <ele>1095.621675</ele>
        <time>2022-04-23T00:16:15.828Z</time>
      </trkpt>
      <trkpt lat="45.44206" lon="2.91693">
        <ele>1090.942858</ele>
        <time>2022-04-23T00:16:20.188Z</time>
      </trkpt>
      <trkpt lat="45.44127" lon="2.917">
        <ele>1082.411963</ele>
        <time>2022-04-23T00:16:28.040Z</time>
      </trkpt>
      <trkpt lat="45.44086" lon="2.91689">
        <ele>1077.71179</ele>
        <time>2022-04-23T00:16:32.055Z</time>
      </trkpt>
      <trkpt lat="45.44028" lon="2.91661">
        <ele>1070.477193</ele>
        <time>2022-04-23T00:16:38.059Z</time>
      </trkpt>
      <trkpt lat="45.43831" lon="2.91541">
        <ele>1048.979132</ele>
        <time>2022-04-23T00:16:59.738Z</time>
      </trkpt>
      <trkpt lat="45.43808" lon="2.91536">
        <ele>1046.915608</ele>
        <time>2022-04-23T00:17:02.308Z</time>
      </trkpt>
      <trkpt lat="45.43799" lon="2.91545">
        <ele>1045.954473</ele>
        <time>2022-04-23T00:17:03.454Z</time>
      </trkpt>
      <trkpt lat="45.43804" lon="2.91566">
        <ele>1044.583466</ele>
        <time>2022-04-23T00:17:05.348Z</time>
      </trkpt>
      <trkpt lat="45.43827" lon="2.91575">
        <ele>1043.862661</ele>
        <time>2022-04-23T00:17:07.919Z</time>
      </trkpt>
      <trkpt lat="45.4384" lon="2.91589">
        <ele>1043.627092</ele>
        <time>2022-04-23T00:17:10.043Z</time>
      </trkpt>
      <trkpt lat="45.43841" lon="2.916">
        <ele>1043.512839</ele>
        <time>2022-04-23T00:17:10.845Z</time>
      </trkpt>
      <trkpt lat="45.43819" lon="2.9159">
        <ele>1043.182515</ele>
        <time>2022-04-23T00:17:13.815Z</time>
      </trkpt>
      <trkpt lat="45.43801" lon="2.91592">
        <ele>1042.928928</ele>
        <time>2022-04-23T00:17:15.740Z</time>
      </trkpt>
      <trkpt lat="45.43779" lon="2.91614">
        <ele>1042.546222</ele>
        <time>2022-04-23T00:17:20.035Z</time>
      </trkpt>
      <trkpt lat="45.43755" lon="2.91626">
        <ele>1042.178861</ele>
        <time>2022-04-23T00:17:24.465Z</time>
      </trkpt>
      <trkpt lat="45.43734" lon="2.91621">
        <ele>1041.876672</ele>
        <time>2022-04-23T00:17:27.550Z</time>
      </trkpt>
      <trkpt lat="45.43696" lon="2.91591">
        <ele>1042.765166</ele>
        <time>2022-04-23T00:17:37.765Z</time>
      </trkpt>
      <trkpt lat="45.43521" lon="2.91397">
        <ele>1056.041831</ele>
        <time>2022-04-23T00:19:12.344Z</time>
      </trkpt>
      <trkpt lat="45.43499" lon="2.91388">
        <ele>1057.520555</ele>
        <time>2022-04-23T00:19:22.474Z</time>
      </trkpt>
      <trkpt lat="45.43374" lon="2.91385">
        <ele>1065.466151</ele>
        <time>2022-04-23T00:20:12.970Z</time>
      </trkpt>
      <trkpt lat="45.43328" lon="2.91353">
        <ele>1068.489857</ele>
        <time>2022-04-23T00:20:30.755Z</time>
      </trkpt>
      <trkpt lat="45.43262" lon="2.91291">
        <ele>1073.181277</ele>
        <time>2022-04-23T00:20:59.427Z</time>
      </trkpt>
      <trkpt lat="45.43254" lon="2.91294">
        <ele>1073.661364</ele>
        <time>2022-04-23T00:21:02.935Z</time>
      </trkpt>
      <trkpt lat="45.43164" lon="2.91324">
        <ele>1080.944626</ele>
        <time>2022-04-23T00:21:49.083Z</time>
      </trkpt>
      <trkpt lat="45.43018" lon="2.91366">
        <ele>1093.597534</ele>
        <time>2022-04-23T00:23:03.040Z</time>
      </trkpt>
      <trkpt lat="45.42998" lon="2.91406">
        <ele>1096.769997</ele>
        <time>2022-04-23T00:23:21.726Z</time>
      </trkpt>
      <trkpt lat="45.42979" lon="2.91413">
        <ele>1098.565399</ele>
        <time>2022-04-23T00:23:31.903Z</time>
      </trkpt>
      <trkpt lat="45.42962" lon="2.91405">
        <ele>1100.19583</ele>
        <time>2022-04-23T00:23:41.522Z</time>
      </trkpt>
      <trkpt lat="45.42929" lon="2.91356">
        <ele>1104.602391</ele>
        <time>2022-04-23T00:24:06.054Z</time>
      </trkpt>
      <trkpt lat="45.42903" lon="2.9133">
        <ele>1107.918422</ele>
        <time>2022-04-23T00:24:24.844Z</time>
      </trkpt>
      <trkpt lat="45.42835" lon="2.91319">
        <ele>1115.629677</ele>
        <time>2022-04-23T00:25:06.892Z</time>
      </trkpt>
      <trkpt lat="45.42775" lon="2.91352">
        <ele>1122.693773</ele>
        <time>2022-04-23T00:25:45.260Z</time>
      </trkpt>
      <trkpt lat="45.42766" lon="2.91351">
        <ele>1123.720834</ele>
        <time>2022-04-23T00:25:53.432Z</time>
      </trkpt>
      <trkpt lat="45.42761" lon="2.91351">
        <ele>1124.323694</ele>
        <time>2022-04-23T00:25:56.542Z</time>
      </trkpt>
      <trkpt lat="45.42752" lon="2.91356">
        <ele>1125.406178</ele>
        <time>2022-04-23T00:26:02.057Z</time>
      </trkpt>
      <trkpt lat="45.42749" lon="2.91359">
        <ele>1125.816902</ele>
        <time>2022-04-23T00:26:04.016Z</time>
      </trkpt>
      <trkpt lat="45.4273" lon="2.91399">
        <ele>1129.619227</ele>
        <time>2022-04-23T00:26:26.208Z</time>
      </trkpt>
      <trkpt lat="45.42723" lon="2.91445">
        <ele>1133.319374</ele>
        <time>2022-04-23T00:26:47.539Z</time>
      </trkpt>
      <trkpt lat="45.42721" lon="2.91507">
        <ele>1138.149057</ele>
        <time>2022-04-23T00:27:13.917Z</time>
      </trkpt>
      <trkpt lat="45.42703" lon="2.91583">
        <ele>1144.521702</ele>
        <time>2022-04-23T00:27:47.608Z</time>
      </trkpt>
      <trkpt lat="45.42674" lon="2.91597">
        <ele>1147.734696</ele>
        <time>2022-04-23T00:28:03.882Z</time>
      </trkpt>
      <trkpt lat="45.42432" lon="2.91561">
        <ele>1170.904335</ele>
        <time>2022-04-23T00:30:24.372Z</time>
      </trkpt>
      <trkpt lat="45.424" lon="2.91563">
        <ele>1173.434709</ele>
        <time>2022-04-23T00:30:39.366Z</time>
      </trkpt>
      <trkpt lat="45.42365" lon="2.91564">
        <ele>1176.210124</ele>
        <time>2022-04-23T00:30:54.009Z</time>
      </trkpt>
      <trkpt lat="45.42366" lon="2.91583">
        <ele>1177.302378</ele>
        <time>2022-04-23T00:30:59.150Z</time>
      </trkpt>
      <trkpt lat="45.42372" lon="2.91631">
        <ele>1178.667543</ele>
        <time>2022-04-23T00:31:13.994Z</time>
      </trkpt>
      <trkpt lat="45.42362" lon="2.91647">
        <ele>1178.782841</ele>
        <time>2022-04-23T00:31:20.166Z</time>
      </trkpt>
      <trkpt lat="45.42392" lon="2.91703">
        <ele>1179.17715</ele>
        <time>2022-04-23T00:31:31.571Z</time>
      </trkpt>
      <trkpt lat="45.42408" lon="2.9172">
        <ele>1179.335116</ele>
        <time>2022-04-23T00:31:35.462Z</time>
      </trkpt>
      <trkpt lat="45.42457" lon="2.91803">
        <ele>1179.940128</ele>
        <time>2022-04-23T00:31:46.086Z</time>
      </trkpt>
      <trkpt lat="45.42527" lon="2.91969">
        <ele>1175.742314</ele>
        <time>2022-04-23T00:32:02.362Z</time>
      </trkpt>
      <trkpt lat="45.4264" lon="2.92318">
        <ele>1168.966261</ele>
        <time>2022-04-23T00:32:35.945Z</time>
      </trkpt>
      <trkpt lat="45.42655" lon="2.924">
        <ele>1168.617314</ele>
        <time>2022-04-23T00:32:44.835Z</time>
      </trkpt>
      <trkpt lat="45.42654" lon="2.92494">
        <ele>1168.229628</ele>
        <time>2022-04-23T00:32:56.851Z</time>
      </trkpt>
      <trkpt lat="45.42668" lon="2.92579">
        <ele>1168.950691</ele>
        <time>2022-04-23T00:33:10.725Z</time>
      </trkpt>
      <trkpt lat="45.42688" lon="2.92811">
        <ele>1171.284697</ele>
        <time>2022-04-23T00:33:48.246Z</time>
      </trkpt>
      <trkpt lat="45.42704" lon="2.9295">
        <ele>1172.417364</ele>
        <time>2022-04-23T00:34:08.872Z</time>
      </trkpt>
      <trkpt lat="45.42707" lon="2.93075">
        <ele>1173.487683</ele>
        <time>2022-04-23T00:34:24.741Z</time>
      </trkpt>
      <trkpt lat="45.42777" lon="2.93339">
        <ele>1176.794195</ele>
        <time>2022-04-23T00:35:09.150Z</time>
      </trkpt>
      <trkpt lat="45.42723" lon="2.93389">
        <ele>1178.403678</ele>
        <time>2022-04-23T00:35:27.251Z</time>
      </trkpt>
      <trkpt lat="45.42709" lon="2.9341">
        <ele>1178.906138</ele>
        <time>2022-04-23T00:35:32.985Z</time>
      </trkpt>
      <trkpt lat="45.42661" lon="2.93574">
        <ele>1181.688122</ele>
        <time>2022-04-23T00:36:07.803Z</time>
      </trkpt>
      <trkpt lat="45.42627" lon="2.93712">
        <ele>1183.698328</ele>
        <time>2022-04-23T00:36:30.536Z</time>
      </trkpt>
      <trkpt lat="45.42608" lon="2.93769">
        <ele>1184.004188</ele>
        <time>2022-04-23T00:36:39.153Z</time>
      </trkpt>
      <trkpt lat="45.42571" lon="2.93838">
        <ele>1184.426783</ele>
        <time>2022-04-23T00:36:50.300Z</time>
      </trkpt>
      <trkpt lat="45.42549" lon="2.93864">
        <ele>1184.631429</ele>
        <time>2022-04-23T00:36:55.553Z</time>
      </trkpt>
      <trkpt lat="45.42479" lon="2.9391">
        <ele>1184.902918</ele>
        <time>2022-04-23T00:37:08.990Z</time>
      </trkpt>
      <trkpt lat="45.42402" lon="2.94">
        <ele>1185.001544</ele>
        <time>2022-04-23T00:37:26.602Z</time>
      </trkpt>
      <trkpt lat="45.42262" lon="2.94148">
        <ele>1183.17155</ele>
        <time>2022-04-23T00:37:52.242Z</time>
      </trkpt>
      <trkpt lat="45.42126" lon="2.94358">
        <ele>1177.65012</ele>
        <time>2022-04-23T00:38:16.776Z</time>
      </trkpt>
      <trkpt lat="45.42084" lon="2.94468">
        <ele>1174.813578</ele>
        <time>2022-04-23T00:38:27.485Z</time>
      </trkpt>
      <trkpt lat="45.42089" lon="2.9453">
        <ele>1173.392056</ele>
        <time>2022-04-23T00:38:32.807Z</time>
      </trkpt>
      <trkpt lat="45.42086" lon="2.94596">
        <ele>1171.864995</ele>
        <time>2022-04-23T00:38:38.464Z</time>
      </trkpt>
      <trkpt lat="45.42089" lon="2.94674">
        <ele>1170.531361</ele>
        <time>2022-04-23T00:38:45.028Z</time>
      </trkpt>
      <trkpt lat="45.42048" lon="2.94876">
        <ele>1167.850012</ele>
        <time>2022-04-23T00:39:04.916Z</time>
      </trkpt>
      <trkpt lat="45.42032" lon="2.94924">
        <ele>1169.011673</ele>
        <time>2022-04-23T00:39:11.116Z</time>
      </trkpt>
      <trkpt lat="45.42031" lon="2.94928">
        <ele>1169.10263</ele>
        <time>2022-04-23T00:39:11.879Z</time>
      </trkpt>
      <trkpt lat="45.42029" lon="2.94945">
        <ele>1169.492874</ele>
        <time>2022-04-23T00:39:13.865Z</time>
      </trkpt>
      <trkpt lat="45.42019" lon="2.94962">
        <ele>1169.998267</ele>
        <time>2022-04-23T00:39:17.805Z</time>
      </trkpt>
      <trkpt lat="45.4197" lon="2.95">
        <ele>1171.779909</ele>
        <time>2022-04-23T00:39:35.102Z</time>
      </trkpt>
      <trkpt lat="45.41944" lon="2.95055">
        <ele>1173.254851</ele>
        <time>2022-04-23T00:39:53.578Z</time>
      </trkpt>
      <trkpt lat="45.41943" lon="2.95065">
        <ele>1173.491148</ele>
        <time>2022-04-23T00:39:56.645Z</time>
      </trkpt>
      <trkpt lat="45.41947" lon="2.95069">
        <ele>1173.740301</ele>
        <time>2022-04-23T00:39:59.778Z</time>
      </trkpt>
      <trkpt lat="45.4194" lon="2.95084">
        <ele>1174.607486</ele>
        <time>2022-04-23T00:40:04.699Z</time>
      </trkpt>
      <trkpt lat="45.41903" lon="2.95165">
        <ele>1179.11183</ele>
        <time>2022-04-23T00:40:33.919Z</time>
      </trkpt>
      <trkpt lat="45.41879" lon="2.95288">
        <ele>1185.024147</ele>
        <time>2022-04-23T00:41:12.421Z</time>
      </trkpt>
      <trkpt lat="45.4186" lon="2.95327">
        <ele>1186.994719</ele>
        <time>2022-04-23T00:41:26.027Z</time>
      </trkpt>
      <trkpt lat="45.41827" lon="2.95434">
        <ele>1191.692266</ele>
        <time>2022-04-23T00:41:55.281Z</time>
      </trkpt>
      <trkpt lat="45.41799" lon="2.95457">
        <ele>1193.550582</ele>
        <time>2022-04-23T00:42:07.552Z</time>
      </trkpt>
      <trkpt lat="45.41736" lon="2.95474">
        <ele>1197.651631</ele>
        <time>2022-04-23T00:42:32.831Z</time>
      </trkpt>
      <trkpt lat="45.41685" lon="2.95506">
        <ele>1201.744737</ele>
        <time>2022-04-23T00:42:55.331Z</time>
      </trkpt>
      <trkpt lat="45.41661" lon="2.95533">
        <ele>1203.986288</ele>
        <time>2022-04-23T00:43:09.340Z</time>
      </trkpt>
      <trkpt lat="45.41576" lon="2.95562">
        <ele>1210.43935</ele>
        <time>2022-04-23T00:43:54.188Z</time>
      </trkpt>
      <trkpt lat="45.41561" lon="2.95585">
        <ele>1212.012563</ele>
        <time>2022-04-23T00:44:05.078Z</time>
      </trkpt>
      <trkpt lat="45.41539" lon="2.95639">
        <ele>1215.197915</ele>
        <time>2022-04-23T00:44:27.793Z</time>
      </trkpt>
      <trkpt lat="45.41515" lon="2.95641">
        <ele>1216.924725</ele>
        <time>2022-04-23T00:44:38.613Z</time>
      </trkpt>
      <trkpt lat="45.41417" lon="2.95533">
        <ele>1223.550208</ele>
        <time>2022-04-23T00:45:37.631Z</time>
      </trkpt>
      <trkpt lat="45.41396" lon="2.95496">
        <ele>1224.484814</ele>
        <time>2022-04-23T00:45:50.609Z</time>
      </trkpt>
      <trkpt lat="45.41373" lon="2.95439">
        <ele>1225.796188</ele>
        <time>2022-04-23T00:46:06.926Z</time>
      </trkpt>
      <trkpt lat="45.41283" lon="2.95277">
        <ele>1226.240559</ele>
        <time>2022-04-23T00:46:43.533Z</time>
      </trkpt>
      <trkpt lat="45.41168" lon="2.95159">
        <ele>1223.910477</ele>
        <time>2022-04-23T00:47:14.394Z</time>
      </trkpt>
      <trkpt lat="45.41145" lon="2.95012">
        <ele>1221.085452</ele>
        <time>2022-04-23T00:47:36.359Z</time>
      </trkpt>
      <trkpt lat="45.41139" lon="2.94924">
        <ele>1219.987531</ele>
        <time>2022-04-23T00:47:49.524Z</time>
      </trkpt>
      <trkpt lat="45.41213" lon="2.94667">
        <ele>1221.090734</ele>
        <time>2022-04-23T00:48:34.766Z</time>
      </trkpt>
      <trkpt lat="45.40502" lon="2.9415">
        <ele>1258.286112</ele>
        <time>2022-04-23T00:54:56.143Z</time>
      </trkpt>
      <trkpt lat="45.4037" lon="2.94324">
        <ele>1254.641943</ele>
        <time>2022-04-23T00:55:32.280Z</time>
      </trkpt>
      <trkpt lat="45.40359" lon="2.94322">
        <ele>1254.26535</ele>
        <time>2022-04-23T00:55:34.385Z</time>
      </trkpt>
      <trkpt lat="45.4035" lon="2.94308">
        <ele>1253.800189</ele>
        <time>2022-04-23T00:55:37.035Z</time>
      </trkpt>
      <trkpt lat="45.40342" lon="2.94277">
        <ele>1252.927102</ele>
        <time>2022-04-23T00:55:41.757Z</time>
      </trkpt>
      <trkpt lat="45.40264" lon="2.94113">
        <ele>1247.21668</ele>
        <time>2022-04-23T00:56:10.190Z</time>
      </trkpt>
      <trkpt lat="45.40232" lon="2.94016">
        <ele>1242.851642</ele>
        <time>2022-04-23T00:56:24.247Z</time>
      </trkpt>
      <trkpt lat="45.40188" lon="2.93902">
        <ele>1236.291502</ele>
        <time>2022-04-23T00:56:40.919Z</time>
      </trkpt>
      <trkpt lat="45.40178" lon="2.93867">
        <ele>1234.405281</ele>
        <time>2022-04-23T00:56:45.568Z</time>
      </trkpt>
      <trkpt lat="45.40152" lon="2.93819">
        <ele>1231.209061</ele>
        <time>2022-04-23T00:56:52.950Z</time>
      </trkpt>
      <trkpt lat="45.40131" lon="2.937">
        <ele>1224.304582</ele>
        <time>2022-04-23T00:57:08.153Z</time>
      </trkpt>
      <trkpt lat="45.4011" lon="2.93639">
        <ele>1220.481024</ele>
        <time>2022-04-23T00:57:16.849Z</time>
      </trkpt>
      <trkpt lat="45.40089" lon="2.93603">
        <ele>1218.10007</ele>
        <time>2022-04-23T00:57:22.870Z</time>
      </trkpt>
      <trkpt lat="45.40057" lon="2.93583">
        <ele>1216.077653</ele>
        <time>2022-04-23T00:57:29.255Z</time>
      </trkpt>
      <trkpt lat="45.40026" lon="2.93548">
        <ele>1213.766904</ele>
        <time>2022-04-23T00:57:36.516Z</time>
      </trkpt>
      <trkpt lat="45.40001" lon="2.93545">
        <ele>1212.293581</ele>
        <time>2022-04-23T00:57:41.173Z</time>
      </trkpt>
      <trkpt lat="45.4" lon="2.9351">
        <ele>1210.877798</ele>
        <time>2022-04-23T00:57:45.782Z</time>
      </trkpt>
      <trkpt lat="45.40015" lon="2.93461">
        <ele>1208.687916</ele>
        <time>2022-04-23T00:57:53.142Z</time>
      </trkpt>
      <trkpt lat="45.40011" lon="2.93428">
        <ele>1208.149388</ele>
        <time>2022-04-23T00:57:57.941Z</time>
      </trkpt>
      <trkpt lat="45.39999" lon="2.93418">
        <ele>1208.058368</ele>
        <time>2022-04-23T00:58:00.904Z</time>
      </trkpt>
      <trkpt lat="45.39954" lon="2.93393">
        <ele>1207.742477</ele>
        <time>2022-04-23T00:58:11.597Z</time>
      </trkpt>
      <trkpt lat="45.39892" lon="2.93377">
        <ele>1207.337236</ele>
        <time>2022-04-23T00:58:26.799Z</time>
      </trkpt>
      <trkpt lat="45.39765" lon="2.93214">
        <ele>1211.67951</ele>
        <time>2022-04-23T00:59:31.986Z</time>
      </trkpt>
      <trkpt lat="45.39765" lon="2.93214">
        <ele>1211.683752</ele>
        <time>2022-04-23T00:59:32.704Z</time>
      </trkpt>
      <trkpt lat="45.3967" lon="2.93109">
        <ele>1215.426898</ele>
        <time>2022-04-23T01:00:21.509Z</time>
      </trkpt>
      <trkpt lat="45.39575" lon="2.93073">
        <ele>1218.273678</ele>
        <time>2022-04-23T01:00:55.486Z</time>
      </trkpt>
      <trkpt lat="45.39543" lon="2.93053">
        <ele>1218.913854</ele>
        <time>2022-04-23T01:01:06.559Z</time>
      </trkpt>
      <trkpt lat="45.39533" lon="2.93039">
        <ele>1219.120357</ele>
        <time>2022-04-23T01:01:11.017Z</time>
      </trkpt>
      <trkpt lat="45.39508" lon="2.92983">
        <ele>1219.824877</ele>
        <time>2022-04-23T01:01:27.375Z</time>
      </trkpt>
      <trkpt lat="45.39473" lon="2.92983">
        <ele>1220.336287</ele>
        <time>2022-04-23T01:01:38.621Z</time>
      </trkpt>
      <trkpt lat="45.39398" lon="2.92949">
        <ele>1221.084595</ele>
        <time>2022-04-23T01:02:00.607Z</time>
      </trkpt>
      <trkpt lat="45.39378" lon="2.92947">
        <ele>1220.962019</ele>
        <time>2022-04-23T01:02:06.450Z</time>
      </trkpt>
      <trkpt lat="45.39231" lon="2.92753">
        <ele>1219.144128</ele>
        <time>2022-04-23T01:02:33.295Z</time>
      </trkpt>
      <trkpt lat="45.39196" lon="2.92697">
        <ele>1218.306904</ele>
        <time>2022-04-23T01:02:39.921Z</time>
      </trkpt>
      <trkpt lat="45.39134" lon="2.92633">
        <ele>1216.948999</ele>
        <time>2022-04-23T01:02:49.741Z</time>
      </trkpt>
      <trkpt lat="45.39005" lon="2.92469">
        <ele>1212.100435</ele>
        <time>2022-04-23T01:03:10.028Z</time>
      </trkpt>
      <trkpt lat="45.38949" lon="2.92427">
        <ele>1210.135233</ele>
        <time>2022-04-23T01:03:16.971Z</time>
      </trkpt>
      <trkpt lat="45.38916" lon="2.92411">
        <ele>1209.049594</ele>
        <time>2022-04-23T01:03:20.850Z</time>
      </trkpt>
      <trkpt lat="45.3888" lon="2.92427">
        <ele>1207.890641</ele>
        <time>2022-04-23T01:03:25.164Z</time>
      </trkpt>
      <trkpt lat="45.38863" lon="2.92422">
        <ele>1207.345579</ele>
        <time>2022-04-23T01:03:27.259Z</time>
      </trkpt>
      <trkpt lat="45.38856" lon="2.92411">
        <ele>1207.032616</ele>
        <time>2022-04-23T01:03:28.463Z</time>
      </trkpt>
      <trkpt lat="45.38847" lon="2.9239">
        <ele>1206.721754</ele>
        <time>2022-04-23T01:03:30.691Z</time>
      </trkpt>
      <trkpt lat="45.38846" lon="2.92377">
        <ele>1206.855185</ele>
        <time>2022-04-23T01:03:31.783Z</time>
      </trkpt>
      <trkpt lat="45.3886" lon="2.92386">
        <ele>1207.100185</ele>
        <time>2022-04-23T01:03:35.624Z</time>
      </trkpt>
      <trkpt lat="45.38866" lon="2.92397">
        <ele>1207.245206</ele>
        <time>2022-04-23T01:03:38.160Z</time>
      </trkpt>
      <trkpt lat="45.3886" lon="2.92386">
        <ele>1207.390227</ele>
        <time>2022-04-23T01:03:40.543Z</time>
      </trkpt>
      <trkpt lat="45.38846" lon="2.92377">
        <ele>1207.635226</ele>
        <time>2022-04-23T01:03:45.082Z</time>
      </trkpt>
      <trkpt lat="45.38847" lon="2.9239">
        <ele>1207.768657</ele>
        <time>2022-04-23T01:03:47.086Z</time>
      </trkpt>
      <trkpt lat="45.38856" lon="2.92411">
        <ele>1208.037092</ele>
        <time>2022-04-23T01:03:51.043Z</time>
      </trkpt>
      <trkpt lat="45.38863" lon="2.92422">
        <ele>1208.190433</ele>
        <time>2022-04-23T01:03:53.663Z</time>
      </trkpt>
      <trkpt lat="45.3888" lon="2.92427">
        <ele>1208.457494</ele>
        <time>2022-04-23T01:03:58.156Z</time>
      </trkpt>
      <trkpt lat="45.38916" lon="2.92411">
        <ele>1209.025339</ele>
        <time>2022-04-23T01:04:08.627Z</time>
      </trkpt>
      <trkpt lat="45.38949" lon="2.92427">
        <ele>1209.772665</ele>
        <time>2022-04-23T01:04:19.668Z</time>
      </trkpt>
      <trkpt lat="45.39005" lon="2.92469">
        <ele>1211.877491</ele>
        <time>2022-04-23T01:04:40.241Z</time>
      </trkpt>
      <trkpt lat="45.39134" lon="2.92633">
        <ele>1216.819394</ele>
        <time>2022-04-23T01:05:26.304Z</time>
      </trkpt>
      <trkpt lat="45.39196" lon="2.92697">
        <ele>1218.476857</ele>
        <time>2022-04-23T01:05:43.001Z</time>
      </trkpt>
      <trkpt lat="45.39231" lon="2.92753">
        <ele>1219.591191</ele>
        <time>2022-04-23T01:05:54.713Z</time>
      </trkpt>
      <trkpt lat="45.39378" lon="2.92947">
        <ele>1223.320397</ele>
        <time>2022-04-23T01:06:42.741Z</time>
      </trkpt>
      <trkpt lat="45.39421" lon="2.93008">
        <ele>1223.937394</ele>
        <time>2022-04-23T01:06:55.757Z</time>
      </trkpt>
      <trkpt lat="45.39483" lon="2.93122">
        <ele>1224.711127</ele>
        <time>2022-04-23T01:07:12.320Z</time>
      </trkpt>
      <trkpt lat="45.39496" lon="2.93156">
        <ele>1224.641558</ele>
        <time>2022-04-23T01:07:16.109Z</time>
      </trkpt>
      <trkpt lat="45.39504" lon="2.93196">
        <ele>1224.56621</ele>
        <time>2022-04-23T01:07:20.161Z</time>
      </trkpt>
      <trkpt lat="45.39535" lon="2.93275">
        <ele>1224.401184</ele>
        <time>2022-04-23T01:07:29.038Z</time>
      </trkpt>
      <trkpt lat="45.39556" lon="2.93427">
        <ele>1225.20304</ele>
        <time>2022-04-23T01:07:47.099Z</time>
      </trkpt>
      <trkpt lat="45.39549" lon="2.93521">
        <ele>1226.059047</ele>
        <time>2022-04-23T01:08:01.607Z</time>
      </trkpt>
      <trkpt lat="45.39559" lon="2.93583">
        <ele>1226.649923</ele>
        <time>2022-04-23T01:08:12.661Z</time>
      </trkpt>
      <trkpt lat="45.3956" lon="2.93698">
        <ele>1228.148366</ele>
        <time>2022-04-23T01:08:33.195Z</time>
      </trkpt>
      <trkpt lat="45.39584" lon="2.93746">
        <ele>1228.922584</ele>
        <time>2022-04-23T01:08:43.303Z</time>
      </trkpt>
      <trkpt lat="45.396" lon="2.93791">
        <ele>1229.570714</ele>
        <time>2022-04-23T01:08:51.010Z</time>
      </trkpt>
      <trkpt lat="45.39632" lon="2.93848">
        <ele>1229.741751</ele>
        <time>2022-04-23T01:09:00.196Z</time>
      </trkpt>
      <trkpt lat="45.39666" lon="2.93954">
        <ele>1229.069408</ele>
        <time>2022-04-23T01:09:11.623Z</time>
      </trkpt>
      <trkpt lat="45.39753" lon="2.94161">
        <ele>1227.117428</ele>
        <time>2022-04-23T01:09:32.609Z</time>
      </trkpt>
      <trkpt lat="45.39758" lon="2.94213">
        <ele>1226.607269</ele>
        <time>2022-04-23T01:09:37.478Z</time>
      </trkpt>
      <trkpt lat="45.39742" lon="2.9428">
        <ele>1226.022689</ele>
        <time>2022-04-23T01:09:44.567Z</time>
      </trkpt>
      <trkpt lat="45.39757" lon="2.94358">
        <ele>1226.017574</ele>
        <time>2022-04-23T01:09:53.478Z</time>
      </trkpt>
      <trkpt lat="45.39748" lon="2.94379">
        <ele>1226.016012</ele>
        <time>2022-04-23T01:09:56.355Z</time>
      </trkpt>
      <trkpt lat="45.39685" lon="2.94469">
        <ele>1226.007989</ele>
        <time>2022-04-23T01:10:11.561Z</time>
      </trkpt>
      <trkpt lat="45.39681" lon="2.94485">
        <ele>1225.981393</ele>
        <time>2022-04-23T01:10:13.463Z</time>
      </trkpt>
      <trkpt lat="45.39684" lon="2.94505">
        <ele>1225.84796</ele>
        <time>2022-04-23T01:10:15.519Z</time>
      </trkpt>
      <trkpt lat="45.39749" lon="2.9466">
        <ele>1224.645612</ele>
        <time>2022-04-23T01:10:31.953Z</time>
      </trkpt>
      <trkpt lat="45.39751" lon="2.94684">
        <ele>1224.482879</ele>
        <time>2022-04-23T01:10:34.131Z</time>
      </trkpt>
      <trkpt lat="45.39743" lon="2.94742">
        <ele>1224.463256</ele>
        <time>2022-04-23T01:10:39.884Z</time>
      </trkpt>
      <trkpt lat="45.39741" lon="2.94754">
        <ele>1224.526774</ele>
        <time>2022-04-23T01:10:41.156Z</time>
      </trkpt>
      <trkpt lat="45.39728" lon="2.94781">
        <ele>1224.698916</ele>
        <time>2022-04-23T01:10:44.862Z</time>
      </trkpt>
      <trkpt lat="45.39686" lon="2.94818">
        <ele>1225.066778</ele>
        <time>2022-04-23T01:10:53.807Z</time>
      </trkpt>
      <trkpt lat="45.39675" lon="2.94834">
        <ele>1225.18794</ele>
        <time>2022-04-23T01:10:57.050Z</time>
      </trkpt>
      <trkpt lat="45.39647" lon="2.94912">
        <ele>1225.647913</ele>
        <time>2022-04-23T01:11:10.757Z</time>
      </trkpt>
      <trkpt lat="45.39635" lon="2.94921">
        <ele>1225.732393</ele>
        <time>2022-04-23T01:11:14.079Z</time>
      </trkpt>
      <trkpt lat="45.39601" lon="2.94923">
        <ele>1225.946097</ele>
        <time>2022-04-23T01:11:22.427Z</time>
      </trkpt>
      <trkpt lat="45.39591" lon="2.94932">
        <ele>1226.017508</ele>
        <time>2022-04-23T01:11:25.079Z</time>
      </trkpt>
      <trkpt lat="45.39566" lon="2.95053">
        <ele>1226.582327</ele>
        <time>2022-04-23T01:11:42.687Z</time>
      </trkpt>
      <trkpt lat="45.39605" lon="2.95289">
        <ele>1223.46756</ele>
        <time>2022-04-23T01:12:03.107Z</time>
      </trkpt>
      <trkpt lat="45.3964" lon="2.95424">
        <ele>1221.871263</ele>
        <time>2022-04-23T01:12:14.881Z</time>
      </trkpt>
      <trkpt lat="45.39683" lon="2.95529">
        <ele>1220.99364</ele>
        <time>2022-04-23T01:12:26.129Z</time>
      </trkpt>
      <trkpt lat="45.39685" lon="2.95559">
        <ele>1220.776265</ele>
        <time>2022-04-23T01:12:30.293Z</time>
      </trkpt>
      <trkpt lat="45.39671" lon="2.95611">
        <ele>1221.213478</ele>
        <time>2022-04-23T01:12:39.666Z</time>
      </trkpt>
      <trkpt lat="45.39672" lon="2.95633">
        <ele>1221.573456</ele>
        <time>2022-04-23T01:12:43.981Z</time>
      </trkpt>
      <trkpt lat="45.39712" lon="2.95732">
        <ele>1223.433674</ele>
        <time>2022-04-23T01:13:05.973Z</time>
      </trkpt>
      <trkpt lat="45.39718" lon="2.9577">
        <ele>1224.06729</ele>
        <time>2022-04-23T01:13:13.470Z</time>
      </trkpt>
      <trkpt lat="45.39718" lon="2.959">
        <ele>1225.174159</ele>
        <time>2022-04-23T01:13:33.075Z</time>
      </trkpt>
      <trkpt lat="45.39723" lon="2.95932">
        <ele>1225.322096</ele>
        <time>2022-04-23T01:13:37.134Z</time>
      </trkpt>
      <trkpt lat="45.39735" lon="2.95957">
        <ele>1225.452519</ele>
        <time>2022-04-23T01:13:40.160Z</time>
      </trkpt>
      <trkpt lat="45.39817" lon="2.9608">
        <ele>1226.384009</ele>
        <time>2022-04-23T01:13:58.598Z</time>
      </trkpt>
      <trkpt lat="45.39832" lon="2.96107">
        <ele>1226.639339</ele>
        <time>2022-04-23T01:14:02.113Z</time>
      </trkpt>
      <trkpt lat="45.39789" lon="2.96114">
        <ele>1227.091878</ele>
        <time>2022-04-23T01:14:14.749Z</time>
      </trkpt>
      <trkpt lat="45.3977" lon="2.96145">
        <ele>1227.395032</ele>
        <time>2022-04-23T01:14:23.469Z</time>
      </trkpt>
      <trkpt lat="45.39753" lon="2.96211">
        <ele>1228.018578</ele>
        <time>2022-04-23T01:14:40.913Z</time>
      </trkpt>
      <trkpt lat="45.3972" lon="2.96256">
        <ele>1229.071318</ele>
        <time>2022-04-23T01:14:58.403Z</time>
      </trkpt>
      <trkpt lat="45.39701" lon="2.96266">
        <ele>1229.541405</ele>
        <time>2022-04-23T01:15:06.528Z</time>
      </trkpt>
      <trkpt lat="45.39614" lon="2.96232">
        <ele>1231.634055</ele>
        <time>2022-04-23T01:15:37.088Z</time>
      </trkpt>
      <trkpt lat="45.39599" lon="2.96215">
        <ele>1231.985646</ele>
        <time>2022-04-23T01:15:43.310Z</time>
      </trkpt>
      <trkpt lat="45.3958" lon="2.96162">
        <ele>1232.07727</ele>
        <time>2022-04-23T01:15:56.506Z</time>
      </trkpt>
      <trkpt lat="45.39304" lon="2.96201">
        <ele>1231.287101</ele>
        <time>2022-04-23T01:17:04.427Z</time>
      </trkpt>
      <trkpt lat="45.39278" lon="2.96214">
        <ele>1231.080398</ele>
        <time>2022-04-23T01:17:10.701Z</time>
      </trkpt>
      <trkpt lat="45.39244" lon="2.96219">
        <ele>1230.0329</ele>
        <time>2022-04-23T01:17:18.405Z</time>
      </trkpt>
      <trkpt lat="45.3922" lon="2.96233">
        <ele>1229.041986</ele>
        <time>2022-04-23T01:17:24.020Z</time>
      </trkpt>
      <trkpt lat="45.39172" lon="2.96242">
        <ele>1227.214594</ele>
        <time>2022-04-23T01:17:34.005Z</time>
      </trkpt>
      <trkpt lat="45.39128" lon="2.96235">
        <ele>1225.538569</ele>
        <time>2022-04-23T01:17:42.627Z</time>
      </trkpt>
      <trkpt lat="45.39043" lon="2.96191">
        <ele>1219.822872</ele>
        <time>2022-04-23T01:17:59.331Z</time>
      </trkpt>
      <trkpt lat="45.39002" lon="2.96186">
        <ele>1216.541647</ele>
        <time>2022-04-23T01:18:06.632Z</time>
      </trkpt>
      <trkpt lat="45.38907" lon="2.9614">
        <ele>1208.613167</ele>
        <time>2022-04-23T01:18:24.111Z</time>
      </trkpt>
      <trkpt lat="45.38877" lon="2.96134">
        <ele>1206.276026</ele>
        <time>2022-04-23T01:18:29.418Z</time>
      </trkpt>
      <trkpt lat="45.38816" lon="2.96142">
        <ele>1201.550113</ele>
        <time>2022-04-23T01:18:40.405Z</time>
      </trkpt>
      <trkpt lat="45.38785" lon="2.96149">
        <ele>1199.099624</ele>
        <time>2022-04-23T01:18:46.249Z</time>
      </trkpt>
      <trkpt lat="45.38751" lon="2.96176">
        <ele>1196.143132</ele>
        <time>2022-04-23T01:18:53.189Z</time>
      </trkpt>
      <trkpt lat="45.38738" lon="2.96196">
        <ele>1195.022383</ele>
        <time>2022-04-23T01:18:56.702Z</time>
      </trkpt>
      <trkpt lat="45.38745" lon="2.96263">
        <ele>1192.390933</ele>
        <time>2022-04-23T01:19:05.583Z</time>
      </trkpt>
      <trkpt lat="45.38741" lon="2.96314">
        <ele>1190.413338</ele>
        <time>2022-04-23T01:19:12.381Z</time>
      </trkpt>
      <trkpt lat="45.38727" lon="2.96365">
        <ele>1188.282493</ele>
        <time>2022-04-23T01:19:19.846Z</time>
      </trkpt>
      <trkpt lat="45.38714" lon="2.96379">
        <ele>1187.380784</ele>
        <time>2022-04-23T01:19:22.967Z</time>
      </trkpt>
      <trkpt lat="45.38557" lon="2.96434">
        <ele>1180.820397</ele>
        <time>2022-04-23T01:19:55.111Z</time>
      </trkpt>
      <trkpt lat="45.38527" lon="2.96428">
        <ele>1179.653347</ele>
        <time>2022-04-23T01:20:01.519Z</time>
      </trkpt>
      <trkpt lat="45.38471" lon="2.964">
        <ele>1177.486921</ele>
        <time>2022-04-23T01:20:13.646Z</time>
      </trkpt>
      <trkpt lat="45.38429" lon="2.96399">
        <ele>1175.936953</ele>
        <time>2022-04-23T01:20:22.437Z</time>
      </trkpt>
      <trkpt lat="45.38409" lon="2.96383">
        <ele>1175.120678</ele>
        <time>2022-04-23T01:20:26.975Z</time>
      </trkpt>
      <trkpt lat="45.38394" lon="2.96383">
        <ele>1174.564074</ele>
        <time>2022-04-23T01:20:30.240Z</time>
      </trkpt>
      <trkpt lat="45.38366" lon="2.96407">
        <ele>1173.399122</ele>
        <time>2022-04-23T01:20:36.719Z</time>
      </trkpt>
      <trkpt lat="45.38355" lon="2.96439">
        <ele>1172.471087</ele>
        <time>2022-04-23T01:20:39.638Z</time>
      </trkpt>
      <trkpt lat="45.38287" lon="2.96543">
        <ele>1168.639073</ele>
        <time>2022-04-23T01:20:51.270Z</time>
      </trkpt>
      <trkpt lat="45.38237" lon="2.96634">
        <ele>1165.555086</ele>
        <time>2022-04-23T01:21:01.073Z</time>
      </trkpt>
      <trkpt lat="45.38183" lon="2.96716">
        <ele>1163.061418</ele>
        <time>2022-04-23T01:21:10.757Z</time>
      </trkpt>
      <trkpt lat="45.38149" lon="2.96754">
        <ele>1161.696551</ele>
        <time>2022-04-23T01:21:15.952Z</time>
      </trkpt>
      <trkpt lat="45.38107" lon="2.9678">
        <ele>1160.24966</ele>
        <time>2022-04-23T01:21:21.619Z</time>
      </trkpt>
      <trkpt lat="45.38059" lon="2.96853">
        <ele>1159.934687</ele>
        <time>2022-04-23T01:21:30.767Z</time>
      </trkpt>
      <trkpt lat="45.38045" lon="2.96888">
        <ele>1159.868342</ele>
        <time>2022-04-23T01:21:34.975Z</time>
      </trkpt>
      <trkpt lat="45.38032" lon="2.96921">
        <ele>1159.804979</ele>
        <time>2022-04-23T01:21:39.980Z</time>
      </trkpt>
      <trkpt lat="45.38023" lon="2.96911">
        <ele>1159.77612</ele>
        <time>2022-04-23T01:21:42.554Z</time>
      </trkpt>
      <trkpt lat="45.37991" lon="2.96895">
        <ele>1159.695376</ele>
        <time>2022-04-23T01:21:49.341Z</time>
      </trkpt>
      <trkpt lat="45.37984" lon="2.96892">
        <ele>1159.679027</ele>
        <time>2022-04-23T01:21:51.285Z</time>
      </trkpt>
      <trkpt lat="45.37966" lon="2.96886">
        <ele>1160.090683</ele>
        <time>2022-04-23T01:21:55.450Z</time>
      </trkpt>
      <trkpt lat="45.37941" lon="2.96879">
        <ele>1161.074919</ele>
        <time>2022-04-23T01:22:02.646Z</time>
      </trkpt>
      <trkpt lat="45.37921" lon="2.96885">
        <ele>1161.85644</ele>
        <time>2022-04-23T01:22:08.028Z</time>
      </trkpt>
      <trkpt lat="45.37907" lon="2.96904">
        <ele>1162.593662</ele>
        <time>2022-04-23T01:22:14.068Z</time>
      </trkpt>
      <trkpt lat="45.37882" lon="2.96971">
        <ele>1164.603823</ele>
        <time>2022-04-23T01:22:31.377Z</time>
      </trkpt>
      <trkpt lat="45.37861" lon="2.97013">
        <ele>1165.956001</ele>
        <time>2022-04-23T01:22:44.511Z</time>
      </trkpt>
      <trkpt lat="45.37787" lon="2.97105">
        <ele>1169.933742</ele>
        <time>2022-04-23T01:23:17.869Z</time>
      </trkpt>
      <trkpt lat="45.37775" lon="2.97134">
        <ele>1170.871534</ele>
        <time>2022-04-23T01:23:25.110Z</time>
      </trkpt>
      <trkpt lat="45.37767" lon="2.97177">
        <ele>1172.143609</ele>
        <time>2022-04-23T01:23:35.013Z</time>
      </trkpt>
      <trkpt lat="45.37496" lon="2.97226">
        <ele>1179.543685</ele>
        <time>2022-04-23T01:25:16.223Z</time>
      </trkpt>
      <trkpt lat="45.37461" lon="2.97209">
        <ele>1179.951801</ele>
        <time>2022-04-23T01:25:26.381Z</time>
      </trkpt>
      <trkpt lat="45.37409" lon="2.9717">
        <ele>1180.590015</ele>
        <time>2022-04-23T01:25:41.852Z</time>
      </trkpt>
      <trkpt lat="45.37389" lon="2.97165">
        <ele>1180.815724</ele>
        <time>2022-04-23T01:25:47.199Z</time>
      </trkpt>
      <trkpt lat="45.37358" lon="2.97175">
        <ele>1181.117536</ele>
        <time>2022-04-23T01:25:55.522Z</time>
      </trkpt>
      <trkpt lat="45.37337" lon="2.97173">
        <ele>1181.304641</ele>
        <time>2022-04-23T01:26:01.018Z</time>
      </trkpt>
      <trkpt lat="45.37286" lon="2.97144">
        <ele>1181.794954</ele>
        <time>2022-04-23T01:26:15.315Z</time>
      </trkpt>
      <trkpt lat="45.37265" lon="2.97128">
        <ele>1182.000809</ele>
        <time>2022-04-23T01:26:19.771Z</time>
      </trkpt>
      <trkpt lat="45.37246" lon="2.97131">
        <ele>1182.178621</ele>
        <time>2022-04-23T01:26:23.234Z</time>
      </trkpt>
      <trkpt lat="45.37185" lon="2.97175">
        <ele>1183.684087</ele>
        <time>2022-04-23T01:26:39.216Z</time>
      </trkpt>
      <trkpt lat="45.37069" lon="2.97227">
        <ele>1188.465657</ele>
        <time>2022-04-23T01:27:18.634Z</time>
      </trkpt>
      <trkpt lat="45.37062" lon="2.97229">
        <ele>1188.744461</ele>
        <time>2022-04-23T01:27:20.988Z</time>
      </trkpt>
      <trkpt lat="45.37027" lon="2.97227">
        <ele>1190.31576</ele>
        <time>2022-04-23T01:27:33.316Z</time>
      </trkpt>
      <trkpt lat="45.36956" lon="2.97184">
        <ele>1194.663573</ele>
        <time>2022-04-23T01:28:03.208Z</time>
      </trkpt>
      <trkpt lat="45.36901" lon="2.97166">
        <ele>1197.824077</ele>
        <time>2022-04-23T01:28:26.051Z</time>
      </trkpt>
      <trkpt lat="45.36793" lon="2.97165">
        <ele>1202.948319</ele>
        <time>2022-04-23T01:29:04.607Z</time>
      </trkpt>
      <trkpt lat="45.36762" lon="2.97159">
        <ele>1204.338399</ele>
        <time>2022-04-23T01:29:15.088Z</time>
      </trkpt>
      <trkpt lat="45.36685" lon="2.9713">
        <ele>1207.776529</ele>
        <time>2022-04-23T01:29:39.169Z</time>
      </trkpt>
      <trkpt lat="45.36623" lon="2.9706">
        <ele>1210.423724</ele>
        <time>2022-04-23T01:30:00.165Z</time>
      </trkpt>
      <trkpt lat="45.36551" lon="2.97055">
        <ele>1212.84753</ele>
        <time>2022-04-23T01:30:20.466Z</time>
      </trkpt>
      <trkpt lat="45.36533" lon="2.97045">
        <ele>1213.501492</ele>
        <time>2022-04-23T01:30:26.019Z</time>
      </trkpt>
      <trkpt lat="45.36525" lon="2.97034">
        <ele>1213.997207</ele>
        <time>2022-04-23T01:30:29.111Z</time>
      </trkpt>
      <trkpt lat="45.36417" lon="2.96939">
        <ele>1220.947026</ele>
        <time>2022-04-23T01:31:14.584Z</time>
      </trkpt>
      <trkpt lat="45.36404" lon="2.96934">
        <ele>1221.664937</ele>
        <time>2022-04-23T01:31:20.193Z</time>
      </trkpt>
      <trkpt lat="45.36386" lon="2.96941">
        <ele>1222.682609</ele>
        <time>2022-04-23T01:31:28.801Z</time>
      </trkpt>
      <trkpt lat="45.36376" lon="2.96944">
        <ele>1223.233847</ele>
        <time>2022-04-23T01:31:33.148Z</time>
      </trkpt>
      <trkpt lat="45.36342" lon="2.96965">
        <ele>1226.306693</ele>
        <time>2022-04-23T01:31:49.254Z</time>
      </trkpt>
      <trkpt lat="45.36303" lon="2.96985">
        <ele>1229.890178</ele>
        <time>2022-04-23T01:32:08.655Z</time>
      </trkpt>
      <trkpt lat="45.36289" lon="2.97005">
        <ele>1231.611907</ele>
        <time>2022-04-23T01:32:18.720Z</time>
      </trkpt>
      <trkpt lat="45.36261" lon="2.97042">
        <ele>1234.944224</ele>
        <time>2022-04-23T01:32:39.931Z</time>
      </trkpt>
      <trkpt lat="45.36254" lon="2.9704">
        <ele>1235.565031</ele>
        <time>2022-04-23T01:32:44.110Z</time>
      </trkpt>
      <trkpt lat="45.36239" lon="2.9702">
        <ele>1237.318023</ele>
        <time>2022-04-23T01:32:55.475Z</time>
      </trkpt>
      <trkpt lat="45.36223" lon="2.96999">
        <ele>1239.152508</ele>
        <time>2022-04-23T01:33:08.312Z</time>
      </trkpt>
      <trkpt lat="45.36209" lon="2.96984">
        <ele>1240.300833</ele>
        <time>2022-04-23T01:33:17.456Z</time>
      </trkpt>
      <trkpt lat="45.36194" lon="2.96971">
        <ele>1241.51929</ele>
        <time>2022-04-23T01:33:27.373Z</time>
      </trkpt>
      <trkpt lat="45.36131" lon="2.96917">
        <ele>1246.434095</ele>
        <time>2022-04-23T01:33:59.222Z</time>
      </trkpt>
      <trkpt lat="45.36121" lon="2.96893">
        <ele>1247.745182</ele>
        <time>2022-04-23T01:34:06.218Z</time>
      </trkpt>
      <trkpt lat="45.36115" lon="2.96834">
        <ele>1250.582086</ele>
        <time>2022-04-23T01:34:21.350Z</time>
      </trkpt>
      <trkpt lat="45.36105" lon="2.96773">
        <ele>1251.31722</ele>
        <time>2022-04-23T01:34:34.242Z</time>
      </trkpt>
      <trkpt lat="45.3608" lon="2.96674">
        <ele>1251.896464</ele>
        <time>2022-04-23T01:34:46.922Z</time>
      </trkpt>
      <trkpt lat="45.36062" lon="2.96638">
        <ele>1252.134006</ele>
        <time>2022-04-23T01:34:51.246Z</time>
      </trkpt>
      <trkpt lat="45.36022" lon="2.96576">
        <ele>1251.798942</ele>
        <time>2022-04-23T01:34:59.129Z</time>
      </trkpt>
      <trkpt lat="45.36008" lon="2.9651">
        <ele>1250.360537</ele>
        <time>2022-04-23T01:35:05.051Z</time>
      </trkpt>
      <trkpt lat="45.35993" lon="2.96472">
        <ele>1249.445701</ele>
        <time>2022-04-23T01:35:08.695Z</time>
      </trkpt>
      <trkpt lat="45.35953" lon="2.96399">
        <ele>1247.508085</ele>
        <time>2022-04-23T01:35:15.915Z</time>
      </trkpt>
      <trkpt lat="45.35923" lon="2.96325">
        <ele>1244.914219</ele>
        <time>2022-04-23T01:35:22.406Z</time>
      </trkpt>
      <trkpt lat="45.35906" lon="2.96258">
        <ele>1242.520905</ele>
        <time>2022-04-23T01:35:27.708Z</time>
      </trkpt>
      <trkpt lat="45.35896" lon="2.96235">
        <ele>1241.621567</ele>
        <time>2022-04-23T01:35:29.675Z</time>
      </trkpt>
      <trkpt lat="45.35884" lon="2.96232">
        <ele>1241.019242</ele>
        <time>2022-04-23T01:35:30.984Z</time>
      </trkpt>
      <trkpt lat="45.35869" lon="2.96237">
        <ele>1240.28768</ele>
        <time>2022-04-23T01:35:32.604Z</time>
      </trkpt>
      <trkpt lat="45.35838" lon="2.96271">
        <ele>1238.520316</ele>
        <time>2022-04-23T01:35:36.782Z</time>
      </trkpt>
      <trkpt lat="45.35824" lon="2.96274">
        <ele>1238.352433</ele>
        <time>2022-04-23T01:35:38.409Z</time>
      </trkpt>
      <trkpt lat="45.35743" lon="2.96208">
        <ele>1237.276808</ele>
        <time>2022-04-23T01:35:50.389Z</time>
      </trkpt>
      <trkpt lat="45.35735" lon="2.96202">
        <ele>1237.164547</ele>
        <time>2022-04-23T01:35:52.125Z</time>
      </trkpt>
      <trkpt lat="45.35671" lon="2.96145">
        <ele>1236.614914</ele>
        <time>2022-04-23T01:36:05.361Z</time>
      </trkpt>
      <trkpt lat="45.35626" lon="2.9608">
        <ele>1237.364285</ele>
        <time>2022-04-23T01:36:18.310Z</time>
      </trkpt>
      <trkpt lat="45.35571" lon="2.95982">
        <ele>1238.387831</ele>
        <time>2022-04-23T01:36:37.035Z</time>
      </trkpt>
      <trkpt lat="45.35537" lon="2.95888">
        <ele>1239.23338</ele>
        <time>2022-04-23T01:36:51.059Z</time>
      </trkpt>
      <trkpt lat="45.3549" lon="2.95842">
        <ele>1239.888374</ele>
        <time>2022-04-23T01:37:02.347Z</time>
      </trkpt>
      <trkpt lat="45.35465" lon="2.95777">
        <ele>1240.485031</ele>
        <time>2022-04-23T01:37:12.995Z</time>
      </trkpt>
      <trkpt lat="45.35372" lon="2.95659">
        <ele>1242.050946</ele>
        <time>2022-04-23T01:37:38.951Z</time>
      </trkpt>
      <trkpt lat="45.3536" lon="2.95637">
        <ele>1242.289401</ele>
        <time>2022-04-23T01:37:42.788Z</time>
      </trkpt>
      <trkpt lat="45.3534" lon="2.95579">
        <ele>1242.871352</ele>
        <time>2022-04-23T01:37:51.990Z</time>
      </trkpt>
      <trkpt lat="45.35301" lon="2.95538">
        <ele>1243.713335</ele>
        <time>2022-04-23T01:38:01.144Z</time>
      </trkpt>
      <trkpt lat="45.35295" lon="2.95498">
        <ele>1244.201749</ele>
        <time>2022-04-23T01:38:06.561Z</time>
      </trkpt>
      <trkpt lat="45.35294" lon="2.95448">
        <ele>1244.815141</ele>
        <time>2022-04-23T01:38:14.867Z</time>
      </trkpt>
      <trkpt lat="45.35289" lon="2.95411">
        <ele>1245.272942</ele>
        <time>2022-04-23T01:38:21.668Z</time>
      </trkpt>
      <trkpt lat="45.35261" lon="2.95353">
        <ele>1246.28736</ele>
        <time>2022-04-23T01:38:33.497Z</time>
      </trkpt>
      <trkpt lat="45.35257" lon="2.95303">
        <ele>1247.529354</ele>
        <time>2022-04-23T01:38:42.746Z</time>
      </trkpt>
      <trkpt lat="45.35253" lon="2.95275">
        <ele>1248.23454</ele>
        <time>2022-04-23T01:38:48.610Z</time>
      </trkpt>
      <trkpt lat="45.35243" lon="2.95251">
        <ele>1248.905593</ele>
        <time>2022-04-23T01:38:52.890Z</time>
      </trkpt>
      <trkpt lat="45.35164" lon="2.95122">
        <ele>1253.635189</ele>
        <time>2022-04-23T01:39:31.974Z</time>
      </trkpt>
      <trkpt lat="45.35148" lon="2.9511">
        <ele>1254.640836</ele>
        <time>2022-04-23T01:39:38.560Z</time>
      </trkpt>
      <trkpt lat="45.35106" lon="2.95104">
        <ele>1256.972585</ele>
        <time>2022-04-23T01:39:53.820Z</time>
      </trkpt>
      <trkpt lat="45.3509" lon="2.95096">
        <ele>1257.8929</ele>
        <time>2022-04-23T01:40:00.101Z</time>
      </trkpt>
      <trkpt lat="45.35054" lon="2.95052">
        <ele>1260.530397</ele>
        <time>2022-04-23T01:40:19.424Z</time>
      </trkpt>
      <trkpt lat="45.34975" lon="2.94983">
        <ele>1265.616783</ele>
        <time>2022-04-23T01:40:56.850Z</time>
      </trkpt>
      <trkpt lat="45.34958" lon="2.94963">
        <ele>1266.828501</ele>
        <time>2022-04-23T01:41:05.862Z</time>
      </trkpt>
      <trkpt lat="45.34898" lon="2.94864">
        <ele>1271.873136</ele>
        <time>2022-04-23T01:41:38.737Z</time>
      </trkpt>
      <trkpt lat="45.34868" lon="2.94831">
        <ele>1273.332186</ele>
        <time>2022-04-23T01:41:50.672Z</time>
      </trkpt>
      <trkpt lat="45.34846" lon="2.94816">
        <ele>1274.231036</ele>
        <time>2022-04-23T01:41:58.015Z</time>
      </trkpt>
      <trkpt lat="45.34794" lon="2.94802">
        <ele>1276.190892</ele>
        <time>2022-04-23T01:42:13.296Z</time>
      </trkpt>
      <trkpt lat="45.34716" lon="2.94761">
        <ele>1279.178727</ele>
        <time>2022-04-23T01:42:37.227Z</time>
      </trkpt>
      <trkpt lat="45.34603" lon="2.94717">
        <ele>1282.902679</ele>
        <time>2022-04-23T01:43:11.329Z</time>
      </trkpt>
      <trkpt lat="45.34548" lon="2.94677">
        <ele>1284.713022</ele>
        <time>2022-04-23T01:43:27.990Z</time>
      </trkpt>
      <trkpt lat="45.34479" lon="2.94645">
        <ele>1286.13614</ele>
        <time>2022-04-23T01:43:45.136Z</time>
      </trkpt>
      <trkpt lat="45.3444" lon="2.94608">
        <ele>1287.038043</ele>
        <time>2022-04-23T01:43:55.161Z</time>
      </trkpt>
      <trkpt lat="45.34395" lon="2.94576">
        <ele>1288.019266</ele>
        <time>2022-04-23T01:44:06.181Z</time>
      </trkpt>
      <trkpt lat="45.34373" lon="2.94568">
        <ele>1288.365267</ele>
        <time>2022-04-23T01:44:11.119Z</time>
      </trkpt>
      <trkpt lat="45.34316" lon="2.94575">
        <ele>1289.239435</ele>
        <time>2022-04-23T01:44:23.349Z</time>
      </trkpt>
      <trkpt lat="45.34299" lon="2.9457">
        <ele>1289.49324</ele>
        <time>2022-04-23T01:44:26.901Z</time>
      </trkpt>
      <trkpt lat="45.34234" lon="2.94526">
        <ele>1290.59312</ele>
        <time>2022-04-23T01:44:42.311Z</time>
      </trkpt>
      <trkpt lat="45.34206" lon="2.94492">
        <ele>1291.013872</ele>
        <time>2022-04-23T01:44:50.159Z</time>
      </trkpt>
      <trkpt lat="45.34161" lon="2.9448">
        <ele>1291.503653</ele>
        <time>2022-04-23T01:44:59.573Z</time>
      </trkpt>
      <trkpt lat="45.34137" lon="2.94447">
        <ele>1291.861125</ele>
        <time>2022-04-23T01:45:05.896Z</time>
      </trkpt>
      <trkpt lat="45.34112" lon="2.94426">
        <ele>1292.168014</ele>
        <time>2022-04-23T01:45:11.021Z</time>
      </trkpt>
      <trkpt lat="45.34105" lon="2.94411">
        <ele>1292.29987</ele>
        <time>2022-04-23T01:45:13.085Z</time>
      </trkpt>
      <trkpt lat="45.34095" lon="2.94361">
        <ele>1292.858865</ele>
        <time>2022-04-23T01:45:19.196Z</time>
      </trkpt>
      <trkpt lat="45.34054" lon="2.94307">
        <ele>1294.809273</ele>
        <time>2022-04-23T01:45:31.200Z</time>
      </trkpt>
      <trkpt lat="45.34039" lon="2.94297">
        <ele>1295.385428</ele>
        <time>2022-04-23T01:45:36.435Z</time>
      </trkpt>
      <trkpt lat="45.34009" lon="2.94301">
        <ele>1296.444799</ele>
        <time>2022-04-23T01:45:46.513Z</time>
      </trkpt>
      <trkpt lat="45.33997" lon="2.94294">
        <ele>1296.902612</ele>
        <time>2022-04-23T01:45:50.901Z</time>
      </trkpt>
      <trkpt lat="45.33988" lon="2.94272">
        <ele>1297.546834</ele>
        <time>2022-04-23T01:45:57.213Z</time>
      </trkpt>
      <trkpt lat="45.33981" lon="2.94207">
        <ele>1299.382695</ele>
        <time>2022-04-23T01:46:13.526Z</time>
      </trkpt>
      <trkpt lat="45.33945" lon="2.94209">
        <ele>1301.756554</ele>
        <time>2022-04-23T01:46:27.496Z</time>
      </trkpt>
      <trkpt lat="45.33843" lon="2.94176">
        <ele>1308.602389</ele>
        <time>2022-04-23T01:47:12.408Z</time>
      </trkpt>
      <trkpt lat="45.3384" lon="2.94189">
        <ele>1309.219371</ele>
        <time>2022-04-23T01:47:17.091Z</time>
      </trkpt>
      <trkpt lat="45.33853" lon="2.94227">
        <ele>1311.398804</ele>
        <time>2022-04-23T01:47:30.372Z</time>
      </trkpt>
      <trkpt lat="45.33861" lon="2.94268">
        <ele>1314.347771</ele>
        <time>2022-04-23T01:47:40.955Z</time>
      </trkpt>
      <trkpt lat="45.33845" lon="2.94372">
        <ele>1321.752423</ele>
        <time>2022-04-23T01:48:18.220Z</time>
      </trkpt>
      <trkpt lat="45.33837" lon="2.94386">
        <ele>1323.054176</ele>
        <time>2022-04-23T01:48:26.356Z</time>
      </trkpt>
      <trkpt lat="45.33801" lon="2.94407">
        <ele>1326.85455</ele>
        <time>2022-04-23T01:48:52.382Z</time>
      </trkpt>
      <trkpt lat="45.33656" lon="2.9438">
        <ele>1345.663775</ele>
        <time>2022-04-23T01:50:38.522Z</time>
      </trkpt>
      <trkpt lat="45.33612" lon="2.94365">
        <ele>1351.619505</ele>
        <time>2022-04-23T01:51:09.357Z</time>
      </trkpt>
      <trkpt lat="45.33583" lon="2.94368">
        <ele>1353.802112</ele>
        <time>2022-04-23T01:51:26.227Z</time>
      </trkpt>
      <trkpt lat="45.33531" lon="2.94358">
        <ele>1357.133343</ele>
        <time>2022-04-23T01:51:50.355Z</time>
      </trkpt>
      <trkpt lat="45.33504" lon="2.94333">
        <ele>1359.159126</ele>
        <time>2022-04-23T01:52:01.496Z</time>
      </trkpt>
      <trkpt lat="45.33489" lon="2.94288">
        <ele>1361.351826</ele>
        <time>2022-04-23T01:52:11.289Z</time>
      </trkpt>
      <trkpt lat="45.33469" lon="2.94271">
        <ele>1362.808307</ele>
        <time>2022-04-23T01:52:17.605Z</time>
      </trkpt>
      <trkpt lat="45.33394" lon="2.94268">
        <ele>1366.647659</ele>
        <time>2022-04-23T01:52:39.601Z</time>
      </trkpt>
      <trkpt lat="45.33349" lon="2.94278">
        <ele>1368.826383</ele>
        <time>2022-04-23T01:52:54.840Z</time>
      </trkpt>
      <trkpt lat="45.33317" lon="2.94297">
        <ele>1370.502266</ele>
        <time>2022-04-23T01:53:07.568Z</time>
      </trkpt>
      <trkpt lat="45.33248" lon="2.94359">
        <ele>1375.953459</ele>
        <time>2022-04-23T01:53:41.468Z</time>
      </trkpt>
      <trkpt lat="45.33233" lon="2.94383">
        <ele>1377.841518</ele>
        <time>2022-04-23T01:53:52.478Z</time>
      </trkpt>
      <trkpt lat="45.33209" lon="2.94443">
        <ele>1381.808056</ele>
        <time>2022-04-23T01:54:15.364Z</time>
      </trkpt>
      <trkpt lat="45.33199" lon="2.94454">
        <ele>1382.847057</ele>
        <time>2022-04-23T01:54:21.969Z</time>
      </trkpt>
      <trkpt lat="45.3302" lon="2.94593">
        <ele>1402.794058</ele>
        <time>2022-04-23T01:56:14.416Z</time>
      </trkpt>
      <trkpt lat="45.32952" lon="2.9469">
        <ele>1413.232679</ele>
        <time>2022-04-23T01:57:14.878Z</time>
      </trkpt>
      <trkpt lat="45.32927" lon="2.94746">
        <ele>1418.308017</ele>
        <time>2022-04-23T01:57:43.600Z</time>
      </trkpt>
      <trkpt lat="45.32866" lon="2.94839">
        <ele>1427.195303</ele>
        <time>2022-04-23T01:58:34.317Z</time>
      </trkpt>
      <trkpt lat="45.32846" lon="2.94898">
        <ele>1430.563491</ele>
        <time>2022-04-23T01:58:57.409Z</time>
      </trkpt>
      <trkpt lat="45.32832" lon="2.94917">
        <ele>1431.960215</ele>
        <time>2022-04-23T01:59:05.879Z</time>
      </trkpt>
      <trkpt lat="45.3274" lon="2.9493">
        <ele>1438.650523</ele>
        <time>2022-04-23T01:59:41.009Z</time>
      </trkpt>
      <trkpt lat="45.32703" lon="2.9492">
        <ele>1440.554157</ele>
        <time>2022-04-23T01:59:54.607Z</time>
      </trkpt>
      <trkpt lat="45.32641" lon="2.9489">
        <ele>1443.787587</ele>
        <time>2022-04-23T02:00:17.565Z</time>
      </trkpt>
      <trkpt lat="45.32412" lon="2.94911">
        <ele>1452.926327</ele>
        <time>2022-04-23T02:01:35.951Z</time>
      </trkpt>
      <trkpt lat="45.32139" lon="2.9494">
        <ele>1449.994162</ele>
        <time>2022-04-23T02:02:39.070Z</time>
      </trkpt>
      <trkpt lat="45.32058" lon="2.9491">
        <ele>1447.310864</ele>
        <time>2022-04-23T02:02:55.555Z</time>
      </trkpt>
      <trkpt lat="45.31985" lon="2.94924">
        <ele>1444.20831</ele>
        <time>2022-04-23T02:03:09.796Z</time>
      </trkpt>
      <trkpt lat="45.31957" lon="2.94952">
        <ele>1442.552014</ele>
        <time>2022-04-23T02:03:16.401Z</time>
      </trkpt>
      <trkpt lat="45.31949" lon="2.9497">
        <ele>1441.841308</ele>
        <time>2022-04-23T02:03:19.269Z</time>
      </trkpt>
      <trkpt lat="45.31944" lon="2.95025">
        <ele>1439.968904</ele>
        <time>2022-04-23T02:03:26.771Z</time>
      </trkpt>
      <trkpt lat="45.31965" lon="2.9512">
        <ele>1436.727987</ele>
        <time>2022-04-23T02:03:40.550Z</time>
      </trkpt>
      <trkpt lat="45.3197" lon="2.9518">
        <ele>1434.938724</ele>
        <time>2022-04-23T02:03:48.928Z</time>
      </trkpt>
      <trkpt lat="45.31966" lon="2.95205">
        <ele>1434.184251</ele>
        <time>2022-04-23T02:03:52.472Z</time>
      </trkpt>
      <trkpt lat="45.31957" lon="2.95219">
        <ele>1433.613293</ele>
        <time>2022-04-23T02:03:55.132Z</time>
      </trkpt>
      <trkpt lat="45.31941" lon="2.95227">
        <ele>1432.899223</ele>
        <time>2022-04-23T02:03:58.493Z</time>
      </trkpt>
      <trkpt lat="45.31921" lon="2.95228">
        <ele>1432.080869</ele>
        <time>2022-04-23T02:04:02.320Z</time>
      </trkpt>
      <trkpt lat="45.31882" lon="2.95245">
        <ele>1430.331358</ele>
        <time>2022-04-23T02:04:10.653Z</time>
      </trkpt>
      <trkpt lat="45.31868" lon="2.95262">
        <ele>1429.577347</ele>
        <time>2022-04-23T02:04:14.420Z</time>
      </trkpt>
      <trkpt lat="45.31853" lon="2.95303">
        <ele>1428.287417</ele>
        <time>2022-04-23T02:04:20.947Z</time>
      </trkpt>
      <trkpt lat="45.31844" lon="2.95383">
        <ele>1426.013284</ele>
        <time>2022-04-23T02:04:32.504Z</time>
      </trkpt>
      <trkpt lat="45.31829" lon="2.9541">
        <ele>1425.029702</ele>
        <time>2022-04-23T02:04:37.499Z</time>
      </trkpt>
      <trkpt lat="45.31806" lon="2.95422">
        <ele>1424.055596</ele>
        <time>2022-04-23T02:04:42.415Z</time>
      </trkpt>
      <trkpt lat="45.31648" lon="2.95387">
        <ele>1415.075333</ele>
        <time>2022-04-23T02:05:12.954Z</time>
      </trkpt>
      <trkpt lat="45.31527" lon="2.95279">
        <ele>1404.670718</ele>
        <time>2022-04-23T02:05:38.439Z</time>
      </trkpt>
      <trkpt lat="45.31438" lon="2.95278">
        <ele>1397.53832</ele>
        <time>2022-04-23T02:05:54.206Z</time>
      </trkpt>
      <trkpt lat="45.31318" lon="2.9521">
        <ele>1387.469092</ele>
        <time>2022-04-23T02:06:17.123Z</time>
      </trkpt>
      <trkpt lat="45.31311" lon="2.95197">
        <ele>1386.575665</ele>
        <time>2022-04-23T02:06:19.150Z</time>
      </trkpt>
      <trkpt lat="45.31265" lon="2.9517">
        <ele>1383.147849</ele>
        <time>2022-04-23T02:06:28.248Z</time>
      </trkpt>
      <trkpt lat="45.31171" lon="2.95165">
        <ele>1378.440553</ele>
        <time>2022-04-23T02:06:46.040Z</time>
      </trkpt>
      <trkpt lat="45.31122" lon="2.95184">
        <ele>1375.876004</ele>
        <time>2022-04-23T02:06:56.307Z</time>
      </trkpt>
      <trkpt lat="45.31108" lon="2.95166">
        <ele>1374.94326</ele>
        <time>2022-04-23T02:07:00.308Z</time>
      </trkpt>
      <trkpt lat="45.31099" lon="2.951">
        <ele>1373.993381</ele>
        <time>2022-04-23T02:07:10.166Z</time>
      </trkpt>
      <trkpt lat="45.31084" lon="2.95074">
        <ele>1373.516519</ele>
        <time>2022-04-23T02:07:15.247Z</time>
      </trkpt>
      <trkpt lat="45.30972" lon="2.94971">
        <ele>1371.339301</ele>
        <time>2022-04-23T02:07:45.371Z</time>
      </trkpt>
      <trkpt lat="45.30929" lon="2.94942">
        <ele>1371.349775</ele>
        <time>2022-04-23T02:07:56.781Z</time>
      </trkpt>
      <trkpt lat="45.3087" lon="2.9489">
        <ele>1371.365182</ele>
        <time>2022-04-23T02:08:14.809Z</time>
      </trkpt>
      <trkpt lat="45.3078" lon="2.9472">
        <ele>1373.665093</ele>
        <time>2022-04-23T02:09:02.979Z</time>
      </trkpt>
      <trkpt lat="45.30736" lon="2.94612">
        <ele>1375.609878</ele>
        <time>2022-04-23T02:09:34.927Z</time>
      </trkpt>
      <trkpt lat="45.30709" lon="2.94559">
        <ele>1376.90014</ele>
        <time>2022-04-23T02:09:51.669Z</time>
      </trkpt>
      <trkpt lat="45.30645" lon="2.94473">
        <ele>1379.337229</ele>
        <time>2022-04-23T02:10:24.272Z</time>
      </trkpt>
      <trkpt lat="45.30602" lon="2.94368">
        <ele>1381.067887</ele>
        <time>2022-04-23T02:10:55.130Z</time>
      </trkpt>
      <trkpt lat="45.30577" lon="2.94327">
        <ele>1381.717296</ele>
        <time>2022-04-23T02:11:08.720Z</time>
      </trkpt>
      <trkpt lat="45.30355" lon="2.93972">
        <ele>1381.653062</ele>
        <time>2022-04-23T02:12:08.100Z</time>
      </trkpt>
      <trkpt lat="45.30277" lon="2.93839">
        <ele>1376.758428</ele>
        <time>2022-04-23T02:12:20.744Z</time>
      </trkpt>
      <trkpt lat="45.30139" lon="2.93683">
        <ele>1363.398805</ele>
        <time>2022-04-23T02:12:38.010Z</time>
      </trkpt>
      <trkpt lat="45.30107" lon="2.93655">
        <ele>1361.42068</ele>
        <time>2022-04-23T02:12:41.892Z</time>
      </trkpt>
      <trkpt lat="45.30068" lon="2.9364">
        <ele>1359.280504</ele>
        <time>2022-04-23T02:12:46.287Z</time>
      </trkpt>
      <trkpt lat="45.29906" lon="2.9362">
        <ele>1348.867413</ele>
        <time>2022-04-23T02:13:04.176Z</time>
      </trkpt>
      <trkpt lat="45.29529" lon="2.9379">
        <ele>1318.046258</ele>
        <time>2022-04-23T02:13:42.747Z</time>
      </trkpt>
      <trkpt lat="45.29221" lon="2.93919">
        <ele>1299.550819</ele>
        <time>2022-04-23T02:14:16.154Z</time>
      </trkpt>
      <trkpt lat="45.29149" lon="2.93932">
        <ele>1296.660156</ele>
        <time>2022-04-23T02:14:24.500Z</time>
      </trkpt>
      <trkpt lat="45.28839" lon="2.93956">
        <ele>1289.484729</ele>
        <time>2022-04-23T02:15:02.504Z</time>
      </trkpt>
      <trkpt lat="45.28527" lon="2.94025">
        <ele>1285.065289</ele>
        <time>2022-04-23T02:15:43.724Z</time>
      </trkpt>
      <trkpt lat="45.27933" lon="2.94258">
        <ele>1278.23953</ele>
        <time>2022-04-23T02:17:07.056Z</time>
      </trkpt>
      <trkpt lat="45.27882" lon="2.94186">
        <ele>1276.981726</ele>
        <time>2022-04-23T02:17:15.788Z</time>
      </trkpt>
      <trkpt lat="45.2777" lon="2.94055">
        <ele>1272.856003</ele>
        <time>2022-04-23T02:17:32.917Z</time>
      </trkpt>
      <trkpt lat="45.27757" lon="2.94043">
        <ele>1272.399518</ele>
        <time>2022-04-23T02:17:34.752Z</time>
      </trkpt>
      <trkpt lat="45.27689" lon="2.94014">
        <ele>1269.440279</ele>
        <time>2022-04-23T02:17:42.545Z</time>
      </trkpt>
      <trkpt lat="45.27662" lon="2.93989">
        <ele>1268.07434</ele>
        <time>2022-04-23T02:17:46.024Z</time>
      </trkpt>
      <trkpt lat="45.27565" lon="2.93826">
        <ele>1261.556836</ele>
        <time>2022-04-23T02:18:02.313Z</time>
      </trkpt>
      <trkpt lat="45.275" lon="2.93739">
        <ele>1257.595564</ele>
        <time>2022-04-23T02:18:12.045Z</time>
      </trkpt>
      <trkpt lat="45.27487" lon="2.93705">
        <ele>1256.342114</ele>
        <time>2022-04-23T02:18:15.020Z</time>
      </trkpt>
      <trkpt lat="45.27459" lon="2.93605">
        <ele>1252.775812</ele>
        <time>2022-04-23T02:18:23.319Z</time>
      </trkpt>
      <trkpt lat="45.2744" lon="2.93568">
        <ele>1251.241811</ele>
        <time>2022-04-23T02:18:26.838Z</time>
      </trkpt>
      <trkpt lat="45.27377" lon="2.93499">
        <ele>1247.390051</ele>
        <time>2022-04-23T02:18:35.269Z</time>
      </trkpt>
      <trkpt lat="45.27367" lon="2.93482">
        <ele>1246.499888</ele>
        <time>2022-04-23T02:18:36.970Z</time>
      </trkpt>
      <trkpt lat="45.27347" lon="2.93403">
        <ele>1243.279949</ele>
        <time>2022-04-23T02:18:43.014Z</time>
      </trkpt>
      <trkpt lat="45.27311" lon="2.93334">
        <ele>1239.944987</ele>
        <time>2022-04-23T02:18:49.444Z</time>
      </trkpt>
      <trkpt lat="45.27288" lon="2.9327">
        <ele>1237.119999</ele>
        <time>2022-04-23T02:18:54.813Z</time>
      </trkpt>
      <trkpt lat="45.2726" lon="2.93176">
        <ele>1233.143878</ele>
        <time>2022-04-23T02:19:02.256Z</time>
      </trkpt>
      <trkpt lat="45.27261" lon="2.93096">
        <ele>1229.957805</ele>
        <time>2022-04-23T02:19:08.236Z</time>
      </trkpt>
      <trkpt lat="45.27235" lon="2.92942">
        <ele>1222.969056</ele>
        <time>2022-04-23T02:19:19.805Z</time>
      </trkpt>
      <trkpt lat="45.27234" lon="2.92921">
        <ele>1222.048189</ele>
        <time>2022-04-23T02:19:21.282Z</time>
      </trkpt>
      <trkpt lat="45.27246" lon="2.92804">
        <ele>1216.617826</ele>
        <time>2022-04-23T02:19:29.735Z</time>
      </trkpt>
      <trkpt lat="45.27242" lon="2.92771">
        <ele>1214.476667</ele>
        <time>2022-04-23T02:19:32.074Z</time>
      </trkpt>
      <trkpt lat="45.27229" lon="2.92723">
        <ele>1211.138884</ele>
        <time>2022-04-23T02:19:35.634Z</time>
      </trkpt>
      <trkpt lat="45.27219" lon="2.927">
        <ele>1209.393041</ele>
        <time>2022-04-23T02:19:37.480Z</time>
      </trkpt>
      <trkpt lat="45.27202" lon="2.92679">
        <ele>1207.338342</ele>
        <time>2022-04-23T02:19:39.625Z</time>
      </trkpt>
      <trkpt lat="45.27101" lon="2.92569">
        <ele>1196.354779</ele>
        <time>2022-04-23T02:19:51.841Z</time>
      </trkpt>
      <trkpt lat="45.27042" lon="2.92497">
        <ele>1190.32337</ele>
        <time>2022-04-23T02:19:59.494Z</time>
      </trkpt>
      <trkpt lat="45.27025" lon="2.92484">
        <ele>1188.897923</ele>
        <time>2022-04-23T02:20:01.389Z</time>
      </trkpt>
      <trkpt lat="45.26993" lon="2.9246">
        <ele>1186.152866</ele>
        <time>2022-04-23T02:20:05.251Z</time>
      </trkpt>
      <trkpt lat="45.26967" lon="2.92457">
        <ele>1185.515174</ele>
        <time>2022-04-23T02:20:08.231Z</time>
      </trkpt>
      <trkpt lat="45.2691" lon="2.92445">
        <ele>1184.139084</ele>
        <time>2022-04-23T02:20:14.967Z</time>
      </trkpt>
      <trkpt lat="45.26852" lon="2.92468">
        <ele>1182.676535</ele>
        <time>2022-04-23T02:20:22.995Z</time>
      </trkpt>
      <trkpt lat="45.26829" lon="2.9247">
        <ele>1182.121258</ele>
        <time>2022-04-23T02:20:26.490Z</time>
      </trkpt>
      <trkpt lat="45.26726" lon="2.92456">
        <ele>1179.382865</ele>
        <time>2022-04-23T02:20:39.737Z</time>
      </trkpt>
      <trkpt lat="45.26667" lon="2.92466">
        <ele>1177.763422</ele>
        <time>2022-04-23T02:20:46.573Z</time>
      </trkpt>
      <trkpt lat="45.26606" lon="2.92383">
        <ele>1173.762825</ele>
        <time>2022-04-23T02:20:56.249Z</time>
      </trkpt>
      <trkpt lat="45.26497" lon="2.92291">
        <ele>1166.530343</ele>
        <time>2022-04-23T02:21:10.088Z</time>
      </trkpt>
      <trkpt lat="45.26471" lon="2.92249">
        <ele>1163.693787</ele>
        <time>2022-04-23T02:21:14.415Z</time>
      </trkpt>
      <trkpt lat="45.26432" lon="2.92135">
        <ele>1157.405128</ele>
        <time>2022-04-23T02:21:23.997Z</time>
      </trkpt>
      <trkpt lat="45.26407" lon="2.92093">
        <ele>1154.650258</ele>
        <time>2022-04-23T02:21:28.069Z</time>
      </trkpt>
      <trkpt lat="45.26379" lon="2.92052">
        <ele>1151.666252</ele>
        <time>2022-04-23T02:21:32.260Z</time>
      </trkpt>
      <trkpt lat="45.26337" lon="2.92006">
        <ele>1147.631074</ele>
        <time>2022-04-23T02:21:37.921Z</time>
      </trkpt>
      <trkpt lat="45.26308" lon="2.91994">
        <ele>1145.318723</ele>
        <time>2022-04-23T02:21:41.136Z</time>
      </trkpt>
      <trkpt lat="45.26274" lon="2.92013">
        <ele>1142.558566</ele>
        <time>2022-04-23T02:21:47.693Z</time>
      </trkpt>
      <trkpt lat="45.26207" lon="2.92093">
        <ele>1136.406605</ele>
        <time>2022-04-23T02:22:03.374Z</time>
      </trkpt>
      <trkpt lat="45.26157" lon="2.92178">
        <ele>1131.056516</ele>
        <time>2022-04-23T02:22:17.791Z</time>
      </trkpt>
      <trkpt lat="45.26104" lon="2.92259">
        <ele>1126.111993</ele>
        <time>2022-04-23T02:22:32.375Z</time>
      </trkpt>
      <trkpt lat="45.26091" lon="2.92271">
        <ele>1125.261866</ele>
        <time>2022-04-23T02:22:35.130Z</time>
      </trkpt>
      <trkpt lat="45.26073" lon="2.92277">
        <ele>1124.146477</ele>
        <time>2022-04-23T02:22:38.717Z</time>
      </trkpt>
      <trkpt lat="45.26032" lon="2.92312">
        <ele>1121.422065</ele>
        <time>2022-04-23T02:22:47.625Z</time>
      </trkpt>
      <trkpt lat="45.25985" lon="2.92301">
        <ele>1118.668577</ele>
        <time>2022-04-23T02:22:56.573Z</time>
      </trkpt>
      <trkpt lat="45.25944" lon="2.92317">
        <ele>1116.46224</ele>
        <time>2022-04-23T02:23:04.642Z</time>
      </trkpt>
      <trkpt lat="45.2592" lon="2.92329">
        <ele>1115.252125</ele>
        <time>2022-04-23T02:23:09.519Z</time>
      </trkpt>
      <trkpt lat="45.25858" lon="2.92375">
        <ele>1111.961318</ele>
        <time>2022-04-23T02:23:23.067Z</time>
      </trkpt>
      <trkpt lat="45.25783" lon="2.92375">
        <ele>1108.801851</ele>
        <time>2022-04-23T02:23:38.014Z</time>
      </trkpt>
      <trkpt lat="45.25729" lon="2.92396">
        <ele>1107.400904</ele>
        <time>2022-04-23T02:23:49.578Z</time>
      </trkpt>
      <trkpt lat="45.25711" lon="2.92408">
        <ele>1106.903584</ele>
        <time>2022-04-23T02:23:53.872Z</time>
      </trkpt>
      <trkpt lat="45.25696" lon="2.92432">
        <ele>1106.347925</ele>
        <time>2022-04-23T02:23:58.895Z</time>
      </trkpt>
      <trkpt lat="45.25691" lon="2.92453">
        <ele>1105.950305</ele>
        <time>2022-04-23T02:24:02.528Z</time>
      </trkpt>
      <trkpt lat="45.25692" lon="2.92496">
        <ele>1105.181181</ele>
        <time>2022-04-23T02:24:09.607Z</time>
      </trkpt>
      <trkpt lat="45.25686" lon="2.92503">
        <ele>1104.997487</ele>
        <time>2022-04-23T02:24:11.302Z</time>
      </trkpt>
      <trkpt lat="45.25567" lon="2.92526">
        <ele>1100.010997</ele>
        <time>2022-04-23T02:24:37.206Z</time>
      </trkpt>
      <trkpt lat="45.25556" lon="2.92471">
        <ele>1098.28761</ele>
        <time>2022-04-23T02:24:44.734Z</time>
      </trkpt>
      <trkpt lat="45.2553" lon="2.92416">
        <ele>1094.8459</ele>
        <time>2022-04-23T02:24:53.150Z</time>
      </trkpt>
      <trkpt lat="45.25491" lon="2.9236">
        <ele>1087.739294</ele>
        <time>2022-04-23T02:25:02.594Z</time>
      </trkpt>
      <trkpt lat="45.25425" lon="2.92244">
        <ele>1074.239469</ele>
        <time>2022-04-23T02:25:19.556Z</time>
      </trkpt>
      <trkpt lat="45.25398" lon="2.9218">
        <ele>1066.509632</ele>
        <time>2022-04-23T02:25:27.917Z</time>
      </trkpt>
      <trkpt lat="45.25377" lon="2.92153">
        <ele>1062.265716</ele>
        <time>2022-04-23T02:25:32.515Z</time>
      </trkpt>
      <trkpt lat="45.25352" lon="2.92108">
        <ele>1056.278306</ele>
        <time>2022-04-23T02:25:39.027Z</time>
      </trkpt>
      <trkpt lat="45.25295" lon="2.9211">
        <ele>1047.87781</ele>
        <time>2022-04-23T02:25:48.312Z</time>
      </trkpt>
      <trkpt lat="45.25253" lon="2.92156">
        <ele>1042.91972</ele>
        <time>2022-04-23T02:25:57.132Z</time>
      </trkpt>
      <trkpt lat="45.25238" lon="2.92161">
        <ele>1041.474869</ele>
        <time>2022-04-23T02:25:59.853Z</time>
      </trkpt>
      <trkpt lat="45.25229" lon="2.92154">
        <ele>1040.60953</ele>
        <time>2022-04-23T02:26:01.574Z</time>
      </trkpt>
      <trkpt lat="45.25232" lon="2.92121">
        <ele>1038.571048</ele>
        <time>2022-04-23T02:26:05.587Z</time>
      </trkpt>
      <trkpt lat="45.25269" lon="2.92002">
        <ele>1031.058176</ele>
        <time>2022-04-23T02:26:22.744Z</time>
      </trkpt>
      <trkpt lat="45.25269" lon="2.91979">
        <ele>1030.720723</ele>
        <time>2022-04-23T02:26:25.652Z</time>
      </trkpt>
      <trkpt lat="45.25232" lon="2.91903">
        <ele>1029.338675</ele>
        <time>2022-04-23T02:26:39.646Z</time>
      </trkpt>
      <trkpt lat="45.25224" lon="2.91899">
        <ele>1029.161037</ele>
        <time>2022-04-23T02:26:41.195Z</time>
      </trkpt>
      <trkpt lat="45.25218" lon="2.91894">
        <ele>1029.008879</ele>
        <time>2022-04-23T02:26:42.985Z</time>
      </trkpt>
      <trkpt lat="45.2516" lon="2.91857">
        <ele>1027.656977</ele>
        <time>2022-04-23T02:26:58.556Z</time>
      </trkpt>
      <trkpt lat="45.25084" lon="2.91708">
        <ele>1027.814886</ele>
        <time>2022-04-23T02:27:39.456Z</time>
      </trkpt>
      <trkpt lat="45.25078" lon="2.91706">
        <ele>1027.836595</ele>
        <time>2022-04-23T02:27:40.520Z</time>
      </trkpt>
      <trkpt lat="45.25048" lon="2.91706">
        <ele>1027.933098</ele>
        <time>2022-04-23T02:27:45.021Z</time>
      </trkpt>
      <trkpt lat="45.2502" lon="2.91727">
        <ele>1027.94315</ele>
        <time>2022-04-23T02:27:49.399Z</time>
      </trkpt>
      <trkpt lat="45.24976" lon="2.91768">
        <ele>1027.360173</ele>
        <time>2022-04-23T02:27:55.949Z</time>
      </trkpt>
      <trkpt lat="45.24979" lon="2.91725">
        <ele>1027.017344</ele>
        <time>2022-04-23T02:28:00.019Z</time>
      </trkpt>
      <trkpt lat="45.24973" lon="2.91704">
        <ele>1026.842449</ele>
        <time>2022-04-23T02:28:02.235Z</time>
      </trkpt>
      <trkpt lat="45.24959" lon="2.91696">
        <ele>1026.675589</ele>
        <time>2022-04-23T02:28:04.124Z</time>
      </trkpt>
      <trkpt lat="45.24889" lon="2.91675">
        <ele>1026.451845</ele>
        <time>2022-04-23T02:28:14.705Z</time>
      </trkpt>
      <trkpt lat="45.24882" lon="2.91671">
        <ele>1026.746759</ele>
        <time>2022-04-23T02:28:16.136Z</time>
      </trkpt>
      <trkpt lat="45.24858" lon="2.91624">
        <ele>1028.343304</ele>
        <time>2022-04-23T02:28:27.632Z</time>
      </trkpt>
      <trkpt lat="45.24844" lon="2.91578">
        <ele>1029.742337</ele>
        <time>2022-04-23T02:28:39.067Z</time>
      </trkpt>
      <trkpt lat="45.24821" lon="2.91552">
        <ele>1030.904174</ele>
        <time>2022-04-23T02:28:49.311Z</time>
      </trkpt>
      <trkpt lat="45.24811" lon="2.91526">
        <ele>1031.711242</ele>
        <time>2022-04-23T02:28:58.063Z</time>
      </trkpt>
      <trkpt lat="45.24783" lon="2.91467">
        <ele>1034.272731</ele>
        <time>2022-04-23T02:29:18.971Z</time>
      </trkpt>
      <trkpt lat="45.24771" lon="2.91442">
        <ele>1035.862767</ele>
        <time>2022-04-23T02:29:30.439Z</time>
      </trkpt>
      <trkpt lat="45.24738" lon="2.91365">
        <ele>1040.637183</ele>
        <time>2022-04-23T02:30:05.330Z</time>
      </trkpt>
      <trkpt lat="45.2473" lon="2.91295">
        <ele>1044.373043</ele>
        <time>2022-04-23T02:30:34.179Z</time>
      </trkpt>
      <trkpt lat="45.24821" lon="2.90988">
        <ele>1062.269893</ele>
        <time>2022-04-23T02:32:52.395Z</time>
      </trkpt>
      <trkpt lat="45.24885" lon="2.90849">
        <ele>1067.353257</ele>
        <time>2022-04-23T02:33:44.490Z</time>
      </trkpt>
      <trkpt lat="45.25006" lon="2.90646">
        <ele>1068.81337</ele>
        <time>2022-04-23T02:34:32.806Z</time>
      </trkpt>
      <trkpt lat="45.25032" lon="2.90583">
        <ele>1068.563081</ele>
        <time>2022-04-23T02:34:44.272Z</time>
      </trkpt>
      <trkpt lat="45.25044" lon="2.90549">
        <ele>1068.297549</ele>
        <time>2022-04-23T02:34:50.147Z</time>
      </trkpt>
      <trkpt lat="45.2506" lon="2.90464">
        <ele>1067.674439</ele>
        <time>2022-04-23T02:35:04.029Z</time>
      </trkpt>
      <trkpt lat="45.25085" lon="2.90409">
        <ele>1067.215222</ele>
        <time>2022-04-23T02:35:14.835Z</time>
      </trkpt>
      <trkpt lat="45.25115" lon="2.90303">
        <ele>1068.229165</ele>
        <time>2022-04-23T02:35:36.877Z</time>
      </trkpt>
      <trkpt lat="45.25219" lon="2.9001">
        <ele>1073.632656</ele>
        <time>2022-04-23T02:37:05.079Z</time>
      </trkpt>
      <trkpt lat="45.25284" lon="2.89845">
        <ele>1075.080143</ele>
        <time>2022-04-23T02:37:47.099Z</time>
      </trkpt>
      <trkpt lat="45.25296" lon="2.89825">
        <ele>1074.975067</ele>
        <time>2022-04-23T02:37:51.873Z</time>
      </trkpt>
      <trkpt lat="45.25342" lon="2.89745">
        <ele>1074.560637</ele>
        <time>2022-04-23T02:38:08.507Z</time>
      </trkpt>
      <trkpt lat="45.25463" lon="2.8956">
        <ele>1069.688092</ele>
        <time>2022-04-23T02:38:45.167Z</time>
      </trkpt>
      <trkpt lat="45.25505" lon="2.89506">
        <ele>1067.873259</ele>
        <time>2022-04-23T02:38:56.883Z</time>
      </trkpt>
      <trkpt lat="45.25386" lon="2.89533">
        <ele>1063.996789</ele>
        <time>2022-04-23T02:39:10.397Z</time>
      </trkpt>
      <trkpt lat="45.25315" lon="2.89522">
        <ele>1062.834385</ele>
        <time>2022-04-23T02:39:19.254Z</time>
      </trkpt>
      <trkpt lat="45.25312" lon="2.89505">
        <ele>1062.798114</ele>
        <time>2022-04-23T02:39:20.874Z</time>
      </trkpt>
      <trkpt lat="45.25307" lon="2.89498">
        <ele>1062.775072</ele>
        <time>2022-04-23T02:39:22.282Z</time>
      </trkpt>
      <trkpt lat="45.25274" lon="2.89498">
        <ele>1062.673068</ele>
        <time>2022-04-23T02:39:27.576Z</time>
      </trkpt>
      <trkpt lat="45.25273" lon="2.89494">
        <ele>1062.664497</ele>
        <time>2022-04-23T02:39:29.482Z</time>
      </trkpt>
      <trkpt lat="45.25273" lon="2.89488">
        <ele>1062.651006</ele>
        <time>2022-04-23T02:39:30.462Z</time>
      </trkpt>
      <trkpt lat="45.25277" lon="2.89488">
        <ele>1062.636155</ele>
        <time>2022-04-23T02:39:31.565Z</time>
      </trkpt>
      <trkpt lat="45.25273" lon="2.89488">
        <ele>1062.621303</ele>
        <time>2022-04-23T02:39:32.274Z</time>
      </trkpt>
      <trkpt lat="45.25273" lon="2.89494">
        <ele>1062.607812</ele>
        <time>2022-04-23T02:39:32.925Z</time>
      </trkpt>
      <trkpt lat="45.25274" lon="2.89498">
        <ele>1062.599241</ele>
        <time>2022-04-23T02:39:34.831Z</time>
      </trkpt>
      <trkpt lat="45.25307" lon="2.89498">
        <ele>1062.497237</ele>
        <time>2022-04-23T02:39:41.190Z</time>
      </trkpt>
      <trkpt lat="45.25312" lon="2.89505">
        <ele>1062.474196</ele>
        <time>2022-04-23T02:39:42.386Z</time>
      </trkpt>
      <trkpt lat="45.25315" lon="2.89522">
        <ele>1062.437924</ele>
        <time>2022-04-23T02:39:45.421Z</time>
      </trkpt>
      <trkpt lat="45.25386" lon="2.89533">
        <ele>1064.212471</ele>
        <time>2022-04-23T02:40:02.740Z</time>
      </trkpt>
      <trkpt lat="45.25505" lon="2.89506">
        <ele>1067.801386</ele>
        <time>2022-04-23T02:40:39.103Z</time>
      </trkpt>
      <trkpt lat="45.25463" lon="2.8956">
        <ele>1069.667041</ele>
        <time>2022-04-23T02:41:01.227Z</time>
      </trkpt>
      <trkpt lat="45.25342" lon="2.89745">
        <ele>1074.286987</ele>
        <time>2022-04-23T02:42:08.927Z</time>
      </trkpt>
      <trkpt lat="45.25296" lon="2.89825">
        <ele>1075.12963</ele>
        <time>2022-04-23T02:42:31.325Z</time>
      </trkpt>
      <trkpt lat="45.25284" lon="2.89845">
        <ele>1075.343274</ele>
        <time>2022-04-23T02:42:35.973Z</time>
      </trkpt>
      <trkpt lat="45.25219" lon="2.9001">
        <ele>1073.55892</ele>
        <time>2022-04-23T02:43:06.040Z</time>
      </trkpt>
      <trkpt lat="45.25115" lon="2.90303">
        <ele>1067.929714</ele>
        <time>2022-04-23T02:43:53.738Z</time>
      </trkpt>
      <trkpt lat="45.25085" lon="2.90409">
        <ele>1067.551639</ele>
        <time>2022-04-23T02:44:13.253Z</time>
      </trkpt>
      <trkpt lat="45.2506" lon="2.90464">
        <ele>1067.859852</ele>
        <time>2022-04-23T02:44:26.589Z</time>
      </trkpt>
      <trkpt lat="45.25044" lon="2.90549">
        <ele>1068.278065</ele>
        <time>2022-04-23T02:44:46.655Z</time>
      </trkpt>
      <trkpt lat="45.25032" lon="2.90583">
        <ele>1068.443911</ele>
        <time>2022-04-23T02:44:55.341Z</time>
      </trkpt>
      <trkpt lat="45.25006" lon="2.90646">
        <ele>1068.697961</ele>
        <time>2022-04-23T02:45:12.151Z</time>
      </trkpt>
      <trkpt lat="45.24885" lon="2.90849">
        <ele>1067.022372</ele>
        <time>2022-04-23T02:45:59.352Z</time>
      </trkpt>
      <trkpt lat="45.24821" lon="2.90988">
        <ele>1062.860696</ele>
        <time>2022-04-23T02:46:22.036Z</time>
      </trkpt>
      <trkpt lat="45.2473" lon="2.91295">
        <ele>1044.155126</ele>
        <time>2022-04-23T02:47:03.603Z</time>
      </trkpt>
      <trkpt lat="45.24738" lon="2.91365">
        <ele>1040.047526</ele>
        <time>2022-04-23T02:47:12.462Z</time>
      </trkpt>
      <trkpt lat="45.24771" lon="2.91442">
        <ele>1034.798027</ele>
        <time>2022-04-23T02:47:23.678Z</time>
      </trkpt>
      <trkpt lat="45.24783" lon="2.91467">
        <ele>1032.973871</ele>
        <time>2022-04-23T02:47:27.435Z</time>
      </trkpt>
      <trkpt lat="45.24811" lon="2.91526">
        <ele>1028.48983</ele>
        <time>2022-04-23T02:47:32.665Z</time>
      </trkpt>
      <trkpt lat="45.24828" lon="2.91614">
        <ele>1022.757535</ele>
        <time>2022-04-23T02:47:39.294Z</time>
      </trkpt>
      <trkpt lat="45.2484" lon="2.9164">
        <ele>1020.802147</ele>
        <time>2022-04-23T02:47:41.547Z</time>
      </trkpt>
      <trkpt lat="45.24823" lon="2.91646">
        <ele>1019.217683</ele>
        <time>2022-04-23T02:47:43.371Z</time>
      </trkpt>
      <trkpt lat="45.24813" lon="2.91663">
        <ele>1017.918536</ele>
        <time>2022-04-23T02:47:44.944Z</time>
      </trkpt>
      <trkpt lat="45.24802" lon="2.91657">
        <ele>1017.204538</ele>
        <time>2022-04-23T02:47:46.118Z</time>
      </trkpt>
      <trkpt lat="45.24794" lon="2.91662">
        <ele>1016.612403</ele>
        <time>2022-04-23T02:47:47.083Z</time>
      </trkpt>
      <trkpt lat="45.24711" lon="2.91779">
        <ele>1009.243054</ele>
        <time>2022-04-23T02:47:59.737Z</time>
      </trkpt>
      <trkpt lat="45.24718" lon="2.9183">
        <ele>1006.907346</ele>
        <time>2022-04-23T02:48:03.829Z</time>
      </trkpt>
      <trkpt lat="45.24718" lon="2.91858">
        <ele>1006.197088</ele>
        <time>2022-04-23T02:48:06.090Z</time>
      </trkpt>
      <trkpt lat="45.24707" lon="2.91915">
        <ele>1004.920536</ele>
        <time>2022-04-23T02:48:10.851Z</time>
      </trkpt>
      <trkpt lat="45.24693" lon="2.91948">
        <ele>1004.10318</ele>
        <time>2022-04-23T02:48:13.978Z</time>
      </trkpt>
      <trkpt lat="45.24665" lon="2.91988">
        <ele>1002.884509</ele>
        <time>2022-04-23T02:48:18.770Z</time>
      </trkpt>
      <trkpt lat="45.24597" lon="2.92039">
        <ele>1000.613191</ele>
        <time>2022-04-23T02:48:27.866Z</time>
      </trkpt>
      <trkpt lat="45.24493" lon="2.92144">
        <ele>997.094869</ele>
        <time>2022-04-23T02:48:42.784Z</time>
      </trkpt>
      <trkpt lat="45.24471" lon="2.92199">
        <ele>995.988586</ele>
        <time>2022-04-23T02:48:48.142Z</time>
      </trkpt>
      <trkpt lat="45.24441" lon="2.92312">
        <ele>994.420828</ele>
        <time>2022-04-23T02:48:58.748Z</time>
      </trkpt>
      <trkpt lat="45.24413" lon="2.92381">
        <ele>993.372671</ele>
        <time>2022-04-23T02:49:05.954Z</time>
      </trkpt>
      <trkpt lat="45.24384" lon="2.9243">
        <ele>992.586246</ele>
        <time>2022-04-23T02:49:11.777Z</time>
      </trkpt>
      <trkpt lat="45.24046" lon="2.92898">
        <ele>985.15276</ele>
        <time>2022-04-23T02:50:11.968Z</time>
      </trkpt>
      <trkpt lat="45.24024" lon="2.92894">
        <ele>984.818989</ele>
        <time>2022-04-23T02:50:15.110Z</time>
      </trkpt>
      <trkpt lat="45.23992" lon="2.92847">
        <ele>984.143541</ele>
        <time>2022-04-23T02:50:21.511Z</time>
      </trkpt>
      <trkpt lat="45.23983" lon="2.92827">
        <ele>983.898075</ele>
        <time>2022-04-23T02:50:23.897Z</time>
      </trkpt>
      <trkpt lat="45.23966" lon="2.92768">
        <ele>983.236674</ele>
        <time>2022-04-23T02:50:30.185Z</time>
      </trkpt>
      <trkpt lat="45.23955" lon="2.92763">
        <ele>983.067256</ele>
        <time>2022-04-23T02:50:31.768Z</time>
      </trkpt>
      <trkpt lat="45.23884" lon="2.928">
        <ele>981.966326</ele>
        <time>2022-04-23T02:50:41.994Z</time>
      </trkpt>
      <trkpt lat="45.23762" lon="2.9289">
        <ele>979.744401</ele>
        <time>2022-04-23T02:51:00.609Z</time>
      </trkpt>
      <trkpt lat="45.23727" lon="2.92898">
        <ele>979.17489</ele>
        <time>2022-04-23T02:51:05.354Z</time>
      </trkpt>
      <trkpt lat="45.23715" lon="2.92909">
        <ele>978.947389</ele>
        <time>2022-04-23T02:51:07.280Z</time>
      </trkpt>
      <trkpt lat="45.23699" lon="2.92945">
        <ele>978.508978</ele>
        <time>2022-04-23T02:51:11.404Z</time>
      </trkpt>
      <trkpt lat="45.2369" lon="2.92949">
        <ele>978.369089</ele>
        <time>2022-04-23T02:51:12.714Z</time>
      </trkpt>
      <trkpt lat="45.2368" lon="2.92948">
        <ele>978.223449</ele>
        <time>2022-04-23T02:51:14.120Z</time>
      </trkpt>
      <trkpt lat="45.23644" lon="2.92977">
        <ele>977.620277</ele>
        <time>2022-04-23T02:51:19.888Z</time>
      </trkpt>
      <trkpt lat="45.2359" lon="2.92993">
        <ele>976.831875</ele>
        <time>2022-04-23T02:51:27.409Z</time>
      </trkpt>
      <trkpt lat="45.23566" lon="2.93007">
        <ele>976.448804</ele>
        <time>2022-04-23T02:51:31.019Z</time>
      </trkpt>
      <trkpt lat="45.23548" lon="2.93026">
        <ele>976.157635</ele>
        <time>2022-04-23T02:51:34.022Z</time>
      </trkpt>
      <trkpt lat="45.23458" lon="2.93064">
        <ele>975.040767</ele>
        <time>2022-04-23T02:51:46.920Z</time>
      </trkpt>
      <trkpt lat="45.23368" lon="2.93152">
        <ele>974.217791</ele>
        <time>2022-04-23T02:52:02.780Z</time>
      </trkpt>
      <trkpt lat="45.23283" lon="2.93157">
        <ele>974.351188</ele>
        <time>2022-04-23T02:52:16.541Z</time>
      </trkpt>
      <trkpt lat="45.23241" lon="2.93151">
        <ele>974.417157</ele>
        <time>2022-04-23T02:52:24.193Z</time>
      </trkpt>
      <trkpt lat="45.23205" lon="2.93176">
        <ele>974.728096</ele>
        <time>2022-04-23T02:52:33.621Z</time>
      </trkpt>
      <trkpt lat="45.23177" lon="2.93184">
        <ele>975.084944</ele>
        <time>2022-04-23T02:52:39.332Z</time>
      </trkpt>
      <trkpt lat="45.23157" lon="2.93181">
        <ele>975.330728</ele>
        <time>2022-04-23T02:52:44.271Z</time>
      </trkpt>
      <trkpt lat="45.23106" lon="2.93156">
        <ele>976.009188</ele>
        <time>2022-04-23T02:52:54.404Z</time>
      </trkpt>
      <trkpt lat="45.2309" lon="2.93156">
        <ele>976.213491</ele>
        <time>2022-04-23T02:52:59.009Z</time>
      </trkpt>
      <trkpt lat="45.23069" lon="2.93223">
        <ele>976.814516</ele>
        <time>2022-04-23T02:53:14.343Z</time>
      </trkpt>
      <trkpt lat="45.23044" lon="2.93274">
        <ele>977.190301</ele>
        <time>2022-04-23T02:53:28.081Z</time>
      </trkpt>
      <trkpt lat="45.23041" lon="2.93291">
        <ele>977.295712</ele>
        <time>2022-04-23T02:53:32.617Z</time>
      </trkpt>
      <trkpt lat="45.23059" lon="2.93295">
        <ele>977.450718</ele>
        <time>2022-04-23T02:53:37.086Z</time>
      </trkpt>
      <trkpt lat="45.23068" lon="2.93305">
        <ele>977.555873</ele>
        <time>2022-04-23T02:53:41.528Z</time>
      </trkpt>
      <trkpt lat="45.23054" lon="2.93312">
        <ele>977.685865</ele>
        <time>2022-04-23T02:53:44.395Z</time>
      </trkpt>
      <trkpt lat="45.23038" lon="2.93326">
        <ele>977.846011</ele>
        <time>2022-04-23T02:53:49.369Z</time>
      </trkpt>
      <trkpt lat="45.22983" lon="2.93343">
        <ele>978.158505</ele>
        <time>2022-04-23T02:54:03.940Z</time>
      </trkpt>
      <trkpt lat="45.22931" lon="2.93312">
        <ele>977.629675</ele>
        <time>2022-04-23T02:54:18.085Z</time>
      </trkpt>
      <trkpt lat="45.22879" lon="2.93322">
        <ele>977.129695</ele>
        <time>2022-04-23T02:54:30.414Z</time>
      </trkpt>
      <trkpt lat="45.22861" lon="2.93327">
        <ele>976.952601</ele>
        <time>2022-04-23T02:54:34.281Z</time>
      </trkpt>
      <trkpt lat="45.22825" lon="2.93318">
        <ele>976.610886</ele>
        <time>2022-04-23T02:54:42.394Z</time>
      </trkpt>
      <trkpt lat="45.22793" lon="2.93334">
        <ele>976.126574</ele>
        <time>2022-04-23T02:54:50.099Z</time>
      </trkpt>
      <trkpt lat="45.22781" lon="2.93368">
        <ele>975.724967</ele>
        <time>2022-04-23T02:54:56.412Z</time>
      </trkpt>
      <trkpt lat="45.22776" lon="2.93369">
        <ele>975.652657</ele>
        <time>2022-04-23T02:54:57.300Z</time>
      </trkpt>
      <trkpt lat="45.22771" lon="2.93362">
        <ele>975.545492</ele>
        <time>2022-04-23T02:54:58.245Z</time>
      </trkpt>
      <trkpt lat="45.22753" lon="2.93394">
        <ele>975.101829</ele>
        <time>2022-04-23T02:55:02.196Z</time>
      </trkpt>
      <trkpt lat="45.22752" lon="2.93386">
        <ele>975.006066</ele>
        <time>2022-04-23T02:55:03.021Z</time>
      </trkpt>
      <trkpt lat="45.22745" lon="2.93353">
        <ele>974.64186</ele>
        <time>2022-04-23T02:55:06.613Z</time>
      </trkpt>
      <trkpt lat="45.22744" lon="2.93345">
        <ele>974.552948</ele>
        <time>2022-04-23T02:55:07.290Z</time>
      </trkpt>
      <trkpt lat="45.22706" lon="2.93339">
        <ele>973.972248</ele>
        <time>2022-04-23T02:55:12.228Z</time>
      </trkpt>
      <trkpt lat="45.22644" lon="2.93355">
        <ele>973.83082</ele>
        <time>2022-04-23T02:55:20.645Z</time>
      </trkpt>
      <trkpt lat="45.22636" lon="2.93353">
        <ele>973.832427</ele>
        <time>2022-04-23T02:55:22.013Z</time>
      </trkpt>
      <trkpt lat="45.22585" lon="2.93365">
        <ele>973.842689</ele>
        <time>2022-04-23T02:55:30.727Z</time>
      </trkpt>
      <trkpt lat="45.22534" lon="2.93357">
        <ele>973.852705</ele>
        <time>2022-04-23T02:55:39.412Z</time>
      </trkpt>
      <trkpt lat="45.22514" lon="2.93346">
        <ele>973.965172</ele>
        <time>2022-04-23T02:55:43.804Z</time>
      </trkpt>
      <trkpt lat="45.22441" lon="2.93288">
        <ele>975.430007</ele>
        <time>2022-04-23T02:56:01.021Z</time>
      </trkpt>
      <trkpt lat="45.22383" lon="2.93257">
        <ele>976.531469</ele>
        <time>2022-04-23T02:56:15.626Z</time>
      </trkpt>
      <trkpt lat="45.2237" lon="2.93242">
        <ele>976.82002</ele>
        <time>2022-04-23T02:56:20.268Z</time>
      </trkpt>
      <trkpt lat="45.22357" lon="2.93228">
        <ele>977.109514</ele>
        <time>2022-04-23T02:56:24.749Z</time>
      </trkpt>
      <trkpt lat="45.223" lon="2.93181">
        <ele>978.397795</ele>
        <time>2022-04-23T02:56:41.479Z</time>
      </trkpt>
      <trkpt lat="45.22277" lon="2.93156">
        <ele>978.943323</ele>
        <time>2022-04-23T02:56:47.838Z</time>
      </trkpt>
      <trkpt lat="45.2226" lon="2.93123">
        <ele>979.490526</ele>
        <time>2022-04-23T02:56:53.852Z</time>
      </trkpt>
      <trkpt lat="45.22252" lon="2.93096">
        <ele>979.893842</ele>
        <time>2022-04-23T02:56:58.450Z</time>
      </trkpt>
      <trkpt lat="45.22158" lon="2.93227">
        <ele>979.816379</ele>
        <time>2022-04-23T02:57:26.898Z</time>
      </trkpt>
      <trkpt lat="45.22148" lon="2.93234">
        <ele>979.737992</ele>
        <time>2022-04-23T02:57:28.946Z</time>
      </trkpt>
      <trkpt lat="45.2212" lon="2.93218">
        <ele>979.530884</ele>
        <time>2022-04-23T02:57:32.721Z</time>
      </trkpt>
      <trkpt lat="45.22057" lon="2.93158">
        <ele>977.470589</ele>
        <time>2022-04-23T02:57:41.483Z</time>
      </trkpt>
      <trkpt lat="45.2204" lon="2.9315">
        <ele>976.593244</ele>
        <time>2022-04-23T02:57:43.803Z</time>
      </trkpt>
      <trkpt lat="45.22018" lon="2.93183">
        <ele>975.079233</ele>
        <time>2022-04-23T02:57:47.431Z</time>
      </trkpt>
      <trkpt lat="45.2201" lon="2.93229">
        <ele>973.486776</ele>
        <time>2022-04-23T02:57:51.161Z</time>
      </trkpt>
      <trkpt lat="45.22003" lon="2.93312">
        <ele>970.648933</ele>
        <time>2022-04-23T02:57:57.764Z</time>
      </trkpt>
      <trkpt lat="45.22008" lon="2.93341">
        <ele>969.683777</ele>
        <time>2022-04-23T02:58:00.186Z</time>
      </trkpt>
      <trkpt lat="45.22003" lon="2.93354">
        <ele>969.230108</ele>
        <time>2022-04-23T02:58:01.232Z</time>
      </trkpt>
      <trkpt lat="45.21964" lon="2.93365">
        <ele>967.387798</ele>
        <time>2022-04-23T02:58:05.471Z</time>
      </trkpt>
      <trkpt lat="45.21942" lon="2.93379">
        <ele>966.291098</ele>
        <time>2022-04-23T02:58:08.117Z</time>
      </trkpt>
      <trkpt lat="45.21858" lon="2.93383">
        <ele>962.412176</ele>
        <time>2022-04-23T02:58:18.741Z</time>
      </trkpt>
      <trkpt lat="45.21844" lon="2.93396">
        <ele>962.087533</ele>
        <time>2022-04-23T02:58:20.673Z</time>
      </trkpt>
      <trkpt lat="45.21645" lon="2.93396">
        <ele>958.733633</ele>
        <time>2022-04-23T02:59:05.369Z</time>
      </trkpt>
      <trkpt lat="45.2155" lon="2.93402">
        <ele>957.839288</ele>
        <time>2022-04-23T02:59:28.077Z</time>
      </trkpt>
      <trkpt lat="45.21338" lon="2.93399">
        <ele>955.969034</ele>
        <time>2022-04-23T03:00:18.411Z</time>
      </trkpt>
      <trkpt lat="45.21268" lon="2.93403">
        <ele>955.19834</ele>
        <time>2022-04-23T03:00:34.919Z</time>
      </trkpt>
      <trkpt lat="45.21229" lon="2.93429">
        <ele>954.697769</ele>
        <time>2022-04-23T03:00:44.507Z</time>
      </trkpt>
      <trkpt lat="45.21182" lon="2.93437">
        <ele>954.138756</ele>
        <time>2022-04-23T03:00:55.404Z</time>
      </trkpt>
      <trkpt lat="45.21139" lon="2.93471">
        <ele>953.564597</ele>
        <time>2022-04-23T03:01:06.892Z</time>
      </trkpt>
      <trkpt lat="45.21123" lon="2.93477">
        <ele>953.377917</ele>
        <time>2022-04-23T03:01:10.505Z</time>
      </trkpt>
      <trkpt lat="45.21104" lon="2.93475">
        <ele>953.161939</ele>
        <time>2022-04-23T03:01:13.250Z</time>
      </trkpt>
      <trkpt lat="45.21078" lon="2.93491">
        <ele>952.842749</ele>
        <time>2022-04-23T03:01:16.963Z</time>
      </trkpt>
      <trkpt lat="45.21047" lon="2.935">
        <ele>952.481297</ele>
        <time>2022-04-23T03:01:21.219Z</time>
      </trkpt>
      <trkpt lat="45.20979" lon="2.93492">
        <ele>951.708308</ele>
        <time>2022-04-23T03:01:30.236Z</time>
      </trkpt>
      <trkpt lat="45.20898" lon="2.93455">
        <ele>950.82481</ele>
        <time>2022-04-23T03:01:41.979Z</time>
      </trkpt>
      <trkpt lat="45.20794" lon="2.93379">
        <ele>949.907008</ele>
        <time>2022-04-23T03:01:57.495Z</time>
      </trkpt>
      <trkpt lat="45.20739" lon="2.93355">
        <ele>950.247368</ele>
        <time>2022-04-23T03:02:05.198Z</time>
      </trkpt>
      <trkpt lat="45.2063" lon="2.93333">
        <ele>951.257455</ele>
        <time>2022-04-23T03:02:25.476Z</time>
      </trkpt>
      <trkpt lat="45.20618" lon="2.9333">
        <ele>952.111893</ele>
        <time>2022-04-23T03:02:30.225Z</time>
      </trkpt>
      <trkpt lat="45.20531" lon="2.93308">
        <ele>958.06585</ele>
        <time>2022-04-23T03:03:07.605Z</time>
      </trkpt>
      <trkpt lat="45.20508" lon="2.93284">
        <ele>959.992908</ele>
        <time>2022-04-23T03:03:20.149Z</time>
      </trkpt>
      <trkpt lat="45.20496" lon="2.93275">
        <ele>960.917049</ele>
        <time>2022-04-23T03:03:26.904Z</time>
      </trkpt>
      <trkpt lat="45.2051" lon="2.93229">
        <ele>963.337577</ele>
        <time>2022-04-23T03:03:47.982Z</time>
      </trkpt>
      <trkpt lat="45.20539" lon="2.93164">
        <ele>967.941572</ele>
        <time>2022-04-23T03:04:26.784Z</time>
      </trkpt>
      <trkpt lat="45.20537" lon="2.93124">
        <ele>970.318577</ele>
        <time>2022-04-23T03:04:45.778Z</time>
      </trkpt>
      <trkpt lat="45.20528" lon="2.93101">
        <ele>971.898961</ele>
        <time>2022-04-23T03:04:56.061Z</time>
      </trkpt>
      <trkpt lat="45.20518" lon="2.93045">
        <ele>975.321086</ele>
        <time>2022-04-23T03:05:19.674Z</time>
      </trkpt>
      <trkpt lat="45.20505" lon="2.9306">
        <ele>976.717738</ele>
        <time>2022-04-23T03:05:30.196Z</time>
      </trkpt>
      <trkpt lat="45.20498" lon="2.93071">
        <ele>977.625686</ele>
        <time>2022-04-23T03:05:32.992Z</time>
      </trkpt>
      <trkpt lat="45.20485" lon="2.93155">
        <ele>981.237774</ele>
        <time>2022-04-23T03:06:01.061Z</time>
      </trkpt>
      <trkpt lat="45.20468" lon="2.93181">
        <ele>982.652343</ele>
        <time>2022-04-23T03:06:10.470Z</time>
      </trkpt>
      <trkpt lat="45.20428" lon="2.9323">
        <ele>985.587108</ele>
        <time>2022-04-23T03:06:37.307Z</time>
      </trkpt>
      <trkpt lat="45.20374" lon="2.93258">
        <ele>989.099099</ele>
        <time>2022-04-23T03:07:02.841Z</time>
      </trkpt>
      <trkpt lat="45.20304" lon="2.93266">
        <ele>995.683442</ele>
        <time>2022-04-23T03:07:42.891Z</time>
      </trkpt>
      <trkpt lat="45.2022" lon="2.93264">
        <ele>1003.575076</ele>
        <time>2022-04-23T03:08:40.520Z</time>
      </trkpt>
      <trkpt lat="45.20029" lon="2.93219">
        <ele>1025.952374</ele>
        <time>2022-04-23T03:11:05.356Z</time>
      </trkpt>
      <trkpt lat="45.19961" lon="2.93241">
        <ele>1031.49734</ele>
        <time>2022-04-23T03:11:49.849Z</time>
      </trkpt>
      <trkpt lat="45.19795" lon="2.93324">
        <ele>1042.747242</ele>
        <time>2022-04-23T03:13:18.251Z</time>
      </trkpt>
      <trkpt lat="45.19721" lon="2.93307">
        <ele>1045.704303</ele>
        <time>2022-04-23T03:13:47.253Z</time>
      </trkpt>
      <trkpt lat="45.19615" lon="2.93228">
        <ele>1048.020424</ele>
        <time>2022-04-23T03:14:26.688Z</time>
      </trkpt>
      <trkpt lat="45.19508" lon="2.93157">
        <ele>1048.688885</ele>
        <time>2022-04-23T03:14:57.468Z</time>
      </trkpt>
      <trkpt lat="45.19462" lon="2.93146">
        <ele>1048.152907</ele>
        <time>2022-04-23T03:15:08.154Z</time>
      </trkpt>
      <trkpt lat="45.1914" lon="2.93004">
        <ele>1045.072423</ele>
        <time>2022-04-23T03:16:24.156Z</time>
      </trkpt>
      <trkpt lat="45.19131" lon="2.92996">
        <ele>1045.292252</ele>
        <time>2022-04-23T03:16:27.278Z</time>
      </trkpt>
      <trkpt lat="45.19066" lon="2.9299">
        <ele>1046.572005</ele>
        <time>2022-04-23T03:16:42.781Z</time>
      </trkpt>
      <trkpt lat="45.19059" lon="2.92995">
        <ele>1046.728705</ele>
        <time>2022-04-23T03:16:45.328Z</time>
      </trkpt>
      <trkpt lat="45.19041" lon="2.93039">
        <ele>1047.436546</ele>
        <time>2022-04-23T03:16:55.833Z</time>
      </trkpt>
      <trkpt lat="45.19053" lon="2.93063">
        <ele>1047.840913</ele>
        <time>2022-04-23T03:17:04.103Z</time>
      </trkpt>
      <trkpt lat="45.19064" lon="2.93099">
        <ele>1049.070937</ele>
        <time>2022-04-23T03:17:16.956Z</time>
      </trkpt>
      <trkpt lat="45.19068" lon="2.93188">
        <ele>1051.862906</ele>
        <time>2022-04-23T03:17:44.970Z</time>
      </trkpt>
      <trkpt lat="45.19065" lon="2.9328">
        <ele>1054.80382</ele>
        <time>2022-04-23T03:18:13.308Z</time>
      </trkpt>
      <trkpt lat="45.19071" lon="2.93326">
        <ele>1056.222993</ele>
        <time>2022-04-23T03:18:27.090Z</time>
      </trkpt>
      <trkpt lat="45.19119" lon="2.93491">
        <ele>1061.061726</ele>
        <time>2022-04-23T03:19:19.878Z</time>
      </trkpt>
      <trkpt lat="45.19135" lon="2.93531">
        <ele>1062.311103</ele>
        <time>2022-04-23T03:19:32.696Z</time>
      </trkpt>
      <trkpt lat="45.19186" lon="2.93623">
        <ele>1064.408918</ele>
        <time>2022-04-23T03:20:02.884Z</time>
      </trkpt>
      <trkpt lat="45.19208" lon="2.93683">
        <ele>1065.49706</ele>
        <time>2022-04-23T03:20:19.064Z</time>
      </trkpt>
      <trkpt lat="45.19213" lon="2.93728">
        <ele>1066.240523</ele>
        <time>2022-04-23T03:20:29.696Z</time>
      </trkpt>
      <trkpt lat="45.19211" lon="2.93777">
        <ele>1066.978743</ele>
        <time>2022-04-23T03:20:40.717Z</time>
      </trkpt>
      <trkpt lat="45.192" lon="2.93842">
        <ele>1067.224106</ele>
        <time>2022-04-23T03:20:55.303Z</time>
      </trkpt>
      <trkpt lat="45.19179" lon="2.939">
        <ele>1067.464772</ele>
        <time>2022-04-23T03:21:08.998Z</time>
      </trkpt>
      <trkpt lat="45.19099" lon="2.9403">
        <ele>1067.641432</ele>
        <time>2022-04-23T03:21:39.054Z</time>
      </trkpt>
      <trkpt lat="45.1901" lon="2.94124">
        <ele>1066.877454</ele>
        <time>2022-04-23T03:22:04.808Z</time>
      </trkpt>
      <trkpt lat="45.18971" lon="2.94147">
        <ele>1066.771447</ele>
        <time>2022-04-23T03:22:15.121Z</time>
      </trkpt>
      <trkpt lat="45.18926" lon="2.9417">
        <ele>1067.218135</ele>
        <time>2022-04-23T03:22:27.403Z</time>
      </trkpt>
      <trkpt lat="45.18765" lon="2.94217">
        <ele>1068.892457</ele>
        <time>2022-04-23T03:23:19.395Z</time>
      </trkpt>
      <trkpt lat="45.18691" lon="2.94285">
        <ele>1069.995411</ele>
        <time>2022-04-23T03:23:47.859Z</time>
      </trkpt>
      <trkpt lat="45.1866" lon="2.943">
        <ele>1070.395411</ele>
        <time>2022-04-23T03:23:57.635Z</time>
      </trkpt>
      <trkpt lat="45.18492" lon="2.94272">
        <ele>1069.438964</ele>
        <time>2022-04-23T03:24:39.429Z</time>
      </trkpt>
      <trkpt lat="45.18461" lon="2.94277">
        <ele>1069.027528</ele>
        <time>2022-04-23T03:24:43.459Z</time>
      </trkpt>
      <trkpt lat="45.18427" lon="2.94255">
        <ele>1067.391638</ele>
        <time>2022-04-23T03:24:48.013Z</time>
      </trkpt>
      <trkpt lat="45.18411" lon="2.94256">
        <ele>1066.694894</ele>
        <time>2022-04-23T03:24:49.866Z</time>
      </trkpt>
      <trkpt lat="45.18404" lon="2.94254">
        <ele>1066.396283</ele>
        <time>2022-04-23T03:24:50.649Z</time>
      </trkpt>
      <trkpt lat="45.18388" lon="2.94246">
        <ele>1065.677467</ele>
        <time>2022-04-23T03:24:52.551Z</time>
      </trkpt>
      <trkpt lat="45.18363" lon="2.94217">
        <ele>1064.255089</ele>
        <time>2022-04-23T03:24:56.262Z</time>
      </trkpt>
      <trkpt lat="45.18313" lon="2.94173">
        <ele>1061.700469</ele>
        <time>2022-04-23T03:25:02.862Z</time>
      </trkpt>
      <trkpt lat="45.18287" lon="2.94122">
        <ele>1059.774961</ele>
        <time>2022-04-23T03:25:07.841Z</time>
      </trkpt>
      <trkpt lat="45.18259" lon="2.94036">
        <ele>1056.883099</ele>
        <time>2022-04-23T03:25:15.476Z</time>
      </trkpt>
      <trkpt lat="45.18248" lon="2.93902">
        <ele>1053.393023</ele>
        <time>2022-04-23T03:25:26.909Z</time>
      </trkpt>
      <trkpt lat="45.18227" lon="2.93759">
        <ele>1051.971206</ele>
        <time>2022-04-23T03:25:40.951Z</time>
      </trkpt>
      <trkpt lat="45.18194" lon="2.93685">
        <ele>1051.224396</ele>
        <time>2022-04-23T03:25:50.575Z</time>
      </trkpt>
      <trkpt lat="45.18183" lon="2.93671">
        <ele>1051.341396</ele>
        <time>2022-04-23T03:25:53.285Z</time>
      </trkpt>
      <trkpt lat="45.18132" lon="2.93645">
        <ele>1051.760801</ele>
        <time>2022-04-23T03:26:04.083Z</time>
      </trkpt>
      <trkpt lat="45.18071" lon="2.93591">
        <ele>1052.309452</ele>
        <time>2022-04-23T03:26:18.928Z</time>
      </trkpt>
      <trkpt lat="45.18015" lon="2.93557">
        <ele>1052.499694</ele>
        <time>2022-04-23T03:26:31.013Z</time>
      </trkpt>
      <trkpt lat="45.17992" lon="2.93548">
        <ele>1052.429833</ele>
        <time>2022-04-23T03:26:36.333Z</time>
      </trkpt>
      <trkpt lat="45.17996" lon="2.93539">
        <ele>1052.40664</ele>
        <time>2022-04-23T03:26:37.458Z</time>
      </trkpt>
      <trkpt lat="45.18059" lon="2.93492">
        <ele>1052.204304</ele>
        <time>2022-04-23T03:26:48.553Z</time>
      </trkpt>
      <trkpt lat="45.1808" lon="2.93439">
        <ele>1052.080394</ele>
        <time>2022-04-23T03:26:54.693Z</time>
      </trkpt>
      <trkpt lat="45.18097" lon="2.93369">
        <ele>1050.568691</ele>
        <time>2022-04-23T03:27:01.586Z</time>
      </trkpt>
      <trkpt lat="45.18115" lon="2.9333">
        <ele>1049.489515</ele>
        <time>2022-04-23T03:27:05.644Z</time>
      </trkpt>
      <trkpt lat="45.18049" lon="2.934">
        <ele>1046.781493</ele>
        <time>2022-04-23T03:27:14.862Z</time>
      </trkpt>
      <trkpt lat="45.18018" lon="2.93413">
        <ele>1045.428729</ele>
        <time>2022-04-23T03:27:18.290Z</time>
      </trkpt>
      <trkpt lat="45.17995" lon="2.93411">
        <ele>1044.096729</ele>
        <time>2022-04-23T03:27:20.719Z</time>
      </trkpt>
      <trkpt lat="45.18041" lon="2.93331">
        <ele>1039.935378</ele>
        <time>2022-04-23T03:27:28.671Z</time>
      </trkpt>
      <trkpt lat="45.18037" lon="2.93213">
        <ele>1035.581679</ele>
        <time>2022-04-23T03:27:37.831Z</time>
      </trkpt>
      <trkpt lat="45.18036" lon="2.932">
        <ele>1035.346941</ele>
        <time>2022-04-23T03:27:38.821Z</time>
      </trkpt>
      <trkpt lat="45.18015" lon="2.93157">
        <ele>1034.424983</ele>
        <time>2022-04-23T03:27:43.039Z</time>
      </trkpt>
      <trkpt lat="45.179" lon="2.93022">
        <ele>1032.745479</ele>
        <time>2022-04-23T03:28:03.481Z</time>
      </trkpt>
      <trkpt lat="45.17859" lon="2.92936">
        <ele>1036.333868</ele>
        <time>2022-04-23T03:28:29.546Z</time>
      </trkpt>
      <trkpt lat="45.17822" lon="2.92889">
        <ele>1038.810729</ele>
        <time>2022-04-23T03:28:52.844Z</time>
      </trkpt>
      <trkpt lat="45.17767" lon="2.92743">
        <ele>1047.712365</ele>
        <time>2022-04-23T03:29:52.038Z</time>
      </trkpt>
      <trkpt lat="45.1775" lon="2.92717">
        <ele>1049.873995</ele>
        <time>2022-04-23T03:30:05.228Z</time>
      </trkpt>
      <trkpt lat="45.17721" lon="2.92705">
        <ele>1052.431438</ele>
        <time>2022-04-23T03:30:21.046Z</time>
      </trkpt>
      <trkpt lat="45.17705" lon="2.92685">
        <ele>1054.236784</ele>
        <time>2022-04-23T03:30:31.795Z</time>
      </trkpt>
      <trkpt lat="45.177" lon="2.92656">
        <ele>1055.886818</ele>
        <time>2022-04-23T03:30:42.154Z</time>
      </trkpt>
      <trkpt lat="45.17661" lon="2.92537">
        <ele>1061.60581</ele>
        <time>2022-04-23T03:31:24.231Z</time>
      </trkpt>
      <trkpt lat="45.17638" lon="2.92401">
        <ele>1067.012446</ele>
        <time>2022-04-23T03:31:58.577Z</time>
      </trkpt>
      <trkpt lat="45.17611" lon="2.92316">
        <ele>1068.397586</ele>
        <time>2022-04-23T03:32:16.746Z</time>
      </trkpt>
      <trkpt lat="45.17607" lon="2.92275">
        <ele>1069.020785</ele>
        <time>2022-04-23T03:32:23.114Z</time>
      </trkpt>
      <trkpt lat="45.1763" lon="2.92073">
        <ele>1071.874025</ele>
        <time>2022-04-23T03:32:50.401Z</time>
      </trkpt>
      <trkpt lat="45.17632" lon="2.91992">
        <ele>1072.942573</ele>
        <time>2022-04-23T03:33:03.629Z</time>
      </trkpt>
      <trkpt lat="45.17578" lon="2.91756">
        <ele>1079.207174</ele>
        <time>2022-04-23T03:33:58.784Z</time>
      </trkpt>
      <trkpt lat="45.17545" lon="2.91704">
        <ele>1081.281525</ele>
        <time>2022-04-23T03:34:14.921Z</time>
      </trkpt>
      <trkpt lat="45.17479" lon="2.9166">
        <ele>1085.970115</ele>
        <time>2022-04-23T03:34:45.837Z</time>
      </trkpt>
      <trkpt lat="45.17457" lon="2.91637">
        <ele>1087.757161</ele>
        <time>2022-04-23T03:34:58.087Z</time>
      </trkpt>
      <trkpt lat="45.17441" lon="2.91608">
        <ele>1089.445318</ele>
        <time>2022-04-23T03:35:09.572Z</time>
      </trkpt>
      <trkpt lat="45.17438" lon="2.91592">
        <ele>1090.235264</ele>
        <time>2022-04-23T03:35:15.199Z</time>
      </trkpt>
      <trkpt lat="45.17369" lon="2.91551">
        <ele>1095.109793</ele>
        <time>2022-04-23T03:35:47.466Z</time>
      </trkpt>
      <trkpt lat="45.17317" lon="2.9157">
        <ele>1098.550438</ele>
        <time>2022-04-23T03:36:10.943Z</time>
      </trkpt>
      <trkpt lat="45.17293" lon="2.91589">
        <ele>1100.333391</ele>
        <time>2022-04-23T03:36:23.829Z</time>
      </trkpt>
      <trkpt lat="45.17285" lon="2.9162">
        <ele>1101.843939</ele>
        <time>2022-04-23T03:36:34.360Z</time>
      </trkpt>
      <trkpt lat="45.17285" lon="2.91634">
        <ele>1102.495085</ele>
        <time>2022-04-23T03:36:38.485Z</time>
      </trkpt>
      <trkpt lat="45.17298" lon="2.91707">
        <ele>1105.631134</ele>
        <time>2022-04-23T03:36:56.551Z</time>
      </trkpt>
      <trkpt lat="45.17308" lon="2.9182">
        <ele>1109.560686</ele>
        <time>2022-04-23T03:37:25.451Z</time>
      </trkpt>
      <trkpt lat="45.17298" lon="2.91831">
        <ele>1110.170907</ele>
        <time>2022-04-23T03:37:29.937Z</time>
      </trkpt>
      <trkpt lat="45.17262" lon="2.91835">
        <ele>1111.913251</ele>
        <time>2022-04-23T03:37:42.650Z</time>
      </trkpt>
      <trkpt lat="45.17208" lon="2.91852">
        <ele>1114.554495</ele>
        <time>2022-04-23T03:38:01.888Z</time>
      </trkpt>
      <trkpt lat="45.17181" lon="2.91852">
        <ele>1115.796296</ele>
        <time>2022-04-23T03:38:11.451Z</time>
      </trkpt>
      <trkpt lat="45.17142" lon="2.91824">
        <ele>1117.776415</ele>
        <time>2022-04-23T03:38:26.345Z</time>
      </trkpt>
      <trkpt lat="45.17124" lon="2.91804">
        <ele>1118.800652</ele>
        <time>2022-04-23T03:38:34.289Z</time>
      </trkpt>
      <trkpt lat="45.17098" lon="2.91752">
        <ele>1120.839702</ele>
        <time>2022-04-23T03:38:50.530Z</time>
      </trkpt>
      <trkpt lat="45.17072" lon="2.91715">
        <ele>1122.44268</ele>
        <time>2022-04-23T03:39:02.497Z</time>
      </trkpt>
      <trkpt lat="45.17011" lon="2.91596">
        <ele>1126.629629</ele>
        <time>2022-04-23T03:39:34.628Z</time>
      </trkpt>
      <trkpt lat="45.17003" lon="2.91576">
        <ele>1127.268041</ele>
        <time>2022-04-23T03:39:39.891Z</time>
      </trkpt>
      <trkpt lat="45.16998" lon="2.91515">
        <ele>1129.040767</ele>
        <time>2022-04-23T03:39:54.837Z</time>
      </trkpt>
      <trkpt lat="45.16973" lon="2.91452">
        <ele>1130.949835</ele>
        <time>2022-04-23T03:40:11.274Z</time>
      </trkpt>
      <trkpt lat="45.16952" lon="2.91425">
        <ele>1132.029212</ele>
        <time>2022-04-23T03:40:20.521Z</time>
      </trkpt>
      <trkpt lat="45.16909" lon="2.91397">
        <ele>1133.801018</ele>
        <time>2022-04-23T03:40:35.218Z</time>
      </trkpt>
      <trkpt lat="45.16887" lon="2.9137">
        <ele>1134.923544</ele>
        <time>2022-04-23T03:40:43.937Z</time>
      </trkpt>
      <trkpt lat="45.16862" lon="2.91328">
        <ele>1136.346992</ele>
        <time>2022-04-23T03:40:55.272Z</time>
      </trkpt>
      <trkpt lat="45.16828" lon="2.91292">
        <ele>1137.813591</ele>
        <time>2022-04-23T03:41:07.533Z</time>
      </trkpt>
      <trkpt lat="45.16858" lon="2.91194">
        <ele>1140.44921</ele>
        <time>2022-04-23T03:41:36.517Z</time>
      </trkpt>
      <trkpt lat="45.16818" lon="2.90789">
        <ele>1150.27916</ele>
        <time>2022-04-23T03:43:35.476Z</time>
      </trkpt>
      <trkpt lat="45.16789" lon="2.90669">
        <ele>1151.965573</ele>
        <time>2022-04-23T03:44:03.638Z</time>
      </trkpt>
      <trkpt lat="45.16768" lon="2.90614">
        <ele>1152.206188</ele>
        <time>2022-04-23T03:44:14.675Z</time>
      </trkpt>
      <trkpt lat="45.16736" lon="2.90524">
        <ele>1150.682415</ele>
        <time>2022-04-23T03:44:30.676Z</time>
      </trkpt>
      <trkpt lat="45.16708" lon="2.90462">
        <ele>1149.577539</ele>
        <time>2022-04-23T03:44:41.579Z</time>
      </trkpt>
      <trkpt lat="45.1661" lon="2.90343">
        <ele>1146.53973</ele>
        <time>2022-04-23T03:45:07.765Z</time>
      </trkpt>
      <trkpt lat="45.16556" lon="2.90287">
        <ele>1144.919162</ele>
        <time>2022-04-23T03:45:22.354Z</time>
      </trkpt>
      <trkpt lat="45.16552" lon="2.90248">
        <ele>1144.298046</ele>
        <time>2022-04-23T03:45:26.146Z</time>
      </trkpt>
      <trkpt lat="45.16523" lon="2.90125">
        <ele>1145.173884</ele>
        <time>2022-04-23T03:45:40.125Z</time>
      </trkpt>
      <trkpt lat="45.16517" lon="2.90105">
        <ele>1145.317063</ele>
        <time>2022-04-23T03:45:43.350Z</time>
      </trkpt>
      <trkpt lat="45.16488" lon="2.90053">
        <ele>1145.761739</ele>
        <time>2022-04-23T03:45:55.449Z</time>
      </trkpt>
      <trkpt lat="45.16478" lon="2.9">
        <ele>1146.395848</ele>
        <time>2022-04-23T03:46:05.502Z</time>
      </trkpt>
      <trkpt lat="45.16479" lon="2.89881">
        <ele>1148.841874</ele>
        <time>2022-04-23T03:46:25.687Z</time>
      </trkpt>
      <trkpt lat="45.16486" lon="2.89789">
        <ele>1150.718777</ele>
        <time>2022-04-23T03:46:43.602Z</time>
      </trkpt>
      <trkpt lat="45.16506" lon="2.89704">
        <ele>1153.613237</ele>
        <time>2022-04-23T03:47:04.421Z</time>
      </trkpt>
      <trkpt lat="45.16509" lon="2.89671">
        <ele>1154.807865</ele>
        <time>2022-04-23T03:47:12.730Z</time>
      </trkpt>
      <trkpt lat="45.16505" lon="2.89656">
        <ele>1155.421966</ele>
        <time>2022-04-23T03:47:17.095Z</time>
      </trkpt>
      <trkpt lat="45.16538" lon="2.89609">
        <ele>1157.833195</ele>
        <time>2022-04-23T03:47:35.057Z</time>
      </trkpt>
      <trkpt lat="45.16543" lon="2.89579">
        <ele>1158.980188</ele>
        <time>2022-04-23T03:47:43.757Z</time>
      </trkpt>
      <trkpt lat="45.16502" lon="2.89528">
        <ele>1161.730451</ele>
        <time>2022-04-23T03:48:07.845Z</time>
      </trkpt>
      <trkpt lat="45.16509" lon="2.89502">
        <ele>1162.688879</ele>
        <time>2022-04-23T03:48:15.887Z</time>
      </trkpt>
      <trkpt lat="45.16532" lon="2.8947">
        <ele>1164.265851</ele>
        <time>2022-04-23T03:48:28.209Z</time>
      </trkpt>
      <trkpt lat="45.1655" lon="2.89421">
        <ele>1166.179193</ele>
        <time>2022-04-23T03:48:42.046Z</time>
      </trkpt>
      <trkpt lat="45.16564" lon="2.89397">
        <ele>1167.254537</ele>
        <time>2022-04-23T03:48:49.093Z</time>
      </trkpt>
      <trkpt lat="45.16538" lon="2.89328">
        <ele>1169.754592</ele>
        <time>2022-04-23T03:49:05.776Z</time>
      </trkpt>
      <trkpt lat="45.16514" lon="2.89176">
        <ele>1173.35726</ele>
        <time>2022-04-23T03:49:34.550Z</time>
      </trkpt>
      <trkpt lat="45.16483" lon="2.8909">
        <ele>1175.859337</ele>
        <time>2022-04-23T03:49:54.498Z</time>
      </trkpt>
      <trkpt lat="45.16472" lon="2.89074">
        <ele>1176.647069</ele>
        <time>2022-04-23T03:49:59.054Z</time>
      </trkpt>
      <trkpt lat="45.16265" lon="2.88866">
        <ele>1190.25087</ele>
        <time>2022-04-23T03:51:37.063Z</time>
      </trkpt>
      <trkpt lat="45.16264" lon="2.88678">
        <ele>1196.589452</ele>
        <time>2022-04-23T03:52:37.240Z</time>
      </trkpt>
      <trkpt lat="45.16255" lon="2.88641">
        <ele>1197.633015</ele>
        <time>2022-04-23T03:52:48.174Z</time>
      </trkpt>
      <trkpt lat="45.1626" lon="2.88597">
        <ele>1198.866156</ele>
        <time>2022-04-23T03:53:00.261Z</time>
      </trkpt>
      <trkpt lat="45.16251" lon="2.88554">
        <ele>1200.073351</ele>
        <time>2022-04-23T03:53:12.118Z</time>
      </trkpt>
      <trkpt lat="45.16251" lon="2.88513">
        <ele>1201.173093</ele>
        <time>2022-04-23T03:53:22.826Z</time>
      </trkpt>
      <trkpt lat="45.16239" lon="2.88453">
        <ele>1203.010756</ele>
        <time>2022-04-23T03:53:40.155Z</time>
      </trkpt>
      <trkpt lat="45.16256" lon="2.88449">
        <ele>1203.727583</ele>
        <time>2022-04-23T03:53:47.283Z</time>
      </trkpt>
      <trkpt lat="45.16276" lon="2.88466">
        <ele>1204.730555</ele>
        <time>2022-04-23T03:53:56.958Z</time>
      </trkpt>
      <trkpt lat="45.16297" lon="2.88467">
        <ele>1205.627479</ele>
        <time>2022-04-23T03:54:05.459Z</time>
      </trkpt>
      <trkpt lat="45.16333" lon="2.88436">
        <ele>1207.423819</ele>
        <time>2022-04-23T03:54:22.981Z</time>
      </trkpt>
      <trkpt lat="45.16443" lon="2.88082">
        <ele>1221.603137</ele>
        <time>2022-04-23T03:56:35.567Z</time>
      </trkpt>
      <trkpt lat="45.16508" lon="2.87997">
        <ele>1225.375937</ele>
        <time>2022-04-23T03:57:12.221Z</time>
      </trkpt>
      <trkpt lat="45.16841" lon="2.87806">
        <ele>1235.206213</ele>
        <time>2022-04-23T03:59:23.747Z</time>
      </trkpt>
      <trkpt lat="45.16935" lon="2.87823">
        <ele>1235.62632</ele>
        <time>2022-04-23T03:59:49.501Z</time>
      </trkpt>
      <trkpt lat="45.17135" lon="2.87845">
        <ele>1233.760478</ele>
        <time>2022-04-23T04:00:35.063Z</time>
      </trkpt>
      <trkpt lat="45.17149" lon="2.87564">
        <ele>1231.073603</ele>
        <time>2022-04-23T04:01:01.189Z</time>
      </trkpt>
      <trkpt lat="45.17185" lon="2.87349">
        <ele>1228.403229</ele>
        <time>2022-04-23T04:01:21.244Z</time>
      </trkpt>
      <trkpt lat="45.1711" lon="2.87054">
        <ele>1223.813273</ele>
        <time>2022-04-23T04:01:47.904Z</time>
      </trkpt>
      <trkpt lat="45.17117" lon="2.86993">
        <ele>1222.91899</ele>
        <time>2022-04-23T04:01:53.179Z</time>
      </trkpt>
      <trkpt lat="45.17159" lon="2.868">
        <ele>1222.06334</ele>
        <time>2022-04-23T04:02:12.573Z</time>
      </trkpt>
      <trkpt lat="45.1715" lon="2.86787">
        <ele>1222.024079</ele>
        <time>2022-04-23T04:02:15.865Z</time>
      </trkpt>
      <trkpt lat="45.17142" lon="2.8673">
        <ele>1221.894265</ele>
        <time>2022-04-23T04:02:27.240Z</time>
      </trkpt>
      <trkpt lat="45.17133" lon="2.86665">
        <ele>1222.699801</ele>
        <time>2022-04-23T04:02:41.897Z</time>
      </trkpt>
      <trkpt lat="45.17073" lon="2.86446">
        <ele>1226.233985</ele>
        <time>2022-04-23T04:03:40.360Z</time>
      </trkpt>
      <trkpt lat="45.1707" lon="2.86324">
        <ele>1228.330517</ele>
        <time>2022-04-23T04:04:11.156Z</time>
      </trkpt>
      <trkpt lat="45.1707" lon="2.863">
        <ele>1228.748619</ele>
        <time>2022-04-23T04:04:17.152Z</time>
      </trkpt>
      <trkpt lat="45.17021" lon="2.85971">
        <ele>1233.787416</ele>
        <time>2022-04-23T04:05:37.749Z</time>
      </trkpt>
      <trkpt lat="45.17018" lon="2.85805">
        <ele>1235.237235</ele>
        <time>2022-04-23T04:06:14.041Z</time>
      </trkpt>
      <trkpt lat="45.1701" lon="2.85774">
        <ele>1235.522015</ele>
        <time>2022-04-23T04:06:20.792Z</time>
      </trkpt>
      <trkpt lat="45.16979" lon="2.85704">
        <ele>1236.05432</ele>
        <time>2022-04-23T04:06:36.936Z</time>
      </trkpt>
      <trkpt lat="45.16956" lon="2.85635">
        <ele>1236.326978</ele>
        <time>2022-04-23T04:06:51.829Z</time>
      </trkpt>
      <trkpt lat="45.16911" lon="2.85527">
        <ele>1236.777401</ele>
        <time>2022-04-23T04:07:15.939Z</time>
      </trkpt>
      <trkpt lat="45.16835" lon="2.85383">
        <ele>1237.185855</ele>
        <time>2022-04-23T04:07:50.011Z</time>
      </trkpt>
      <trkpt lat="45.16738" lon="2.85234">
        <ele>1237.006696</ele>
        <time>2022-04-23T04:08:27.317Z</time>
      </trkpt>
      <trkpt lat="45.16696" lon="2.85158">
        <ele>1236.676598</ele>
        <time>2022-04-23T04:08:43.823Z</time>
      </trkpt>
      <trkpt lat="45.16588" lon="2.85004">
        <ele>1233.911933</ele>
        <time>2022-04-23T04:09:17.927Z</time>
      </trkpt>
      <trkpt lat="45.16561" lon="2.84862">
        <ele>1230.956959</ele>
        <time>2022-04-23T04:09:39.312Z</time>
      </trkpt>
      <trkpt lat="45.16282" lon="2.84404">
        <ele>1216.975258</ele>
        <time>2022-04-23T04:11:04.832Z</time>
      </trkpt>
      <trkpt lat="45.16283" lon="2.8439">
        <ele>1216.796214</ele>
        <time>2022-04-23T04:11:07.650Z</time>
      </trkpt>
      <trkpt lat="45.16262" lon="2.84383">
        <ele>1216.422117</ele>
        <time>2022-04-23T04:11:13.781Z</time>
      </trkpt>
      <trkpt lat="45.16147" lon="2.84356">
        <ele>1217.353705</ele>
        <time>2022-04-23T04:11:52.835Z</time>
      </trkpt>
      <trkpt lat="45.16087" lon="2.84366">
        <ele>1218.616599</ele>
        <time>2022-04-23T04:12:15.432Z</time>
      </trkpt>
      <trkpt lat="45.16037" lon="2.84389">
        <ele>1219.523392</ele>
        <time>2022-04-23T04:12:32.672Z</time>
      </trkpt>
      <trkpt lat="45.16024" lon="2.84383">
        <ele>1219.585598</ele>
        <time>2022-04-23T04:12:36.586Z</time>
      </trkpt>
      <trkpt lat="45.16001" lon="2.84342">
        <ele>1219.76003</ele>
        <time>2022-04-23T04:12:46.861Z</time>
      </trkpt>
      <trkpt lat="45.15964" lon="2.84322">
        <ele>1219.950534</ele>
        <time>2022-04-23T04:12:57.267Z</time>
      </trkpt>
      <trkpt lat="45.15888" lon="2.84294">
        <ele>1220.325052</ele>
        <time>2022-04-23T04:13:16.936Z</time>
      </trkpt>
      <trkpt lat="45.15854" lon="2.84232">
        <ele>1220.334981</ele>
        <time>2022-04-23T04:13:31.265Z</time>
      </trkpt>
      <trkpt lat="45.15827" lon="2.84215">
        <ele>1220.338962</ele>
        <time>2022-04-23T04:13:38.823Z</time>
      </trkpt>
      <trkpt lat="45.15803" lon="2.84218">
        <ele>1220.342299</ele>
        <time>2022-04-23T04:13:45.202Z</time>
      </trkpt>
      <trkpt lat="45.15767" lon="2.84238">
        <ele>1220.347637</ele>
        <time>2022-04-23T04:13:55.287Z</time>
      </trkpt>
      <trkpt lat="45.15756" lon="2.84232">
        <ele>1220.349238</ele>
        <time>2022-04-23T04:13:58.303Z</time>
      </trkpt>
      <trkpt lat="45.15748" lon="2.84218">
        <ele>1220.35105</ele>
        <time>2022-04-23T04:14:01.660Z</time>
      </trkpt>
      <trkpt lat="45.15742" lon="2.84194">
        <ele>1220.33398</ele>
        <time>2022-04-23T04:14:06.126Z</time>
      </trkpt>
      <trkpt lat="45.15749" lon="2.84081">
        <ele>1220.19455</ele>
        <time>2022-04-23T04:14:25.931Z</time>
      </trkpt>
      <trkpt lat="45.15771" lon="2.83969">
        <ele>1220.051699</ele>
        <time>2022-04-23T04:14:46.211Z</time>
      </trkpt>
      <trkpt lat="45.15772" lon="2.8394">
        <ele>1220.242206</ele>
        <time>2022-04-23T04:14:51.234Z</time>
      </trkpt>
      <trkpt lat="45.15747" lon="2.83873">
        <ele>1221.102486</ele>
        <time>2022-04-23T04:15:05.601Z</time>
      </trkpt>
      <trkpt lat="45.15729" lon="2.83852">
        <ele>1221.482391</ele>
        <time>2022-04-23T04:15:12.349Z</time>
      </trkpt>
      <trkpt lat="45.1569" lon="2.8385">
        <ele>1222.114784</ele>
        <time>2022-04-23T04:15:24.655Z</time>
      </trkpt>
      <trkpt lat="45.15673" lon="2.8383">
        <ele>1222.461015</ele>
        <time>2022-04-23T04:15:32.122Z</time>
      </trkpt>
      <trkpt lat="45.15639" lon="2.83744">
        <ele>1225.023779</ele>
        <time>2022-04-23T04:16:01.848Z</time>
      </trkpt>
      <trkpt lat="45.15626" lon="2.83683">
        <ele>1227.332787</ele>
        <time>2022-04-23T04:16:23.233Z</time>
      </trkpt>
      <trkpt lat="45.15591" lon="2.83634">
        <ele>1229.877371</ele>
        <time>2022-04-23T04:16:47.682Z</time>
      </trkpt>
      <trkpt lat="45.15568" lon="2.83614">
        <ele>1231.252147</ele>
        <time>2022-04-23T04:17:00.856Z</time>
      </trkpt>
      <trkpt lat="45.15549" lon="2.83613">
        <ele>1232.221518</ele>
        <time>2022-04-23T04:17:09.905Z</time>
      </trkpt>
      <trkpt lat="45.15492" lon="2.8363">
        <ele>1233.985022</ele>
        <time>2022-04-23T04:17:36.536Z</time>
      </trkpt>
      <trkpt lat="45.15451" lon="2.83595">
        <ele>1235.448638</ele>
        <time>2022-04-23T04:17:56.349Z</time>
      </trkpt>
      <trkpt lat="45.15447" lon="2.83567">
        <ele>1236.05218</ele>
        <time>2022-04-23T04:18:03.460Z</time>
      </trkpt>
      <trkpt lat="45.15453" lon="2.83533">
        <ele>1236.803988</ele>
        <time>2022-04-23T04:18:10.638Z</time>
      </trkpt>
      <trkpt lat="45.15443" lon="2.83455">
        <ele>1237.377364</ele>
        <time>2022-04-23T04:18:24.654Z</time>
      </trkpt>
      <trkpt lat="45.15443" lon="2.83409">
        <ele>1237.051647</ele>
        <time>2022-04-23T04:18:32.252Z</time>
      </trkpt>
      <trkpt lat="45.15434" lon="2.83357">
        <ele>1236.682278</ele>
        <time>2022-04-23T04:18:40.671Z</time>
      </trkpt>
      <trkpt lat="45.15407" lon="2.83294">
        <ele>1236.166919</ele>
        <time>2022-04-23T04:18:52.587Z</time>
      </trkpt>
      <trkpt lat="45.15408" lon="2.83266">
        <ele>1235.970778</ele>
        <time>2022-04-23T04:18:57.172Z</time>
      </trkpt>
      <trkpt lat="45.15403" lon="2.83251">
        <ele>1235.836757</ele>
        <time>2022-04-23T04:18:59.830Z</time>
      </trkpt>
      <trkpt lat="45.15379" lon="2.83212">
        <ele>1235.092028</ele>
        <time>2022-04-23T04:19:08.168Z</time>
      </trkpt>
      <trkpt lat="45.15368" lon="2.83177">
        <ele>1234.541238</ele>
        <time>2022-04-23T04:19:14.293Z</time>
      </trkpt>
      <trkpt lat="45.15367" lon="2.83064">
        <ele>1232.926853</ele>
        <time>2022-04-23T04:19:31.955Z</time>
      </trkpt>
      <trkpt lat="45.15374" lon="2.83015">
        <ele>1232.210045</ele>
        <time>2022-04-23T04:19:39.276Z</time>
      </trkpt>
      <trkpt lat="45.15369" lon="2.82926">
        <ele>1229.665079</ele>
        <time>2022-04-23T04:19:52.017Z</time>
      </trkpt>
      <trkpt lat="45.15356" lon="2.8288">
        <ele>1228.253278</ele>
        <time>2022-04-23T04:19:58.922Z</time>
      </trkpt>
      <trkpt lat="45.15322" lon="2.82817">
        <ele>1225.979505</ele>
        <time>2022-04-23T04:20:09.893Z</time>
      </trkpt>
      <trkpt lat="45.15278" lon="2.82779">
        <ele>1223.954548</ele>
        <time>2022-04-23T04:20:19.905Z</time>
      </trkpt>
      <trkpt lat="45.15263" lon="2.82754">
        <ele>1223.075722</ele>
        <time>2022-04-23T04:20:24.436Z</time>
      </trkpt>
      <trkpt lat="45.15247" lon="2.82745">
        <ele>1222.399295</ele>
        <time>2022-04-23T04:20:27.898Z</time>
      </trkpt>
      <trkpt lat="45.15195" lon="2.82767">
        <ele>1220.330226</ele>
        <time>2022-04-23T04:20:38.845Z</time>
      </trkpt>
      <trkpt lat="45.15186" lon="2.82763">
        <ele>1219.991516</ele>
        <time>2022-04-23T04:20:40.619Z</time>
      </trkpt>
      <trkpt lat="45.15171" lon="2.82734">
        <ele>1219.019517</ele>
        <time>2022-04-23T04:20:45.952Z</time>
      </trkpt>
      <trkpt lat="45.15094" lon="2.82673">
        <ele>1216.218232</ele>
        <time>2022-04-23T04:21:04.401Z</time>
      </trkpt>
      <trkpt lat="45.15065" lon="2.82635">
        <ele>1215.078962</ele>
        <time>2022-04-23T04:21:12.486Z</time>
      </trkpt>
      <trkpt lat="45.15021" lon="2.82521">
        <ele>1212.718528</ele>
        <time>2022-04-23T04:21:31.737Z</time>
      </trkpt>
      <trkpt lat="45.14995" lon="2.82441">
        <ele>1212.087198</ele>
        <time>2022-04-23T04:21:45.489Z</time>
      </trkpt>
      <trkpt lat="45.14971" lon="2.82342">
        <ele>1211.33486</ele>
        <time>2022-04-23T04:22:03.278Z</time>
      </trkpt>
      <trkpt lat="45.14948" lon="2.82315">
        <ele>1211.061854</ele>
        <time>2022-04-23T04:22:11.168Z</time>
      </trkpt>
      <trkpt lat="45.14932" lon="2.82281">
        <ele>1211.466208</ele>
        <time>2022-04-23T04:22:19.347Z</time>
      </trkpt>
      <trkpt lat="45.1492" lon="2.82209">
        <ele>1212.200575</ele>
        <time>2022-04-23T04:22:35.442Z</time>
      </trkpt>
      <trkpt lat="45.14907" lon="2.82198">
        <ele>1212.417639</ele>
        <time>2022-04-23T04:22:40.357Z</time>
      </trkpt>
      <trkpt lat="45.14875" lon="2.8221">
        <ele>1212.887593</ele>
        <time>2022-04-23T04:22:51.214Z</time>
      </trkpt>
      <trkpt lat="45.14836" lon="2.82183">
        <ele>1213.48929</ele>
        <time>2022-04-23T04:23:05.514Z</time>
      </trkpt>
      <trkpt lat="45.14825" lon="2.82182">
        <ele>1213.730171</ele>
        <time>2022-04-23T04:23:09.386Z</time>
      </trkpt>
      <trkpt lat="45.14788" lon="2.822">
        <ele>1214.84826</ele>
        <time>2022-04-23T04:23:23.004Z</time>
      </trkpt>
      <trkpt lat="45.14776" lon="2.82162">
        <ele>1215.698017</ele>
        <time>2022-04-23T04:23:33.581Z</time>
      </trkpt>
      <trkpt lat="45.14731" lon="2.82095">
        <ele>1217.559131</ele>
        <time>2022-04-23T04:23:57.876Z</time>
      </trkpt>
      <trkpt lat="45.14725" lon="2.82033">
        <ele>1218.790661</ele>
        <time>2022-04-23T04:24:15.699Z</time>
      </trkpt>
      <trkpt lat="45.1476" lon="2.81952">
        <ele>1219.916304</ele>
        <time>2022-04-23T04:24:41.689Z</time>
      </trkpt>
      <trkpt lat="45.1477" lon="2.81886">
        <ele>1220.715275</ele>
        <time>2022-04-23T04:24:57.477Z</time>
      </trkpt>
      <trkpt lat="45.14778" lon="2.81863">
        <ele>1221.017488</ele>
        <time>2022-04-23T04:25:02.805Z</time>
      </trkpt>
      <trkpt lat="45.14792" lon="2.81848">
        <ele>1221.307819</ele>
        <time>2022-04-23T04:25:07.119Z</time>
      </trkpt>
      <trkpt lat="45.14796" lon="2.81831">
        <ele>1221.518934</ele>
        <time>2022-04-23T04:25:10.156Z</time>
      </trkpt>
      <trkpt lat="45.14797" lon="2.81775">
        <ele>1221.025745</ele>
        <time>2022-04-23T04:25:19.638Z</time>
      </trkpt>
      <trkpt lat="45.14782" lon="2.81713">
        <ele>1219.676744</ele>
        <time>2022-04-23T04:25:29.909Z</time>
      </trkpt>
      <trkpt lat="45.14764" lon="2.81699">
        <ele>1219.094692</ele>
        <time>2022-04-23T04:25:33.985Z</time>
      </trkpt>
      <trkpt lat="45.14753" lon="2.81681">
        <ele>1218.604822</ele>
        <time>2022-04-23T04:25:37.452Z</time>
      </trkpt>
      <trkpt lat="45.14736" lon="2.81671">
        <ele>1218.066525</ele>
        <time>2022-04-23T04:25:41.058Z</time>
      </trkpt>
      <trkpt lat="45.14697" lon="2.81702">
        <ele>1216.770749</ele>
        <time>2022-04-23T04:25:49.770Z</time>
      </trkpt>
      <trkpt lat="45.14667" lon="2.81741">
        <ele>1215.283971</ele>
        <time>2022-04-23T04:25:57.734Z</time>
      </trkpt>
      <trkpt lat="45.14655" lon="2.81741">
        <ele>1214.812416</ele>
        <time>2022-04-23T04:26:00.093Z</time>
      </trkpt>
      <trkpt lat="45.14654" lon="2.81667">
        <ele>1212.802763</ele>
        <time>2022-04-23T04:26:10.678Z</time>
      </trkpt>
      <trkpt lat="45.14631" lon="2.81587">
        <ele>1210.475039</ele>
        <time>2022-04-23T04:26:22.636Z</time>
      </trkpt>
      <trkpt lat="45.14625" lon="2.81581">
        <ele>1210.188771</ele>
        <time>2022-04-23T04:26:24.369Z</time>
      </trkpt>
      <trkpt lat="45.14527" lon="2.8167">
        <ele>1207.446898</ele>
        <time>2022-04-23T04:26:49.535Z</time>
      </trkpt>
      <trkpt lat="45.14519" lon="2.81661">
        <ele>1207.226221</ele>
        <time>2022-04-23T04:26:51.337Z</time>
      </trkpt>
      <trkpt lat="45.14605" lon="2.8157">
        <ele>1205.59486</ele>
        <time>2022-04-23T04:27:06.094Z</time>
      </trkpt>
      <trkpt lat="45.14743" lon="2.81448">
        <ele>1204.399731</ele>
        <time>2022-04-23T04:27:31.059Z</time>
      </trkpt>
      <trkpt lat="45.14827" lon="2.81341">
        <ele>1201.564786</ele>
        <time>2022-04-23T04:27:44.445Z</time>
      </trkpt>
      <trkpt lat="45.14888" lon="2.81275">
        <ele>1199.499109</ele>
        <time>2022-04-23T04:27:52.961Z</time>
      </trkpt>
      <trkpt lat="45.14935" lon="2.81235">
        <ele>1197.888979</ele>
        <time>2022-04-23T04:27:59.111Z</time>
      </trkpt>
      <trkpt lat="45.14991" lon="2.81205">
        <ele>1196.154136</ele>
        <time>2022-04-23T04:28:06.056Z</time>
      </trkpt>
      <trkpt lat="45.14997" lon="2.81175">
        <ele>1195.513587</ele>
        <time>2022-04-23T04:28:08.981Z</time>
      </trkpt>
      <trkpt lat="45.15014" lon="2.81131">
        <ele>1195.445342</ele>
        <time>2022-04-23T04:28:13.981Z</time>
      </trkpt>
      <trkpt lat="45.15015" lon="2.81082">
        <ele>1195.824986</ele>
        <time>2022-04-23T04:28:19.311Z</time>
      </trkpt>
      <trkpt lat="45.14987" lon="2.81059">
        <ele>1196.177362</ele>
        <time>2022-04-23T04:28:28.155Z</time>
      </trkpt>
      <trkpt lat="45.14972" lon="2.81039">
        <ele>1196.402765</ele>
        <time>2022-04-23T04:28:34.396Z</time>
      </trkpt>
      <trkpt lat="45.14946" lon="2.80989">
        <ele>1196.877514</ele>
        <time>2022-04-23T04:28:49.906Z</time>
      </trkpt>
      <trkpt lat="45.14924" lon="2.80933">
        <ele>1198.178385</ele>
        <time>2022-04-23T04:29:07.859Z</time>
      </trkpt>
      <trkpt lat="45.14883" lon="2.80796">
        <ele>1203.349495</ele>
        <time>2022-04-23T04:29:54.604Z</time>
      </trkpt>
      <trkpt lat="45.1483" lon="2.80716">
        <ele>1207.626893</ele>
        <time>2022-04-23T04:30:33.063Z</time>
      </trkpt>
      <trkpt lat="45.14823" lon="2.80696">
        <ele>1208.702373</ele>
        <time>2022-04-23T04:30:41.507Z</time>
      </trkpt>
      <trkpt lat="45.14799" lon="2.80572">
        <ele>1214.889391</ele>
        <time>2022-04-23T04:31:29.359Z</time>
      </trkpt>
      <trkpt lat="45.14767" lon="2.80515">
        <ele>1218.392606</ele>
        <time>2022-04-23T04:31:58.006Z</time>
      </trkpt>
      <trkpt lat="45.14755" lon="2.80483">
        <ele>1220.056289</ele>
        <time>2022-04-23T04:32:12.176Z</time>
      </trkpt>
      <trkpt lat="45.14742" lon="2.80413">
        <ele>1223.343282</ele>
        <time>2022-04-23T04:32:39.896Z</time>
      </trkpt>
      <trkpt lat="45.1474" lon="2.80344">
        <ele>1226.46557</ele>
        <time>2022-04-23T04:33:05.898Z</time>
      </trkpt>
      <trkpt lat="45.14649" lon="2.80065">
        <ele>1237.065554</ele>
        <time>2022-04-23T04:34:43.145Z</time>
      </trkpt>
      <trkpt lat="45.14634" lon="2.79998">
        <ele>1238.352522</ele>
        <time>2022-04-23T04:34:59.865Z</time>
      </trkpt>
      <trkpt lat="45.14622" lon="2.79905">
        <ele>1239.507728</ele>
        <time>2022-04-23T04:35:20.336Z</time>
      </trkpt>
      <trkpt lat="45.14616" lon="2.79735">
        <ele>1241.804721</ele>
        <time>2022-04-23T04:35:56.769Z</time>
      </trkpt>
      <trkpt lat="45.14591" lon="2.79452">
        <ele>1245.180403</ele>
        <time>2022-04-23T04:37:08.959Z</time>
      </trkpt>
      <trkpt lat="45.14593" lon="2.79411">
        <ele>1245.29238</ele>
        <time>2022-04-23T04:37:17.863Z</time>
      </trkpt>
      <trkpt lat="45.14585" lon="2.79307">
        <ele>1245.58002</ele>
        <time>2022-04-23T04:37:36.351Z</time>
      </trkpt>
      <trkpt lat="45.14587" lon="2.79233">
        <ele>1242.680599</ele>
        <time>2022-04-23T04:37:47.441Z</time>
      </trkpt>
      <trkpt lat="45.14604" lon="2.79152">
        <ele>1237.876021</ele>
        <time>2022-04-23T04:37:58.023Z</time>
      </trkpt>
      <trkpt lat="45.14627" lon="2.79097">
        <ele>1234.288545</ele>
        <time>2022-04-23T04:38:05.729Z</time>
      </trkpt>
      <trkpt lat="45.14657" lon="2.78991">
        <ele>1225.047256</ele>
        <time>2022-04-23T04:38:19.303Z</time>
      </trkpt>
      <trkpt lat="45.14654" lon="2.7897">
        <ele>1222.875769</ele>
        <time>2022-04-23T04:38:21.674Z</time>
      </trkpt>
      <trkpt lat="45.14633" lon="2.78939">
        <ele>1218.407261</ele>
        <time>2022-04-23T04:38:26.804Z</time>
      </trkpt>
      <trkpt lat="45.14572" lon="2.78916">
        <ele>1209.346783</ele>
        <time>2022-04-23T04:38:36.842Z</time>
      </trkpt>
      <trkpt lat="45.14548" lon="2.7887">
        <ele>1203.796349</ele>
        <time>2022-04-23T04:38:43.184Z</time>
      </trkpt>
      <trkpt lat="45.14496" lon="2.78815">
        <ele>1195.986548</ele>
        <time>2022-04-23T04:38:53.799Z</time>
      </trkpt>
      <trkpt lat="45.14486" lon="2.78778">
        <ele>1192.56852</ele>
        <time>2022-04-23T04:38:58.536Z</time>
      </trkpt>
      <trkpt lat="45.1447" lon="2.78727">
        <ele>1187.853019</ele>
        <time>2022-04-23T04:39:02.562Z</time>
      </trkpt>
      <trkpt lat="45.14467" lon="2.78718">
        <ele>1186.994239</ele>
        <time>2022-04-23T04:39:03.312Z</time>
      </trkpt>
      <trkpt lat="45.14444" lon="2.78697">
        <ele>1183.747502</ele>
        <time>2022-04-23T04:39:06.085Z</time>
      </trkpt>
      <trkpt lat="45.14432" lon="2.78686">
        <ele>1182.891118</ele>
        <time>2022-04-23T04:39:07.607Z</time>
      </trkpt>
      <trkpt lat="45.14428" lon="2.78669">
        <ele>1182.238435</ele>
        <time>2022-04-23T04:39:08.944Z</time>
      </trkpt>
      <trkpt lat="45.14411" lon="2.78648">
        <ele>1181.106487</ele>
        <time>2022-04-23T04:39:11.321Z</time>
      </trkpt>
      <trkpt lat="45.14358" lon="2.7863">
        <ele>1178.341703</ele>
        <time>2022-04-23T04:39:17.540Z</time>
      </trkpt>
      <trkpt lat="45.14298" lon="2.78542">
        <ele>1173.800663</ele>
        <time>2022-04-23T04:39:36.523Z</time>
      </trkpt>
      <trkpt lat="45.14212" lon="2.78451">
        <ele>1166.728711</ele>
        <time>2022-04-23T04:39:56.579Z</time>
      </trkpt>
      <trkpt lat="45.1419" lon="2.78388">
        <ele>1163.434438</ele>
        <time>2022-04-23T04:40:05.298Z</time>
      </trkpt>
      <trkpt lat="45.14186" lon="2.7831">
        <ele>1157.326927</ele>
        <time>2022-04-23T04:40:14.775Z</time>
      </trkpt>
      <trkpt lat="45.14197" lon="2.78235">
        <ele>1150.445964</ele>
        <time>2022-04-23T04:40:23.956Z</time>
      </trkpt>
      <trkpt lat="45.14168" lon="2.78183">
        <ele>1144.570743</ele>
        <time>2022-04-23T04:40:31.448Z</time>
      </trkpt>
      <trkpt lat="45.14184" lon="2.78088">
        <ele>1134.961702</ele>
        <time>2022-04-23T04:40:42.600Z</time>
      </trkpt>
      <trkpt lat="45.14177" lon="2.78032">
        <ele>1128.714973</ele>
        <time>2022-04-23T04:40:49.123Z</time>
      </trkpt>
      <trkpt lat="45.14185" lon="2.7801">
        <ele>1126.00072</ele>
        <time>2022-04-23T04:40:51.892Z</time>
      </trkpt>
      <trkpt lat="45.14181" lon="2.77988">
        <ele>1123.501705</ele>
        <time>2022-04-23T04:40:54.568Z</time>
      </trkpt>
      <trkpt lat="45.14181" lon="2.77875">
        <ele>1111.220834</ele>
        <time>2022-04-23T04:41:07.315Z</time>
      </trkpt>
      <trkpt lat="45.14169" lon="2.77806">
        <ele>1104.078793</ele>
        <time>2022-04-23T04:41:15.259Z</time>
      </trkpt>
      <trkpt lat="45.14175" lon="2.77768">
        <ele>1100.073782</ele>
        <time>2022-04-23T04:41:19.905Z</time>
      </trkpt>
      <trkpt lat="45.14172" lon="2.77733">
        <ele>1096.552814</ele>
        <time>2022-04-23T04:41:23.964Z</time>
      </trkpt>
      <trkpt lat="45.14177" lon="2.77689">
        <ele>1092.063245</ele>
        <time>2022-04-23T04:41:29.134Z</time>
      </trkpt>
      <trkpt lat="45.14194" lon="2.77654">
        <ele>1087.744178</ele>
        <time>2022-04-23T04:41:34.117Z</time>
      </trkpt>
      <trkpt lat="45.14204" lon="2.77534">
        <ele>1078.14082</ele>
        <time>2022-04-23T04:41:48.244Z</time>
      </trkpt>
      <trkpt lat="45.14197" lon="2.77515">
        <ele>1076.545703</ele>
        <time>2022-04-23T04:41:50.704Z</time>
      </trkpt>
      <trkpt lat="45.14199" lon="2.77506">
        <ele>1075.841483</ele>
        <time>2022-04-23T04:41:51.787Z</time>
      </trkpt>
      <trkpt lat="45.14282" lon="2.77411">
        <ele>1065.488377</ele>
        <time>2022-04-23T04:42:10.396Z</time>
      </trkpt>
      <trkpt lat="45.14298" lon="2.77354">
        <ele>1063.171038</ele>
        <time>2022-04-23T04:42:18.337Z</time>
      </trkpt>
      <trkpt lat="45.143" lon="2.77316">
        <ele>1061.709429</ele>
        <time>2022-04-23T04:42:23.534Z</time>
      </trkpt>
      <trkpt lat="45.14314" lon="2.77296">
        <ele>1060.647744</ele>
        <time>2022-04-23T04:42:27.260Z</time>
      </trkpt>
      <trkpt lat="45.1433" lon="2.77288">
        <ele>1059.757796</ele>
        <time>2022-04-23T04:42:30.611Z</time>
      </trkpt>
      <trkpt lat="45.14341" lon="2.77283">
        <ele>1059.112905</ele>
        <time>2022-04-23T04:42:32.933Z</time>
      </trkpt>
      <trkpt lat="45.14441" lon="2.7721">
        <ele>1057.04684</ele>
        <time>2022-04-23T04:42:57.875Z</time>
      </trkpt>
      <trkpt lat="45.14471" lon="2.77195">
        <ele>1057.044001</ele>
        <time>2022-04-23T04:43:06.665Z</time>
      </trkpt>
      <trkpt lat="45.14499" lon="2.77202">
        <ele>1057.041465</ele>
        <time>2022-04-23T04:43:15.304Z</time>
      </trkpt>
      <trkpt lat="45.14509" lon="2.7722">
        <ele>1057.040027</ele>
        <time>2022-04-23T04:43:20.284Z</time>
      </trkpt>
      <trkpt lat="45.1451" lon="2.77186">
        <ele>1057.037899</ele>
        <time>2022-04-23T04:43:28.534Z</time>
      </trkpt>
      <trkpt lat="45.14495" lon="2.77133">
        <ele>1057.833194</ele>
        <time>2022-04-23T04:43:42.417Z</time>
      </trkpt>
      <trkpt lat="45.14506" lon="2.7714">
        <ele>1058.112782</ele>
        <time>2022-04-23T04:43:46.625Z</time>
      </trkpt>
      <trkpt lat="45.14532" lon="2.77184">
        <ele>1059.03196</ele>
        <time>2022-04-23T04:44:00.935Z</time>
      </trkpt>
      <trkpt lat="45.14565" lon="2.77198">
        <ele>1059.815484</ele>
        <time>2022-04-23T04:44:13.259Z</time>
      </trkpt>
      <trkpt lat="45.14533" lon="2.77156">
        <ele>1060.804158</ele>
        <time>2022-04-23T04:44:24.036Z</time>
      </trkpt>
      <trkpt lat="45.14494" lon="2.77068">
        <ele>1062.406807</ele>
        <time>2022-04-23T04:44:41.533Z</time>
      </trkpt>
      <trkpt lat="45.14382" lon="2.76923">
        <ele>1065.899162</ele>
        <time>2022-04-23T04:45:17.832Z</time>
      </trkpt>
      <trkpt lat="45.14349" lon="2.7685">
        <ele>1067.581865</ele>
        <time>2022-04-23T04:45:32.894Z</time>
      </trkpt>
      <trkpt lat="45.14292" lon="2.7672">
        <ele>1070.948948</ele>
        <time>2022-04-23T04:46:02.449Z</time>
      </trkpt>
      <trkpt lat="45.14237" lon="2.76546">
        <ele>1077.223711</ele>
        <time>2022-04-23T04:46:48.932Z</time>
      </trkpt>
      <trkpt lat="45.14232" lon="2.76475">
        <ele>1079.637619</ele>
        <time>2022-04-23T04:47:09.053Z</time>
      </trkpt>
      <trkpt lat="45.14235" lon="2.76401">
        <ele>1082.241018</ele>
        <time>2022-04-23T04:47:27.422Z</time>
      </trkpt>
      <trkpt lat="45.14239" lon="2.76375">
        <ele>1083.208298</ele>
        <time>2022-04-23T04:47:35.934Z</time>
      </trkpt>
      <trkpt lat="45.1428" lon="2.76133">
        <ele>1090.295326</ele>
        <time>2022-04-23T04:48:31.831Z</time>
      </trkpt>
      <trkpt lat="45.14283" lon="2.75926">
        <ele>1093.863811</ele>
        <time>2022-04-23T04:49:07.186Z</time>
      </trkpt>
      <trkpt lat="45.14276" lon="2.75872">
        <ele>1094.368284</ele>
        <time>2022-04-23T04:49:15.018Z</time>
      </trkpt>
      <trkpt lat="45.14265" lon="2.75803">
        <ele>1095.028063</ele>
        <time>2022-04-23T04:49:24.550Z</time>
      </trkpt>
      <trkpt lat="45.14257" lon="2.75704">
        <ele>1095.70182</ele>
        <time>2022-04-23T04:49:36.783Z</time>
      </trkpt>
      <trkpt lat="45.14214" lon="2.75559">
        <ele>1096.43687</ele>
        <time>2022-04-23T04:49:55.735Z</time>
      </trkpt>
      <trkpt lat="45.14201" lon="2.75447">
        <ele>1097.394911</ele>
        <time>2022-04-23T04:50:11.585Z</time>
      </trkpt>
      <trkpt lat="45.14164" lon="2.7534">
        <ele>1098.686241</ele>
        <time>2022-04-23T04:50:30.021Z</time>
      </trkpt>
      <trkpt lat="45.14133" lon="2.75247">
        <ele>1099.902044</ele>
        <time>2022-04-23T04:50:46.978Z</time>
      </trkpt>
      <trkpt lat="45.14095" lon="2.7506">
        <ele>1102.500023</ele>
        <time>2022-04-23T04:51:18.442Z</time>
      </trkpt>
      <trkpt lat="45.14053" lon="2.74997">
        <ele>1103.46415</ele>
        <time>2022-04-23T04:51:32.559Z</time>
      </trkpt>
      <trkpt lat="45.14043" lon="2.74976">
        <ele>1103.727362</ele>
        <time>2022-04-23T04:51:36.487Z</time>
      </trkpt>
      <trkpt lat="45.14041" lon="2.74964">
        <ele>1103.847794</ele>
        <time>2022-04-23T04:51:38.358Z</time>
      </trkpt>
      <trkpt lat="45.14033" lon="2.74918">
        <ele>1104.337498</ele>
        <time>2022-04-23T04:51:45.364Z</time>
      </trkpt>
      <trkpt lat="45.13999" lon="2.74865">
        <ele>1105.075548</ele>
        <time>2022-04-23T04:51:55.620Z</time>
      </trkpt>
      <trkpt lat="45.13988" lon="2.74831">
        <ele>1105.45986</ele>
        <time>2022-04-23T04:52:00.867Z</time>
      </trkpt>
      <trkpt lat="45.13975" lon="2.74811">
        <ele>1105.721394</ele>
        <time>2022-04-23T04:52:04.342Z</time>
      </trkpt>
      <trkpt lat="45.13945" lon="2.7478">
        <ele>1106.24336</ele>
        <time>2022-04-23T04:52:11.383Z</time>
      </trkpt>
      <trkpt lat="45.13922" lon="2.74718">
        <ele>1106.936149</ele>
        <time>2022-04-23T04:52:21.556Z</time>
      </trkpt>
      <trkpt lat="45.13871" lon="2.74643">
        <ele>1107.968563</ele>
        <time>2022-04-23T04:52:37.147Z</time>
      </trkpt>
      <trkpt lat="45.13856" lon="2.74595">
        <ele>1109.362769</ele>
        <time>2022-04-23T04:52:46.467Z</time>
      </trkpt>
      <trkpt lat="45.13843" lon="2.74574">
        <ele>1110.091976</ele>
        <time>2022-04-23T04:52:50.905Z</time>
      </trkpt>
      <trkpt lat="45.13829" lon="2.74546">
        <ele>1111.00486</ele>
        <time>2022-04-23T04:52:58.354Z</time>
      </trkpt>
      <trkpt lat="45.13812" lon="2.74428">
        <ele>1114.215143</ele>
        <time>2022-04-23T04:53:25.416Z</time>
      </trkpt>
      <trkpt lat="45.13806" lon="2.74414">
        <ele>1114.643791</ele>
        <time>2022-04-23T04:53:30.602Z</time>
      </trkpt>
      <trkpt lat="45.13786" lon="2.74379">
        <ele>1116.690892</ele>
        <time>2022-04-23T04:53:43.211Z</time>
      </trkpt>
      <trkpt lat="45.1377" lon="2.74323">
        <ele>1119.556224</ele>
        <time>2022-04-23T04:54:01.438Z</time>
      </trkpt>
      <trkpt lat="45.13743" lon="2.74103">
        <ele>1129.99688</ele>
        <time>2022-04-23T04:55:10.614Z</time>
      </trkpt>
      <trkpt lat="45.13724" lon="2.74052">
        <ele>1132.576989</ele>
        <time>2022-04-23T04:55:26.968Z</time>
      </trkpt>
      <trkpt lat="45.13729" lon="2.73997">
        <ele>1135.11471</ele>
        <time>2022-04-23T04:55:43.600Z</time>
      </trkpt>
      <trkpt lat="45.13724" lon="2.73976">
        <ele>1136.109172</ele>
        <time>2022-04-23T04:55:50.451Z</time>
      </trkpt>
      <trkpt lat="45.13695" lon="2.73922">
        <ele>1139.093869</ele>
        <time>2022-04-23T04:56:08.219Z</time>
      </trkpt>
      <trkpt lat="45.13682" lon="2.73851">
        <ele>1142.104955</ele>
        <time>2022-04-23T04:56:25.367Z</time>
      </trkpt>
      <trkpt lat="45.13677" lon="2.73839">
        <ele>1142.651076</ele>
        <time>2022-04-23T04:56:29.618Z</time>
      </trkpt>
      <trkpt lat="45.13621" lon="2.73691">
        <ele>1149.72376</ele>
        <time>2022-04-23T04:57:16.827Z</time>
      </trkpt>
      <trkpt lat="45.13614" lon="2.73612">
        <ele>1153.774328</ele>
        <time>2022-04-23T04:57:40.042Z</time>
      </trkpt>
      <trkpt lat="45.13618" lon="2.73563">
        <ele>1156.279442</ele>
        <time>2022-04-23T04:57:54.392Z</time>
      </trkpt>
      <trkpt lat="45.1361" lon="2.73491">
        <ele>1159.976208</ele>
        <time>2022-04-23T04:58:18.961Z</time>
      </trkpt>
      <trkpt lat="45.13611" lon="2.73402">
        <ele>1164.340709</ele>
        <time>2022-04-23T04:58:50.210Z</time>
      </trkpt>
      <trkpt lat="45.13612" lon="2.73377">
        <ele>1165.526471</ele>
        <time>2022-04-23T04:58:59.141Z</time>
      </trkpt>
      <trkpt lat="45.13616" lon="2.73349">
        <ele>1166.92045</ele>
        <time>2022-04-23T04:59:08.684Z</time>
      </trkpt>
      <trkpt lat="45.13623" lon="2.73316">
        <ele>1168.575233</ele>
        <time>2022-04-23T04:59:18.884Z</time>
      </trkpt>
      <trkpt lat="45.13621" lon="2.73251">
        <ele>1171.668077</ele>
        <time>2022-04-23T04:59:35.410Z</time>
      </trkpt>
      <trkpt lat="45.1363" lon="2.73212">
        <ele>1173.650305</ele>
        <time>2022-04-23T04:59:46.553Z</time>
      </trkpt>
      <trkpt lat="45.13633" lon="2.73178">
        <ele>1174.84237</ele>
        <time>2022-04-23T04:59:54.991Z</time>
      </trkpt>
      <trkpt lat="45.13608" lon="2.73136">
        <ele>1176.600467</ele>
        <time>2022-04-23T05:00:09.932Z</time>
      </trkpt>
      <trkpt lat="45.13546" lon="2.72997">
        <ele>1181.863388</ele>
        <time>2022-04-23T05:00:45.394Z</time>
      </trkpt>
      <trkpt lat="45.13515" lon="2.72897">
        <ele>1186.470731</ele>
        <time>2022-04-23T05:01:12.086Z</time>
      </trkpt>
      <trkpt lat="45.1349" lon="2.728">
        <ele>1190.894504</ele>
        <time>2022-04-23T05:01:41.428Z</time>
      </trkpt>
      <trkpt lat="45.13458" lon="2.72599">
        <ele>1201.927645</ele>
        <time>2022-04-23T05:02:52.572Z</time>
      </trkpt>
      <trkpt lat="45.13452" lon="2.72516">
        <ele>1206.666652</ele>
        <time>2022-04-23T05:03:21.299Z</time>
      </trkpt>
      <trkpt lat="45.13446" lon="2.72434">
        <ele>1210.171022</ele>
        <time>2022-04-23T05:03:46.978Z</time>
      </trkpt>
      <trkpt lat="45.13447" lon="2.72376">
        <ele>1212.447556</ele>
        <time>2022-04-23T05:04:03.425Z</time>
      </trkpt>
      <trkpt lat="45.13468" lon="2.72332">
        <ele>1214.495315</ele>
        <time>2022-04-23T05:04:16.876Z</time>
      </trkpt>
      <trkpt lat="45.13466" lon="2.72323">
        <ele>1214.884596</ele>
        <time>2022-04-23T05:04:19.056Z</time>
      </trkpt>
      <trkpt lat="45.13439" lon="2.7228">
        <ele>1217.109312</ele>
        <time>2022-04-23T05:04:31.505Z</time>
      </trkpt>
      <trkpt lat="45.13438" lon="2.72223">
        <ele>1218.833967</ele>
        <time>2022-04-23T05:04:42.492Z</time>
      </trkpt>
      <trkpt lat="45.13431" lon="2.722">
        <ele>1219.531253</ele>
        <time>2022-04-23T05:04:47.158Z</time>
      </trkpt>
      <trkpt lat="45.13381" lon="2.72102">
        <ele>1222.915563</ele>
        <time>2022-04-23T05:05:11.122Z</time>
      </trkpt>
      <trkpt lat="45.13371" lon="2.72064">
        <ele>1224.043608</ele>
        <time>2022-04-23T05:05:20.838Z</time>
      </trkpt>
      <trkpt lat="45.13358" lon="2.71922">
        <ele>1230.737382</ele>
        <time>2022-04-23T05:06:02.378Z</time>
      </trkpt>
      <trkpt lat="45.13342" lon="2.71807">
        <ele>1236.576469</ele>
        <time>2022-04-23T05:06:41.919Z</time>
      </trkpt>
      <trkpt lat="45.13277" lon="2.71394">
        <ele>1259.701387</ele>
        <time>2022-04-23T05:09:03.124Z</time>
      </trkpt>
      <trkpt lat="45.1325" lon="2.71279">
        <ele>1265.811934</ele>
        <time>2022-04-23T05:09:39.006Z</time>
      </trkpt>
      <trkpt lat="45.13242" lon="2.71187">
        <ele>1269.641058</ele>
        <time>2022-04-23T05:10:05.301Z</time>
      </trkpt>
      <trkpt lat="45.13244" lon="2.71058">
        <ele>1274.970554</ele>
        <time>2022-04-23T05:10:39.924Z</time>
      </trkpt>
      <trkpt lat="45.13218" lon="2.70862">
        <ele>1281.942974</ele>
        <time>2022-04-23T05:11:29.041Z</time>
      </trkpt>
      <trkpt lat="45.13173" lon="2.70675">
        <ele>1289.52575</ele>
        <time>2022-04-23T05:12:15.911Z</time>
      </trkpt>
      <trkpt lat="45.13157" lon="2.70625">
        <ele>1291.760795</ele>
        <time>2022-04-23T05:12:31.160Z</time>
      </trkpt>
      <trkpt lat="45.13101" lon="2.70424">
        <ele>1304.432789</ele>
        <time>2022-04-23T05:13:40.278Z</time>
      </trkpt>
      <trkpt lat="45.13055" lon="2.70362">
        <ele>1310.540065</ele>
        <time>2022-04-23T05:14:20.986Z</time>
      </trkpt>
      <trkpt lat="45.13045" lon="2.70345">
        <ele>1312.10338</ele>
        <time>2022-04-23T05:14:31.219Z</time>
      </trkpt>
      <trkpt lat="45.13039" lon="2.70321">
        <ele>1314.315768</ele>
        <time>2022-04-23T05:14:43.085Z</time>
      </trkpt>
      <trkpt lat="45.13044" lon="2.70274">
        <ele>1318.6042</ele>
        <time>2022-04-23T05:15:05.535Z</time>
      </trkpt>
      <trkpt lat="45.13046" lon="2.70259">
        <ele>1320.040956</ele>
        <time>2022-04-23T05:15:13.004Z</time>
      </trkpt>
      <trkpt lat="45.13048" lon="2.70242">
        <ele>1321.582118</ele>
        <time>2022-04-23T05:15:20.944Z</time>
      </trkpt>
      <trkpt lat="45.13056" lon="2.70195">
        <ele>1325.93618</ele>
        <time>2022-04-23T05:15:44.427Z</time>
      </trkpt>
      <trkpt lat="45.13058" lon="2.70181">
        <ele>1327.251168</ele>
        <time>2022-04-23T05:15:51.828Z</time>
      </trkpt>
      <trkpt lat="45.13043" lon="2.70145">
        <ele>1330.99442</ele>
        <time>2022-04-23T05:16:15.475Z</time>
      </trkpt>
      <trkpt lat="45.12997" lon="2.70129">
        <ele>1336.246165</ele>
        <time>2022-04-23T05:16:53.308Z</time>
      </trkpt>
      <trkpt lat="45.12994" lon="2.70127">
        <ele>1336.441926</ele>
        <time>2022-04-23T05:16:55.144Z</time>
      </trkpt>
      <trkpt lat="45.12991" lon="2.70128">
        <ele>1336.66271</ele>
        <time>2022-04-23T05:16:57.076Z</time>
      </trkpt>
      <trkpt lat="45.12959" lon="2.70077">
        <ele>1340.218287</ele>
        <time>2022-04-23T05:17:27.365Z</time>
      </trkpt>
      <trkpt lat="45.12939" lon="2.70061">
        <ele>1341.890037</ele>
        <time>2022-04-23T05:17:39.498Z</time>
      </trkpt>
      <trkpt lat="45.12826" lon="2.70004">
        <ele>1349.231843</ele>
        <time>2022-04-23T05:18:32.386Z</time>
      </trkpt>
      <trkpt lat="45.12783" lon="2.69952">
        <ele>1350.908151</ele>
        <time>2022-04-23T05:18:50.082Z</time>
      </trkpt>
      <trkpt lat="45.12768" lon="2.69924">
        <ele>1351.627096</ele>
        <time>2022-04-23T05:18:57.080Z</time>
      </trkpt>
      <trkpt lat="45.12615" lon="2.69783">
        <ele>1360.948594</ele>
        <time>2022-04-23T05:20:10.099Z</time>
      </trkpt>
      <trkpt lat="45.12485" lon="2.69584">
        <ele>1377.701437</ele>
        <time>2022-04-23T05:22:24.301Z</time>
      </trkpt>
      <trkpt lat="45.12455" lon="2.69522">
        <ele>1382.779055</ele>
        <time>2022-04-23T05:22:56.391Z</time>
      </trkpt>
      <trkpt lat="45.12427" lon="2.69492">
        <ele>1383.667971</ele>
        <time>2022-04-23T05:23:14.086Z</time>
      </trkpt>
      <trkpt lat="45.12406" lon="2.69477">
        <ele>1384.265141</ele>
        <time>2022-04-23T05:23:24.616Z</time>
      </trkpt>
      <trkpt lat="45.12301" lon="2.69441">
        <ele>1387.033946</ele>
        <time>2022-04-23T05:23:56.188Z</time>
      </trkpt>
      <trkpt lat="45.12262" lon="2.69433">
        <ele>1386.444907</ele>
        <time>2022-04-23T05:24:04.854Z</time>
      </trkpt>
      <trkpt lat="45.12224" lon="2.69434">
        <ele>1385.208126</ele>
        <time>2022-04-23T05:24:13.023Z</time>
      </trkpt>
      <trkpt lat="45.12176" lon="2.69392">
        <ele>1383.408124</ele>
        <time>2022-04-23T05:24:24.426Z</time>
      </trkpt>
      <trkpt lat="45.12165" lon="2.69367">
        <ele>1382.738013</ele>
        <time>2022-04-23T05:24:28.515Z</time>
      </trkpt>
      <trkpt lat="45.12142" lon="2.69348">
        <ele>1381.900999</ele>
        <time>2022-04-23T05:24:33.602Z</time>
      </trkpt>
      <trkpt lat="45.12117" lon="2.69336">
        <ele>1380.965112</ele>
        <time>2022-04-23T05:24:38.697Z</time>
      </trkpt>
      <trkpt lat="45.12016" lon="2.69329">
        <ele>1377.124257</ele>
        <time>2022-04-23T05:24:58.442Z</time>
      </trkpt>
      <trkpt lat="45.11941" lon="2.69305">
        <ele>1374.691856</ele>
        <time>2022-04-23T05:25:14.543Z</time>
      </trkpt>
      <trkpt lat="45.11918" lon="2.69291">
        <ele>1374.602507</ele>
        <time>2022-04-23T05:25:20.323Z</time>
      </trkpt>
      <trkpt lat="45.11873" lon="2.69242">
        <ele>1374.403211</ele>
        <time>2022-04-23T05:25:34.011Z</time>
      </trkpt>
      <trkpt lat="45.11785" lon="2.69188">
        <ele>1374.329081</ele>
        <time>2022-04-23T05:26:01.534Z</time>
      </trkpt>
      <trkpt lat="45.11694" lon="2.6911">
        <ele>1376.159546</ele>
        <time>2022-04-23T05:26:34.702Z</time>
      </trkpt>
      <trkpt lat="45.11646" lon="2.69098">
        <ele>1377.010759</ele>
        <time>2022-04-23T05:26:51.472Z</time>
      </trkpt>
      <trkpt lat="45.11582" lon="2.69017">
        <ele>1381.212717</ele>
        <time>2022-04-23T05:27:22.407Z</time>
      </trkpt>
      <trkpt lat="45.11511" lon="2.68978">
        <ele>1385.396964</ele>
        <time>2022-04-23T05:28:04.165Z</time>
      </trkpt>
      <trkpt lat="45.11459" lon="2.68923">
        <ele>1389.763654</ele>
        <time>2022-04-23T05:28:40.541Z</time>
      </trkpt>
      <trkpt lat="45.11436" lon="2.68909">
        <ele>1391.784944</ele>
        <time>2022-04-23T05:28:54.967Z</time>
      </trkpt>
      <trkpt lat="45.11421" lon="2.68897">
        <ele>1393.130925</ele>
        <time>2022-04-23T05:29:06.340Z</time>
      </trkpt>
      <trkpt lat="45.1141" lon="2.68876">
        <ele>1394.590502</ele>
        <time>2022-04-23T05:29:15.522Z</time>
      </trkpt>
      <trkpt lat="45.11409" lon="2.68823">
        <ele>1397.537976</ele>
        <time>2022-04-23T05:29:36.423Z</time>
      </trkpt>
      <trkpt lat="45.11398" lon="2.68777">
        <ele>1400.27607</ele>
        <time>2022-04-23T05:29:55.593Z</time>
      </trkpt>
      <trkpt lat="45.11405" lon="2.68722">
        <ele>1402.959986</ele>
        <time>2022-04-23T05:30:20.179Z</time>
      </trkpt>
      <trkpt lat="45.1139" lon="2.68696">
        <ele>1404.482539</ele>
        <time>2022-04-23T05:30:35.659Z</time>
      </trkpt>
      <trkpt lat="45.11397" lon="2.68664">
        <ele>1405.975376</ele>
        <time>2022-04-23T05:30:47.396Z</time>
      </trkpt>
      <trkpt lat="45.11389" lon="2.68634">
        <ele>1407.390386</ele>
        <time>2022-04-23T05:30:57.142Z</time>
      </trkpt>
      <trkpt lat="45.11386" lon="2.68627">
        <ele>1407.780543</ele>
        <time>2022-04-23T05:31:00.101Z</time>
      </trkpt>
      <trkpt lat="45.11375" lon="2.68621">
        <ele>1408.498712</ele>
        <time>2022-04-23T05:31:06.292Z</time>
      </trkpt>
      <trkpt lat="45.11351" lon="2.68617">
        <ele>1410.007645</ele>
        <time>2022-04-23T05:31:16.429Z</time>
      </trkpt>
      <trkpt lat="45.11339" lon="2.68606">
        <ele>1410.931366</ele>
        <time>2022-04-23T05:31:24.059Z</time>
      </trkpt>
      <trkpt lat="45.11321" lon="2.6859">
        <ele>1412.323227</ele>
        <time>2022-04-23T05:31:33.156Z</time>
      </trkpt>
      <trkpt lat="45.11312" lon="2.68585">
        <ele>1412.88277</ele>
        <time>2022-04-23T05:31:38.390Z</time>
      </trkpt>
      <trkpt lat="45.11305" lon="2.68618">
        <ele>1414.08317</ele>
        <time>2022-04-23T05:31:47.939Z</time>
      </trkpt>
      <trkpt lat="45.11295" lon="2.68625">
        <ele>1414.629287</ele>
        <time>2022-04-23T05:31:53.814Z</time>
      </trkpt>
      <trkpt lat="45.11296" lon="2.6864">
        <ele>1415.167117</ele>
        <time>2022-04-23T05:31:57.487Z</time>
      </trkpt>
      <trkpt lat="45.11234" lon="2.6863">
        <ele>1418.23307</ele>
        <time>2022-04-23T05:32:18.387Z</time>
      </trkpt>
      <trkpt lat="45.11108" lon="2.6855">
        <ele>1426.912233</ele>
        <time>2022-04-23T05:33:09.131Z</time>
      </trkpt>
      <trkpt lat="45.11088" lon="2.68524">
        <ele>1428.935981</ele>
        <time>2022-04-23T05:33:20.689Z</time>
      </trkpt>
      <trkpt lat="45.11085" lon="2.68491">
        <ele>1430.696801</ele>
        <time>2022-04-23T05:33:32.218Z</time>
      </trkpt>
      <trkpt lat="45.11084" lon="2.6848">
        <ele>1431.297775</ele>
        <time>2022-04-23T05:33:36.071Z</time>
      </trkpt>
      <trkpt lat="45.11076" lon="2.68464">
        <ele>1432.314447</ele>
        <time>2022-04-23T05:33:43.035Z</time>
      </trkpt>
      <trkpt lat="45.11038" lon="2.68429">
        <ele>1436.065951</ele>
        <time>2022-04-23T05:34:06.600Z</time>
      </trkpt>
      <trkpt lat="45.10957" lon="2.68344">
        <ele>1448.19372</ele>
        <time>2022-04-23T05:35:12.050Z</time>
      </trkpt>
      <trkpt lat="45.1091" lon="2.6831">
        <ele>1454.523618</ele>
        <time>2022-04-23T05:35:43.805Z</time>
      </trkpt>
      <trkpt lat="45.10907" lon="2.68302">
        <ele>1455.3189</ele>
        <time>2022-04-23T05:35:50.879Z</time>
      </trkpt>
      <trkpt lat="45.10915" lon="2.68294">
        <ele>1456.474263</ele>
        <time>2022-04-23T05:35:57.487Z</time>
      </trkpt>
      <trkpt lat="45.10979" lon="2.68325">
        <ele>1465.503431</ele>
        <time>2022-04-23T05:36:43.454Z</time>
      </trkpt>
      <trkpt lat="45.10999" lon="2.68335">
        <ele>1468.365677</ele>
        <time>2022-04-23T05:36:54.632Z</time>
      </trkpt>
      <trkpt lat="45.11043" lon="2.68372">
        <ele>1475.220865</ele>
        <time>2022-04-23T05:37:33.410Z</time>
      </trkpt>
      <trkpt lat="45.11083" lon="2.68387">
        <ele>1480.708346</ele>
        <time>2022-04-23T05:37:59.329Z</time>
      </trkpt>
      <trkpt lat="45.11102" lon="2.68381">
        <ele>1483.507834</ele>
        <time>2022-04-23T05:38:14.195Z</time>
      </trkpt>
      <trkpt lat="45.11128" lon="2.68362">
        <ele>1487.872669</ele>
        <time>2022-04-23T05:38:37.445Z</time>
      </trkpt>
      <trkpt lat="45.11152" lon="2.68287">
        <ele>1496.387086</ele>
        <time>2022-04-23T05:39:22.892Z</time>
      </trkpt>
      <trkpt lat="45.11153" lon="2.68272">
        <ele>1497.927693</ele>
        <time>2022-04-23T05:39:30.758Z</time>
      </trkpt>
      <trkpt lat="45.11145" lon="2.68233">
        <ele>1502.099131</ele>
        <time>2022-04-23T05:39:48.876Z</time>
      </trkpt>
      <trkpt lat="45.11147" lon="2.68217">
        <ele>1503.806088</ele>
        <time>2022-04-23T05:39:57.645Z</time>
      </trkpt>
      <trkpt lat="45.11163" lon="2.68201">
        <ele>1506.630712</ele>
        <time>2022-04-23T05:40:09.991Z</time>
      </trkpt>
      <trkpt lat="45.11188" lon="2.68191">
        <ele>1510.793106</ele>
        <time>2022-04-23T05:40:29.267Z</time>
      </trkpt>
      <trkpt lat="45.11194" lon="2.68173">
        <ele>1513.087691</ele>
        <time>2022-04-23T05:40:40.280Z</time>
      </trkpt>
      <trkpt lat="45.11195" lon="2.68147">
        <ele>1516.147352</ele>
        <time>2022-04-23T05:40:56.705Z</time>
      </trkpt>
      <trkpt lat="45.11189" lon="2.681">
        <ele>1521.640939</ele>
        <time>2022-04-23T05:41:27.326Z</time>
      </trkpt>
      <trkpt lat="45.11214" lon="2.68043">
        <ele>1529.351444</ele>
        <time>2022-04-23T05:42:06.731Z</time>
      </trkpt>
      <trkpt lat="45.11218" lon="2.68022">
        <ele>1531.888809</ele>
        <time>2022-04-23T05:42:18.685Z</time>
      </trkpt>
      <trkpt lat="45.1121" lon="2.67952">
        <ele>1539.491424</ele>
        <time>2022-04-23T05:42:59.207Z</time>
      </trkpt>
      <trkpt lat="45.11189" lon="2.67918">
        <ele>1543.65484</ele>
        <time>2022-04-23T05:43:23.581Z</time>
      </trkpt>
      <trkpt lat="45.11178" lon="2.6788">
        <ele>1547.4578</ele>
        <time>2022-04-23T05:43:44.186Z</time>
      </trkpt>
      <trkpt lat="45.1118" lon="2.67822">
        <ele>1552.858711</ele>
        <time>2022-04-23T05:44:14.269Z</time>
      </trkpt>
      <trkpt lat="45.11182" lon="2.67753">
        <ele>1559.295959</ele>
        <time>2022-04-23T05:44:44.528Z</time>
      </trkpt>
      <trkpt lat="45.11191" lon="2.67672">
        <ele>1563.707912</ele>
        <time>2022-04-23T05:45:10.765Z</time>
      </trkpt>
      <trkpt lat="45.11245" lon="2.67546">
        <ele>1570.381682</ele>
        <time>2022-04-23T05:45:49.712Z</time>
      </trkpt>
      <trkpt lat="45.1126" lon="2.67484">
        <ele>1572.856039</ele>
        <time>2022-04-23T05:46:06.226Z</time>
      </trkpt>
      <trkpt lat="45.11251" lon="2.67495">
        <ele>1573.292633</ele>
        <time>2022-04-23T05:46:10.681Z</time>
      </trkpt>
      <trkpt lat="45.11248" lon="2.67506">
        <ele>1573.629476</ele>
        <time>2022-04-23T05:46:14.378Z</time>
      </trkpt>
      <trkpt lat="45.11251" lon="2.67495">
        <ele>1573.966318</ele>
        <time>2022-04-23T05:46:18.408Z</time>
      </trkpt>
      <trkpt lat="45.1126" lon="2.67484">
        <ele>1574.402913</ele>
        <time>2022-04-23T05:46:24.164Z</time>
      </trkpt>
      <trkpt lat="45.11335" lon="2.67286">
        <ele>1579.134133</ele>
        <time>2022-04-23T05:47:10.201Z</time>
      </trkpt>
      <trkpt lat="45.11374" lon="2.67229">
        <ele>1579.134133</ele>
        <time>2022-04-23T05:47:20.509Z</time>
      </trkpt>
      <trkpt lat="45.11406" lon="2.67195">
        <ele>1579.134133</ele>
        <time>2022-04-23T05:47:26.360Z</time>
      </trkpt>
      <trkpt lat="45.11411" lon="2.67181">
        <ele>1579.134133</ele>
        <time>2022-04-23T05:47:27.733Z</time>
      </trkpt>
      <trkpt lat="45.1141" lon="2.67175">
        <ele>1579.134133</ele>
        <time>2022-04-23T05:47:28.412Z</time>
      </trkpt>
      <trkpt lat="45.11435" lon="2.67152">
        <ele>1579.134133</ele>
        <time>2022-04-23T05:47:32.324Z</time>
      </trkpt>
    </trkseg>
  </trk>
</gpx>